<?xml version="1.0" encoding="UTF-8" standalone="no" ?>
<gpx xmlns="http://www.topografix.com/GPX/1/1" xmlns:xsi="http://www.w3.org/2001/XMLSchema-instance" xsi:schemaLocation="http://www.topografix.com/GPX/1/1 http://www.topografix.com/GPX/1/1/gpx.xsd" version="1.1" creator="VisuGPX - https://www.visugpx.com">
  <metadata>
    <name>St Sorlin-Riverie</name>
    <desc><![CDATA[Très jolie rando offrant un superbe panorama !]]></desc>
  </metadata>
  <trk>
    <name><![CDATA[St Sorlin-Riverie_1]]></name>
    <trkseg>
      <trkpt lat="45.62082" lon="4.63965">
        <ele>497.7</ele>
        <time>2012-11-07T08:03:37Z</time>
      </trkpt>
      <trkpt lat="45.62082" lon="4.63965">
        <ele>496</ele>
        <time>2012-11-07T08:03:37Z</time>
      </trkpt>
      <trkpt lat="45.62081" lon="4.63964">
        <ele>496</ele>
        <time>2012-11-07T08:03:38Z</time>
      </trkpt>
      <trkpt lat="45.62078" lon="4.63965">
        <ele>496</ele>
        <time>2012-11-07T08:03:39Z</time>
      </trkpt>
      <trkpt lat="45.62076" lon="4.63965">
        <ele>496</ele>
        <time>2012-11-07T08:03:40Z</time>
      </trkpt>
      <trkpt lat="45.62073" lon="4.63965">
        <ele>496</ele>
        <time>2012-11-07T08:03:41Z</time>
      </trkpt>
      <trkpt lat="45.6207" lon="4.63966">
        <ele>496</ele>
        <time>2012-11-07T08:03:42Z</time>
      </trkpt>
      <trkpt lat="45.62068" lon="4.63966">
        <ele>495</ele>
        <time>2012-11-07T08:03:43Z</time>
      </trkpt>
      <trkpt lat="45.62065" lon="4.63965">
        <ele>495</ele>
        <time>2012-11-07T08:03:45Z</time>
      </trkpt>
      <trkpt lat="45.62061" lon="4.63963">
        <ele>496</ele>
        <time>2012-11-07T08:03:48Z</time>
      </trkpt>
      <trkpt lat="45.62056" lon="4.63961">
        <ele>495</ele>
        <time>2012-11-07T08:03:51Z</time>
      </trkpt>
      <trkpt lat="45.62054" lon="4.6396">
        <ele>496</ele>
        <time>2012-11-07T08:03:53Z</time>
      </trkpt>
      <trkpt lat="45.62051" lon="4.6396">
        <ele>497</ele>
        <time>2012-11-07T08:03:55Z</time>
      </trkpt>
      <trkpt lat="45.62048" lon="4.6396">
        <ele>497</ele>
        <time>2012-11-07T08:03:57Z</time>
      </trkpt>
      <trkpt lat="45.62046" lon="4.63961">
        <ele>498</ele>
        <time>2012-11-07T08:04:04Z</time>
      </trkpt>
      <trkpt lat="45.62045" lon="4.63959">
        <ele>498</ele>
        <time>2012-11-07T08:04:05Z</time>
      </trkpt>
      <trkpt lat="45.62043" lon="4.63957">
        <ele>497</ele>
        <time>2012-11-07T08:04:06Z</time>
      </trkpt>
      <trkpt lat="45.62042" lon="4.63956">
        <ele>496</ele>
        <time>2012-11-07T08:04:07Z</time>
      </trkpt>
      <trkpt lat="45.62035" lon="4.6395">
        <ele>498</ele>
        <time>2012-11-07T08:04:11Z</time>
      </trkpt>
      <trkpt lat="45.62033" lon="4.63947">
        <ele>498</ele>
        <time>2012-11-07T08:04:12Z</time>
      </trkpt>
      <trkpt lat="45.62031" lon="4.63944">
        <ele>494</ele>
        <time>2012-11-07T08:04:13Z</time>
      </trkpt>
      <trkpt lat="45.62021" lon="4.6393">
        <ele>493</ele>
        <time>2012-11-07T08:04:21Z</time>
      </trkpt>
      <trkpt lat="45.62019" lon="4.63927">
        <ele>492</ele>
        <time>2012-11-07T08:04:24Z</time>
      </trkpt>
      <trkpt lat="45.62017" lon="4.63925">
        <ele>492</ele>
        <time>2012-11-07T08:04:26Z</time>
      </trkpt>
      <trkpt lat="45.62015" lon="4.63924">
        <ele>490</ele>
        <time>2012-11-07T08:04:28Z</time>
      </trkpt>
      <trkpt lat="45.62012" lon="4.63922">
        <ele>490</ele>
        <time>2012-11-07T08:04:30Z</time>
      </trkpt>
      <trkpt lat="45.62009" lon="4.6392">
        <ele>488</ele>
        <time>2012-11-07T08:04:32Z</time>
      </trkpt>
      <trkpt lat="45.62006" lon="4.63918">
        <ele>488</ele>
        <time>2012-11-07T08:04:34Z</time>
      </trkpt>
      <trkpt lat="45.61996" lon="4.63909">
        <ele>489</ele>
        <time>2012-11-07T08:04:42Z</time>
      </trkpt>
      <trkpt lat="45.61991" lon="4.63907">
        <ele>488</ele>
        <time>2012-11-07T08:04:47Z</time>
      </trkpt>
      <trkpt lat="45.61988" lon="4.63905">
        <ele>489</ele>
        <time>2012-11-07T08:04:49Z</time>
      </trkpt>
      <trkpt lat="45.61986" lon="4.63903">
        <ele>490</ele>
        <time>2012-11-07T08:04:51Z</time>
      </trkpt>
      <trkpt lat="45.61983" lon="4.639">
        <ele>490</ele>
        <time>2012-11-07T08:04:54Z</time>
      </trkpt>
      <trkpt lat="45.61981" lon="4.63898">
        <ele>489</ele>
        <time>2012-11-07T08:04:56Z</time>
      </trkpt>
      <trkpt lat="45.61976" lon="4.63893">
        <ele>488</ele>
        <time>2012-11-07T08:05:01Z</time>
      </trkpt>
      <trkpt lat="45.61974" lon="4.63894">
        <ele>488</ele>
        <time>2012-11-07T08:05:03Z</time>
      </trkpt>
      <trkpt lat="45.61971" lon="4.63894">
        <ele>489</ele>
        <time>2012-11-07T08:05:05Z</time>
      </trkpt>
      <trkpt lat="45.61969" lon="4.63894">
        <ele>490</ele>
        <time>2012-11-07T08:05:07Z</time>
      </trkpt>
      <trkpt lat="45.61966" lon="4.63893">
        <ele>487</ele>
        <time>2012-11-07T08:05:09Z</time>
      </trkpt>
      <trkpt lat="45.61961" lon="4.63892">
        <ele>488</ele>
        <time>2012-11-07T08:05:12Z</time>
      </trkpt>
      <trkpt lat="45.61949" lon="4.63888">
        <ele>489</ele>
        <time>2012-11-07T08:05:19Z</time>
      </trkpt>
      <trkpt lat="45.61945" lon="4.63887">
        <ele>487</ele>
        <time>2012-11-07T08:05:22Z</time>
      </trkpt>
      <trkpt lat="45.61942" lon="4.63887">
        <ele>487</ele>
        <time>2012-11-07T08:05:24Z</time>
      </trkpt>
      <trkpt lat="45.61939" lon="4.63886">
        <ele>486</ele>
        <time>2012-11-07T08:05:26Z</time>
      </trkpt>
      <trkpt lat="45.61934" lon="4.63885">
        <ele>485</ele>
        <time>2012-11-07T08:05:30Z</time>
      </trkpt>
      <trkpt lat="45.61931" lon="4.63883">
        <ele>485</ele>
        <time>2012-11-07T08:05:32Z</time>
      </trkpt>
      <trkpt lat="45.61927" lon="4.6388">
        <ele>485</ele>
        <time>2012-11-07T08:05:34Z</time>
      </trkpt>
      <trkpt lat="45.61925" lon="4.63878">
        <ele>484</ele>
        <time>2012-11-07T08:05:36Z</time>
      </trkpt>
      <trkpt lat="45.61923" lon="4.63876">
        <ele>485</ele>
        <time>2012-11-07T08:05:38Z</time>
      </trkpt>
      <trkpt lat="45.6192" lon="4.63875">
        <ele>484</ele>
        <time>2012-11-07T08:05:40Z</time>
      </trkpt>
      <trkpt lat="45.61916" lon="4.63872">
        <ele>484</ele>
        <time>2012-11-07T08:05:43Z</time>
      </trkpt>
      <trkpt lat="45.61914" lon="4.63872">
        <ele>484</ele>
        <time>2012-11-07T08:05:45Z</time>
      </trkpt>
      <trkpt lat="45.61911" lon="4.63871">
        <ele>484</ele>
        <time>2012-11-07T08:05:47Z</time>
      </trkpt>
      <trkpt lat="45.61908" lon="4.63869">
        <ele>484</ele>
        <time>2012-11-07T08:05:49Z</time>
      </trkpt>
      <trkpt lat="45.61903" lon="4.63868">
        <ele>483</ele>
        <time>2012-11-07T08:05:53Z</time>
      </trkpt>
      <trkpt lat="45.619" lon="4.63867">
        <ele>484</ele>
        <time>2012-11-07T08:05:55Z</time>
      </trkpt>
      <trkpt lat="45.61898" lon="4.63866">
        <ele>484</ele>
        <time>2012-11-07T08:05:56Z</time>
      </trkpt>
      <trkpt lat="45.61896" lon="4.63865">
        <ele>483</ele>
        <time>2012-11-07T08:05:57Z</time>
      </trkpt>
      <trkpt lat="45.61894" lon="4.63864">
        <ele>483</ele>
        <time>2012-11-07T08:05:58Z</time>
      </trkpt>
      <trkpt lat="45.61891" lon="4.63863">
        <ele>484</ele>
        <time>2012-11-07T08:06:00Z</time>
      </trkpt>
      <trkpt lat="45.61888" lon="4.63861">
        <ele>483</ele>
        <time>2012-11-07T08:06:02Z</time>
      </trkpt>
      <trkpt lat="45.61885" lon="4.6386">
        <ele>484</ele>
        <time>2012-11-07T08:06:04Z</time>
      </trkpt>
      <trkpt lat="45.61883" lon="4.63858">
        <ele>485</ele>
        <time>2012-11-07T08:06:06Z</time>
      </trkpt>
      <trkpt lat="45.6188" lon="4.63857">
        <ele>485</ele>
        <time>2012-11-07T08:06:08Z</time>
      </trkpt>
      <trkpt lat="45.61875" lon="4.63854">
        <ele>484</ele>
        <time>2012-11-07T08:06:11Z</time>
      </trkpt>
      <trkpt lat="45.61872" lon="4.63852">
        <ele>484</ele>
        <time>2012-11-07T08:06:13Z</time>
      </trkpt>
      <trkpt lat="45.61866" lon="4.63847">
        <ele>485</ele>
        <time>2012-11-07T08:06:18Z</time>
      </trkpt>
      <trkpt lat="45.61864" lon="4.63844">
        <ele>485</ele>
        <time>2012-11-07T08:06:20Z</time>
      </trkpt>
      <trkpt lat="45.61862" lon="4.63842">
        <ele>486</ele>
        <time>2012-11-07T08:06:22Z</time>
      </trkpt>
      <trkpt lat="45.61856" lon="4.63839">
        <ele>486</ele>
        <time>2012-11-07T08:06:26Z</time>
      </trkpt>
      <trkpt lat="45.61848" lon="4.63836">
        <ele>486</ele>
        <time>2012-11-07T08:06:31Z</time>
      </trkpt>
      <trkpt lat="45.61844" lon="4.63834">
        <ele>486</ele>
        <time>2012-11-07T08:06:34Z</time>
      </trkpt>
      <trkpt lat="45.61841" lon="4.63834">
        <ele>482</ele>
        <time>2012-11-07T08:06:35Z</time>
      </trkpt>
      <trkpt lat="45.61839" lon="4.63833">
        <ele>482</ele>
        <time>2012-11-07T08:06:36Z</time>
      </trkpt>
      <trkpt lat="45.61837" lon="4.63832">
        <ele>482</ele>
        <time>2012-11-07T08:06:37Z</time>
      </trkpt>
      <trkpt lat="45.61835" lon="4.63831">
        <ele>482</ele>
        <time>2012-11-07T08:06:38Z</time>
      </trkpt>
      <trkpt lat="45.61833" lon="4.63831">
        <ele>482</ele>
        <time>2012-11-07T08:06:39Z</time>
      </trkpt>
      <trkpt lat="45.61831" lon="4.63829">
        <ele>482</ele>
        <time>2012-11-07T08:06:41Z</time>
      </trkpt>
      <trkpt lat="45.61826" lon="4.63826">
        <ele>482</ele>
        <time>2012-11-07T08:06:46Z</time>
      </trkpt>
      <trkpt lat="45.61824" lon="4.63823">
        <ele>482</ele>
        <time>2012-11-07T08:06:48Z</time>
      </trkpt>
      <trkpt lat="45.61822" lon="4.63822">
        <ele>481</ele>
        <time>2012-11-07T08:06:49Z</time>
      </trkpt>
      <trkpt lat="45.6182" lon="4.6382">
        <ele>482</ele>
        <time>2012-11-07T08:06:50Z</time>
      </trkpt>
      <trkpt lat="45.61819" lon="4.63819">
        <ele>480</ele>
        <time>2012-11-07T08:06:51Z</time>
      </trkpt>
      <trkpt lat="45.61816" lon="4.63816">
        <ele>480</ele>
        <time>2012-11-07T08:06:53Z</time>
      </trkpt>
      <trkpt lat="45.61814" lon="4.63814">
        <ele>481</ele>
        <time>2012-11-07T08:06:55Z</time>
      </trkpt>
      <trkpt lat="45.61811" lon="4.63813">
        <ele>482</ele>
        <time>2012-11-07T08:06:57Z</time>
      </trkpt>
      <trkpt lat="45.61808" lon="4.63812">
        <ele>482</ele>
        <time>2012-11-07T08:06:59Z</time>
      </trkpt>
      <trkpt lat="45.61804" lon="4.63812">
        <ele>483</ele>
        <time>2012-11-07T08:07:03Z</time>
      </trkpt>
      <trkpt lat="45.61801" lon="4.63811">
        <ele>482</ele>
        <time>2012-11-07T08:07:04Z</time>
      </trkpt>
      <trkpt lat="45.61798" lon="4.6381">
        <ele>484</ele>
        <time>2012-11-07T08:07:05Z</time>
      </trkpt>
      <trkpt lat="45.61795" lon="4.63809">
        <ele>483</ele>
        <time>2012-11-07T08:07:06Z</time>
      </trkpt>
      <trkpt lat="45.61792" lon="4.63807">
        <ele>483</ele>
        <time>2012-11-07T08:07:07Z</time>
      </trkpt>
      <trkpt lat="45.6179" lon="4.63805">
        <ele>484</ele>
        <time>2012-11-07T08:07:08Z</time>
      </trkpt>
      <trkpt lat="45.61788" lon="4.63803">
        <ele>483</ele>
        <time>2012-11-07T08:07:09Z</time>
      </trkpt>
      <trkpt lat="45.61786" lon="4.63802">
        <ele>483</ele>
        <time>2012-11-07T08:07:10Z</time>
      </trkpt>
      <trkpt lat="45.61783" lon="4.63801">
        <ele>482</ele>
        <time>2012-11-07T08:07:12Z</time>
      </trkpt>
      <trkpt lat="45.61781" lon="4.63801">
        <ele>483</ele>
        <time>2012-11-07T08:07:14Z</time>
      </trkpt>
      <trkpt lat="45.6178" lon="4.63799">
        <ele>483</ele>
        <time>2012-11-07T08:07:17Z</time>
      </trkpt>
      <trkpt lat="45.61779" lon="4.63796">
        <ele>482</ele>
        <time>2012-11-07T08:07:19Z</time>
      </trkpt>
      <trkpt lat="45.61777" lon="4.63793">
        <ele>482</ele>
        <time>2012-11-07T08:07:21Z</time>
      </trkpt>
      <trkpt lat="45.61772" lon="4.63787">
        <ele>483</ele>
        <time>2012-11-07T08:07:24Z</time>
      </trkpt>
      <trkpt lat="45.6177" lon="4.63786">
        <ele>483</ele>
        <time>2012-11-07T08:07:25Z</time>
      </trkpt>
      <trkpt lat="45.61765" lon="4.63781">
        <ele>480</ele>
        <time>2012-11-07T08:07:30Z</time>
      </trkpt>
      <trkpt lat="45.61763" lon="4.63778">
        <ele>480</ele>
        <time>2012-11-07T08:07:32Z</time>
      </trkpt>
      <trkpt lat="45.61761" lon="4.63775">
        <ele>479</ele>
        <time>2012-11-07T08:07:34Z</time>
      </trkpt>
      <trkpt lat="45.6176" lon="4.63771">
        <ele>480</ele>
        <time>2012-11-07T08:07:36Z</time>
      </trkpt>
      <trkpt lat="45.61759" lon="4.63768">
        <ele>480</ele>
        <time>2012-11-07T08:07:38Z</time>
      </trkpt>
      <trkpt lat="45.61757" lon="4.63763">
        <ele>481</ele>
        <time>2012-11-07T08:07:41Z</time>
      </trkpt>
      <trkpt lat="45.61758" lon="4.63762">
        <ele>481</ele>
        <time>2012-11-07T08:07:45Z</time>
      </trkpt>
      <trkpt lat="45.61758" lon="4.63762">
        <ele>481</ele>
        <time>2012-11-07T08:07:56Z</time>
      </trkpt>
      <trkpt lat="45.61753" lon="4.63754">
        <ele>483</ele>
        <time>2012-11-07T08:07:58Z</time>
      </trkpt>
      <trkpt lat="45.61752" lon="4.63751">
        <ele>482</ele>
        <time>2012-11-07T08:07:59Z</time>
      </trkpt>
      <trkpt lat="45.61752" lon="4.63749">
        <ele>482</ele>
        <time>2012-11-07T08:08:00Z</time>
      </trkpt>
      <trkpt lat="45.61747" lon="4.63728">
        <ele>483</ele>
        <time>2012-11-07T08:08:09Z</time>
      </trkpt>
      <trkpt lat="45.61745" lon="4.63717">
        <ele>484</ele>
        <time>2012-11-07T08:08:14Z</time>
      </trkpt>
      <trkpt lat="45.61743" lon="4.63706">
        <ele>484</ele>
        <time>2012-11-07T08:08:19Z</time>
      </trkpt>
      <trkpt lat="45.61742" lon="4.63703">
        <ele>485</ele>
        <time>2012-11-07T08:08:21Z</time>
      </trkpt>
      <trkpt lat="45.61741" lon="4.63699">
        <ele>485</ele>
        <time>2012-11-07T08:08:23Z</time>
      </trkpt>
      <trkpt lat="45.61741" lon="4.63696">
        <ele>485</ele>
        <time>2012-11-07T08:08:24Z</time>
      </trkpt>
      <trkpt lat="45.6174" lon="4.63692">
        <ele>485</ele>
        <time>2012-11-07T08:08:26Z</time>
      </trkpt>
      <trkpt lat="45.61739" lon="4.63688">
        <ele>486</ele>
        <time>2012-11-07T08:08:28Z</time>
      </trkpt>
      <trkpt lat="45.61738" lon="4.63684">
        <ele>486</ele>
        <time>2012-11-07T08:08:30Z</time>
      </trkpt>
      <trkpt lat="45.61737" lon="4.63681">
        <ele>485</ele>
        <time>2012-11-07T08:08:32Z</time>
      </trkpt>
      <trkpt lat="45.61736" lon="4.63677">
        <ele>486</ele>
        <time>2012-11-07T08:08:34Z</time>
      </trkpt>
      <trkpt lat="45.61736" lon="4.63674">
        <ele>487</ele>
        <time>2012-11-07T08:08:36Z</time>
      </trkpt>
      <trkpt lat="45.61735" lon="4.63669">
        <ele>486</ele>
        <time>2012-11-07T08:08:38Z</time>
      </trkpt>
      <trkpt lat="45.61734" lon="4.63665">
        <ele>486</ele>
        <time>2012-11-07T08:08:40Z</time>
      </trkpt>
      <trkpt lat="45.61733" lon="4.63663">
        <ele>486</ele>
        <time>2012-11-07T08:08:41Z</time>
      </trkpt>
      <trkpt lat="45.61732" lon="4.63661">
        <ele>486</ele>
        <time>2012-11-07T08:08:42Z</time>
      </trkpt>
      <trkpt lat="45.61731" lon="4.63658">
        <ele>486</ele>
        <time>2012-11-07T08:08:43Z</time>
      </trkpt>
      <trkpt lat="45.61729" lon="4.63654">
        <ele>486</ele>
        <time>2012-11-07T08:08:46Z</time>
      </trkpt>
      <trkpt lat="45.61727" lon="4.63652">
        <ele>485</ele>
        <time>2012-11-07T08:08:48Z</time>
      </trkpt>
      <trkpt lat="45.61727" lon="4.63648">
        <ele>484</ele>
        <time>2012-11-07T08:08:50Z</time>
      </trkpt>
      <trkpt lat="45.61726" lon="4.63642">
        <ele>486</ele>
        <time>2012-11-07T08:08:53Z</time>
      </trkpt>
      <trkpt lat="45.61725" lon="4.63636">
        <ele>486</ele>
        <time>2012-11-07T08:08:56Z</time>
      </trkpt>
      <trkpt lat="45.61725" lon="4.63632">
        <ele>486</ele>
        <time>2012-11-07T08:08:58Z</time>
      </trkpt>
      <trkpt lat="45.61723" lon="4.63621">
        <ele>487</ele>
        <time>2012-11-07T08:09:03Z</time>
      </trkpt>
      <trkpt lat="45.61723" lon="4.63618">
        <ele>487</ele>
        <time>2012-11-07T08:09:05Z</time>
      </trkpt>
      <trkpt lat="45.61721" lon="4.63614">
        <ele>488</ele>
        <time>2012-11-07T08:09:07Z</time>
      </trkpt>
      <trkpt lat="45.61721" lon="4.63611">
        <ele>488</ele>
        <time>2012-11-07T08:09:09Z</time>
      </trkpt>
      <trkpt lat="45.6172" lon="4.63607">
        <ele>489</ele>
        <time>2012-11-07T08:09:11Z</time>
      </trkpt>
      <trkpt lat="45.61718" lon="4.63602">
        <ele>490</ele>
        <time>2012-11-07T08:09:13Z</time>
      </trkpt>
      <trkpt lat="45.61717" lon="4.63599">
        <ele>490</ele>
        <time>2012-11-07T08:09:15Z</time>
      </trkpt>
      <trkpt lat="45.61716" lon="4.63596">
        <ele>491</ele>
        <time>2012-11-07T08:09:17Z</time>
      </trkpt>
      <trkpt lat="45.61714" lon="4.63592">
        <ele>492</ele>
        <time>2012-11-07T08:09:19Z</time>
      </trkpt>
      <trkpt lat="45.61713" lon="4.63589">
        <ele>492</ele>
        <time>2012-11-07T08:09:21Z</time>
      </trkpt>
      <trkpt lat="45.61711" lon="4.63586">
        <ele>492</ele>
        <time>2012-11-07T08:09:23Z</time>
      </trkpt>
      <trkpt lat="45.61706" lon="4.63581">
        <ele>493</ele>
        <time>2012-11-07T08:09:27Z</time>
      </trkpt>
      <trkpt lat="45.61704" lon="4.63577">
        <ele>493</ele>
        <time>2012-11-07T08:09:29Z</time>
      </trkpt>
      <trkpt lat="45.61703" lon="4.63573">
        <ele>493</ele>
        <time>2012-11-07T08:09:31Z</time>
      </trkpt>
      <trkpt lat="45.61701" lon="4.63568">
        <ele>493</ele>
        <time>2012-11-07T08:09:34Z</time>
      </trkpt>
      <trkpt lat="45.617" lon="4.63564">
        <ele>493</ele>
        <time>2012-11-07T08:09:36Z</time>
      </trkpt>
      <trkpt lat="45.61699" lon="4.6356">
        <ele>492</ele>
        <time>2012-11-07T08:09:38Z</time>
      </trkpt>
      <trkpt lat="45.61697" lon="4.63557">
        <ele>491</ele>
        <time>2012-11-07T08:09:40Z</time>
      </trkpt>
      <trkpt lat="45.61695" lon="4.63553">
        <ele>491</ele>
        <time>2012-11-07T08:09:42Z</time>
      </trkpt>
      <trkpt lat="45.61692" lon="4.63549">
        <ele>491</ele>
        <time>2012-11-07T08:09:45Z</time>
      </trkpt>
      <trkpt lat="45.61689" lon="4.63543">
        <ele>489</ele>
        <time>2012-11-07T08:09:48Z</time>
      </trkpt>
      <trkpt lat="45.61688" lon="4.6354">
        <ele>488</ele>
        <time>2012-11-07T08:09:50Z</time>
      </trkpt>
      <trkpt lat="45.61687" lon="4.63537">
        <ele>489</ele>
        <time>2012-11-07T08:09:52Z</time>
      </trkpt>
      <trkpt lat="45.61687" lon="4.63531">
        <ele>490</ele>
        <time>2012-11-07T08:09:55Z</time>
      </trkpt>
      <trkpt lat="45.61686" lon="4.63528">
        <ele>490</ele>
        <time>2012-11-07T08:09:57Z</time>
      </trkpt>
      <trkpt lat="45.61684" lon="4.63523">
        <ele>489</ele>
        <time>2012-11-07T08:09:59Z</time>
      </trkpt>
      <trkpt lat="45.61683" lon="4.63521">
        <ele>489</ele>
        <time>2012-11-07T08:10:00Z</time>
      </trkpt>
      <trkpt lat="45.61682" lon="4.63519">
        <ele>488</ele>
        <time>2012-11-07T08:10:01Z</time>
      </trkpt>
      <trkpt lat="45.61675" lon="4.63501">
        <ele>485</ele>
        <time>2012-11-07T08:10:10Z</time>
      </trkpt>
      <trkpt lat="45.61671" lon="4.63491">
        <ele>484</ele>
        <time>2012-11-07T08:10:15Z</time>
      </trkpt>
      <trkpt lat="45.61669" lon="4.63487">
        <ele>484</ele>
        <time>2012-11-07T08:10:17Z</time>
      </trkpt>
      <trkpt lat="45.61661" lon="4.6347">
        <ele>482</ele>
        <time>2012-11-07T08:10:26Z</time>
      </trkpt>
      <trkpt lat="45.6166" lon="4.63466">
        <ele>482</ele>
        <time>2012-11-07T08:10:28Z</time>
      </trkpt>
      <trkpt lat="45.61658" lon="4.63462">
        <ele>481</ele>
        <time>2012-11-07T08:10:31Z</time>
      </trkpt>
      <trkpt lat="45.61656" lon="4.63458">
        <ele>482</ele>
        <time>2012-11-07T08:10:33Z</time>
      </trkpt>
      <trkpt lat="45.61654" lon="4.63453">
        <ele>482</ele>
        <time>2012-11-07T08:10:35Z</time>
      </trkpt>
      <trkpt lat="45.61652" lon="4.63446">
        <ele>483</ele>
        <time>2012-11-07T08:10:37Z</time>
      </trkpt>
      <trkpt lat="45.61651" lon="4.63443">
        <ele>483</ele>
        <time>2012-11-07T08:10:38Z</time>
      </trkpt>
      <trkpt lat="45.6165" lon="4.6344">
        <ele>483</ele>
        <time>2012-11-07T08:10:39Z</time>
      </trkpt>
      <trkpt lat="45.61649" lon="4.63437">
        <ele>482</ele>
        <time>2012-11-07T08:10:40Z</time>
      </trkpt>
      <trkpt lat="45.61647" lon="4.63432">
        <ele>481</ele>
        <time>2012-11-07T08:10:42Z</time>
      </trkpt>
      <trkpt lat="45.61645" lon="4.63428">
        <ele>480</ele>
        <time>2012-11-07T08:10:44Z</time>
      </trkpt>
      <trkpt lat="45.61642" lon="4.63424">
        <ele>479</ele>
        <time>2012-11-07T08:10:46Z</time>
      </trkpt>
      <trkpt lat="45.6164" lon="4.6342">
        <ele>480</ele>
        <time>2012-11-07T08:10:48Z</time>
      </trkpt>
      <trkpt lat="45.61639" lon="4.63418">
        <ele>480</ele>
        <time>2012-11-07T08:10:49Z</time>
      </trkpt>
      <trkpt lat="45.61641" lon="4.63419">
        <ele>478</ele>
        <time>2012-11-07T08:10:51Z</time>
      </trkpt>
      <trkpt lat="45.61643" lon="4.63417">
        <ele>483</ele>
        <time>2012-11-07T08:10:54Z</time>
      </trkpt>
      <trkpt lat="45.61642" lon="4.63414">
        <ele>483</ele>
        <time>2012-11-07T08:10:55Z</time>
      </trkpt>
      <trkpt lat="45.61641" lon="4.6341">
        <ele>480</ele>
        <time>2012-11-07T08:10:57Z</time>
      </trkpt>
      <trkpt lat="45.61639" lon="4.63408">
        <ele>479</ele>
        <time>2012-11-07T08:10:58Z</time>
      </trkpt>
      <trkpt lat="45.61638" lon="4.63405">
        <ele>480</ele>
        <time>2012-11-07T08:10:59Z</time>
      </trkpt>
      <trkpt lat="45.61633" lon="4.63396">
        <ele>479</ele>
        <time>2012-11-07T08:11:03Z</time>
      </trkpt>
      <trkpt lat="45.6163" lon="4.63387">
        <ele>488</ele>
        <time>2012-11-07T08:11:04Z</time>
      </trkpt>
      <trkpt lat="45.61628" lon="4.63383">
        <ele>492</ele>
        <time>2012-11-07T08:11:05Z</time>
      </trkpt>
      <trkpt lat="45.61626" lon="4.63381">
        <ele>490</ele>
        <time>2012-11-07T08:11:09Z</time>
      </trkpt>
      <trkpt lat="45.61625" lon="4.63378">
        <ele>488</ele>
        <time>2012-11-07T08:11:10Z</time>
      </trkpt>
      <trkpt lat="45.61624" lon="4.63376">
        <ele>489</ele>
        <time>2012-11-07T08:11:14Z</time>
      </trkpt>
      <trkpt lat="45.61622" lon="4.63375">
        <ele>489</ele>
        <time>2012-11-07T08:11:16Z</time>
      </trkpt>
      <trkpt lat="45.6162" lon="4.63373">
        <ele>487</ele>
        <time>2012-11-07T08:11:19Z</time>
      </trkpt>
      <trkpt lat="45.61618" lon="4.63369">
        <ele>486</ele>
        <time>2012-11-07T08:11:21Z</time>
      </trkpt>
      <trkpt lat="45.61616" lon="4.63367">
        <ele>486</ele>
        <time>2012-11-07T08:11:22Z</time>
      </trkpt>
      <trkpt lat="45.61613" lon="4.63363">
        <ele>483</ele>
        <time>2012-11-07T08:11:24Z</time>
      </trkpt>
      <trkpt lat="45.61611" lon="4.63358">
        <ele>481</ele>
        <time>2012-11-07T08:11:26Z</time>
      </trkpt>
      <trkpt lat="45.61609" lon="4.63356">
        <ele>481</ele>
        <time>2012-11-07T08:11:27Z</time>
      </trkpt>
      <trkpt lat="45.61607" lon="4.63351">
        <ele>481</ele>
        <time>2012-11-07T08:11:29Z</time>
      </trkpt>
      <trkpt lat="45.61602" lon="4.63344">
        <ele>479</ele>
        <time>2012-11-07T08:11:34Z</time>
      </trkpt>
      <trkpt lat="45.616" lon="4.63342">
        <ele>479</ele>
        <time>2012-11-07T08:11:35Z</time>
      </trkpt>
      <trkpt lat="45.61599" lon="4.6334">
        <ele>478</ele>
        <time>2012-11-07T08:11:36Z</time>
      </trkpt>
      <trkpt lat="45.61592" lon="4.63335">
        <ele>477</ele>
        <time>2012-11-07T08:11:41Z</time>
      </trkpt>
      <trkpt lat="45.6159" lon="4.63332">
        <ele>477</ele>
        <time>2012-11-07T08:11:43Z</time>
      </trkpt>
      <trkpt lat="45.61588" lon="4.6333">
        <ele>476</ele>
        <time>2012-11-07T08:11:45Z</time>
      </trkpt>
      <trkpt lat="45.61584" lon="4.63325">
        <ele>475</ele>
        <time>2012-11-07T08:11:49Z</time>
      </trkpt>
      <trkpt lat="45.61583" lon="4.63324">
        <ele>475</ele>
        <time>2012-11-07T08:11:51Z</time>
      </trkpt>
      <trkpt lat="45.61581" lon="4.6332">
        <ele>475</ele>
        <time>2012-11-07T08:11:54Z</time>
      </trkpt>
      <trkpt lat="45.61576" lon="4.63315">
        <ele>473</ele>
        <time>2012-11-07T08:11:58Z</time>
      </trkpt>
      <trkpt lat="45.61571" lon="4.63311">
        <ele>471</ele>
        <time>2012-11-07T08:12:01Z</time>
      </trkpt>
      <trkpt lat="45.61569" lon="4.63308">
        <ele>471</ele>
        <time>2012-11-07T08:12:03Z</time>
      </trkpt>
      <trkpt lat="45.61566" lon="4.63305">
        <ele>472</ele>
        <time>2012-11-07T08:12:05Z</time>
      </trkpt>
      <trkpt lat="45.61561" lon="4.63299">
        <ele>472</ele>
        <time>2012-11-07T08:12:09Z</time>
      </trkpt>
      <trkpt lat="45.61549" lon="4.63289">
        <ele>473</ele>
        <time>2012-11-07T08:12:18Z</time>
      </trkpt>
      <trkpt lat="45.61547" lon="4.63286">
        <ele>473</ele>
        <time>2012-11-07T08:12:20Z</time>
      </trkpt>
      <trkpt lat="45.61544" lon="4.63284">
        <ele>474</ele>
        <time>2012-11-07T08:12:22Z</time>
      </trkpt>
      <trkpt lat="45.61541" lon="4.63282">
        <ele>475</ele>
        <time>2012-11-07T08:12:24Z</time>
      </trkpt>
      <trkpt lat="45.61537" lon="4.63279">
        <ele>476</ele>
        <time>2012-11-07T08:12:27Z</time>
      </trkpt>
      <trkpt lat="45.61534" lon="4.63278">
        <ele>476</ele>
        <time>2012-11-07T08:12:30Z</time>
      </trkpt>
      <trkpt lat="45.61531" lon="4.63275">
        <ele>476</ele>
        <time>2012-11-07T08:12:33Z</time>
      </trkpt>
      <trkpt lat="45.61528" lon="4.63272">
        <ele>476</ele>
        <time>2012-11-07T08:12:35Z</time>
      </trkpt>
      <trkpt lat="45.61525" lon="4.63269">
        <ele>476</ele>
        <time>2012-11-07T08:12:37Z</time>
      </trkpt>
      <trkpt lat="45.61522" lon="4.63268">
        <ele>475</ele>
        <time>2012-11-07T08:12:39Z</time>
      </trkpt>
      <trkpt lat="45.61519" lon="4.63266">
        <ele>475</ele>
        <time>2012-11-07T08:12:41Z</time>
      </trkpt>
      <trkpt lat="45.61516" lon="4.63263">
        <ele>475</ele>
        <time>2012-11-07T08:12:43Z</time>
      </trkpt>
      <trkpt lat="45.61514" lon="4.63261">
        <ele>475</ele>
        <time>2012-11-07T08:12:45Z</time>
      </trkpt>
      <trkpt lat="45.61512" lon="4.63258">
        <ele>475</ele>
        <time>2012-11-07T08:12:47Z</time>
      </trkpt>
      <trkpt lat="45.6151" lon="4.63256">
        <ele>475</ele>
        <time>2012-11-07T08:12:49Z</time>
      </trkpt>
      <trkpt lat="45.61507" lon="4.63253">
        <ele>475</ele>
        <time>2012-11-07T08:12:52Z</time>
      </trkpt>
      <trkpt lat="45.61504" lon="4.63251">
        <ele>475</ele>
        <time>2012-11-07T08:12:54Z</time>
      </trkpt>
      <trkpt lat="45.61502" lon="4.63248">
        <ele>475</ele>
        <time>2012-11-07T08:12:56Z</time>
      </trkpt>
      <trkpt lat="45.615" lon="4.63245">
        <ele>475</ele>
        <time>2012-11-07T08:12:58Z</time>
      </trkpt>
      <trkpt lat="45.61498" lon="4.6324">
        <ele>474</ele>
        <time>2012-11-07T08:13:01Z</time>
      </trkpt>
      <trkpt lat="45.61489" lon="4.63233">
        <ele>475</ele>
        <time>2012-11-07T08:13:06Z</time>
      </trkpt>
      <trkpt lat="45.61489" lon="4.6323">
        <ele>475</ele>
        <time>2012-11-07T08:13:07Z</time>
      </trkpt>
      <trkpt lat="45.61486" lon="4.63224">
        <ele>477</ele>
        <time>2012-11-07T08:13:10Z</time>
      </trkpt>
      <trkpt lat="45.61485" lon="4.63219">
        <ele>477</ele>
        <time>2012-11-07T08:13:13Z</time>
      </trkpt>
      <trkpt lat="45.61485" lon="4.63214">
        <ele>476</ele>
        <time>2012-11-07T08:13:16Z</time>
      </trkpt>
      <trkpt lat="45.61485" lon="4.63211">
        <ele>477</ele>
        <time>2012-11-07T08:13:18Z</time>
      </trkpt>
      <trkpt lat="45.61484" lon="4.63207">
        <ele>476</ele>
        <time>2012-11-07T08:13:20Z</time>
      </trkpt>
      <trkpt lat="45.61482" lon="4.63203">
        <ele>476</ele>
        <time>2012-11-07T08:13:22Z</time>
      </trkpt>
      <trkpt lat="45.61481" lon="4.63201">
        <ele>477</ele>
        <time>2012-11-07T08:13:23Z</time>
      </trkpt>
      <trkpt lat="45.6148" lon="4.63197">
        <ele>476</ele>
        <time>2012-11-07T08:13:25Z</time>
      </trkpt>
      <trkpt lat="45.61479" lon="4.63194">
        <ele>476</ele>
        <time>2012-11-07T08:13:26Z</time>
      </trkpt>
      <trkpt lat="45.61478" lon="4.63192">
        <ele>476</ele>
        <time>2012-11-07T08:13:27Z</time>
      </trkpt>
      <trkpt lat="45.61475" lon="4.63186">
        <ele>474</ele>
        <time>2012-11-07T08:13:30Z</time>
      </trkpt>
      <trkpt lat="45.61473" lon="4.63181">
        <ele>471</ele>
        <time>2012-11-07T08:13:33Z</time>
      </trkpt>
      <trkpt lat="45.61471" lon="4.63176">
        <ele>472</ele>
        <time>2012-11-07T08:13:37Z</time>
      </trkpt>
      <trkpt lat="45.61465" lon="4.63169">
        <ele>473</ele>
        <time>2012-11-07T08:13:41Z</time>
      </trkpt>
      <trkpt lat="45.61464" lon="4.63167">
        <ele>473</ele>
        <time>2012-11-07T08:13:42Z</time>
      </trkpt>
      <trkpt lat="45.61462" lon="4.63164">
        <ele>474</ele>
        <time>2012-11-07T08:13:44Z</time>
      </trkpt>
      <trkpt lat="45.6146" lon="4.63161">
        <ele>475</ele>
        <time>2012-11-07T08:13:46Z</time>
      </trkpt>
      <trkpt lat="45.61453" lon="4.63143">
        <ele>469</ele>
        <time>2012-11-07T08:13:55Z</time>
      </trkpt>
      <trkpt lat="45.6145" lon="4.63133">
        <ele>470</ele>
        <time>2012-11-07T08:13:59Z</time>
      </trkpt>
      <trkpt lat="45.61449" lon="4.63129">
        <ele>470</ele>
        <time>2012-11-07T08:14:01Z</time>
      </trkpt>
      <trkpt lat="45.61448" lon="4.63125">
        <ele>471</ele>
        <time>2012-11-07T08:14:03Z</time>
      </trkpt>
      <trkpt lat="45.61446" lon="4.63123">
        <ele>470</ele>
        <time>2012-11-07T08:14:05Z</time>
      </trkpt>
      <trkpt lat="45.61445" lon="4.6312">
        <ele>471</ele>
        <time>2012-11-07T08:14:08Z</time>
      </trkpt>
      <trkpt lat="45.61444" lon="4.63118">
        <ele>471</ele>
        <time>2012-11-07T08:14:10Z</time>
      </trkpt>
      <trkpt lat="45.61442" lon="4.63116">
        <ele>470</ele>
        <time>2012-11-07T08:14:12Z</time>
      </trkpt>
      <trkpt lat="45.6144" lon="4.63113">
        <ele>471</ele>
        <time>2012-11-07T08:14:14Z</time>
      </trkpt>
      <trkpt lat="45.61438" lon="4.6311">
        <ele>471</ele>
        <time>2012-11-07T08:14:16Z</time>
      </trkpt>
      <trkpt lat="45.61436" lon="4.63107">
        <ele>472</ele>
        <time>2012-11-07T08:14:18Z</time>
      </trkpt>
      <trkpt lat="45.61434" lon="4.63104">
        <ele>473</ele>
        <time>2012-11-07T08:14:20Z</time>
      </trkpt>
      <trkpt lat="45.61431" lon="4.63098">
        <ele>475</ele>
        <time>2012-11-07T08:14:23Z</time>
      </trkpt>
      <trkpt lat="45.6143" lon="4.63096">
        <ele>476</ele>
        <time>2012-11-07T08:14:24Z</time>
      </trkpt>
      <trkpt lat="45.61425" lon="4.6309">
        <ele>473</ele>
        <time>2012-11-07T08:14:27Z</time>
      </trkpt>
      <trkpt lat="45.61424" lon="4.63088">
        <ele>473</ele>
        <time>2012-11-07T08:14:28Z</time>
      </trkpt>
      <trkpt lat="45.61422" lon="4.63085">
        <ele>473</ele>
        <time>2012-11-07T08:14:30Z</time>
      </trkpt>
      <trkpt lat="45.6142" lon="4.63082">
        <ele>473</ele>
        <time>2012-11-07T08:14:32Z</time>
      </trkpt>
      <trkpt lat="45.61419" lon="4.63077">
        <ele>473</ele>
        <time>2012-11-07T08:14:36Z</time>
      </trkpt>
      <trkpt lat="45.61418" lon="4.63072">
        <ele>473</ele>
        <time>2012-11-07T08:14:38Z</time>
      </trkpt>
      <trkpt lat="45.61417" lon="4.6307">
        <ele>473</ele>
        <time>2012-11-07T08:14:39Z</time>
      </trkpt>
      <trkpt lat="45.61416" lon="4.63067">
        <ele>473</ele>
        <time>2012-11-07T08:14:40Z</time>
      </trkpt>
      <trkpt lat="45.61414" lon="4.63062">
        <ele>471</ele>
        <time>2012-11-07T08:14:42Z</time>
      </trkpt>
      <trkpt lat="45.61414" lon="4.6306">
        <ele>472</ele>
        <time>2012-11-07T08:14:43Z</time>
      </trkpt>
      <trkpt lat="45.61413" lon="4.63055">
        <ele>473</ele>
        <time>2012-11-07T08:14:45Z</time>
      </trkpt>
      <trkpt lat="45.61412" lon="4.63052">
        <ele>472</ele>
        <time>2012-11-07T08:14:46Z</time>
      </trkpt>
      <trkpt lat="45.61412" lon="4.63047">
        <ele>472</ele>
        <time>2012-11-07T08:14:48Z</time>
      </trkpt>
      <trkpt lat="45.61412" lon="4.63044">
        <ele>473</ele>
        <time>2012-11-07T08:14:49Z</time>
      </trkpt>
      <trkpt lat="45.61411" lon="4.63039">
        <ele>474</ele>
        <time>2012-11-07T08:14:51Z</time>
      </trkpt>
      <trkpt lat="45.61411" lon="4.63035">
        <ele>474</ele>
        <time>2012-11-07T08:14:53Z</time>
      </trkpt>
      <trkpt lat="45.6141" lon="4.63031">
        <ele>476</ele>
        <time>2012-11-07T08:14:55Z</time>
      </trkpt>
      <trkpt lat="45.6141" lon="4.63027">
        <ele>475</ele>
        <time>2012-11-07T08:14:57Z</time>
      </trkpt>
      <trkpt lat="45.61409" lon="4.63023">
        <ele>474</ele>
        <time>2012-11-07T08:14:59Z</time>
      </trkpt>
      <trkpt lat="45.61408" lon="4.63018">
        <ele>474</ele>
        <time>2012-11-07T08:15:01Z</time>
      </trkpt>
      <trkpt lat="45.61407" lon="4.63016">
        <ele>474</ele>
        <time>2012-11-07T08:15:02Z</time>
      </trkpt>
      <trkpt lat="45.61406" lon="4.63012">
        <ele>474</ele>
        <time>2012-11-07T08:15:04Z</time>
      </trkpt>
      <trkpt lat="45.61404" lon="4.63009">
        <ele>474</ele>
        <time>2012-11-07T08:15:06Z</time>
      </trkpt>
      <trkpt lat="45.61404" lon="4.63005">
        <ele>472</ele>
        <time>2012-11-07T08:15:08Z</time>
      </trkpt>
      <trkpt lat="45.61403" lon="4.63">
        <ele>472</ele>
        <time>2012-11-07T08:15:10Z</time>
      </trkpt>
      <trkpt lat="45.61403" lon="4.62997">
        <ele>472</ele>
        <time>2012-11-07T08:15:11Z</time>
      </trkpt>
      <trkpt lat="45.61403" lon="4.62995">
        <ele>472</ele>
        <time>2012-11-07T08:15:12Z</time>
      </trkpt>
      <trkpt lat="45.61403" lon="4.62992">
        <ele>473</ele>
        <time>2012-11-07T08:15:13Z</time>
      </trkpt>
      <trkpt lat="45.61403" lon="4.62988">
        <ele>472</ele>
        <time>2012-11-07T08:15:15Z</time>
      </trkpt>
      <trkpt lat="45.61404" lon="4.62985">
        <ele>472</ele>
        <time>2012-11-07T08:15:17Z</time>
      </trkpt>
      <trkpt lat="45.61404" lon="4.62978">
        <ele>471</ele>
        <time>2012-11-07T08:15:21Z</time>
      </trkpt>
      <trkpt lat="45.61405" lon="4.62974">
        <ele>471</ele>
        <time>2012-11-07T08:15:24Z</time>
      </trkpt>
      <trkpt lat="45.61405" lon="4.62971">
        <ele>472</ele>
        <time>2012-11-07T08:15:26Z</time>
      </trkpt>
      <trkpt lat="45.61405" lon="4.62967">
        <ele>472</ele>
        <time>2012-11-07T08:15:28Z</time>
      </trkpt>
      <trkpt lat="45.61402" lon="4.62957">
        <ele>472</ele>
        <time>2012-11-07T08:15:33Z</time>
      </trkpt>
      <trkpt lat="45.614" lon="4.62935">
        <ele>472</ele>
        <time>2012-11-07T08:15:42Z</time>
      </trkpt>
      <trkpt lat="45.614" lon="4.62932">
        <ele>471</ele>
        <time>2012-11-07T08:15:44Z</time>
      </trkpt>
      <trkpt lat="45.61401" lon="4.6293">
        <ele>470</ele>
        <time>2012-11-07T08:15:47Z</time>
      </trkpt>
      <trkpt lat="45.61402" lon="4.62926">
        <ele>469</ele>
        <time>2012-11-07T08:15:49Z</time>
      </trkpt>
      <trkpt lat="45.61403" lon="4.62923">
        <ele>469</ele>
        <time>2012-11-07T08:15:51Z</time>
      </trkpt>
      <trkpt lat="45.61404" lon="4.6292">
        <ele>468</ele>
        <time>2012-11-07T08:15:53Z</time>
      </trkpt>
      <trkpt lat="45.61405" lon="4.62917">
        <ele>468</ele>
        <time>2012-11-07T08:15:54Z</time>
      </trkpt>
      <trkpt lat="45.61405" lon="4.62914">
        <ele>468</ele>
        <time>2012-11-07T08:15:55Z</time>
      </trkpt>
      <trkpt lat="45.61405" lon="4.62908">
        <ele>469</ele>
        <time>2012-11-07T08:15:57Z</time>
      </trkpt>
      <trkpt lat="45.61406" lon="4.62905">
        <ele>470</ele>
        <time>2012-11-07T08:15:58Z</time>
      </trkpt>
      <trkpt lat="45.61406" lon="4.629">
        <ele>466</ele>
        <time>2012-11-07T08:16:01Z</time>
      </trkpt>
      <trkpt lat="45.61405" lon="4.62896">
        <ele>467</ele>
        <time>2012-11-07T08:16:03Z</time>
      </trkpt>
      <trkpt lat="45.61404" lon="4.62894">
        <ele>468</ele>
        <time>2012-11-07T08:16:04Z</time>
      </trkpt>
      <trkpt lat="45.61403" lon="4.6289">
        <ele>468</ele>
        <time>2012-11-07T08:16:06Z</time>
      </trkpt>
      <trkpt lat="45.61401" lon="4.62886">
        <ele>465</ele>
        <time>2012-11-07T08:16:08Z</time>
      </trkpt>
      <trkpt lat="45.61399" lon="4.62883">
        <ele>465</ele>
        <time>2012-11-07T08:16:10Z</time>
      </trkpt>
      <trkpt lat="45.61398" lon="4.62882">
        <ele>465</ele>
        <time>2012-11-07T08:16:11Z</time>
      </trkpt>
      <trkpt lat="45.61396" lon="4.62881">
        <ele>467</ele>
        <time>2012-11-07T08:16:12Z</time>
      </trkpt>
      <trkpt lat="45.61393" lon="4.62879">
        <ele>468</ele>
        <time>2012-11-07T08:16:14Z</time>
      </trkpt>
      <trkpt lat="45.61389" lon="4.62878">
        <ele>469</ele>
        <time>2012-11-07T08:16:16Z</time>
      </trkpt>
      <trkpt lat="45.61388" lon="4.62878">
        <ele>470</ele>
        <time>2012-11-07T08:16:17Z</time>
      </trkpt>
      <trkpt lat="45.61384" lon="4.62877">
        <ele>471</ele>
        <time>2012-11-07T08:16:19Z</time>
      </trkpt>
      <trkpt lat="45.61381" lon="4.62877">
        <ele>471</ele>
        <time>2012-11-07T08:16:21Z</time>
      </trkpt>
      <trkpt lat="45.61378" lon="4.62877">
        <ele>471</ele>
        <time>2012-11-07T08:16:23Z</time>
      </trkpt>
      <trkpt lat="45.61371" lon="4.62879">
        <ele>471</ele>
        <time>2012-11-07T08:16:27Z</time>
      </trkpt>
      <trkpt lat="45.61369" lon="4.62879">
        <ele>472</ele>
        <time>2012-11-07T08:16:29Z</time>
      </trkpt>
      <trkpt lat="45.61366" lon="4.62878">
        <ele>474</ele>
        <time>2012-11-07T08:16:31Z</time>
      </trkpt>
      <trkpt lat="45.61363" lon="4.62876">
        <ele>474</ele>
        <time>2012-11-07T08:16:33Z</time>
      </trkpt>
      <trkpt lat="45.61361" lon="4.62873">
        <ele>476</ele>
        <time>2012-11-07T08:16:35Z</time>
      </trkpt>
      <trkpt lat="45.61359" lon="4.6287">
        <ele>477</ele>
        <time>2012-11-07T08:16:37Z</time>
      </trkpt>
      <trkpt lat="45.61355" lon="4.62863">
        <ele>476</ele>
        <time>2012-11-07T08:16:42Z</time>
      </trkpt>
      <trkpt lat="45.61354" lon="4.6286">
        <ele>477</ele>
        <time>2012-11-07T08:16:44Z</time>
      </trkpt>
      <trkpt lat="45.61354" lon="4.62857">
        <ele>477</ele>
        <time>2012-11-07T08:16:46Z</time>
      </trkpt>
      <trkpt lat="45.61354" lon="4.62854">
        <ele>478</ele>
        <time>2012-11-07T08:16:48Z</time>
      </trkpt>
      <trkpt lat="45.61353" lon="4.62851">
        <ele>478</ele>
        <time>2012-11-07T08:16:50Z</time>
      </trkpt>
      <trkpt lat="45.61351" lon="4.62847">
        <ele>477</ele>
        <time>2012-11-07T08:16:52Z</time>
      </trkpt>
      <trkpt lat="45.61349" lon="4.62844">
        <ele>477</ele>
        <time>2012-11-07T08:16:54Z</time>
      </trkpt>
      <trkpt lat="45.61347" lon="4.6284">
        <ele>475</ele>
        <time>2012-11-07T08:16:57Z</time>
      </trkpt>
      <trkpt lat="45.61342" lon="4.62835">
        <ele>474</ele>
        <time>2012-11-07T08:17:00Z</time>
      </trkpt>
      <trkpt lat="45.6134" lon="4.62834">
        <ele>474</ele>
        <time>2012-11-07T08:17:01Z</time>
      </trkpt>
      <trkpt lat="45.61339" lon="4.62832">
        <ele>474</ele>
        <time>2012-11-07T08:17:02Z</time>
      </trkpt>
      <trkpt lat="45.61336" lon="4.62827">
        <ele>470</ele>
        <time>2012-11-07T08:17:05Z</time>
      </trkpt>
      <trkpt lat="45.61334" lon="4.62824">
        <ele>470</ele>
        <time>2012-11-07T08:17:07Z</time>
      </trkpt>
      <trkpt lat="45.61332" lon="4.62818">
        <ele>471</ele>
        <time>2012-11-07T08:17:10Z</time>
      </trkpt>
      <trkpt lat="45.61331" lon="4.62814">
        <ele>470</ele>
        <time>2012-11-07T08:17:12Z</time>
      </trkpt>
      <trkpt lat="45.6133" lon="4.62811">
        <ele>469</ele>
        <time>2012-11-07T08:17:14Z</time>
      </trkpt>
      <trkpt lat="45.61328" lon="4.62808">
        <ele>470</ele>
        <time>2012-11-07T08:17:15Z</time>
      </trkpt>
      <trkpt lat="45.61327" lon="4.62805">
        <ele>471</ele>
        <time>2012-11-07T08:17:16Z</time>
      </trkpt>
      <trkpt lat="45.61325" lon="4.62802">
        <ele>472</ele>
        <time>2012-11-07T08:17:17Z</time>
      </trkpt>
      <trkpt lat="45.61322" lon="4.62797">
        <ele>472</ele>
        <time>2012-11-07T08:17:20Z</time>
      </trkpt>
      <trkpt lat="45.61321" lon="4.62793">
        <ele>473</ele>
        <time>2012-11-07T08:17:23Z</time>
      </trkpt>
      <trkpt lat="45.61321" lon="4.6279">
        <ele>473</ele>
        <time>2012-11-07T08:17:25Z</time>
      </trkpt>
      <trkpt lat="45.61319" lon="4.62787">
        <ele>472</ele>
        <time>2012-11-07T08:17:27Z</time>
      </trkpt>
      <trkpt lat="45.61317" lon="4.62783">
        <ele>472</ele>
        <time>2012-11-07T08:17:29Z</time>
      </trkpt>
      <trkpt lat="45.6131" lon="4.62767">
        <ele>472</ele>
        <time>2012-11-07T08:17:38Z</time>
      </trkpt>
      <trkpt lat="45.61308" lon="4.62762">
        <ele>473</ele>
        <time>2012-11-07T08:17:41Z</time>
      </trkpt>
      <trkpt lat="45.61306" lon="4.62756">
        <ele>471</ele>
        <time>2012-11-07T08:17:45Z</time>
      </trkpt>
      <trkpt lat="45.61305" lon="4.6275">
        <ele>472</ele>
        <time>2012-11-07T08:17:49Z</time>
      </trkpt>
      <trkpt lat="45.61304" lon="4.62746">
        <ele>473</ele>
        <time>2012-11-07T08:17:51Z</time>
      </trkpt>
      <trkpt lat="45.61303" lon="4.62742">
        <ele>474</ele>
        <time>2012-11-07T08:17:53Z</time>
      </trkpt>
      <trkpt lat="45.61302" lon="4.6274">
        <ele>474</ele>
        <time>2012-11-07T08:17:54Z</time>
      </trkpt>
      <trkpt lat="45.61301" lon="4.62738">
        <ele>474</ele>
        <time>2012-11-07T08:17:55Z</time>
      </trkpt>
      <trkpt lat="45.61298" lon="4.62732">
        <ele>472</ele>
        <time>2012-11-07T08:17:58Z</time>
      </trkpt>
      <trkpt lat="45.61297" lon="4.62728">
        <ele>471</ele>
        <time>2012-11-07T08:18:00Z</time>
      </trkpt>
      <trkpt lat="45.61297" lon="4.62724">
        <ele>471</ele>
        <time>2012-11-07T08:18:02Z</time>
      </trkpt>
      <trkpt lat="45.61295" lon="4.6271">
        <ele>473</ele>
        <time>2012-11-07T08:18:07Z</time>
      </trkpt>
      <trkpt lat="45.61294" lon="4.62704">
        <ele>476</ele>
        <time>2012-11-07T08:18:09Z</time>
      </trkpt>
      <trkpt lat="45.61292" lon="4.62702">
        <ele>476</ele>
        <time>2012-11-07T08:18:11Z</time>
      </trkpt>
      <trkpt lat="45.61291" lon="4.627">
        <ele>477</ele>
        <time>2012-11-07T08:18:13Z</time>
      </trkpt>
      <trkpt lat="45.61293" lon="4.62698">
        <ele>478</ele>
        <time>2012-11-07T08:18:16Z</time>
      </trkpt>
      <trkpt lat="45.613" lon="4.62697">
        <ele>477</ele>
        <time>2012-11-07T08:18:20Z</time>
      </trkpt>
      <trkpt lat="45.61301" lon="4.62695">
        <ele>478</ele>
        <time>2012-11-07T08:18:22Z</time>
      </trkpt>
      <trkpt lat="45.61301" lon="4.62692">
        <ele>479</ele>
        <time>2012-11-07T08:18:23Z</time>
      </trkpt>
      <trkpt lat="45.613" lon="4.62687">
        <ele>479</ele>
        <time>2012-11-07T08:18:25Z</time>
      </trkpt>
      <trkpt lat="45.61298" lon="4.6268">
        <ele>480</ele>
        <time>2012-11-07T08:18:27Z</time>
      </trkpt>
      <trkpt lat="45.61298" lon="4.62677">
        <ele>480</ele>
        <time>2012-11-07T08:18:28Z</time>
      </trkpt>
      <trkpt lat="45.61298" lon="4.62673">
        <ele>480</ele>
        <time>2012-11-07T08:18:29Z</time>
      </trkpt>
      <trkpt lat="45.61299" lon="4.62669">
        <ele>479</ele>
        <time>2012-11-07T08:18:30Z</time>
      </trkpt>
      <trkpt lat="45.61299" lon="4.62666">
        <ele>480</ele>
        <time>2012-11-07T08:18:31Z</time>
      </trkpt>
      <trkpt lat="45.61299" lon="4.62661">
        <ele>480</ele>
        <time>2012-11-07T08:18:33Z</time>
      </trkpt>
      <trkpt lat="45.61298" lon="4.62659">
        <ele>480</ele>
        <time>2012-11-07T08:18:34Z</time>
      </trkpt>
      <trkpt lat="45.61297" lon="4.62656">
        <ele>480</ele>
        <time>2012-11-07T08:18:35Z</time>
      </trkpt>
      <trkpt lat="45.61297" lon="4.62653">
        <ele>480</ele>
        <time>2012-11-07T08:18:36Z</time>
      </trkpt>
      <trkpt lat="45.61296" lon="4.62649">
        <ele>480</ele>
        <time>2012-11-07T08:18:38Z</time>
      </trkpt>
      <trkpt lat="45.61295" lon="4.62646">
        <ele>480</ele>
        <time>2012-11-07T08:18:39Z</time>
      </trkpt>
      <trkpt lat="45.61295" lon="4.62642">
        <ele>481</ele>
        <time>2012-11-07T08:18:42Z</time>
      </trkpt>
      <trkpt lat="45.61295" lon="4.62638">
        <ele>482</ele>
        <time>2012-11-07T08:18:46Z</time>
      </trkpt>
      <trkpt lat="45.61296" lon="4.62633">
        <ele>480</ele>
        <time>2012-11-07T08:18:48Z</time>
      </trkpt>
      <trkpt lat="45.61296" lon="4.6263">
        <ele>481</ele>
        <time>2012-11-07T08:18:49Z</time>
      </trkpt>
      <trkpt lat="45.61296" lon="4.62628">
        <ele>480</ele>
        <time>2012-11-07T08:18:50Z</time>
      </trkpt>
      <trkpt lat="45.61295" lon="4.62624">
        <ele>480</ele>
        <time>2012-11-07T08:18:52Z</time>
      </trkpt>
      <trkpt lat="45.61295" lon="4.62621">
        <ele>480</ele>
        <time>2012-11-07T08:18:54Z</time>
      </trkpt>
      <trkpt lat="45.61298" lon="4.62619">
        <ele>480</ele>
        <time>2012-11-07T08:18:56Z</time>
      </trkpt>
      <trkpt lat="45.61302" lon="4.62616">
        <ele>479</ele>
        <time>2012-11-07T08:18:59Z</time>
      </trkpt>
      <trkpt lat="45.61303" lon="4.62613">
        <ele>480</ele>
        <time>2012-11-07T08:19:02Z</time>
      </trkpt>
      <trkpt lat="45.61302" lon="4.62609">
        <ele>480</ele>
        <time>2012-11-07T08:19:04Z</time>
      </trkpt>
      <trkpt lat="45.61301" lon="4.62601">
        <ele>480</ele>
        <time>2012-11-07T08:19:07Z</time>
      </trkpt>
      <trkpt lat="45.613" lon="4.62598">
        <ele>480</ele>
        <time>2012-11-07T08:19:08Z</time>
      </trkpt>
      <trkpt lat="45.613" lon="4.62595">
        <ele>481</ele>
        <time>2012-11-07T08:19:09Z</time>
      </trkpt>
      <trkpt lat="45.61299" lon="4.62586">
        <ele>480</ele>
        <time>2012-11-07T08:19:12Z</time>
      </trkpt>
      <trkpt lat="45.61299" lon="4.62583">
        <ele>481</ele>
        <time>2012-11-07T08:19:13Z</time>
      </trkpt>
      <trkpt lat="45.61298" lon="4.62573">
        <ele>480</ele>
        <time>2012-11-07T08:19:16Z</time>
      </trkpt>
      <trkpt lat="45.61297" lon="4.62571">
        <ele>477</ele>
        <time>2012-11-07T08:19:17Z</time>
      </trkpt>
      <trkpt lat="45.61296" lon="4.62569">
        <ele>477</ele>
        <time>2012-11-07T08:19:18Z</time>
      </trkpt>
      <trkpt lat="45.61295" lon="4.62564">
        <ele>477</ele>
        <time>2012-11-07T08:19:20Z</time>
      </trkpt>
      <trkpt lat="45.61295" lon="4.62559">
        <ele>478</ele>
        <time>2012-11-07T08:19:22Z</time>
      </trkpt>
      <trkpt lat="45.61295" lon="4.62554">
        <ele>480</ele>
        <time>2012-11-07T08:19:24Z</time>
      </trkpt>
      <trkpt lat="45.61295" lon="4.62551">
        <ele>481</ele>
        <time>2012-11-07T08:19:25Z</time>
      </trkpt>
      <trkpt lat="45.61295" lon="4.62549">
        <ele>481</ele>
        <time>2012-11-07T08:19:26Z</time>
      </trkpt>
      <trkpt lat="45.61296" lon="4.62544">
        <ele>483</ele>
        <time>2012-11-07T08:19:28Z</time>
      </trkpt>
      <trkpt lat="45.61297" lon="4.62539">
        <ele>483</ele>
        <time>2012-11-07T08:19:30Z</time>
      </trkpt>
      <trkpt lat="45.61297" lon="4.62535">
        <ele>483</ele>
        <time>2012-11-07T08:19:32Z</time>
      </trkpt>
      <trkpt lat="45.61298" lon="4.62532">
        <ele>484</ele>
        <time>2012-11-07T08:19:33Z</time>
      </trkpt>
      <trkpt lat="45.61298" lon="4.62529">
        <ele>484</ele>
        <time>2012-11-07T08:19:34Z</time>
      </trkpt>
      <trkpt lat="45.61299" lon="4.62525">
        <ele>485</ele>
        <time>2012-11-07T08:19:36Z</time>
      </trkpt>
      <trkpt lat="45.613" lon="4.6252">
        <ele>486</ele>
        <time>2012-11-07T08:19:38Z</time>
      </trkpt>
      <trkpt lat="45.61302" lon="4.62516">
        <ele>488</ele>
        <time>2012-11-07T08:19:40Z</time>
      </trkpt>
      <trkpt lat="45.61303" lon="4.62509">
        <ele>488</ele>
        <time>2012-11-07T08:19:43Z</time>
      </trkpt>
      <trkpt lat="45.61305" lon="4.62506">
        <ele>488</ele>
        <time>2012-11-07T08:19:45Z</time>
      </trkpt>
      <trkpt lat="45.61306" lon="4.62503">
        <ele>488</ele>
        <time>2012-11-07T08:19:48Z</time>
      </trkpt>
      <trkpt lat="45.61305" lon="4.62501">
        <ele>488</ele>
        <time>2012-11-07T08:19:51Z</time>
      </trkpt>
      <trkpt lat="45.61304" lon="4.62497">
        <ele>489</ele>
        <time>2012-11-07T08:19:53Z</time>
      </trkpt>
      <trkpt lat="45.61304" lon="4.62494">
        <ele>489</ele>
        <time>2012-11-07T08:19:54Z</time>
      </trkpt>
      <trkpt lat="45.61305" lon="4.6249">
        <ele>489</ele>
        <time>2012-11-07T08:19:55Z</time>
      </trkpt>
      <trkpt lat="45.61305" lon="4.62487">
        <ele>489</ele>
        <time>2012-11-07T08:19:56Z</time>
      </trkpt>
      <trkpt lat="45.61306" lon="4.62483">
        <ele>490</ele>
        <time>2012-11-07T08:19:57Z</time>
      </trkpt>
      <trkpt lat="45.61307" lon="4.62479">
        <ele>489</ele>
        <time>2012-11-07T08:19:59Z</time>
      </trkpt>
      <trkpt lat="45.61309" lon="4.62479">
        <ele>489</ele>
        <time>2012-11-07T08:20:01Z</time>
      </trkpt>
      <trkpt lat="45.61311" lon="4.62477">
        <ele>490</ele>
        <time>2012-11-07T08:20:03Z</time>
      </trkpt>
      <trkpt lat="45.61312" lon="4.62473">
        <ele>490</ele>
        <time>2012-11-07T08:20:06Z</time>
      </trkpt>
      <trkpt lat="45.61311" lon="4.62468">
        <ele>490</ele>
        <time>2012-11-07T08:20:09Z</time>
      </trkpt>
      <trkpt lat="45.61312" lon="4.62463">
        <ele>489</ele>
        <time>2012-11-07T08:20:11Z</time>
      </trkpt>
      <trkpt lat="45.61312" lon="4.6246">
        <ele>490</ele>
        <time>2012-11-07T08:20:12Z</time>
      </trkpt>
      <trkpt lat="45.61313" lon="4.62457">
        <ele>490</ele>
        <time>2012-11-07T08:20:13Z</time>
      </trkpt>
      <trkpt lat="45.61313" lon="4.62444">
        <ele>491</ele>
        <time>2012-11-07T08:20:17Z</time>
      </trkpt>
      <trkpt lat="45.61314" lon="4.62436">
        <ele>490</ele>
        <time>2012-11-07T08:20:21Z</time>
      </trkpt>
      <trkpt lat="45.61315" lon="4.62433">
        <ele>491</ele>
        <time>2012-11-07T08:20:23Z</time>
      </trkpt>
      <trkpt lat="45.61317" lon="4.62428">
        <ele>491</ele>
        <time>2012-11-07T08:20:25Z</time>
      </trkpt>
      <trkpt lat="45.61319" lon="4.62425">
        <ele>492</ele>
        <time>2012-11-07T08:20:27Z</time>
      </trkpt>
      <trkpt lat="45.6132" lon="4.62422">
        <ele>492</ele>
        <time>2012-11-07T08:20:29Z</time>
      </trkpt>
      <trkpt lat="45.61321" lon="4.62419">
        <ele>492</ele>
        <time>2012-11-07T08:20:31Z</time>
      </trkpt>
      <trkpt lat="45.61322" lon="4.62416">
        <ele>492</ele>
        <time>2012-11-07T08:20:33Z</time>
      </trkpt>
      <trkpt lat="45.61322" lon="4.62409">
        <ele>494</ele>
        <time>2012-11-07T08:20:36Z</time>
      </trkpt>
      <trkpt lat="45.61323" lon="4.62407">
        <ele>493</ele>
        <time>2012-11-07T08:20:38Z</time>
      </trkpt>
      <trkpt lat="45.61326" lon="4.62398">
        <ele>494</ele>
        <time>2012-11-07T08:20:43Z</time>
      </trkpt>
      <trkpt lat="45.61325" lon="4.62395">
        <ele>493</ele>
        <time>2012-11-07T08:20:44Z</time>
      </trkpt>
      <trkpt lat="45.61325" lon="4.62391">
        <ele>491</ele>
        <time>2012-11-07T08:20:46Z</time>
      </trkpt>
      <trkpt lat="45.61323" lon="4.62388">
        <ele>492</ele>
        <time>2012-11-07T08:20:48Z</time>
      </trkpt>
      <trkpt lat="45.61322" lon="4.62384">
        <ele>493</ele>
        <time>2012-11-07T08:20:50Z</time>
      </trkpt>
      <trkpt lat="45.61321" lon="4.62381">
        <ele>494</ele>
        <time>2012-11-07T08:20:51Z</time>
      </trkpt>
      <trkpt lat="45.6132" lon="4.62378">
        <ele>495</ele>
        <time>2012-11-07T08:20:53Z</time>
      </trkpt>
      <trkpt lat="45.61318" lon="4.62376">
        <ele>494</ele>
        <time>2012-11-07T08:20:55Z</time>
      </trkpt>
      <trkpt lat="45.61316" lon="4.62375">
        <ele>494</ele>
        <time>2012-11-07T08:20:57Z</time>
      </trkpt>
      <trkpt lat="45.61313" lon="4.62373">
        <ele>496</ele>
        <time>2012-11-07T08:20:59Z</time>
      </trkpt>
      <trkpt lat="45.61312" lon="4.62371">
        <ele>496</ele>
        <time>2012-11-07T08:21:00Z</time>
      </trkpt>
      <trkpt lat="45.6131" lon="4.6237">
        <ele>496</ele>
        <time>2012-11-07T08:21:01Z</time>
      </trkpt>
      <trkpt lat="45.61308" lon="4.62369">
        <ele>496</ele>
        <time>2012-11-07T08:21:02Z</time>
      </trkpt>
      <trkpt lat="45.61305" lon="4.62366">
        <ele>495</ele>
        <time>2012-11-07T08:21:04Z</time>
      </trkpt>
      <trkpt lat="45.61298" lon="4.62361">
        <ele>498</ele>
        <time>2012-11-07T08:21:11Z</time>
      </trkpt>
      <trkpt lat="45.61295" lon="4.62359">
        <ele>500</ele>
        <time>2012-11-07T08:21:13Z</time>
      </trkpt>
      <trkpt lat="45.61293" lon="4.62359">
        <ele>501</ele>
        <time>2012-11-07T08:21:14Z</time>
      </trkpt>
      <trkpt lat="45.61291" lon="4.62357">
        <ele>500</ele>
        <time>2012-11-07T08:21:16Z</time>
      </trkpt>
      <trkpt lat="45.61288" lon="4.62355">
        <ele>500</ele>
        <time>2012-11-07T08:21:18Z</time>
      </trkpt>
      <trkpt lat="45.61285" lon="4.62353">
        <ele>499</ele>
        <time>2012-11-07T08:21:20Z</time>
      </trkpt>
      <trkpt lat="45.61282" lon="4.62351">
        <ele>498</ele>
        <time>2012-11-07T08:21:22Z</time>
      </trkpt>
      <trkpt lat="45.61279" lon="4.62349">
        <ele>499</ele>
        <time>2012-11-07T08:21:24Z</time>
      </trkpt>
      <trkpt lat="45.61276" lon="4.62347">
        <ele>499</ele>
        <time>2012-11-07T08:21:26Z</time>
      </trkpt>
      <trkpt lat="45.61267" lon="4.62341">
        <ele>499</ele>
        <time>2012-11-07T08:21:31Z</time>
      </trkpt>
      <trkpt lat="45.61265" lon="4.6234">
        <ele>499</ele>
        <time>2012-11-07T08:21:32Z</time>
      </trkpt>
      <trkpt lat="45.61263" lon="4.62339">
        <ele>499</ele>
        <time>2012-11-07T08:21:33Z</time>
      </trkpt>
      <trkpt lat="45.61261" lon="4.62338">
        <ele>499</ele>
        <time>2012-11-07T08:21:34Z</time>
      </trkpt>
      <trkpt lat="45.61258" lon="4.62336">
        <ele>500</ele>
        <time>2012-11-07T08:21:36Z</time>
      </trkpt>
      <trkpt lat="45.61256" lon="4.62332">
        <ele>500</ele>
        <time>2012-11-07T08:21:39Z</time>
      </trkpt>
      <trkpt lat="45.61252" lon="4.62327">
        <ele>498</ele>
        <time>2012-11-07T08:21:44Z</time>
      </trkpt>
      <trkpt lat="45.6125" lon="4.62323">
        <ele>498</ele>
        <time>2012-11-07T08:21:46Z</time>
      </trkpt>
      <trkpt lat="45.61249" lon="4.62321">
        <ele>497</ele>
        <time>2012-11-07T08:21:47Z</time>
      </trkpt>
      <trkpt lat="45.61245" lon="4.62316">
        <ele>495</ele>
        <time>2012-11-07T08:21:50Z</time>
      </trkpt>
      <trkpt lat="45.61244" lon="4.62313">
        <ele>497</ele>
        <time>2012-11-07T08:21:53Z</time>
      </trkpt>
      <trkpt lat="45.61242" lon="4.62311">
        <ele>497</ele>
        <time>2012-11-07T08:21:55Z</time>
      </trkpt>
      <trkpt lat="45.61234" lon="4.62304">
        <ele>494</ele>
        <time>2012-11-07T08:22:00Z</time>
      </trkpt>
      <trkpt lat="45.61231" lon="4.62298">
        <ele>494</ele>
        <time>2012-11-07T08:22:03Z</time>
      </trkpt>
      <trkpt lat="45.6123" lon="4.62295">
        <ele>494</ele>
        <time>2012-11-07T08:22:04Z</time>
      </trkpt>
      <trkpt lat="45.61228" lon="4.62293">
        <ele>494</ele>
        <time>2012-11-07T08:22:05Z</time>
      </trkpt>
      <trkpt lat="45.61227" lon="4.6229">
        <ele>495</ele>
        <time>2012-11-07T08:22:06Z</time>
      </trkpt>
      <trkpt lat="45.61225" lon="4.62286">
        <ele>495</ele>
        <time>2012-11-07T08:22:08Z</time>
      </trkpt>
      <trkpt lat="45.61224" lon="4.62283">
        <ele>497</ele>
        <time>2012-11-07T08:22:10Z</time>
      </trkpt>
      <trkpt lat="45.61223" lon="4.62281">
        <ele>497</ele>
        <time>2012-11-07T08:22:12Z</time>
      </trkpt>
      <trkpt lat="45.61221" lon="4.62279">
        <ele>498</ele>
        <time>2012-11-07T08:22:15Z</time>
      </trkpt>
      <trkpt lat="45.61219" lon="4.62277">
        <ele>500</ele>
        <time>2012-11-07T08:22:17Z</time>
      </trkpt>
      <trkpt lat="45.61217" lon="4.62275">
        <ele>501</ele>
        <time>2012-11-07T08:22:19Z</time>
      </trkpt>
      <trkpt lat="45.61216" lon="4.62273">
        <ele>502</ele>
        <time>2012-11-07T08:22:21Z</time>
      </trkpt>
      <trkpt lat="45.61214" lon="4.62272">
        <ele>502</ele>
        <time>2012-11-07T08:22:23Z</time>
      </trkpt>
      <trkpt lat="45.61212" lon="4.62271">
        <ele>502</ele>
        <time>2012-11-07T08:22:25Z</time>
      </trkpt>
      <trkpt lat="45.6121" lon="4.62269">
        <ele>501</ele>
        <time>2012-11-07T08:22:27Z</time>
      </trkpt>
      <trkpt lat="45.61208" lon="4.62267">
        <ele>501</ele>
        <time>2012-11-07T08:22:29Z</time>
      </trkpt>
      <trkpt lat="45.61206" lon="4.62264">
        <ele>501</ele>
        <time>2012-11-07T08:22:31Z</time>
      </trkpt>
      <trkpt lat="45.61205" lon="4.62261">
        <ele>502</ele>
        <time>2012-11-07T08:22:33Z</time>
      </trkpt>
      <trkpt lat="45.61204" lon="4.62259">
        <ele>502</ele>
        <time>2012-11-07T08:22:36Z</time>
      </trkpt>
      <trkpt lat="45.61203" lon="4.62255">
        <ele>505</ele>
        <time>2012-11-07T08:22:38Z</time>
      </trkpt>
      <trkpt lat="45.61201" lon="4.62251">
        <ele>503</ele>
        <time>2012-11-07T08:22:40Z</time>
      </trkpt>
      <trkpt lat="45.612" lon="4.62247">
        <ele>504</ele>
        <time>2012-11-07T08:22:42Z</time>
      </trkpt>
      <trkpt lat="45.61199" lon="4.62244">
        <ele>504</ele>
        <time>2012-11-07T08:22:44Z</time>
      </trkpt>
      <trkpt lat="45.61195" lon="4.62235">
        <ele>502</ele>
        <time>2012-11-07T08:22:49Z</time>
      </trkpt>
      <trkpt lat="45.61194" lon="4.62232">
        <ele>502</ele>
        <time>2012-11-07T08:22:51Z</time>
      </trkpt>
      <trkpt lat="45.61192" lon="4.62228">
        <ele>501</ele>
        <time>2012-11-07T08:22:53Z</time>
      </trkpt>
      <trkpt lat="45.61191" lon="4.62222">
        <ele>502</ele>
        <time>2012-11-07T08:22:56Z</time>
      </trkpt>
      <trkpt lat="45.6119" lon="4.62219">
        <ele>503</ele>
        <time>2012-11-07T08:22:58Z</time>
      </trkpt>
      <trkpt lat="45.6119" lon="4.62215">
        <ele>505</ele>
        <time>2012-11-07T08:23:00Z</time>
      </trkpt>
      <trkpt lat="45.61189" lon="4.6221">
        <ele>501</ele>
        <time>2012-11-07T08:23:02Z</time>
      </trkpt>
      <trkpt lat="45.61188" lon="4.62207">
        <ele>499</ele>
        <time>2012-11-07T08:23:03Z</time>
      </trkpt>
      <trkpt lat="45.61187" lon="4.62205">
        <ele>498</ele>
        <time>2012-11-07T08:23:04Z</time>
      </trkpt>
      <trkpt lat="45.61185" lon="4.62201">
        <ele>498</ele>
        <time>2012-11-07T08:23:05Z</time>
      </trkpt>
      <trkpt lat="45.61183" lon="4.62196">
        <ele>499</ele>
        <time>2012-11-07T08:23:07Z</time>
      </trkpt>
      <trkpt lat="45.61182" lon="4.62192">
        <ele>500</ele>
        <time>2012-11-07T08:23:09Z</time>
      </trkpt>
      <trkpt lat="45.61183" lon="4.62188">
        <ele>500</ele>
        <time>2012-11-07T08:23:12Z</time>
      </trkpt>
      <trkpt lat="45.61185" lon="4.62186">
        <ele>501</ele>
        <time>2012-11-07T08:23:15Z</time>
      </trkpt>
      <trkpt lat="45.61186" lon="4.62184">
        <ele>502</ele>
        <time>2012-11-07T08:23:17Z</time>
      </trkpt>
      <trkpt lat="45.61186" lon="4.62181">
        <ele>503</ele>
        <time>2012-11-07T08:23:19Z</time>
      </trkpt>
      <trkpt lat="45.61186" lon="4.62178">
        <ele>503</ele>
        <time>2012-11-07T08:23:20Z</time>
      </trkpt>
      <trkpt lat="45.61184" lon="4.62171">
        <ele>502</ele>
        <time>2012-11-07T08:23:23Z</time>
      </trkpt>
      <trkpt lat="45.61184" lon="4.62168">
        <ele>502</ele>
        <time>2012-11-07T08:23:24Z</time>
      </trkpt>
      <trkpt lat="45.61183" lon="4.62163">
        <ele>502</ele>
        <time>2012-11-07T08:23:26Z</time>
      </trkpt>
      <trkpt lat="45.61183" lon="4.6216">
        <ele>504</ele>
        <time>2012-11-07T08:23:28Z</time>
      </trkpt>
      <trkpt lat="45.61182" lon="4.62157">
        <ele>505</ele>
        <time>2012-11-07T08:23:30Z</time>
      </trkpt>
      <trkpt lat="45.61181" lon="4.62154">
        <ele>507</ele>
        <time>2012-11-07T08:23:32Z</time>
      </trkpt>
      <trkpt lat="45.61181" lon="4.62149">
        <ele>508</ele>
        <time>2012-11-07T08:23:35Z</time>
      </trkpt>
      <trkpt lat="45.61181" lon="4.62145">
        <ele>508</ele>
        <time>2012-11-07T08:23:37Z</time>
      </trkpt>
      <trkpt lat="45.61182" lon="4.62136">
        <ele>508</ele>
        <time>2012-11-07T08:23:40Z</time>
      </trkpt>
      <trkpt lat="45.61183" lon="4.6213">
        <ele>509</ele>
        <time>2012-11-07T08:23:44Z</time>
      </trkpt>
      <trkpt lat="45.61183" lon="4.62127">
        <ele>508</ele>
        <time>2012-11-07T08:23:46Z</time>
      </trkpt>
      <trkpt lat="45.61184" lon="4.62124">
        <ele>511</ele>
        <time>2012-11-07T08:23:48Z</time>
      </trkpt>
      <trkpt lat="45.61185" lon="4.62121">
        <ele>512</ele>
        <time>2012-11-07T08:23:51Z</time>
      </trkpt>
      <trkpt lat="45.61186" lon="4.62118">
        <ele>512</ele>
        <time>2012-11-07T08:23:53Z</time>
      </trkpt>
      <trkpt lat="45.61187" lon="4.62111">
        <ele>515</ele>
        <time>2012-11-07T08:23:57Z</time>
      </trkpt>
      <trkpt lat="45.61189" lon="4.62109">
        <ele>515</ele>
        <time>2012-11-07T08:23:59Z</time>
      </trkpt>
      <trkpt lat="45.61188" lon="4.62107">
        <ele>521</ele>
        <time>2012-11-07T08:24:07Z</time>
      </trkpt>
      <trkpt lat="45.61189" lon="4.62104">
        <ele>521</ele>
        <time>2012-11-07T08:24:09Z</time>
      </trkpt>
      <trkpt lat="45.61191" lon="4.62092">
        <ele>520</ele>
        <time>2012-11-07T08:24:14Z</time>
      </trkpt>
      <trkpt lat="45.61191" lon="4.62088">
        <ele>519</ele>
        <time>2012-11-07T08:24:15Z</time>
      </trkpt>
      <trkpt lat="45.61192" lon="4.62076">
        <ele>520</ele>
        <time>2012-11-07T08:24:21Z</time>
      </trkpt>
      <trkpt lat="45.61195" lon="4.62078">
        <ele>522</ele>
        <time>2012-11-07T08:24:25Z</time>
      </trkpt>
      <trkpt lat="45.61196" lon="4.62076">
        <ele>521</ele>
        <time>2012-11-07T08:24:31Z</time>
      </trkpt>
      <trkpt lat="45.61198" lon="4.62072">
        <ele>522</ele>
        <time>2012-11-07T08:24:33Z</time>
      </trkpt>
      <trkpt lat="45.61206" lon="4.62056">
        <ele>524</ele>
        <time>2012-11-07T08:24:39Z</time>
      </trkpt>
      <trkpt lat="45.61208" lon="4.62053">
        <ele>524</ele>
        <time>2012-11-07T08:24:40Z</time>
      </trkpt>
      <trkpt lat="45.61209" lon="4.62052">
        <ele>524</ele>
        <time>2012-11-07T08:24:41Z</time>
      </trkpt>
      <trkpt lat="45.61213" lon="4.62048">
        <ele>526</ele>
        <time>2012-11-07T08:24:44Z</time>
      </trkpt>
      <trkpt lat="45.61215" lon="4.62044">
        <ele>528</ele>
        <time>2012-11-07T08:24:46Z</time>
      </trkpt>
      <trkpt lat="45.61217" lon="4.62041">
        <ele>530</ele>
        <time>2012-11-07T08:24:48Z</time>
      </trkpt>
      <trkpt lat="45.6122" lon="4.62036">
        <ele>529</ele>
        <time>2012-11-07T08:24:51Z</time>
      </trkpt>
      <trkpt lat="45.61222" lon="4.62034">
        <ele>526</ele>
        <time>2012-11-07T08:24:53Z</time>
      </trkpt>
      <trkpt lat="45.61224" lon="4.62033">
        <ele>526</ele>
        <time>2012-11-07T08:24:55Z</time>
      </trkpt>
      <trkpt lat="45.61227" lon="4.62031">
        <ele>525</ele>
        <time>2012-11-07T08:24:58Z</time>
      </trkpt>
      <trkpt lat="45.61229" lon="4.62029">
        <ele>524</ele>
        <time>2012-11-07T08:25:00Z</time>
      </trkpt>
      <trkpt lat="45.6123" lon="4.62026">
        <ele>525</ele>
        <time>2012-11-07T08:25:02Z</time>
      </trkpt>
      <trkpt lat="45.61232" lon="4.62023">
        <ele>525</ele>
        <time>2012-11-07T08:25:04Z</time>
      </trkpt>
      <trkpt lat="45.6123" lon="4.62019">
        <ele>525</ele>
        <time>2012-11-07T08:25:07Z</time>
      </trkpt>
      <trkpt lat="45.61229" lon="4.62014">
        <ele>525</ele>
        <time>2012-11-07T08:25:11Z</time>
      </trkpt>
      <trkpt lat="45.61227" lon="4.62012">
        <ele>526</ele>
        <time>2012-11-07T08:25:13Z</time>
      </trkpt>
      <trkpt lat="45.61224" lon="4.6201">
        <ele>527</ele>
        <time>2012-11-07T08:25:15Z</time>
      </trkpt>
      <trkpt lat="45.61222" lon="4.62008">
        <ele>528</ele>
        <time>2012-11-07T08:25:16Z</time>
      </trkpt>
      <trkpt lat="45.61221" lon="4.62006">
        <ele>529</ele>
        <time>2012-11-07T08:25:17Z</time>
      </trkpt>
      <trkpt lat="45.6122" lon="4.62004">
        <ele>530</ele>
        <time>2012-11-07T08:25:18Z</time>
      </trkpt>
      <trkpt lat="45.61219" lon="4.62002">
        <ele>530</ele>
        <time>2012-11-07T08:25:19Z</time>
      </trkpt>
      <trkpt lat="45.61217" lon="4.61997">
        <ele>531</ele>
        <time>2012-11-07T08:25:22Z</time>
      </trkpt>
      <trkpt lat="45.61215" lon="4.61993">
        <ele>532</ele>
        <time>2012-11-07T08:25:25Z</time>
      </trkpt>
      <trkpt lat="45.61214" lon="4.61989">
        <ele>535</ele>
        <time>2012-11-07T08:25:27Z</time>
      </trkpt>
      <trkpt lat="45.6121" lon="4.61991">
        <ele>535</ele>
        <time>2012-11-07T08:25:31Z</time>
      </trkpt>
      <trkpt lat="45.61207" lon="4.61987">
        <ele>534</ele>
        <time>2012-11-07T08:25:33Z</time>
      </trkpt>
      <trkpt lat="45.61205" lon="4.61982">
        <ele>533</ele>
        <time>2012-11-07T08:25:35Z</time>
      </trkpt>
      <trkpt lat="45.61205" lon="4.61979">
        <ele>534</ele>
        <time>2012-11-07T08:25:36Z</time>
      </trkpt>
      <trkpt lat="45.61204" lon="4.61976">
        <ele>534</ele>
        <time>2012-11-07T08:25:37Z</time>
      </trkpt>
      <trkpt lat="45.61202" lon="4.61972">
        <ele>535</ele>
        <time>2012-11-07T08:25:39Z</time>
      </trkpt>
      <trkpt lat="45.61201" lon="4.61969">
        <ele>534</ele>
        <time>2012-11-07T08:25:41Z</time>
      </trkpt>
      <trkpt lat="45.612" lon="4.61967">
        <ele>534</ele>
        <time>2012-11-07T08:25:43Z</time>
      </trkpt>
      <trkpt lat="45.61198" lon="4.61964">
        <ele>537</ele>
        <time>2012-11-07T08:25:45Z</time>
      </trkpt>
      <trkpt lat="45.61197" lon="4.61959">
        <ele>536</ele>
        <time>2012-11-07T08:25:48Z</time>
      </trkpt>
      <trkpt lat="45.61188" lon="4.61944">
        <ele>535</ele>
        <time>2012-11-07T08:25:58Z</time>
      </trkpt>
      <trkpt lat="45.61187" lon="4.61942">
        <ele>535</ele>
        <time>2012-11-07T08:25:59Z</time>
      </trkpt>
      <trkpt lat="45.61186" lon="4.61937">
        <ele>534</ele>
        <time>2012-11-07T08:26:01Z</time>
      </trkpt>
      <trkpt lat="45.61185" lon="4.61934">
        <ele>535</ele>
        <time>2012-11-07T08:26:03Z</time>
      </trkpt>
      <trkpt lat="45.61184" lon="4.6193">
        <ele>535</ele>
        <time>2012-11-07T08:26:06Z</time>
      </trkpt>
      <trkpt lat="45.61182" lon="4.61928">
        <ele>535</ele>
        <time>2012-11-07T08:26:08Z</time>
      </trkpt>
      <trkpt lat="45.61181" lon="4.61925">
        <ele>535</ele>
        <time>2012-11-07T08:26:09Z</time>
      </trkpt>
      <trkpt lat="45.61179" lon="4.61921">
        <ele>534</ele>
        <time>2012-11-07T08:26:12Z</time>
      </trkpt>
      <trkpt lat="45.61177" lon="4.61918">
        <ele>534</ele>
        <time>2012-11-07T08:26:14Z</time>
      </trkpt>
      <trkpt lat="45.61176" lon="4.61915">
        <ele>534</ele>
        <time>2012-11-07T08:26:16Z</time>
      </trkpt>
      <trkpt lat="45.61174" lon="4.61913">
        <ele>536</ele>
        <time>2012-11-07T08:26:17Z</time>
      </trkpt>
      <trkpt lat="45.61172" lon="4.61909">
        <ele>536</ele>
        <time>2012-11-07T08:26:19Z</time>
      </trkpt>
      <trkpt lat="45.6117" lon="4.6191">
        <ele>537</ele>
        <time>2012-11-07T08:26:21Z</time>
      </trkpt>
      <trkpt lat="45.61169" lon="4.61906">
        <ele>534</ele>
        <time>2012-11-07T08:26:24Z</time>
      </trkpt>
      <trkpt lat="45.61168" lon="4.61902">
        <ele>535</ele>
        <time>2012-11-07T08:26:26Z</time>
      </trkpt>
      <trkpt lat="45.61166" lon="4.619">
        <ele>535</ele>
        <time>2012-11-07T08:26:28Z</time>
      </trkpt>
      <trkpt lat="45.61164" lon="4.61896">
        <ele>535</ele>
        <time>2012-11-07T08:26:30Z</time>
      </trkpt>
      <trkpt lat="45.61162" lon="4.61894">
        <ele>536</ele>
        <time>2012-11-07T08:26:31Z</time>
      </trkpt>
      <trkpt lat="45.6116" lon="4.6189">
        <ele>535</ele>
        <time>2012-11-07T08:26:33Z</time>
      </trkpt>
      <trkpt lat="45.61158" lon="4.61888">
        <ele>536</ele>
        <time>2012-11-07T08:26:34Z</time>
      </trkpt>
      <trkpt lat="45.61157" lon="4.61885">
        <ele>537</ele>
        <time>2012-11-07T08:26:35Z</time>
      </trkpt>
      <trkpt lat="45.61157" lon="4.61881">
        <ele>538</ele>
        <time>2012-11-07T08:26:36Z</time>
      </trkpt>
      <trkpt lat="45.61156" lon="4.61878">
        <ele>538</ele>
        <time>2012-11-07T08:26:37Z</time>
      </trkpt>
      <trkpt lat="45.61156" lon="4.61875">
        <ele>538</ele>
        <time>2012-11-07T08:26:38Z</time>
      </trkpt>
      <trkpt lat="45.61154" lon="4.61871">
        <ele>537</ele>
        <time>2012-11-07T08:26:40Z</time>
      </trkpt>
      <trkpt lat="45.61154" lon="4.61867">
        <ele>543</ele>
        <time>2012-11-07T08:26:44Z</time>
      </trkpt>
      <trkpt lat="45.61154" lon="4.61856">
        <ele>543</ele>
        <time>2012-11-07T08:26:49Z</time>
      </trkpt>
      <trkpt lat="45.61154" lon="4.61852">
        <ele>541</ele>
        <time>2012-11-07T08:26:51Z</time>
      </trkpt>
      <trkpt lat="45.61151" lon="4.61849">
        <ele>543</ele>
        <time>2012-11-07T08:26:53Z</time>
      </trkpt>
      <trkpt lat="45.61143" lon="4.61831">
        <ele>542</ele>
        <time>2012-11-07T08:27:01Z</time>
      </trkpt>
      <trkpt lat="45.61143" lon="4.61827">
        <ele>542</ele>
        <time>2012-11-07T08:27:05Z</time>
      </trkpt>
      <trkpt lat="45.61143" lon="4.61824">
        <ele>540</ele>
        <time>2012-11-07T08:27:08Z</time>
      </trkpt>
      <trkpt lat="45.61142" lon="4.61821">
        <ele>539</ele>
        <time>2012-11-07T08:27:10Z</time>
      </trkpt>
      <trkpt lat="45.61141" lon="4.61818">
        <ele>539</ele>
        <time>2012-11-07T08:27:12Z</time>
      </trkpt>
      <trkpt lat="45.61139" lon="4.61815">
        <ele>539</ele>
        <time>2012-11-07T08:27:14Z</time>
      </trkpt>
      <trkpt lat="45.61137" lon="4.61812">
        <ele>539</ele>
        <time>2012-11-07T08:27:16Z</time>
      </trkpt>
      <trkpt lat="45.61135" lon="4.6181">
        <ele>540</ele>
        <time>2012-11-07T08:27:18Z</time>
      </trkpt>
      <trkpt lat="45.61133" lon="4.61808">
        <ele>540</ele>
        <time>2012-11-07T08:27:20Z</time>
      </trkpt>
      <trkpt lat="45.61131" lon="4.61803">
        <ele>539</ele>
        <time>2012-11-07T08:27:23Z</time>
      </trkpt>
      <trkpt lat="45.6113" lon="4.61799">
        <ele>538</ele>
        <time>2012-11-07T08:27:25Z</time>
      </trkpt>
      <trkpt lat="45.6113" lon="4.61796">
        <ele>540</ele>
        <time>2012-11-07T08:27:27Z</time>
      </trkpt>
      <trkpt lat="45.61129" lon="4.61793">
        <ele>540</ele>
        <time>2012-11-07T08:27:29Z</time>
      </trkpt>
      <trkpt lat="45.61128" lon="4.6179">
        <ele>539</ele>
        <time>2012-11-07T08:27:31Z</time>
      </trkpt>
      <trkpt lat="45.61127" lon="4.61785">
        <ele>546</ele>
        <time>2012-11-07T08:27:34Z</time>
      </trkpt>
      <trkpt lat="45.61125" lon="4.61778">
        <ele>547</ele>
        <time>2012-11-07T08:27:39Z</time>
      </trkpt>
      <trkpt lat="45.61126" lon="4.61772">
        <ele>547</ele>
        <time>2012-11-07T08:27:41Z</time>
      </trkpt>
      <trkpt lat="45.61125" lon="4.61768">
        <ele>547</ele>
        <time>2012-11-07T08:27:43Z</time>
      </trkpt>
      <trkpt lat="45.61124" lon="4.61764">
        <ele>548</ele>
        <time>2012-11-07T08:27:45Z</time>
      </trkpt>
      <trkpt lat="45.61123" lon="4.61761">
        <ele>548</ele>
        <time>2012-11-07T08:27:47Z</time>
      </trkpt>
      <trkpt lat="45.6112" lon="4.61758">
        <ele>548</ele>
        <time>2012-11-07T08:27:49Z</time>
      </trkpt>
      <trkpt lat="45.61119" lon="4.61755">
        <ele>547</ele>
        <time>2012-11-07T08:27:51Z</time>
      </trkpt>
      <trkpt lat="45.61117" lon="4.61749">
        <ele>546</ele>
        <time>2012-11-07T08:27:54Z</time>
      </trkpt>
      <trkpt lat="45.61116" lon="4.61745">
        <ele>545</ele>
        <time>2012-11-07T08:27:55Z</time>
      </trkpt>
      <trkpt lat="45.61114" lon="4.61741">
        <ele>547</ele>
        <time>2012-11-07T08:27:58Z</time>
      </trkpt>
      <trkpt lat="45.61113" lon="4.61739">
        <ele>548</ele>
        <time>2012-11-07T08:28:00Z</time>
      </trkpt>
      <trkpt lat="45.61113" lon="4.61737">
        <ele>544</ele>
        <time>2012-11-07T08:28:01Z</time>
      </trkpt>
      <trkpt lat="45.61112" lon="4.61733">
        <ele>543</ele>
        <time>2012-11-07T08:28:04Z</time>
      </trkpt>
      <trkpt lat="45.61111" lon="4.61731">
        <ele>543</ele>
        <time>2012-11-07T08:28:08Z</time>
      </trkpt>
      <trkpt lat="45.6111" lon="4.61729">
        <ele>542</ele>
        <time>2012-11-07T08:28:09Z</time>
      </trkpt>
      <trkpt lat="45.61109" lon="4.61726">
        <ele>542</ele>
        <time>2012-11-07T08:28:10Z</time>
      </trkpt>
      <trkpt lat="45.61108" lon="4.61723">
        <ele>541</ele>
        <time>2012-11-07T08:28:11Z</time>
      </trkpt>
      <trkpt lat="45.61107" lon="4.61719">
        <ele>542</ele>
        <time>2012-11-07T08:28:13Z</time>
      </trkpt>
      <trkpt lat="45.61107" lon="4.61714">
        <ele>544</ele>
        <time>2012-11-07T08:28:15Z</time>
      </trkpt>
      <trkpt lat="45.61109" lon="4.6171">
        <ele>551</ele>
        <time>2012-11-07T08:28:17Z</time>
      </trkpt>
      <trkpt lat="45.61112" lon="4.61705">
        <ele>553</ele>
        <time>2012-11-07T08:28:20Z</time>
      </trkpt>
      <trkpt lat="45.61111" lon="4.61702">
        <ele>553</ele>
        <time>2012-11-07T08:28:22Z</time>
      </trkpt>
      <trkpt lat="45.6111" lon="4.617">
        <ele>554</ele>
        <time>2012-11-07T08:28:23Z</time>
      </trkpt>
      <trkpt lat="45.61108" lon="4.61696">
        <ele>554</ele>
        <time>2012-11-07T08:28:25Z</time>
      </trkpt>
      <trkpt lat="45.61107" lon="4.61694">
        <ele>555</ele>
        <time>2012-11-07T08:28:26Z</time>
      </trkpt>
      <trkpt lat="45.61107" lon="4.6169">
        <ele>556</ele>
        <time>2012-11-07T08:28:28Z</time>
      </trkpt>
      <trkpt lat="45.61107" lon="4.61687">
        <ele>554</ele>
        <time>2012-11-07T08:28:30Z</time>
      </trkpt>
      <trkpt lat="45.61105" lon="4.61683">
        <ele>554</ele>
        <time>2012-11-07T08:28:32Z</time>
      </trkpt>
      <trkpt lat="45.61104" lon="4.6168">
        <ele>554</ele>
        <time>2012-11-07T08:28:33Z</time>
      </trkpt>
      <trkpt lat="45.61103" lon="4.61678">
        <ele>553</ele>
        <time>2012-11-07T08:28:34Z</time>
      </trkpt>
      <trkpt lat="45.61102" lon="4.61674">
        <ele>554</ele>
        <time>2012-11-07T08:28:36Z</time>
      </trkpt>
      <trkpt lat="45.61101" lon="4.61668">
        <ele>552</ele>
        <time>2012-11-07T08:28:39Z</time>
      </trkpt>
      <trkpt lat="45.61099" lon="4.61661">
        <ele>554</ele>
        <time>2012-11-07T08:28:42Z</time>
      </trkpt>
      <trkpt lat="45.61098" lon="4.61655">
        <ele>554</ele>
        <time>2012-11-07T08:28:44Z</time>
      </trkpt>
      <trkpt lat="45.61097" lon="4.61653">
        <ele>554</ele>
        <time>2012-11-07T08:28:45Z</time>
      </trkpt>
      <trkpt lat="45.61096" lon="4.6165">
        <ele>554</ele>
        <time>2012-11-07T08:28:46Z</time>
      </trkpt>
      <trkpt lat="45.61095" lon="4.61647">
        <ele>554</ele>
        <time>2012-11-07T08:28:47Z</time>
      </trkpt>
      <trkpt lat="45.61094" lon="4.61644">
        <ele>554</ele>
        <time>2012-11-07T08:28:48Z</time>
      </trkpt>
      <trkpt lat="45.61093" lon="4.61641">
        <ele>554</ele>
        <time>2012-11-07T08:28:49Z</time>
      </trkpt>
      <trkpt lat="45.61093" lon="4.61638">
        <ele>553</ele>
        <time>2012-11-07T08:28:50Z</time>
      </trkpt>
      <trkpt lat="45.61092" lon="4.61633">
        <ele>554</ele>
        <time>2012-11-07T08:28:52Z</time>
      </trkpt>
      <trkpt lat="45.61093" lon="4.6163">
        <ele>555</ele>
        <time>2012-11-07T08:28:54Z</time>
      </trkpt>
      <trkpt lat="45.61092" lon="4.61625">
        <ele>554</ele>
        <time>2012-11-07T08:28:59Z</time>
      </trkpt>
      <trkpt lat="45.61091" lon="4.61622">
        <ele>555</ele>
        <time>2012-11-07T08:29:03Z</time>
      </trkpt>
      <trkpt lat="45.61089" lon="4.61619">
        <ele>555</ele>
        <time>2012-11-07T08:29:05Z</time>
      </trkpt>
      <trkpt lat="45.61088" lon="4.61615">
        <ele>555</ele>
        <time>2012-11-07T08:29:07Z</time>
      </trkpt>
      <trkpt lat="45.61086" lon="4.61613">
        <ele>554</ele>
        <time>2012-11-07T08:29:08Z</time>
      </trkpt>
      <trkpt lat="45.61083" lon="4.61606">
        <ele>553</ele>
        <time>2012-11-07T08:29:11Z</time>
      </trkpt>
      <trkpt lat="45.61081" lon="4.61603">
        <ele>554</ele>
        <time>2012-11-07T08:29:12Z</time>
      </trkpt>
      <trkpt lat="45.61078" lon="4.61599">
        <ele>550</ele>
        <time>2012-11-07T08:29:14Z</time>
      </trkpt>
      <trkpt lat="45.61077" lon="4.61598">
        <ele>550</ele>
        <time>2012-11-07T08:29:15Z</time>
      </trkpt>
      <trkpt lat="45.61072" lon="4.61593">
        <ele>550</ele>
        <time>2012-11-07T08:29:18Z</time>
      </trkpt>
      <trkpt lat="45.6107" lon="4.61592">
        <ele>549</ele>
        <time>2012-11-07T08:29:19Z</time>
      </trkpt>
      <trkpt lat="45.61068" lon="4.61589">
        <ele>550</ele>
        <time>2012-11-07T08:29:21Z</time>
      </trkpt>
      <trkpt lat="45.61066" lon="4.61586">
        <ele>549</ele>
        <time>2012-11-07T08:29:22Z</time>
      </trkpt>
      <trkpt lat="45.61065" lon="4.61584">
        <ele>549</ele>
        <time>2012-11-07T08:29:23Z</time>
      </trkpt>
      <trkpt lat="45.61064" lon="4.61581">
        <ele>549</ele>
        <time>2012-11-07T08:29:24Z</time>
      </trkpt>
      <trkpt lat="45.61062" lon="4.61579">
        <ele>550</ele>
        <time>2012-11-07T08:29:25Z</time>
      </trkpt>
      <trkpt lat="45.61061" lon="4.61577">
        <ele>549</ele>
        <time>2012-11-07T08:29:26Z</time>
      </trkpt>
      <trkpt lat="45.61057" lon="4.61574">
        <ele>551</ele>
        <time>2012-11-07T08:29:29Z</time>
      </trkpt>
      <trkpt lat="45.61056" lon="4.61571">
        <ele>551</ele>
        <time>2012-11-07T08:29:31Z</time>
      </trkpt>
      <trkpt lat="45.61055" lon="4.61568">
        <ele>551</ele>
        <time>2012-11-07T08:29:33Z</time>
      </trkpt>
      <trkpt lat="45.61054" lon="4.61566">
        <ele>552</ele>
        <time>2012-11-07T08:29:35Z</time>
      </trkpt>
      <trkpt lat="45.61051" lon="4.61567">
        <ele>550</ele>
        <time>2012-11-07T08:29:37Z</time>
      </trkpt>
      <trkpt lat="45.61048" lon="4.61567">
        <ele>549</ele>
        <time>2012-11-07T08:29:40Z</time>
      </trkpt>
      <trkpt lat="45.61044" lon="4.61567">
        <ele>550</ele>
        <time>2012-11-07T08:29:42Z</time>
      </trkpt>
      <trkpt lat="45.61042" lon="4.61567">
        <ele>550</ele>
        <time>2012-11-07T08:29:43Z</time>
      </trkpt>
      <trkpt lat="45.61039" lon="4.61567">
        <ele>552</ele>
        <time>2012-11-07T08:29:46Z</time>
      </trkpt>
      <trkpt lat="45.61033" lon="4.61568">
        <ele>549</ele>
        <time>2012-11-07T08:29:51Z</time>
      </trkpt>
      <trkpt lat="45.6103" lon="4.61569">
        <ele>550</ele>
        <time>2012-11-07T08:29:52Z</time>
      </trkpt>
      <trkpt lat="45.61028" lon="4.6157">
        <ele>551</ele>
        <time>2012-11-07T08:29:53Z</time>
      </trkpt>
      <trkpt lat="45.61024" lon="4.61571">
        <ele>550</ele>
        <time>2012-11-07T08:29:55Z</time>
      </trkpt>
      <trkpt lat="45.61016" lon="4.61575">
        <ele>551</ele>
        <time>2012-11-07T08:29:59Z</time>
      </trkpt>
      <trkpt lat="45.61013" lon="4.61576">
        <ele>549</ele>
        <time>2012-11-07T08:30:01Z</time>
      </trkpt>
      <trkpt lat="45.61008" lon="4.61578">
        <ele>549</ele>
        <time>2012-11-07T08:30:04Z</time>
      </trkpt>
      <trkpt lat="45.61004" lon="4.61578">
        <ele>549</ele>
        <time>2012-11-07T08:30:06Z</time>
      </trkpt>
      <trkpt lat="45.61" lon="4.61579">
        <ele>549</ele>
        <time>2012-11-07T08:30:08Z</time>
      </trkpt>
      <trkpt lat="45.60997" lon="4.6158">
        <ele>547</ele>
        <time>2012-11-07T08:30:09Z</time>
      </trkpt>
      <trkpt lat="45.60993" lon="4.61582">
        <ele>547</ele>
        <time>2012-11-07T08:30:10Z</time>
      </trkpt>
      <trkpt lat="45.6099" lon="4.61583">
        <ele>546</ele>
        <time>2012-11-07T08:30:11Z</time>
      </trkpt>
      <trkpt lat="45.60987" lon="4.61585">
        <ele>547</ele>
        <time>2012-11-07T08:30:12Z</time>
      </trkpt>
      <trkpt lat="45.60985" lon="4.61586">
        <ele>547</ele>
        <time>2012-11-07T08:30:13Z</time>
      </trkpt>
      <trkpt lat="45.60986" lon="4.61583">
        <ele>551</ele>
        <time>2012-11-07T08:30:16Z</time>
      </trkpt>
      <trkpt lat="45.60988" lon="4.6158">
        <ele>550</ele>
        <time>2012-11-07T08:30:18Z</time>
      </trkpt>
      <trkpt lat="45.60988" lon="4.61578">
        <ele>551</ele>
        <time>2012-11-07T08:30:20Z</time>
      </trkpt>
      <trkpt lat="45.60983" lon="4.61583">
        <ele>549</ele>
        <time>2012-11-07T08:30:21Z</time>
      </trkpt>
      <trkpt lat="45.60981" lon="4.61583">
        <ele>548</ele>
        <time>2012-11-07T08:30:22Z</time>
      </trkpt>
      <trkpt lat="45.60968" lon="4.6159">
        <ele>548</ele>
        <time>2012-11-07T08:30:26Z</time>
      </trkpt>
      <trkpt lat="45.60962" lon="4.61587">
        <ele>548</ele>
        <time>2012-11-07T08:30:30Z</time>
      </trkpt>
      <trkpt lat="45.60962" lon="4.61583">
        <ele>547</ele>
        <time>2012-11-07T08:30:33Z</time>
      </trkpt>
      <trkpt lat="45.60961" lon="4.6158">
        <ele>548</ele>
        <time>2012-11-07T08:30:34Z</time>
      </trkpt>
      <trkpt lat="45.60958" lon="4.61579">
        <ele>549</ele>
        <time>2012-11-07T08:30:36Z</time>
      </trkpt>
      <trkpt lat="45.60955" lon="4.6158">
        <ele>549</ele>
        <time>2012-11-07T08:30:38Z</time>
      </trkpt>
      <trkpt lat="45.60953" lon="4.61581">
        <ele>549</ele>
        <time>2012-11-07T08:30:40Z</time>
      </trkpt>
      <trkpt lat="45.6095" lon="4.61582">
        <ele>550</ele>
        <time>2012-11-07T08:30:42Z</time>
      </trkpt>
      <trkpt lat="45.60947" lon="4.61582">
        <ele>550</ele>
        <time>2012-11-07T08:30:44Z</time>
      </trkpt>
      <trkpt lat="45.6094" lon="4.61582">
        <ele>553</ele>
        <time>2012-11-07T08:30:49Z</time>
      </trkpt>
      <trkpt lat="45.60936" lon="4.61581">
        <ele>552</ele>
        <time>2012-11-07T08:30:52Z</time>
      </trkpt>
      <trkpt lat="45.60933" lon="4.61581">
        <ele>551</ele>
        <time>2012-11-07T08:30:54Z</time>
      </trkpt>
      <trkpt lat="45.60929" lon="4.61582">
        <ele>550</ele>
        <time>2012-11-07T08:30:57Z</time>
      </trkpt>
      <trkpt lat="45.60924" lon="4.61581">
        <ele>550</ele>
        <time>2012-11-07T08:31:00Z</time>
      </trkpt>
      <trkpt lat="45.60921" lon="4.61579">
        <ele>550</ele>
        <time>2012-11-07T08:31:03Z</time>
      </trkpt>
      <trkpt lat="45.60918" lon="4.61575">
        <ele>550</ele>
        <time>2012-11-07T08:31:05Z</time>
      </trkpt>
      <trkpt lat="45.60914" lon="4.61571">
        <ele>550</ele>
        <time>2012-11-07T08:31:07Z</time>
      </trkpt>
      <trkpt lat="45.6091" lon="4.61567">
        <ele>551</ele>
        <time>2012-11-07T08:31:09Z</time>
      </trkpt>
      <trkpt lat="45.60907" lon="4.61565">
        <ele>552</ele>
        <time>2012-11-07T08:31:11Z</time>
      </trkpt>
      <trkpt lat="45.60905" lon="4.61563">
        <ele>551</ele>
        <time>2012-11-07T08:31:14Z</time>
      </trkpt>
      <trkpt lat="45.60906" lon="4.6156">
        <ele>556</ele>
        <time>2012-11-07T08:31:16Z</time>
      </trkpt>
      <trkpt lat="45.60906" lon="4.61558">
        <ele>555</ele>
        <time>2012-11-07T08:31:18Z</time>
      </trkpt>
      <trkpt lat="45.60905" lon="4.61555">
        <ele>556</ele>
        <time>2012-11-07T08:31:20Z</time>
      </trkpt>
      <trkpt lat="45.60906" lon="4.61552">
        <ele>554</ele>
        <time>2012-11-07T08:31:23Z</time>
      </trkpt>
      <trkpt lat="45.60908" lon="4.6155">
        <ele>553</ele>
        <time>2012-11-07T08:31:25Z</time>
      </trkpt>
      <trkpt lat="45.60912" lon="4.61544">
        <ele>550</ele>
        <time>2012-11-07T08:31:29Z</time>
      </trkpt>
      <trkpt lat="45.60914" lon="4.6154">
        <ele>549</ele>
        <time>2012-11-07T08:31:31Z</time>
      </trkpt>
      <trkpt lat="45.60916" lon="4.61535">
        <ele>547</ele>
        <time>2012-11-07T08:31:34Z</time>
      </trkpt>
      <trkpt lat="45.60915" lon="4.61532">
        <ele>548</ele>
        <time>2012-11-07T08:31:36Z</time>
      </trkpt>
      <trkpt lat="45.60916" lon="4.61529">
        <ele>548</ele>
        <time>2012-11-07T08:31:38Z</time>
      </trkpt>
      <trkpt lat="45.60916" lon="4.61525">
        <ele>549</ele>
        <time>2012-11-07T08:31:40Z</time>
      </trkpt>
      <trkpt lat="45.60917" lon="4.61521">
        <ele>551</ele>
        <time>2012-11-07T08:31:42Z</time>
      </trkpt>
      <trkpt lat="45.60918" lon="4.61518">
        <ele>553</ele>
        <time>2012-11-07T08:31:44Z</time>
      </trkpt>
      <trkpt lat="45.60919" lon="4.61516">
        <ele>554</ele>
        <time>2012-11-07T08:31:46Z</time>
      </trkpt>
      <trkpt lat="45.60921" lon="4.61513">
        <ele>555</ele>
        <time>2012-11-07T08:31:48Z</time>
      </trkpt>
      <trkpt lat="45.60924" lon="4.61511">
        <ele>555</ele>
        <time>2012-11-07T08:31:50Z</time>
      </trkpt>
      <trkpt lat="45.60925" lon="4.61509">
        <ele>554</ele>
        <time>2012-11-07T08:31:52Z</time>
      </trkpt>
      <trkpt lat="45.60926" lon="4.61506">
        <ele>558</ele>
        <time>2012-11-07T08:31:54Z</time>
      </trkpt>
      <trkpt lat="45.60927" lon="4.61503">
        <ele>558</ele>
        <time>2012-11-07T08:31:56Z</time>
      </trkpt>
      <trkpt lat="45.6093" lon="4.61487">
        <ele>559</ele>
        <time>2012-11-07T08:32:07Z</time>
      </trkpt>
      <trkpt lat="45.60932" lon="4.61483">
        <ele>560</ele>
        <time>2012-11-07T08:32:11Z</time>
      </trkpt>
      <trkpt lat="45.60934" lon="4.61482">
        <ele>559</ele>
        <time>2012-11-07T08:32:13Z</time>
      </trkpt>
      <trkpt lat="45.60936" lon="4.61481">
        <ele>560</ele>
        <time>2012-11-07T08:32:15Z</time>
      </trkpt>
      <trkpt lat="45.60938" lon="4.61479">
        <ele>561</ele>
        <time>2012-11-07T08:32:17Z</time>
      </trkpt>
      <trkpt lat="45.6094" lon="4.61477">
        <ele>560</ele>
        <time>2012-11-07T08:32:19Z</time>
      </trkpt>
      <trkpt lat="45.60942" lon="4.61475">
        <ele>560</ele>
        <time>2012-11-07T08:32:21Z</time>
      </trkpt>
      <trkpt lat="45.60944" lon="4.61474">
        <ele>560</ele>
        <time>2012-11-07T08:32:23Z</time>
      </trkpt>
      <trkpt lat="45.60947" lon="4.61474">
        <ele>559</ele>
        <time>2012-11-07T08:32:27Z</time>
      </trkpt>
      <trkpt lat="45.60949" lon="4.61473">
        <ele>560</ele>
        <time>2012-11-07T08:32:29Z</time>
      </trkpt>
      <trkpt lat="45.60951" lon="4.6147">
        <ele>559</ele>
        <time>2012-11-07T08:32:31Z</time>
      </trkpt>
      <trkpt lat="45.60953" lon="4.61467">
        <ele>559</ele>
        <time>2012-11-07T08:32:33Z</time>
      </trkpt>
      <trkpt lat="45.60954" lon="4.61462">
        <ele>560</ele>
        <time>2012-11-07T08:32:35Z</time>
      </trkpt>
      <trkpt lat="45.60955" lon="4.61459">
        <ele>563</ele>
        <time>2012-11-07T08:32:37Z</time>
      </trkpt>
      <trkpt lat="45.60956" lon="4.61457">
        <ele>563</ele>
        <time>2012-11-07T08:32:39Z</time>
      </trkpt>
      <trkpt lat="45.60958" lon="4.61455">
        <ele>564</ele>
        <time>2012-11-07T08:32:41Z</time>
      </trkpt>
      <trkpt lat="45.6096" lon="4.61453">
        <ele>564</ele>
        <time>2012-11-07T08:32:44Z</time>
      </trkpt>
      <trkpt lat="45.60962" lon="4.61454">
        <ele>563</ele>
        <time>2012-11-07T08:32:47Z</time>
      </trkpt>
      <trkpt lat="45.60964" lon="4.61453">
        <ele>562</ele>
        <time>2012-11-07T08:32:49Z</time>
      </trkpt>
      <trkpt lat="45.60965" lon="4.6145">
        <ele>562</ele>
        <time>2012-11-07T08:32:50Z</time>
      </trkpt>
      <trkpt lat="45.60967" lon="4.61447">
        <ele>562</ele>
        <time>2012-11-07T08:32:52Z</time>
      </trkpt>
      <trkpt lat="45.60969" lon="4.61443">
        <ele>562</ele>
        <time>2012-11-07T08:32:54Z</time>
      </trkpt>
      <trkpt lat="45.6097" lon="4.61439">
        <ele>562</ele>
        <time>2012-11-07T08:32:57Z</time>
      </trkpt>
      <trkpt lat="45.60973" lon="4.61437">
        <ele>562</ele>
        <time>2012-11-07T08:33:01Z</time>
      </trkpt>
      <trkpt lat="45.60975" lon="4.61436">
        <ele>563</ele>
        <time>2012-11-07T08:33:04Z</time>
      </trkpt>
      <trkpt lat="45.60976" lon="4.61434">
        <ele>562</ele>
        <time>2012-11-07T08:33:06Z</time>
      </trkpt>
      <trkpt lat="45.60978" lon="4.61431">
        <ele>561</ele>
        <time>2012-11-07T08:33:08Z</time>
      </trkpt>
      <trkpt lat="45.6098" lon="4.61429">
        <ele>560</ele>
        <time>2012-11-07T08:33:11Z</time>
      </trkpt>
      <trkpt lat="45.60982" lon="4.61427">
        <ele>562</ele>
        <time>2012-11-07T08:33:13Z</time>
      </trkpt>
      <trkpt lat="45.60983" lon="4.61424">
        <ele>562</ele>
        <time>2012-11-07T08:33:15Z</time>
      </trkpt>
      <trkpt lat="45.60985" lon="4.61421">
        <ele>562</ele>
        <time>2012-11-07T08:33:17Z</time>
      </trkpt>
      <trkpt lat="45.60985" lon="4.61417">
        <ele>564</ele>
        <time>2012-11-07T08:33:19Z</time>
      </trkpt>
      <trkpt lat="45.60986" lon="4.61415">
        <ele>565</ele>
        <time>2012-11-07T08:33:21Z</time>
      </trkpt>
      <trkpt lat="45.60986" lon="4.61411">
        <ele>564</ele>
        <time>2012-11-07T08:33:24Z</time>
      </trkpt>
      <trkpt lat="45.60986" lon="4.61407">
        <ele>565</ele>
        <time>2012-11-07T08:33:27Z</time>
      </trkpt>
      <trkpt lat="45.60985" lon="4.61401">
        <ele>568</ele>
        <time>2012-11-07T08:33:32Z</time>
      </trkpt>
      <trkpt lat="45.60984" lon="4.61395">
        <ele>565</ele>
        <time>2012-11-07T08:33:35Z</time>
      </trkpt>
      <trkpt lat="45.60984" lon="4.61392">
        <ele>567</ele>
        <time>2012-11-07T08:33:38Z</time>
      </trkpt>
      <trkpt lat="45.60985" lon="4.61386">
        <ele>569</ele>
        <time>2012-11-07T08:33:42Z</time>
      </trkpt>
      <trkpt lat="45.60986" lon="4.61384">
        <ele>568</ele>
        <time>2012-11-07T08:33:44Z</time>
      </trkpt>
      <trkpt lat="45.60987" lon="4.61381">
        <ele>568</ele>
        <time>2012-11-07T08:33:46Z</time>
      </trkpt>
      <trkpt lat="45.60988" lon="4.61378">
        <ele>568</ele>
        <time>2012-11-07T08:33:48Z</time>
      </trkpt>
      <trkpt lat="45.6099" lon="4.61375">
        <ele>568</ele>
        <time>2012-11-07T08:33:51Z</time>
      </trkpt>
      <trkpt lat="45.6099" lon="4.61372">
        <ele>569</ele>
        <time>2012-11-07T08:33:53Z</time>
      </trkpt>
      <trkpt lat="45.60991" lon="4.61369">
        <ele>570</ele>
        <time>2012-11-07T08:33:56Z</time>
      </trkpt>
      <trkpt lat="45.60995" lon="4.61356">
        <ele>577</ele>
        <time>2012-11-07T08:34:06Z</time>
      </trkpt>
      <trkpt lat="45.60997" lon="4.61349">
        <ele>574</ele>
        <time>2012-11-07T08:34:11Z</time>
      </trkpt>
      <trkpt lat="45.60998" lon="4.61346">
        <ele>574</ele>
        <time>2012-11-07T08:34:13Z</time>
      </trkpt>
      <trkpt lat="45.61" lon="4.61342">
        <ele>574</ele>
        <time>2012-11-07T08:34:15Z</time>
      </trkpt>
      <trkpt lat="45.61001" lon="4.6134">
        <ele>574</ele>
        <time>2012-11-07T08:34:16Z</time>
      </trkpt>
      <trkpt lat="45.61004" lon="4.61332">
        <ele>573</ele>
        <time>2012-11-07T08:34:21Z</time>
      </trkpt>
      <trkpt lat="45.61006" lon="4.61329">
        <ele>574</ele>
        <time>2012-11-07T08:34:23Z</time>
      </trkpt>
      <trkpt lat="45.61009" lon="4.61327">
        <ele>573</ele>
        <time>2012-11-07T08:34:25Z</time>
      </trkpt>
      <trkpt lat="45.61013" lon="4.61324">
        <ele>574</ele>
        <time>2012-11-07T08:34:28Z</time>
      </trkpt>
      <trkpt lat="45.61015" lon="4.61322">
        <ele>573</ele>
        <time>2012-11-07T08:34:29Z</time>
      </trkpt>
      <trkpt lat="45.61018" lon="4.61318">
        <ele>575</ele>
        <time>2012-11-07T08:34:33Z</time>
      </trkpt>
      <trkpt lat="45.6102" lon="4.61316">
        <ele>578</ele>
        <time>2012-11-07T08:34:36Z</time>
      </trkpt>
      <trkpt lat="45.61022" lon="4.61314">
        <ele>579</ele>
        <time>2012-11-07T08:34:38Z</time>
      </trkpt>
      <trkpt lat="45.61023" lon="4.61311">
        <ele>580</ele>
        <time>2012-11-07T08:34:40Z</time>
      </trkpt>
      <trkpt lat="45.61024" lon="4.61307">
        <ele>581</ele>
        <time>2012-11-07T08:34:42Z</time>
      </trkpt>
      <trkpt lat="45.61026" lon="4.61302">
        <ele>580</ele>
        <time>2012-11-07T08:34:45Z</time>
      </trkpt>
      <trkpt lat="45.61029" lon="4.61293">
        <ele>576</ele>
        <time>2012-11-07T08:34:50Z</time>
      </trkpt>
      <trkpt lat="45.61031" lon="4.61289">
        <ele>577</ele>
        <time>2012-11-07T08:34:52Z</time>
      </trkpt>
      <trkpt lat="45.61033" lon="4.61287">
        <ele>577</ele>
        <time>2012-11-07T08:34:53Z</time>
      </trkpt>
      <trkpt lat="45.61035" lon="4.61285">
        <ele>577</ele>
        <time>2012-11-07T08:34:54Z</time>
      </trkpt>
      <trkpt lat="45.61036" lon="4.61283">
        <ele>577</ele>
        <time>2012-11-07T08:34:55Z</time>
      </trkpt>
      <trkpt lat="45.61038" lon="4.61281">
        <ele>577</ele>
        <time>2012-11-07T08:34:56Z</time>
      </trkpt>
      <trkpt lat="45.61039" lon="4.61279">
        <ele>578</ele>
        <time>2012-11-07T08:34:57Z</time>
      </trkpt>
      <trkpt lat="45.61041" lon="4.61278">
        <ele>579</ele>
        <time>2012-11-07T08:34:59Z</time>
      </trkpt>
      <trkpt lat="45.61042" lon="4.61276">
        <ele>578</ele>
        <time>2012-11-07T08:35:01Z</time>
      </trkpt>
      <trkpt lat="45.61044" lon="4.61275">
        <ele>580</ele>
        <time>2012-11-07T08:35:04Z</time>
      </trkpt>
      <trkpt lat="45.61045" lon="4.61272">
        <ele>580</ele>
        <time>2012-11-07T08:35:06Z</time>
      </trkpt>
      <trkpt lat="45.61047" lon="4.61269">
        <ele>582</ele>
        <time>2012-11-07T08:35:09Z</time>
      </trkpt>
      <trkpt lat="45.61048" lon="4.61265">
        <ele>582</ele>
        <time>2012-11-07T08:35:13Z</time>
      </trkpt>
      <trkpt lat="45.61051" lon="4.61264">
        <ele>583</ele>
        <time>2012-11-07T08:35:18Z</time>
      </trkpt>
      <trkpt lat="45.61054" lon="4.61262">
        <ele>583</ele>
        <time>2012-11-07T08:35:20Z</time>
      </trkpt>
      <trkpt lat="45.61056" lon="4.6126">
        <ele>583</ele>
        <time>2012-11-07T08:35:22Z</time>
      </trkpt>
      <trkpt lat="45.61058" lon="4.61259">
        <ele>583</ele>
        <time>2012-11-07T08:35:23Z</time>
      </trkpt>
      <trkpt lat="45.6106" lon="4.61257">
        <ele>582</ele>
        <time>2012-11-07T08:35:24Z</time>
      </trkpt>
      <trkpt lat="45.61063" lon="4.61255">
        <ele>581</ele>
        <time>2012-11-07T08:35:26Z</time>
      </trkpt>
      <trkpt lat="45.61065" lon="4.61253">
        <ele>580</ele>
        <time>2012-11-07T08:35:28Z</time>
      </trkpt>
      <trkpt lat="45.61067" lon="4.61252">
        <ele>580</ele>
        <time>2012-11-07T08:35:33Z</time>
      </trkpt>
      <trkpt lat="45.61069" lon="4.61249">
        <ele>581</ele>
        <time>2012-11-07T08:35:35Z</time>
      </trkpt>
      <trkpt lat="45.61071" lon="4.61246">
        <ele>581</ele>
        <time>2012-11-07T08:35:37Z</time>
      </trkpt>
      <trkpt lat="45.61073" lon="4.61243">
        <ele>581</ele>
        <time>2012-11-07T08:35:39Z</time>
      </trkpt>
      <trkpt lat="45.61075" lon="4.6124">
        <ele>580</ele>
        <time>2012-11-07T08:35:41Z</time>
      </trkpt>
      <trkpt lat="45.61076" lon="4.61239">
        <ele>580</ele>
        <time>2012-11-07T08:35:42Z</time>
      </trkpt>
      <trkpt lat="45.61079" lon="4.61236">
        <ele>580</ele>
        <time>2012-11-07T08:35:44Z</time>
      </trkpt>
      <trkpt lat="45.61082" lon="4.61232">
        <ele>578</ele>
        <time>2012-11-07T08:35:46Z</time>
      </trkpt>
      <trkpt lat="45.61084" lon="4.61229">
        <ele>577</ele>
        <time>2012-11-07T08:35:48Z</time>
      </trkpt>
      <trkpt lat="45.61086" lon="4.61224">
        <ele>577</ele>
        <time>2012-11-07T08:35:50Z</time>
      </trkpt>
      <trkpt lat="45.61089" lon="4.61222">
        <ele>576</ele>
        <time>2012-11-07T08:35:52Z</time>
      </trkpt>
      <trkpt lat="45.61091" lon="4.61222">
        <ele>577</ele>
        <time>2012-11-07T08:35:53Z</time>
      </trkpt>
      <trkpt lat="45.61094" lon="4.61221">
        <ele>577</ele>
        <time>2012-11-07T08:35:54Z</time>
      </trkpt>
      <trkpt lat="45.61096" lon="4.6122">
        <ele>579</ele>
        <time>2012-11-07T08:35:55Z</time>
      </trkpt>
      <trkpt lat="45.61099" lon="4.61219">
        <ele>580</ele>
        <time>2012-11-07T08:35:57Z</time>
      </trkpt>
      <trkpt lat="45.61101" lon="4.61217">
        <ele>581</ele>
        <time>2012-11-07T08:36:00Z</time>
      </trkpt>
      <trkpt lat="45.61103" lon="4.61215">
        <ele>581</ele>
        <time>2012-11-07T08:36:02Z</time>
      </trkpt>
      <trkpt lat="45.61106" lon="4.61214">
        <ele>582</ele>
        <time>2012-11-07T08:36:04Z</time>
      </trkpt>
      <trkpt lat="45.61108" lon="4.61214">
        <ele>583</ele>
        <time>2012-11-07T08:36:05Z</time>
      </trkpt>
      <trkpt lat="45.6111" lon="4.61214">
        <ele>585</ele>
        <time>2012-11-07T08:36:06Z</time>
      </trkpt>
      <trkpt lat="45.61113" lon="4.61214">
        <ele>586</ele>
        <time>2012-11-07T08:36:07Z</time>
      </trkpt>
      <trkpt lat="45.61115" lon="4.61214">
        <ele>587</ele>
        <time>2012-11-07T08:36:09Z</time>
      </trkpt>
      <trkpt lat="45.61119" lon="4.61216">
        <ele>586</ele>
        <time>2012-11-07T08:36:11Z</time>
      </trkpt>
      <trkpt lat="45.61122" lon="4.61216">
        <ele>585</ele>
        <time>2012-11-07T08:36:13Z</time>
      </trkpt>
      <trkpt lat="45.61125" lon="4.61216">
        <ele>585</ele>
        <time>2012-11-07T08:36:15Z</time>
      </trkpt>
      <trkpt lat="45.61128" lon="4.61214">
        <ele>583</ele>
        <time>2012-11-07T08:36:17Z</time>
      </trkpt>
      <trkpt lat="45.61133" lon="4.61213">
        <ele>583</ele>
        <time>2012-11-07T08:36:19Z</time>
      </trkpt>
      <trkpt lat="45.61134" lon="4.61213">
        <ele>583</ele>
        <time>2012-11-07T08:36:20Z</time>
      </trkpt>
      <trkpt lat="45.61137" lon="4.61212">
        <ele>582</ele>
        <time>2012-11-07T08:36:21Z</time>
      </trkpt>
      <trkpt lat="45.61139" lon="4.61212">
        <ele>581</ele>
        <time>2012-11-07T08:36:22Z</time>
      </trkpt>
      <trkpt lat="45.61142" lon="4.61212">
        <ele>581</ele>
        <time>2012-11-07T08:36:24Z</time>
      </trkpt>
      <trkpt lat="45.61148" lon="4.61211">
        <ele>583</ele>
        <time>2012-11-07T08:36:28Z</time>
      </trkpt>
      <trkpt lat="45.6115" lon="4.6121">
        <ele>582</ele>
        <time>2012-11-07T08:36:30Z</time>
      </trkpt>
      <trkpt lat="45.61153" lon="4.61211">
        <ele>582</ele>
        <time>2012-11-07T08:36:34Z</time>
      </trkpt>
      <trkpt lat="45.61155" lon="4.61213">
        <ele>582</ele>
        <time>2012-11-07T08:36:36Z</time>
      </trkpt>
      <trkpt lat="45.61162" lon="4.61217">
        <ele>582</ele>
        <time>2012-11-07T08:36:41Z</time>
      </trkpt>
      <trkpt lat="45.61163" lon="4.61221">
        <ele>582</ele>
        <time>2012-11-07T08:36:43Z</time>
      </trkpt>
      <trkpt lat="45.61165" lon="4.61222">
        <ele>581</ele>
        <time>2012-11-07T08:36:45Z</time>
      </trkpt>
      <trkpt lat="45.61169" lon="4.6122">
        <ele>582</ele>
        <time>2012-11-07T08:36:47Z</time>
      </trkpt>
      <trkpt lat="45.61172" lon="4.61218">
        <ele>582</ele>
        <time>2012-11-07T08:36:49Z</time>
      </trkpt>
      <trkpt lat="45.61183" lon="4.61207">
        <ele>585</ele>
        <time>2012-11-07T08:36:54Z</time>
      </trkpt>
      <trkpt lat="45.61186" lon="4.61206">
        <ele>584</ele>
        <time>2012-11-07T08:36:56Z</time>
      </trkpt>
      <trkpt lat="45.61188" lon="4.61206">
        <ele>584</ele>
        <time>2012-11-07T08:36:58Z</time>
      </trkpt>
      <trkpt lat="45.61193" lon="4.61208">
        <ele>586</ele>
        <time>2012-11-07T08:37:02Z</time>
      </trkpt>
      <trkpt lat="45.61195" lon="4.61209">
        <ele>587</ele>
        <time>2012-11-07T08:37:04Z</time>
      </trkpt>
      <trkpt lat="45.61198" lon="4.61209">
        <ele>588</ele>
        <time>2012-11-07T08:37:06Z</time>
      </trkpt>
      <trkpt lat="45.612" lon="4.6121">
        <ele>588</ele>
        <time>2012-11-07T08:37:08Z</time>
      </trkpt>
      <trkpt lat="45.61203" lon="4.61211">
        <ele>590</ele>
        <time>2012-11-07T08:37:10Z</time>
      </trkpt>
      <trkpt lat="45.61206" lon="4.61213">
        <ele>590</ele>
        <time>2012-11-07T08:37:12Z</time>
      </trkpt>
      <trkpt lat="45.61209" lon="4.61215">
        <ele>591</ele>
        <time>2012-11-07T08:37:14Z</time>
      </trkpt>
      <trkpt lat="45.61211" lon="4.61215">
        <ele>592</ele>
        <time>2012-11-07T08:37:15Z</time>
      </trkpt>
      <trkpt lat="45.61213" lon="4.61215">
        <ele>593</ele>
        <time>2012-11-07T08:37:16Z</time>
      </trkpt>
      <trkpt lat="45.61216" lon="4.61216">
        <ele>592</ele>
        <time>2012-11-07T08:37:18Z</time>
      </trkpt>
      <trkpt lat="45.61218" lon="4.61218">
        <ele>593</ele>
        <time>2012-11-07T08:37:20Z</time>
      </trkpt>
      <trkpt lat="45.61219" lon="4.6122">
        <ele>593</ele>
        <time>2012-11-07T08:37:22Z</time>
      </trkpt>
      <trkpt lat="45.61222" lon="4.61221">
        <ele>592</ele>
        <time>2012-11-07T08:37:24Z</time>
      </trkpt>
      <trkpt lat="45.61223" lon="4.61221">
        <ele>591</ele>
        <time>2012-11-07T08:37:26Z</time>
      </trkpt>
      <trkpt lat="45.61229" lon="4.61223">
        <ele>592</ele>
        <time>2012-11-07T08:37:30Z</time>
      </trkpt>
      <trkpt lat="45.61233" lon="4.61226">
        <ele>593</ele>
        <time>2012-11-07T08:37:33Z</time>
      </trkpt>
      <trkpt lat="45.61236" lon="4.6123">
        <ele>592</ele>
        <time>2012-11-07T08:37:35Z</time>
      </trkpt>
      <trkpt lat="45.61237" lon="4.61231">
        <ele>593</ele>
        <time>2012-11-07T08:37:36Z</time>
      </trkpt>
      <trkpt lat="45.61243" lon="4.61236">
        <ele>593</ele>
        <time>2012-11-07T08:37:40Z</time>
      </trkpt>
      <trkpt lat="45.61246" lon="4.61237">
        <ele>592</ele>
        <time>2012-11-07T08:37:42Z</time>
      </trkpt>
      <trkpt lat="45.61247" lon="4.6124">
        <ele>590</ele>
        <time>2012-11-07T08:37:44Z</time>
      </trkpt>
      <trkpt lat="45.61247" lon="4.61242">
        <ele>589</ele>
        <time>2012-11-07T08:37:48Z</time>
      </trkpt>
      <trkpt lat="45.61249" lon="4.61244">
        <ele>589</ele>
        <time>2012-11-07T08:37:54Z</time>
      </trkpt>
      <trkpt lat="45.61252" lon="4.61245">
        <ele>590</ele>
        <time>2012-11-07T08:37:56Z</time>
      </trkpt>
      <trkpt lat="45.61255" lon="4.61246">
        <ele>589</ele>
        <time>2012-11-07T08:37:58Z</time>
      </trkpt>
      <trkpt lat="45.61259" lon="4.61246">
        <ele>590</ele>
        <time>2012-11-07T08:38:00Z</time>
      </trkpt>
      <trkpt lat="45.61261" lon="4.61246">
        <ele>590</ele>
        <time>2012-11-07T08:38:02Z</time>
      </trkpt>
      <trkpt lat="45.61263" lon="4.61247">
        <ele>590</ele>
        <time>2012-11-07T08:38:04Z</time>
      </trkpt>
      <trkpt lat="45.61265" lon="4.61248">
        <ele>591</ele>
        <time>2012-11-07T08:38:06Z</time>
      </trkpt>
      <trkpt lat="45.61266" lon="4.6125">
        <ele>592</ele>
        <time>2012-11-07T08:38:08Z</time>
      </trkpt>
      <trkpt lat="45.61269" lon="4.61253">
        <ele>592</ele>
        <time>2012-11-07T08:38:10Z</time>
      </trkpt>
      <trkpt lat="45.61271" lon="4.61255">
        <ele>592</ele>
        <time>2012-11-07T08:38:12Z</time>
      </trkpt>
      <trkpt lat="45.61273" lon="4.61256">
        <ele>592</ele>
        <time>2012-11-07T08:38:14Z</time>
      </trkpt>
      <trkpt lat="45.61276" lon="4.61258">
        <ele>592</ele>
        <time>2012-11-07T08:38:16Z</time>
      </trkpt>
      <trkpt lat="45.61278" lon="4.6126">
        <ele>591</ele>
        <time>2012-11-07T08:38:18Z</time>
      </trkpt>
      <trkpt lat="45.6128" lon="4.61263">
        <ele>592</ele>
        <time>2012-11-07T08:38:20Z</time>
      </trkpt>
      <trkpt lat="45.61281" lon="4.61266">
        <ele>591</ele>
        <time>2012-11-07T08:38:22Z</time>
      </trkpt>
      <trkpt lat="45.61281" lon="4.61269">
        <ele>593</ele>
        <time>2012-11-07T08:38:25Z</time>
      </trkpt>
      <trkpt lat="45.61282" lon="4.61272">
        <ele>593</ele>
        <time>2012-11-07T08:38:27Z</time>
      </trkpt>
      <trkpt lat="45.61283" lon="4.61275">
        <ele>597</ele>
        <time>2012-11-07T08:38:30Z</time>
      </trkpt>
      <trkpt lat="45.61283" lon="4.61277">
        <ele>598</ele>
        <time>2012-11-07T08:38:32Z</time>
      </trkpt>
      <trkpt lat="45.61284" lon="4.61281">
        <ele>598</ele>
        <time>2012-11-07T08:38:34Z</time>
      </trkpt>
      <trkpt lat="45.61284" lon="4.61284">
        <ele>598</ele>
        <time>2012-11-07T08:38:36Z</time>
      </trkpt>
      <trkpt lat="45.61285" lon="4.61286">
        <ele>598</ele>
        <time>2012-11-07T08:38:38Z</time>
      </trkpt>
      <trkpt lat="45.61287" lon="4.61288">
        <ele>598</ele>
        <time>2012-11-07T08:38:40Z</time>
      </trkpt>
      <trkpt lat="45.6129" lon="4.61291">
        <ele>597</ele>
        <time>2012-11-07T08:38:44Z</time>
      </trkpt>
      <trkpt lat="45.61294" lon="4.61293">
        <ele>597</ele>
        <time>2012-11-07T08:38:47Z</time>
      </trkpt>
      <trkpt lat="45.61297" lon="4.61296">
        <ele>599</ele>
        <time>2012-11-07T08:38:49Z</time>
      </trkpt>
      <trkpt lat="45.61298" lon="4.61298">
        <ele>599</ele>
        <time>2012-11-07T08:38:50Z</time>
      </trkpt>
      <trkpt lat="45.613" lon="4.61301">
        <ele>598</ele>
        <time>2012-11-07T08:38:52Z</time>
      </trkpt>
      <trkpt lat="45.613" lon="4.61304">
        <ele>597</ele>
        <time>2012-11-07T08:38:58Z</time>
      </trkpt>
      <trkpt lat="45.61302" lon="4.61305">
        <ele>598</ele>
        <time>2012-11-07T08:39:07Z</time>
      </trkpt>
      <trkpt lat="45.61305" lon="4.61306">
        <ele>598</ele>
        <time>2012-11-07T08:39:13Z</time>
      </trkpt>
      <trkpt lat="45.61305" lon="4.61309">
        <ele>598</ele>
        <time>2012-11-07T08:39:16Z</time>
      </trkpt>
      <trkpt lat="45.61305" lon="4.61313">
        <ele>599</ele>
        <time>2012-11-07T08:39:18Z</time>
      </trkpt>
      <trkpt lat="45.61306" lon="4.61316">
        <ele>600</ele>
        <time>2012-11-07T08:39:23Z</time>
      </trkpt>
      <trkpt lat="45.61309" lon="4.61318">
        <ele>599</ele>
        <time>2012-11-07T08:39:26Z</time>
      </trkpt>
      <trkpt lat="45.61311" lon="4.6132">
        <ele>600</ele>
        <time>2012-11-07T08:39:28Z</time>
      </trkpt>
      <trkpt lat="45.61313" lon="4.61321">
        <ele>601</ele>
        <time>2012-11-07T08:39:30Z</time>
      </trkpt>
      <trkpt lat="45.61315" lon="4.61322">
        <ele>601</ele>
        <time>2012-11-07T08:39:32Z</time>
      </trkpt>
      <trkpt lat="45.61327" lon="4.6133">
        <ele>602</ele>
        <time>2012-11-07T08:39:42Z</time>
      </trkpt>
      <trkpt lat="45.61328" lon="4.61333">
        <ele>605</ele>
        <time>2012-11-07T08:39:48Z</time>
      </trkpt>
      <trkpt lat="45.61331" lon="4.61337">
        <ele>605</ele>
        <time>2012-11-07T08:39:53Z</time>
      </trkpt>
      <trkpt lat="45.61332" lon="4.6134">
        <ele>605</ele>
        <time>2012-11-07T08:39:56Z</time>
      </trkpt>
      <trkpt lat="45.61333" lon="4.61343">
        <ele>606</ele>
        <time>2012-11-07T08:39:59Z</time>
      </trkpt>
      <trkpt lat="45.61334" lon="4.61345">
        <ele>607</ele>
        <time>2012-11-07T08:40:04Z</time>
      </trkpt>
      <trkpt lat="45.61336" lon="4.61347">
        <ele>610</ele>
        <time>2012-11-07T08:40:09Z</time>
      </trkpt>
      <trkpt lat="45.61338" lon="4.61347">
        <ele>610</ele>
        <time>2012-11-07T08:40:11Z</time>
      </trkpt>
      <trkpt lat="45.6134" lon="4.61348">
        <ele>610</ele>
        <time>2012-11-07T08:40:13Z</time>
      </trkpt>
      <trkpt lat="45.61342" lon="4.61348">
        <ele>610</ele>
        <time>2012-11-07T08:40:15Z</time>
      </trkpt>
      <trkpt lat="45.61344" lon="4.6135">
        <ele>611</ele>
        <time>2012-11-07T08:40:17Z</time>
      </trkpt>
      <trkpt lat="45.61346" lon="4.6135">
        <ele>611</ele>
        <time>2012-11-07T08:40:19Z</time>
      </trkpt>
      <trkpt lat="45.61348" lon="4.61351">
        <ele>613</ele>
        <time>2012-11-07T08:40:21Z</time>
      </trkpt>
      <trkpt lat="45.61349" lon="4.61353">
        <ele>615</ele>
        <time>2012-11-07T08:40:24Z</time>
      </trkpt>
      <trkpt lat="45.61349" lon="4.61357">
        <ele>614</ele>
        <time>2012-11-07T08:40:28Z</time>
      </trkpt>
      <trkpt lat="45.6135" lon="4.61359">
        <ele>615</ele>
        <time>2012-11-07T08:40:30Z</time>
      </trkpt>
      <trkpt lat="45.61351" lon="4.61361">
        <ele>616</ele>
        <time>2012-11-07T08:40:32Z</time>
      </trkpt>
      <trkpt lat="45.61353" lon="4.61362">
        <ele>616</ele>
        <time>2012-11-07T08:40:34Z</time>
      </trkpt>
      <trkpt lat="45.61355" lon="4.61363">
        <ele>616</ele>
        <time>2012-11-07T08:40:36Z</time>
      </trkpt>
      <trkpt lat="45.61357" lon="4.61363">
        <ele>618</ele>
        <time>2012-11-07T08:40:38Z</time>
      </trkpt>
      <trkpt lat="45.61359" lon="4.61365">
        <ele>618</ele>
        <time>2012-11-07T08:40:40Z</time>
      </trkpt>
      <trkpt lat="45.61362" lon="4.61366">
        <ele>620</ele>
        <time>2012-11-07T08:40:42Z</time>
      </trkpt>
      <trkpt lat="45.61364" lon="4.61368">
        <ele>619</ele>
        <time>2012-11-07T08:40:45Z</time>
      </trkpt>
      <trkpt lat="45.61365" lon="4.61372">
        <ele>619</ele>
        <time>2012-11-07T08:40:49Z</time>
      </trkpt>
      <trkpt lat="45.61367" lon="4.61373">
        <ele>620</ele>
        <time>2012-11-07T08:40:52Z</time>
      </trkpt>
      <trkpt lat="45.6137" lon="4.61375">
        <ele>619</ele>
        <time>2012-11-07T08:40:57Z</time>
      </trkpt>
      <trkpt lat="45.61374" lon="4.61374">
        <ele>619</ele>
        <time>2012-11-07T08:41:00Z</time>
      </trkpt>
      <trkpt lat="45.61376" lon="4.61375">
        <ele>619</ele>
        <time>2012-11-07T08:41:02Z</time>
      </trkpt>
      <trkpt lat="45.61377" lon="4.61377">
        <ele>619</ele>
        <time>2012-11-07T08:41:05Z</time>
      </trkpt>
      <trkpt lat="45.61377" lon="4.61385">
        <ele>621</ele>
        <time>2012-11-07T08:41:09Z</time>
      </trkpt>
      <trkpt lat="45.61378" lon="4.61387">
        <ele>622</ele>
        <time>2012-11-07T08:41:10Z</time>
      </trkpt>
      <trkpt lat="45.6138" lon="4.6139">
        <ele>621</ele>
        <time>2012-11-07T08:41:11Z</time>
      </trkpt>
      <trkpt lat="45.61381" lon="4.61392">
        <ele>620</ele>
        <time>2012-11-07T08:41:12Z</time>
      </trkpt>
      <trkpt lat="45.61384" lon="4.61396">
        <ele>622</ele>
        <time>2012-11-07T08:41:15Z</time>
      </trkpt>
      <trkpt lat="45.61385" lon="4.61399">
        <ele>622</ele>
        <time>2012-11-07T08:41:19Z</time>
      </trkpt>
      <trkpt lat="45.61387" lon="4.614">
        <ele>624</ele>
        <time>2012-11-07T08:41:25Z</time>
      </trkpt>
      <trkpt lat="45.61388" lon="4.61402">
        <ele>624</ele>
        <time>2012-11-07T08:41:27Z</time>
      </trkpt>
      <trkpt lat="45.61389" lon="4.61405">
        <ele>625</ele>
        <time>2012-11-07T08:41:29Z</time>
      </trkpt>
      <trkpt lat="45.6139" lon="4.61408">
        <ele>625</ele>
        <time>2012-11-07T08:41:31Z</time>
      </trkpt>
      <trkpt lat="45.61392" lon="4.61409">
        <ele>629</ele>
        <time>2012-11-07T08:41:34Z</time>
      </trkpt>
      <trkpt lat="45.61393" lon="4.61411">
        <ele>629</ele>
        <time>2012-11-07T08:41:36Z</time>
      </trkpt>
      <trkpt lat="45.61395" lon="4.61414">
        <ele>631</ele>
        <time>2012-11-07T08:41:38Z</time>
      </trkpt>
      <trkpt lat="45.61397" lon="4.61416">
        <ele>631</ele>
        <time>2012-11-07T08:41:41Z</time>
      </trkpt>
      <trkpt lat="45.61398" lon="4.61418">
        <ele>630</ele>
        <time>2012-11-07T08:41:44Z</time>
      </trkpt>
      <trkpt lat="45.614" lon="4.6142">
        <ele>630</ele>
        <time>2012-11-07T08:41:47Z</time>
      </trkpt>
      <trkpt lat="45.61402" lon="4.61421">
        <ele>629</ele>
        <time>2012-11-07T08:41:51Z</time>
      </trkpt>
      <trkpt lat="45.61404" lon="4.61423">
        <ele>633</ele>
        <time>2012-11-07T08:42:00Z</time>
      </trkpt>
      <trkpt lat="45.61407" lon="4.61426">
        <ele>635</ele>
        <time>2012-11-07T08:42:05Z</time>
      </trkpt>
      <trkpt lat="45.61409" lon="4.61429">
        <ele>638</ele>
        <time>2012-11-07T08:42:10Z</time>
      </trkpt>
      <trkpt lat="45.6141" lon="4.61432">
        <ele>636</ele>
        <time>2012-11-07T08:42:14Z</time>
      </trkpt>
      <trkpt lat="45.61412" lon="4.61437">
        <ele>635</ele>
        <time>2012-11-07T08:42:19Z</time>
      </trkpt>
      <trkpt lat="45.61413" lon="4.6144">
        <ele>634</ele>
        <time>2012-11-07T08:42:21Z</time>
      </trkpt>
      <trkpt lat="45.61413" lon="4.61443">
        <ele>634</ele>
        <time>2012-11-07T08:42:23Z</time>
      </trkpt>
      <trkpt lat="45.61413" lon="4.61447">
        <ele>635</ele>
        <time>2012-11-07T08:42:25Z</time>
      </trkpt>
      <trkpt lat="45.61415" lon="4.6145">
        <ele>634</ele>
        <time>2012-11-07T08:42:27Z</time>
      </trkpt>
      <trkpt lat="45.61416" lon="4.61452">
        <ele>634</ele>
        <time>2012-11-07T08:42:29Z</time>
      </trkpt>
      <trkpt lat="45.6142" lon="4.61458">
        <ele>633</ele>
        <time>2012-11-07T08:42:33Z</time>
      </trkpt>
      <trkpt lat="45.61423" lon="4.61465">
        <ele>634</ele>
        <time>2012-11-07T08:42:37Z</time>
      </trkpt>
      <trkpt lat="45.61424" lon="4.61469">
        <ele>633</ele>
        <time>2012-11-07T08:42:39Z</time>
      </trkpt>
      <trkpt lat="45.61425" lon="4.61473">
        <ele>633</ele>
        <time>2012-11-07T08:42:41Z</time>
      </trkpt>
      <trkpt lat="45.61426" lon="4.61477">
        <ele>634</ele>
        <time>2012-11-07T08:42:44Z</time>
      </trkpt>
      <trkpt lat="45.61427" lon="4.6148">
        <ele>633</ele>
        <time>2012-11-07T08:42:47Z</time>
      </trkpt>
      <trkpt lat="45.61428" lon="4.61482">
        <ele>632</ele>
        <time>2012-11-07T08:42:50Z</time>
      </trkpt>
      <trkpt lat="45.6143" lon="4.61484">
        <ele>632</ele>
        <time>2012-11-07T08:42:53Z</time>
      </trkpt>
      <trkpt lat="45.61432" lon="4.61486">
        <ele>633</ele>
        <time>2012-11-07T08:42:55Z</time>
      </trkpt>
      <trkpt lat="45.61434" lon="4.61487">
        <ele>633</ele>
        <time>2012-11-07T08:42:57Z</time>
      </trkpt>
      <trkpt lat="45.61436" lon="4.61487">
        <ele>636</ele>
        <time>2012-11-07T08:42:59Z</time>
      </trkpt>
      <trkpt lat="45.61438" lon="4.61487">
        <ele>638</ele>
        <time>2012-11-07T08:43:03Z</time>
      </trkpt>
      <trkpt lat="45.61441" lon="4.61485">
        <ele>638</ele>
        <time>2012-11-07T08:43:06Z</time>
      </trkpt>
      <trkpt lat="45.61443" lon="4.61483">
        <ele>639</ele>
        <time>2012-11-07T08:43:10Z</time>
      </trkpt>
      <trkpt lat="45.61445" lon="4.61482">
        <ele>639</ele>
        <time>2012-11-07T08:43:13Z</time>
      </trkpt>
      <trkpt lat="45.61446" lon="4.6148">
        <ele>640</ele>
        <time>2012-11-07T08:43:17Z</time>
      </trkpt>
      <trkpt lat="45.61449" lon="4.61478">
        <ele>640</ele>
        <time>2012-11-07T08:43:21Z</time>
      </trkpt>
      <trkpt lat="45.61452" lon="4.61476">
        <ele>641</ele>
        <time>2012-11-07T08:43:24Z</time>
      </trkpt>
      <trkpt lat="45.61454" lon="4.61475">
        <ele>641</ele>
        <time>2012-11-07T08:43:27Z</time>
      </trkpt>
      <trkpt lat="45.61456" lon="4.61473">
        <ele>640</ele>
        <time>2012-11-07T08:43:29Z</time>
      </trkpt>
      <trkpt lat="45.61459" lon="4.61469">
        <ele>641</ele>
        <time>2012-11-07T08:43:34Z</time>
      </trkpt>
      <trkpt lat="45.61461" lon="4.61467">
        <ele>642</ele>
        <time>2012-11-07T08:43:38Z</time>
      </trkpt>
      <trkpt lat="45.61464" lon="4.61459">
        <ele>642</ele>
        <time>2012-11-07T08:43:43Z</time>
      </trkpt>
      <trkpt lat="45.61466" lon="4.61458">
        <ele>643</ele>
        <time>2012-11-07T08:43:46Z</time>
      </trkpt>
      <trkpt lat="45.61468" lon="4.61459">
        <ele>643</ele>
        <time>2012-11-07T08:43:50Z</time>
      </trkpt>
      <trkpt lat="45.6147" lon="4.61457">
        <ele>644</ele>
        <time>2012-11-07T08:43:53Z</time>
      </trkpt>
      <trkpt lat="45.61471" lon="4.61455">
        <ele>645</ele>
        <time>2012-11-07T08:43:55Z</time>
      </trkpt>
      <trkpt lat="45.61473" lon="4.61453">
        <ele>645</ele>
        <time>2012-11-07T08:43:57Z</time>
      </trkpt>
      <trkpt lat="45.61476" lon="4.61449">
        <ele>646</ele>
        <time>2012-11-07T08:44:00Z</time>
      </trkpt>
      <trkpt lat="45.61478" lon="4.61447">
        <ele>647</ele>
        <time>2012-11-07T08:44:02Z</time>
      </trkpt>
      <trkpt lat="45.61478" lon="4.6144">
        <ele>646</ele>
        <time>2012-11-07T08:44:07Z</time>
      </trkpt>
      <trkpt lat="45.61479" lon="4.61435">
        <ele>647</ele>
        <time>2012-11-07T08:44:12Z</time>
      </trkpt>
      <trkpt lat="45.61481" lon="4.61433">
        <ele>648</ele>
        <time>2012-11-07T08:44:16Z</time>
      </trkpt>
      <trkpt lat="45.61482" lon="4.61431">
        <ele>648</ele>
        <time>2012-11-07T08:44:20Z</time>
      </trkpt>
      <trkpt lat="45.61483" lon="4.61428">
        <ele>648</ele>
        <time>2012-11-07T08:44:22Z</time>
      </trkpt>
      <trkpt lat="45.61483" lon="4.61423">
        <ele>649</ele>
        <time>2012-11-07T08:44:26Z</time>
      </trkpt>
      <trkpt lat="45.61484" lon="4.61421">
        <ele>651</ele>
        <time>2012-11-07T08:44:33Z</time>
      </trkpt>
      <trkpt lat="45.61485" lon="4.61419">
        <ele>653</ele>
        <time>2012-11-07T08:44:35Z</time>
      </trkpt>
      <trkpt lat="45.61486" lon="4.61416">
        <ele>652</ele>
        <time>2012-11-07T08:44:38Z</time>
      </trkpt>
      <trkpt lat="45.61487" lon="4.61413">
        <ele>652</ele>
        <time>2012-11-07T08:44:43Z</time>
      </trkpt>
      <trkpt lat="45.61489" lon="4.61412">
        <ele>653</ele>
        <time>2012-11-07T08:44:47Z</time>
      </trkpt>
      <trkpt lat="45.61491" lon="4.61412">
        <ele>652</ele>
        <time>2012-11-07T08:44:50Z</time>
      </trkpt>
      <trkpt lat="45.61492" lon="4.61409">
        <ele>652</ele>
        <time>2012-11-07T08:44:54Z</time>
      </trkpt>
      <trkpt lat="45.61491" lon="4.61405">
        <ele>652</ele>
        <time>2012-11-07T08:44:57Z</time>
      </trkpt>
      <trkpt lat="45.61492" lon="4.61402">
        <ele>654</ele>
        <time>2012-11-07T08:45:00Z</time>
      </trkpt>
      <trkpt lat="45.61494" lon="4.61399">
        <ele>654</ele>
        <time>2012-11-07T08:45:04Z</time>
      </trkpt>
      <trkpt lat="45.61495" lon="4.61395">
        <ele>653</ele>
        <time>2012-11-07T08:45:07Z</time>
      </trkpt>
      <trkpt lat="45.61496" lon="4.61391">
        <ele>654</ele>
        <time>2012-11-07T08:45:12Z</time>
      </trkpt>
      <trkpt lat="45.61497" lon="4.61388">
        <ele>654</ele>
        <time>2012-11-07T08:45:15Z</time>
      </trkpt>
      <trkpt lat="45.61497" lon="4.61385">
        <ele>654</ele>
        <time>2012-11-07T08:45:17Z</time>
      </trkpt>
      <trkpt lat="45.61498" lon="4.61382">
        <ele>654</ele>
        <time>2012-11-07T08:45:19Z</time>
      </trkpt>
      <trkpt lat="45.61498" lon="4.6138">
        <ele>654</ele>
        <time>2012-11-07T08:45:21Z</time>
      </trkpt>
      <trkpt lat="45.61498" lon="4.61377">
        <ele>653</ele>
        <time>2012-11-07T08:45:24Z</time>
      </trkpt>
      <trkpt lat="45.615" lon="4.61373">
        <ele>654</ele>
        <time>2012-11-07T08:45:31Z</time>
      </trkpt>
      <trkpt lat="45.61501" lon="4.6137">
        <ele>655</ele>
        <time>2012-11-07T08:45:34Z</time>
      </trkpt>
      <trkpt lat="45.61503" lon="4.61369">
        <ele>656</ele>
        <time>2012-11-07T08:45:37Z</time>
      </trkpt>
      <trkpt lat="45.61506" lon="4.61368">
        <ele>658</ele>
        <time>2012-11-07T08:45:41Z</time>
      </trkpt>
      <trkpt lat="45.61506" lon="4.61365">
        <ele>660</ele>
        <time>2012-11-07T08:45:46Z</time>
      </trkpt>
      <trkpt lat="45.61506" lon="4.61362">
        <ele>658</ele>
        <time>2012-11-07T08:45:54Z</time>
      </trkpt>
      <trkpt lat="45.61508" lon="4.61359">
        <ele>657</ele>
        <time>2012-11-07T08:45:57Z</time>
      </trkpt>
      <trkpt lat="45.61509" lon="4.61357">
        <ele>660</ele>
        <time>2012-11-07T08:46:00Z</time>
      </trkpt>
      <trkpt lat="45.61511" lon="4.61353">
        <ele>663</ele>
        <time>2012-11-07T08:46:04Z</time>
      </trkpt>
      <trkpt lat="45.61513" lon="4.61351">
        <ele>663</ele>
        <time>2012-11-07T08:46:07Z</time>
      </trkpt>
      <trkpt lat="45.61514" lon="4.61349">
        <ele>664</ele>
        <time>2012-11-07T08:46:10Z</time>
      </trkpt>
      <trkpt lat="45.61516" lon="4.61346">
        <ele>665</ele>
        <time>2012-11-07T08:46:13Z</time>
      </trkpt>
      <trkpt lat="45.61517" lon="4.61343">
        <ele>667</ele>
        <time>2012-11-07T08:46:16Z</time>
      </trkpt>
      <trkpt lat="45.61517" lon="4.61339">
        <ele>667</ele>
        <time>2012-11-07T08:46:21Z</time>
      </trkpt>
      <trkpt lat="45.61516" lon="4.61334">
        <ele>667</ele>
        <time>2012-11-07T08:46:24Z</time>
      </trkpt>
      <trkpt lat="45.61516" lon="4.61331">
        <ele>666</ele>
        <time>2012-11-07T08:46:26Z</time>
      </trkpt>
      <trkpt lat="45.61517" lon="4.61328">
        <ele>665</ele>
        <time>2012-11-07T08:46:28Z</time>
      </trkpt>
      <trkpt lat="45.61516" lon="4.61326">
        <ele>666</ele>
        <time>2012-11-07T08:46:36Z</time>
      </trkpt>
      <trkpt lat="45.61514" lon="4.61324">
        <ele>668</ele>
        <time>2012-11-07T08:46:39Z</time>
      </trkpt>
      <trkpt lat="45.61512" lon="4.61324">
        <ele>667</ele>
        <time>2012-11-07T08:46:41Z</time>
      </trkpt>
      <trkpt lat="45.61514" lon="4.61322">
        <ele>669</ele>
        <time>2012-11-07T08:46:48Z</time>
      </trkpt>
      <trkpt lat="45.61514" lon="4.61318">
        <ele>670</ele>
        <time>2012-11-07T08:46:51Z</time>
      </trkpt>
      <trkpt lat="45.61512" lon="4.6131">
        <ele>671</ele>
        <time>2012-11-07T08:46:55Z</time>
      </trkpt>
      <trkpt lat="45.61512" lon="4.61307">
        <ele>671</ele>
        <time>2012-11-07T08:46:57Z</time>
      </trkpt>
      <trkpt lat="45.61513" lon="4.61304">
        <ele>671</ele>
        <time>2012-11-07T08:47:00Z</time>
      </trkpt>
      <trkpt lat="45.61513" lon="4.61301">
        <ele>673</ele>
        <time>2012-11-07T08:47:04Z</time>
      </trkpt>
      <trkpt lat="45.61513" lon="4.61297">
        <ele>673</ele>
        <time>2012-11-07T08:47:09Z</time>
      </trkpt>
      <trkpt lat="45.61512" lon="4.61292">
        <ele>675</ele>
        <time>2012-11-07T08:47:14Z</time>
      </trkpt>
      <trkpt lat="45.61509" lon="4.61288">
        <ele>677</ele>
        <time>2012-11-07T08:47:19Z</time>
      </trkpt>
      <trkpt lat="45.61508" lon="4.61286">
        <ele>677</ele>
        <time>2012-11-07T08:47:22Z</time>
      </trkpt>
      <trkpt lat="45.61509" lon="4.61283">
        <ele>676</ele>
        <time>2012-11-07T08:47:25Z</time>
      </trkpt>
      <trkpt lat="45.6151" lon="4.6128">
        <ele>676</ele>
        <time>2012-11-07T08:47:27Z</time>
      </trkpt>
      <trkpt lat="45.61511" lon="4.61278">
        <ele>676</ele>
        <time>2012-11-07T08:47:29Z</time>
      </trkpt>
      <trkpt lat="45.61512" lon="4.61276">
        <ele>675</ele>
        <time>2012-11-07T08:47:32Z</time>
      </trkpt>
      <trkpt lat="45.61513" lon="4.61273">
        <ele>674</ele>
        <time>2012-11-07T08:47:35Z</time>
      </trkpt>
      <trkpt lat="45.61515" lon="4.6127">
        <ele>675</ele>
        <time>2012-11-07T08:47:38Z</time>
      </trkpt>
      <trkpt lat="45.61516" lon="4.61267">
        <ele>676</ele>
        <time>2012-11-07T08:47:41Z</time>
      </trkpt>
      <trkpt lat="45.61516" lon="4.61264">
        <ele>679</ele>
        <time>2012-11-07T08:47:45Z</time>
      </trkpt>
      <trkpt lat="45.61517" lon="4.61261">
        <ele>680</ele>
        <time>2012-11-07T08:47:49Z</time>
      </trkpt>
      <trkpt lat="45.61517" lon="4.61258">
        <ele>680</ele>
        <time>2012-11-07T08:47:52Z</time>
      </trkpt>
      <trkpt lat="45.61516" lon="4.61255">
        <ele>682</ele>
        <time>2012-11-07T08:47:55Z</time>
      </trkpt>
      <trkpt lat="45.61515" lon="4.61253">
        <ele>684</ele>
        <time>2012-11-07T08:48:02Z</time>
      </trkpt>
      <trkpt lat="45.61515" lon="4.61247">
        <ele>685</ele>
        <time>2012-11-07T08:48:06Z</time>
      </trkpt>
      <trkpt lat="45.61515" lon="4.61244">
        <ele>686</ele>
        <time>2012-11-07T08:48:08Z</time>
      </trkpt>
      <trkpt lat="45.61516" lon="4.61239">
        <ele>688</ele>
        <time>2012-11-07T08:48:11Z</time>
      </trkpt>
      <trkpt lat="45.61517" lon="4.61236">
        <ele>688</ele>
        <time>2012-11-07T08:48:13Z</time>
      </trkpt>
      <trkpt lat="45.61518" lon="4.61233">
        <ele>689</ele>
        <time>2012-11-07T08:48:15Z</time>
      </trkpt>
      <trkpt lat="45.61519" lon="4.61228">
        <ele>691</ele>
        <time>2012-11-07T08:48:19Z</time>
      </trkpt>
      <trkpt lat="45.61519" lon="4.61224">
        <ele>689</ele>
        <time>2012-11-07T08:48:22Z</time>
      </trkpt>
      <trkpt lat="45.61519" lon="4.61221">
        <ele>688</ele>
        <time>2012-11-07T08:48:24Z</time>
      </trkpt>
      <trkpt lat="45.61519" lon="4.61217">
        <ele>688</ele>
        <time>2012-11-07T08:48:30Z</time>
      </trkpt>
      <trkpt lat="45.6152" lon="4.61213">
        <ele>687</ele>
        <time>2012-11-07T08:48:33Z</time>
      </trkpt>
      <trkpt lat="45.61521" lon="4.61211">
        <ele>686</ele>
        <time>2012-11-07T08:48:35Z</time>
      </trkpt>
      <trkpt lat="45.61522" lon="4.61207">
        <ele>686</ele>
        <time>2012-11-07T08:48:37Z</time>
      </trkpt>
      <trkpt lat="45.61524" lon="4.61204">
        <ele>686</ele>
        <time>2012-11-07T08:48:39Z</time>
      </trkpt>
      <trkpt lat="45.61525" lon="4.61202">
        <ele>686</ele>
        <time>2012-11-07T08:48:42Z</time>
      </trkpt>
      <trkpt lat="45.61526" lon="4.612">
        <ele>688</ele>
        <time>2012-11-07T08:48:45Z</time>
      </trkpt>
      <trkpt lat="45.61527" lon="4.61197">
        <ele>688</ele>
        <time>2012-11-07T08:48:48Z</time>
      </trkpt>
      <trkpt lat="45.61529" lon="4.61193">
        <ele>686</ele>
        <time>2012-11-07T08:48:50Z</time>
      </trkpt>
      <trkpt lat="45.61529" lon="4.61188">
        <ele>686</ele>
        <time>2012-11-07T08:48:52Z</time>
      </trkpt>
      <trkpt lat="45.61529" lon="4.61184">
        <ele>686</ele>
        <time>2012-11-07T08:48:54Z</time>
      </trkpt>
      <trkpt lat="45.61528" lon="4.61179">
        <ele>686</ele>
        <time>2012-11-07T08:48:56Z</time>
      </trkpt>
      <trkpt lat="45.61528" lon="4.61175">
        <ele>687</ele>
        <time>2012-11-07T08:48:58Z</time>
      </trkpt>
      <trkpt lat="45.61529" lon="4.61173">
        <ele>688</ele>
        <time>2012-11-07T08:49:05Z</time>
      </trkpt>
      <trkpt lat="45.6153" lon="4.6117">
        <ele>688</ele>
        <time>2012-11-07T08:49:08Z</time>
      </trkpt>
      <trkpt lat="45.61531" lon="4.61167">
        <ele>689</ele>
        <time>2012-11-07T08:49:11Z</time>
      </trkpt>
      <trkpt lat="45.61532" lon="4.61166">
        <ele>690</ele>
        <time>2012-11-07T08:49:14Z</time>
      </trkpt>
      <trkpt lat="45.61534" lon="4.61164">
        <ele>690</ele>
        <time>2012-11-07T08:49:16Z</time>
      </trkpt>
      <trkpt lat="45.61534" lon="4.61158">
        <ele>689</ele>
        <time>2012-11-07T08:49:18Z</time>
      </trkpt>
      <trkpt lat="45.61533" lon="4.61155">
        <ele>689</ele>
        <time>2012-11-07T08:49:19Z</time>
      </trkpt>
      <trkpt lat="45.61531" lon="4.61151">
        <ele>690</ele>
        <time>2012-11-07T08:49:21Z</time>
      </trkpt>
      <trkpt lat="45.61529" lon="4.61149">
        <ele>691</ele>
        <time>2012-11-07T08:49:22Z</time>
      </trkpt>
      <trkpt lat="45.61528" lon="4.61146">
        <ele>693</ele>
        <time>2012-11-07T08:49:24Z</time>
      </trkpt>
      <trkpt lat="45.61525" lon="4.61139">
        <ele>695</ele>
        <time>2012-11-07T08:49:29Z</time>
      </trkpt>
      <trkpt lat="45.61524" lon="4.61136">
        <ele>695</ele>
        <time>2012-11-07T08:49:31Z</time>
      </trkpt>
      <trkpt lat="45.61525" lon="4.61134">
        <ele>694</ele>
        <time>2012-11-07T08:49:33Z</time>
      </trkpt>
      <trkpt lat="45.61527" lon="4.61131">
        <ele>693</ele>
        <time>2012-11-07T08:49:35Z</time>
      </trkpt>
      <trkpt lat="45.61527" lon="4.61126">
        <ele>694</ele>
        <time>2012-11-07T08:49:38Z</time>
      </trkpt>
      <trkpt lat="45.61526" lon="4.61125">
        <ele>693</ele>
        <time>2012-11-07T08:49:41Z</time>
      </trkpt>
      <trkpt lat="45.61526" lon="4.61122">
        <ele>693</ele>
        <time>2012-11-07T08:49:45Z</time>
      </trkpt>
      <trkpt lat="45.61528" lon="4.6112">
        <ele>693</ele>
        <time>2012-11-07T08:49:47Z</time>
      </trkpt>
      <trkpt lat="45.6153" lon="4.61118">
        <ele>691</ele>
        <time>2012-11-07T08:49:49Z</time>
      </trkpt>
      <trkpt lat="45.61533" lon="4.61111">
        <ele>690</ele>
        <time>2012-11-07T08:49:53Z</time>
      </trkpt>
      <trkpt lat="45.61534" lon="4.61106">
        <ele>691</ele>
        <time>2012-11-07T08:49:55Z</time>
      </trkpt>
      <trkpt lat="45.61534" lon="4.61104">
        <ele>691</ele>
        <time>2012-11-07T08:49:56Z</time>
      </trkpt>
      <trkpt lat="45.61533" lon="4.61101">
        <ele>691</ele>
        <time>2012-11-07T08:49:57Z</time>
      </trkpt>
      <trkpt lat="45.61533" lon="4.61097">
        <ele>693</ele>
        <time>2012-11-07T08:49:59Z</time>
      </trkpt>
      <trkpt lat="45.61534" lon="4.61095">
        <ele>695</ele>
        <time>2012-11-07T08:50:00Z</time>
      </trkpt>
      <trkpt lat="45.61537" lon="4.61091">
        <ele>694</ele>
        <time>2012-11-07T08:50:02Z</time>
      </trkpt>
      <trkpt lat="45.61541" lon="4.61085">
        <ele>696</ele>
        <time>2012-11-07T08:50:06Z</time>
      </trkpt>
      <trkpt lat="45.61543" lon="4.61084">
        <ele>695</ele>
        <time>2012-11-07T08:50:07Z</time>
      </trkpt>
      <trkpt lat="45.61545" lon="4.61082">
        <ele>696</ele>
        <time>2012-11-07T08:50:08Z</time>
      </trkpt>
      <trkpt lat="45.61547" lon="4.61081">
        <ele>697</ele>
        <time>2012-11-07T08:50:09Z</time>
      </trkpt>
      <trkpt lat="45.61549" lon="4.61081">
        <ele>698</ele>
        <time>2012-11-07T08:50:11Z</time>
      </trkpt>
      <trkpt lat="45.6155" lon="4.61078">
        <ele>697</ele>
        <time>2012-11-07T08:50:14Z</time>
      </trkpt>
      <trkpt lat="45.61551" lon="4.61074">
        <ele>695</ele>
        <time>2012-11-07T08:50:17Z</time>
      </trkpt>
      <trkpt lat="45.61553" lon="4.6107">
        <ele>696</ele>
        <time>2012-11-07T08:50:19Z</time>
      </trkpt>
      <trkpt lat="45.61554" lon="4.61065">
        <ele>697</ele>
        <time>2012-11-07T08:50:22Z</time>
      </trkpt>
      <trkpt lat="45.61556" lon="4.61062">
        <ele>698</ele>
        <time>2012-11-07T08:50:24Z</time>
      </trkpt>
      <trkpt lat="45.61557" lon="4.61056">
        <ele>697</ele>
        <time>2012-11-07T08:50:30Z</time>
      </trkpt>
      <trkpt lat="45.61559" lon="4.61052">
        <ele>698</ele>
        <time>2012-11-07T08:50:32Z</time>
      </trkpt>
      <trkpt lat="45.61561" lon="4.61049">
        <ele>699</ele>
        <time>2012-11-07T08:50:34Z</time>
      </trkpt>
      <trkpt lat="45.61561" lon="4.61043">
        <ele>698</ele>
        <time>2012-11-07T08:50:37Z</time>
      </trkpt>
      <trkpt lat="45.61562" lon="4.6104">
        <ele>698</ele>
        <time>2012-11-07T08:50:39Z</time>
      </trkpt>
      <trkpt lat="45.61563" lon="4.61037">
        <ele>698</ele>
        <time>2012-11-07T08:50:40Z</time>
      </trkpt>
      <trkpt lat="45.61564" lon="4.61034">
        <ele>696</ele>
        <time>2012-11-07T08:50:42Z</time>
      </trkpt>
      <trkpt lat="45.61565" lon="4.6103">
        <ele>696</ele>
        <time>2012-11-07T08:50:44Z</time>
      </trkpt>
      <trkpt lat="45.61566" lon="4.61026">
        <ele>695</ele>
        <time>2012-11-07T08:50:46Z</time>
      </trkpt>
      <trkpt lat="45.61568" lon="4.61024">
        <ele>696</ele>
        <time>2012-11-07T08:50:48Z</time>
      </trkpt>
      <trkpt lat="45.61571" lon="4.61022">
        <ele>696</ele>
        <time>2012-11-07T08:50:51Z</time>
      </trkpt>
      <trkpt lat="45.61574" lon="4.61017">
        <ele>695</ele>
        <time>2012-11-07T08:50:54Z</time>
      </trkpt>
      <trkpt lat="45.61576" lon="4.61014">
        <ele>695</ele>
        <time>2012-11-07T08:50:56Z</time>
      </trkpt>
      <trkpt lat="45.61577" lon="4.6101">
        <ele>697</ele>
        <time>2012-11-07T08:51:00Z</time>
      </trkpt>
      <trkpt lat="45.6158" lon="4.61004">
        <ele>697</ele>
        <time>2012-11-07T08:51:05Z</time>
      </trkpt>
      <trkpt lat="45.61581" lon="4.61002">
        <ele>696</ele>
        <time>2012-11-07T08:51:07Z</time>
      </trkpt>
      <trkpt lat="45.61582" lon="4.60999">
        <ele>696</ele>
        <time>2012-11-07T08:51:09Z</time>
      </trkpt>
      <trkpt lat="45.61582" lon="4.60996">
        <ele>697</ele>
        <time>2012-11-07T08:51:11Z</time>
      </trkpt>
      <trkpt lat="45.61584" lon="4.60992">
        <ele>698</ele>
        <time>2012-11-07T08:51:14Z</time>
      </trkpt>
      <trkpt lat="45.61585" lon="4.6099">
        <ele>698</ele>
        <time>2012-11-07T08:51:17Z</time>
      </trkpt>
      <trkpt lat="45.61586" lon="4.60986">
        <ele>698</ele>
        <time>2012-11-07T08:51:20Z</time>
      </trkpt>
      <trkpt lat="45.61587" lon="4.60981">
        <ele>700</ele>
        <time>2012-11-07T08:51:23Z</time>
      </trkpt>
      <trkpt lat="45.61588" lon="4.60978">
        <ele>700</ele>
        <time>2012-11-07T08:51:25Z</time>
      </trkpt>
      <trkpt lat="45.6159" lon="4.60976">
        <ele>700</ele>
        <time>2012-11-07T08:51:27Z</time>
      </trkpt>
      <trkpt lat="45.61591" lon="4.60972">
        <ele>700</ele>
        <time>2012-11-07T08:51:30Z</time>
      </trkpt>
      <trkpt lat="45.61592" lon="4.60969">
        <ele>699</ele>
        <time>2012-11-07T08:51:33Z</time>
      </trkpt>
      <trkpt lat="45.61592" lon="4.60962">
        <ele>702</ele>
        <time>2012-11-07T08:51:36Z</time>
      </trkpt>
      <trkpt lat="45.61591" lon="4.60959">
        <ele>703</ele>
        <time>2012-11-07T08:51:37Z</time>
      </trkpt>
      <trkpt lat="45.61591" lon="4.60956">
        <ele>703</ele>
        <time>2012-11-07T08:51:38Z</time>
      </trkpt>
      <trkpt lat="45.61591" lon="4.60953">
        <ele>704</ele>
        <time>2012-11-07T08:51:39Z</time>
      </trkpt>
      <trkpt lat="45.61591" lon="4.60947">
        <ele>706</ele>
        <time>2012-11-07T08:51:42Z</time>
      </trkpt>
      <trkpt lat="45.61593" lon="4.60944">
        <ele>706</ele>
        <time>2012-11-07T08:51:45Z</time>
      </trkpt>
      <trkpt lat="45.61595" lon="4.60944">
        <ele>706</ele>
        <time>2012-11-07T08:51:47Z</time>
      </trkpt>
      <trkpt lat="45.61597" lon="4.60942">
        <ele>706</ele>
        <time>2012-11-07T08:51:49Z</time>
      </trkpt>
      <trkpt lat="45.61597" lon="4.6094">
        <ele>706</ele>
        <time>2012-11-07T08:51:51Z</time>
      </trkpt>
      <trkpt lat="45.61598" lon="4.60933">
        <ele>707</ele>
        <time>2012-11-07T08:51:56Z</time>
      </trkpt>
      <trkpt lat="45.61597" lon="4.6093">
        <ele>707</ele>
        <time>2012-11-07T08:51:57Z</time>
      </trkpt>
      <trkpt lat="45.61597" lon="4.60927">
        <ele>707</ele>
        <time>2012-11-07T08:51:59Z</time>
      </trkpt>
      <trkpt lat="45.61595" lon="4.60921">
        <ele>707</ele>
        <time>2012-11-07T08:52:04Z</time>
      </trkpt>
      <trkpt lat="45.61595" lon="4.60918">
        <ele>707</ele>
        <time>2012-11-07T08:52:08Z</time>
      </trkpt>
      <trkpt lat="45.61596" lon="4.60915">
        <ele>708</ele>
        <time>2012-11-07T08:52:10Z</time>
      </trkpt>
      <trkpt lat="45.61596" lon="4.60911">
        <ele>708</ele>
        <time>2012-11-07T08:52:12Z</time>
      </trkpt>
      <trkpt lat="45.61596" lon="4.60908">
        <ele>709</ele>
        <time>2012-11-07T08:52:14Z</time>
      </trkpt>
      <trkpt lat="45.61596" lon="4.60906">
        <ele>708</ele>
        <time>2012-11-07T08:52:17Z</time>
      </trkpt>
      <trkpt lat="45.61599" lon="4.60905">
        <ele>708</ele>
        <time>2012-11-07T08:52:21Z</time>
      </trkpt>
      <trkpt lat="45.61601" lon="4.60902">
        <ele>709</ele>
        <time>2012-11-07T08:52:24Z</time>
      </trkpt>
      <trkpt lat="45.61601" lon="4.60899">
        <ele>708</ele>
        <time>2012-11-07T08:52:27Z</time>
      </trkpt>
      <trkpt lat="45.616" lon="4.60896">
        <ele>709</ele>
        <time>2012-11-07T08:52:29Z</time>
      </trkpt>
      <trkpt lat="45.616" lon="4.60893">
        <ele>708</ele>
        <time>2012-11-07T08:52:32Z</time>
      </trkpt>
      <trkpt lat="45.61599" lon="4.60889">
        <ele>710</ele>
        <time>2012-11-07T08:52:34Z</time>
      </trkpt>
      <trkpt lat="45.616" lon="4.60887">
        <ele>708</ele>
        <time>2012-11-07T08:52:37Z</time>
      </trkpt>
      <trkpt lat="45.61601" lon="4.60885">
        <ele>708</ele>
        <time>2012-11-07T08:52:41Z</time>
      </trkpt>
      <trkpt lat="45.61602" lon="4.60882">
        <ele>715</ele>
        <time>2012-11-07T08:52:45Z</time>
      </trkpt>
      <trkpt lat="45.61604" lon="4.60881">
        <ele>716</ele>
        <time>2012-11-07T08:52:49Z</time>
      </trkpt>
      <trkpt lat="45.61605" lon="4.60878">
        <ele>717</ele>
        <time>2012-11-07T08:52:53Z</time>
      </trkpt>
      <trkpt lat="45.61608" lon="4.60871">
        <ele>716</ele>
        <time>2012-11-07T08:52:58Z</time>
      </trkpt>
      <trkpt lat="45.61609" lon="4.60868">
        <ele>718</ele>
        <time>2012-11-07T08:53:01Z</time>
      </trkpt>
      <trkpt lat="45.61609" lon="4.60866">
        <ele>719</ele>
        <time>2012-11-07T08:53:03Z</time>
      </trkpt>
      <trkpt lat="45.6161" lon="4.60863">
        <ele>719</ele>
        <time>2012-11-07T08:53:07Z</time>
      </trkpt>
      <trkpt lat="45.61614" lon="4.60859">
        <ele>718</ele>
        <time>2012-11-07T08:53:11Z</time>
      </trkpt>
      <trkpt lat="45.61616" lon="4.60854">
        <ele>715</ele>
        <time>2012-11-07T08:53:16Z</time>
      </trkpt>
      <trkpt lat="45.61617" lon="4.60852">
        <ele>715</ele>
        <time>2012-11-07T08:53:18Z</time>
      </trkpt>
      <trkpt lat="45.61619" lon="4.60848">
        <ele>716</ele>
        <time>2012-11-07T08:53:21Z</time>
      </trkpt>
      <trkpt lat="45.61619" lon="4.60844">
        <ele>718</ele>
        <time>2012-11-07T08:53:25Z</time>
      </trkpt>
      <trkpt lat="45.6162" lon="4.60841">
        <ele>719</ele>
        <time>2012-11-07T08:53:28Z</time>
      </trkpt>
      <trkpt lat="45.61621" lon="4.60839">
        <ele>719</ele>
        <time>2012-11-07T08:53:32Z</time>
      </trkpt>
      <trkpt lat="45.61621" lon="4.60836">
        <ele>720</ele>
        <time>2012-11-07T08:53:35Z</time>
      </trkpt>
      <trkpt lat="45.61621" lon="4.60832">
        <ele>722</ele>
        <time>2012-11-07T08:53:40Z</time>
      </trkpt>
      <trkpt lat="45.61623" lon="4.6083">
        <ele>725</ele>
        <time>2012-11-07T08:53:42Z</time>
      </trkpt>
      <trkpt lat="45.61625" lon="4.60828">
        <ele>726</ele>
        <time>2012-11-07T08:53:44Z</time>
      </trkpt>
      <trkpt lat="45.61626" lon="4.60826">
        <ele>724</ele>
        <time>2012-11-07T08:53:47Z</time>
      </trkpt>
      <trkpt lat="45.61628" lon="4.60825">
        <ele>726</ele>
        <time>2012-11-07T08:53:50Z</time>
      </trkpt>
      <trkpt lat="45.61631" lon="4.60823">
        <ele>726</ele>
        <time>2012-11-07T08:54:00Z</time>
      </trkpt>
      <trkpt lat="45.61633" lon="4.60822">
        <ele>727</ele>
        <time>2012-11-07T08:54:02Z</time>
      </trkpt>
      <trkpt lat="45.61637" lon="4.6082">
        <ele>727</ele>
        <time>2012-11-07T08:54:05Z</time>
      </trkpt>
      <trkpt lat="45.61638" lon="4.60818">
        <ele>728</ele>
        <time>2012-11-07T08:54:08Z</time>
      </trkpt>
      <trkpt lat="45.61638" lon="4.60815">
        <ele>727</ele>
        <time>2012-11-07T08:54:10Z</time>
      </trkpt>
      <trkpt lat="45.61639" lon="4.60812">
        <ele>727</ele>
        <time>2012-11-07T08:54:12Z</time>
      </trkpt>
      <trkpt lat="45.61639" lon="4.60809">
        <ele>726</ele>
        <time>2012-11-07T08:54:15Z</time>
      </trkpt>
      <trkpt lat="45.61639" lon="4.60806">
        <ele>726</ele>
        <time>2012-11-07T08:54:17Z</time>
      </trkpt>
      <trkpt lat="45.61637" lon="4.60801">
        <ele>726</ele>
        <time>2012-11-07T08:54:20Z</time>
      </trkpt>
      <trkpt lat="45.61639" lon="4.60798">
        <ele>727</ele>
        <time>2012-11-07T08:54:22Z</time>
      </trkpt>
      <trkpt lat="45.61642" lon="4.60789">
        <ele>728</ele>
        <time>2012-11-07T08:54:27Z</time>
      </trkpt>
      <trkpt lat="45.61643" lon="4.60786">
        <ele>728</ele>
        <time>2012-11-07T08:54:30Z</time>
      </trkpt>
      <trkpt lat="45.61644" lon="4.60784">
        <ele>729</ele>
        <time>2012-11-07T08:54:32Z</time>
      </trkpt>
      <trkpt lat="45.61645" lon="4.60779">
        <ele>732</ele>
        <time>2012-11-07T08:54:37Z</time>
      </trkpt>
      <trkpt lat="45.61646" lon="4.60776">
        <ele>734</ele>
        <time>2012-11-07T08:54:43Z</time>
      </trkpt>
      <trkpt lat="45.61646" lon="4.60772">
        <ele>735</ele>
        <time>2012-11-07T08:54:46Z</time>
      </trkpt>
      <trkpt lat="45.61645" lon="4.60769">
        <ele>734</ele>
        <time>2012-11-07T08:54:48Z</time>
      </trkpt>
      <trkpt lat="45.61643" lon="4.60767">
        <ele>735</ele>
        <time>2012-11-07T08:54:50Z</time>
      </trkpt>
      <trkpt lat="45.61643" lon="4.60764">
        <ele>735</ele>
        <time>2012-11-07T08:54:53Z</time>
      </trkpt>
      <trkpt lat="45.61643" lon="4.60761">
        <ele>734</ele>
        <time>2012-11-07T08:54:56Z</time>
      </trkpt>
      <trkpt lat="45.61642" lon="4.60759">
        <ele>736</ele>
        <time>2012-11-07T08:55:00Z</time>
      </trkpt>
      <trkpt lat="45.61639" lon="4.60757">
        <ele>737</ele>
        <time>2012-11-07T08:55:02Z</time>
      </trkpt>
      <trkpt lat="45.61636" lon="4.60755">
        <ele>737</ele>
        <time>2012-11-07T08:55:05Z</time>
      </trkpt>
      <trkpt lat="45.61634" lon="4.60753">
        <ele>740</ele>
        <time>2012-11-07T08:55:08Z</time>
      </trkpt>
      <trkpt lat="45.61632" lon="4.60751">
        <ele>740</ele>
        <time>2012-11-07T08:55:10Z</time>
      </trkpt>
      <trkpt lat="45.61629" lon="4.60748">
        <ele>741</ele>
        <time>2012-11-07T08:55:16Z</time>
      </trkpt>
      <trkpt lat="45.61623" lon="4.60747">
        <ele>741</ele>
        <time>2012-11-07T08:55:21Z</time>
      </trkpt>
      <trkpt lat="45.61621" lon="4.60746">
        <ele>741</ele>
        <time>2012-11-07T08:55:23Z</time>
      </trkpt>
      <trkpt lat="45.61619" lon="4.60743">
        <ele>741</ele>
        <time>2012-11-07T08:55:25Z</time>
      </trkpt>
      <trkpt lat="45.61619" lon="4.60741">
        <ele>741</ele>
        <time>2012-11-07T08:55:26Z</time>
      </trkpt>
      <trkpt lat="45.61619" lon="4.60738">
        <ele>741</ele>
        <time>2012-11-07T08:55:27Z</time>
      </trkpt>
      <trkpt lat="45.61619" lon="4.60735">
        <ele>742</ele>
        <time>2012-11-07T08:55:28Z</time>
      </trkpt>
      <trkpt lat="45.61619" lon="4.60732">
        <ele>742</ele>
        <time>2012-11-07T08:55:29Z</time>
      </trkpt>
      <trkpt lat="45.61619" lon="4.6073">
        <ele>742</ele>
        <time>2012-11-07T08:55:30Z</time>
      </trkpt>
      <trkpt lat="45.61619" lon="4.60725">
        <ele>742</ele>
        <time>2012-11-07T08:55:32Z</time>
      </trkpt>
      <trkpt lat="45.61618" lon="4.60722">
        <ele>741</ele>
        <time>2012-11-07T08:55:34Z</time>
      </trkpt>
      <trkpt lat="45.61616" lon="4.60721">
        <ele>741</ele>
        <time>2012-11-07T08:55:37Z</time>
      </trkpt>
      <trkpt lat="45.61613" lon="4.60717">
        <ele>741</ele>
        <time>2012-11-07T08:55:41Z</time>
      </trkpt>
      <trkpt lat="45.61611" lon="4.60714">
        <ele>740</ele>
        <time>2012-11-07T08:55:43Z</time>
      </trkpt>
      <trkpt lat="45.61609" lon="4.60711">
        <ele>740</ele>
        <time>2012-11-07T08:55:45Z</time>
      </trkpt>
      <trkpt lat="45.61608" lon="4.60709">
        <ele>740</ele>
        <time>2012-11-07T08:55:47Z</time>
      </trkpt>
      <trkpt lat="45.61606" lon="4.60707">
        <ele>741</ele>
        <time>2012-11-07T08:55:49Z</time>
      </trkpt>
      <trkpt lat="45.61603" lon="4.60705">
        <ele>741</ele>
        <time>2012-11-07T08:55:51Z</time>
      </trkpt>
      <trkpt lat="45.61602" lon="4.60704">
        <ele>741</ele>
        <time>2012-11-07T08:55:52Z</time>
      </trkpt>
      <trkpt lat="45.61596" lon="4.607">
        <ele>742</ele>
        <time>2012-11-07T08:55:56Z</time>
      </trkpt>
      <trkpt lat="45.61595" lon="4.60698">
        <ele>742</ele>
        <time>2012-11-07T08:55:58Z</time>
      </trkpt>
      <trkpt lat="45.61592" lon="4.60696">
        <ele>740</ele>
        <time>2012-11-07T08:56:00Z</time>
      </trkpt>
      <trkpt lat="45.61589" lon="4.60695">
        <ele>740</ele>
        <time>2012-11-07T08:56:02Z</time>
      </trkpt>
      <trkpt lat="45.61586" lon="4.60696">
        <ele>740</ele>
        <time>2012-11-07T08:56:04Z</time>
      </trkpt>
      <trkpt lat="45.61584" lon="4.60692">
        <ele>740</ele>
        <time>2012-11-07T08:56:07Z</time>
      </trkpt>
      <trkpt lat="45.61582" lon="4.60686">
        <ele>739</ele>
        <time>2012-11-07T08:56:10Z</time>
      </trkpt>
      <trkpt lat="45.61578" lon="4.60676">
        <ele>739</ele>
        <time>2012-11-07T08:56:15Z</time>
      </trkpt>
      <trkpt lat="45.61577" lon="4.60673">
        <ele>739</ele>
        <time>2012-11-07T08:56:17Z</time>
      </trkpt>
      <trkpt lat="45.61577" lon="4.60669">
        <ele>740</ele>
        <time>2012-11-07T08:56:19Z</time>
      </trkpt>
      <trkpt lat="45.61577" lon="4.60665">
        <ele>740</ele>
        <time>2012-11-07T08:56:21Z</time>
      </trkpt>
      <trkpt lat="45.61576" lon="4.60662">
        <ele>740</ele>
        <time>2012-11-07T08:56:23Z</time>
      </trkpt>
      <trkpt lat="45.61574" lon="4.60659">
        <ele>739</ele>
        <time>2012-11-07T08:56:25Z</time>
      </trkpt>
      <trkpt lat="45.61572" lon="4.60656">
        <ele>740</ele>
        <time>2012-11-07T08:56:27Z</time>
      </trkpt>
      <trkpt lat="45.61569" lon="4.60654">
        <ele>740</ele>
        <time>2012-11-07T08:56:29Z</time>
      </trkpt>
      <trkpt lat="45.61567" lon="4.60652">
        <ele>740</ele>
        <time>2012-11-07T08:56:31Z</time>
      </trkpt>
      <trkpt lat="45.61565" lon="4.6065">
        <ele>739</ele>
        <time>2012-11-07T08:56:33Z</time>
      </trkpt>
      <trkpt lat="45.61561" lon="4.60647">
        <ele>739</ele>
        <time>2012-11-07T08:56:37Z</time>
      </trkpt>
      <trkpt lat="45.61558" lon="4.60643">
        <ele>738</ele>
        <time>2012-11-07T08:56:40Z</time>
      </trkpt>
      <trkpt lat="45.61557" lon="4.60641">
        <ele>738</ele>
        <time>2012-11-07T08:56:42Z</time>
      </trkpt>
      <trkpt lat="45.61555" lon="4.60638">
        <ele>738</ele>
        <time>2012-11-07T08:56:45Z</time>
      </trkpt>
      <trkpt lat="45.61553" lon="4.60635">
        <ele>738</ele>
        <time>2012-11-07T08:56:49Z</time>
      </trkpt>
      <trkpt lat="45.61551" lon="4.60633">
        <ele>738</ele>
        <time>2012-11-07T08:56:51Z</time>
      </trkpt>
      <trkpt lat="45.6155" lon="4.6063">
        <ele>737</ele>
        <time>2012-11-07T08:56:54Z</time>
      </trkpt>
      <trkpt lat="45.61548" lon="4.60628">
        <ele>740</ele>
        <time>2012-11-07T08:56:57Z</time>
      </trkpt>
      <trkpt lat="45.61546" lon="4.60628">
        <ele>741</ele>
        <time>2012-11-07T08:56:59Z</time>
      </trkpt>
      <trkpt lat="45.61544" lon="4.60628">
        <ele>742</ele>
        <time>2012-11-07T08:57:01Z</time>
      </trkpt>
      <trkpt lat="45.61542" lon="4.60628">
        <ele>742</ele>
        <time>2012-11-07T08:57:03Z</time>
      </trkpt>
      <trkpt lat="45.6154" lon="4.60627">
        <ele>743</ele>
        <time>2012-11-07T08:57:05Z</time>
      </trkpt>
      <trkpt lat="45.61538" lon="4.60626">
        <ele>743</ele>
        <time>2012-11-07T08:57:07Z</time>
      </trkpt>
      <trkpt lat="45.61535" lon="4.60624">
        <ele>743</ele>
        <time>2012-11-07T08:57:10Z</time>
      </trkpt>
      <trkpt lat="45.61533" lon="4.60622">
        <ele>744</ele>
        <time>2012-11-07T08:57:12Z</time>
      </trkpt>
      <trkpt lat="45.61531" lon="4.60618">
        <ele>743</ele>
        <time>2012-11-07T08:57:15Z</time>
      </trkpt>
      <trkpt lat="45.61527" lon="4.60616">
        <ele>745</ele>
        <time>2012-11-07T08:57:18Z</time>
      </trkpt>
      <trkpt lat="45.61525" lon="4.60614">
        <ele>745</ele>
        <time>2012-11-07T08:57:20Z</time>
      </trkpt>
      <trkpt lat="45.61524" lon="4.60612">
        <ele>746</ele>
        <time>2012-11-07T08:57:22Z</time>
      </trkpt>
      <trkpt lat="45.61522" lon="4.6061">
        <ele>746</ele>
        <time>2012-11-07T08:57:24Z</time>
      </trkpt>
      <trkpt lat="45.6152" lon="4.60609">
        <ele>747</ele>
        <time>2012-11-07T08:57:26Z</time>
      </trkpt>
      <trkpt lat="45.61518" lon="4.60609">
        <ele>748</ele>
        <time>2012-11-07T08:57:28Z</time>
      </trkpt>
      <trkpt lat="45.61516" lon="4.60608">
        <ele>748</ele>
        <time>2012-11-07T08:57:30Z</time>
      </trkpt>
      <trkpt lat="45.61513" lon="4.60606">
        <ele>748</ele>
        <time>2012-11-07T08:57:32Z</time>
      </trkpt>
      <trkpt lat="45.61511" lon="4.60606">
        <ele>748</ele>
        <time>2012-11-07T08:57:34Z</time>
      </trkpt>
      <trkpt lat="45.61509" lon="4.60606">
        <ele>749</ele>
        <time>2012-11-07T08:57:36Z</time>
      </trkpt>
      <trkpt lat="45.61507" lon="4.60607">
        <ele>748</ele>
        <time>2012-11-07T08:57:38Z</time>
      </trkpt>
      <trkpt lat="45.61505" lon="4.60605">
        <ele>748</ele>
        <time>2012-11-07T08:57:40Z</time>
      </trkpt>
      <trkpt lat="45.61502" lon="4.60604">
        <ele>748</ele>
        <time>2012-11-07T08:57:42Z</time>
      </trkpt>
      <trkpt lat="45.615" lon="4.60602">
        <ele>748</ele>
        <time>2012-11-07T08:57:44Z</time>
      </trkpt>
      <trkpt lat="45.61498" lon="4.60596">
        <ele>748</ele>
        <time>2012-11-07T08:57:47Z</time>
      </trkpt>
      <trkpt lat="45.61496" lon="4.60593">
        <ele>746</ele>
        <time>2012-11-07T08:57:49Z</time>
      </trkpt>
      <trkpt lat="45.61495" lon="4.60591">
        <ele>746</ele>
        <time>2012-11-07T08:57:51Z</time>
      </trkpt>
      <trkpt lat="45.61493" lon="4.60589">
        <ele>746</ele>
        <time>2012-11-07T08:57:53Z</time>
      </trkpt>
      <trkpt lat="45.61491" lon="4.60586">
        <ele>746</ele>
        <time>2012-11-07T08:57:55Z</time>
      </trkpt>
      <trkpt lat="45.6149" lon="4.60581">
        <ele>746</ele>
        <time>2012-11-07T08:57:57Z</time>
      </trkpt>
      <trkpt lat="45.6149" lon="4.60579">
        <ele>746</ele>
        <time>2012-11-07T08:57:58Z</time>
      </trkpt>
      <trkpt lat="45.61488" lon="4.60575">
        <ele>747</ele>
        <time>2012-11-07T08:58:00Z</time>
      </trkpt>
      <trkpt lat="45.61487" lon="4.60573">
        <ele>747</ele>
        <time>2012-11-07T08:58:02Z</time>
      </trkpt>
      <trkpt lat="45.61485" lon="4.60572">
        <ele>747</ele>
        <time>2012-11-07T08:58:05Z</time>
      </trkpt>
      <trkpt lat="45.61484" lon="4.60569">
        <ele>746</ele>
        <time>2012-11-07T08:58:07Z</time>
      </trkpt>
      <trkpt lat="45.61482" lon="4.60567">
        <ele>746</ele>
        <time>2012-11-07T08:58:09Z</time>
      </trkpt>
      <trkpt lat="45.6148" lon="4.60566">
        <ele>748</ele>
        <time>2012-11-07T08:58:11Z</time>
      </trkpt>
      <trkpt lat="45.61477" lon="4.60567">
        <ele>748</ele>
        <time>2012-11-07T08:58:14Z</time>
      </trkpt>
      <trkpt lat="45.61475" lon="4.6057">
        <ele>749</ele>
        <time>2012-11-07T08:58:17Z</time>
      </trkpt>
      <trkpt lat="45.61471" lon="4.60575">
        <ele>754</ele>
        <time>2012-11-07T08:58:22Z</time>
      </trkpt>
      <trkpt lat="45.61468" lon="4.60579">
        <ele>755</ele>
        <time>2012-11-07T08:58:25Z</time>
      </trkpt>
      <trkpt lat="45.61466" lon="4.60582">
        <ele>755</ele>
        <time>2012-11-07T08:58:27Z</time>
      </trkpt>
      <trkpt lat="45.61463" lon="4.60584">
        <ele>756</ele>
        <time>2012-11-07T08:58:29Z</time>
      </trkpt>
      <trkpt lat="45.6146" lon="4.60587">
        <ele>756</ele>
        <time>2012-11-07T08:58:31Z</time>
      </trkpt>
      <trkpt lat="45.61457" lon="4.60587">
        <ele>755</ele>
        <time>2012-11-07T08:58:33Z</time>
      </trkpt>
      <trkpt lat="45.61452" lon="4.60588">
        <ele>759</ele>
        <time>2012-11-07T08:58:38Z</time>
      </trkpt>
      <trkpt lat="45.61448" lon="4.60588">
        <ele>759</ele>
        <time>2012-11-07T08:58:42Z</time>
      </trkpt>
      <trkpt lat="45.61446" lon="4.60586">
        <ele>758</ele>
        <time>2012-11-07T08:58:44Z</time>
      </trkpt>
      <trkpt lat="45.61445" lon="4.60584">
        <ele>758</ele>
        <time>2012-11-07T08:58:46Z</time>
      </trkpt>
      <trkpt lat="45.61442" lon="4.60584">
        <ele>757</ele>
        <time>2012-11-07T08:58:50Z</time>
      </trkpt>
      <trkpt lat="45.6144" lon="4.60584">
        <ele>758</ele>
        <time>2012-11-07T08:58:52Z</time>
      </trkpt>
      <trkpt lat="45.61435" lon="4.60585">
        <ele>757</ele>
        <time>2012-11-07T08:58:55Z</time>
      </trkpt>
      <trkpt lat="45.61433" lon="4.60585">
        <ele>754</ele>
        <time>2012-11-07T08:58:57Z</time>
      </trkpt>
      <trkpt lat="45.6143" lon="4.60584">
        <ele>753</ele>
        <time>2012-11-07T08:58:59Z</time>
      </trkpt>
      <trkpt lat="45.61416" lon="4.6058">
        <ele>753</ele>
        <time>2012-11-07T08:59:09Z</time>
      </trkpt>
      <trkpt lat="45.61413" lon="4.6058">
        <ele>753</ele>
        <time>2012-11-07T08:59:11Z</time>
      </trkpt>
      <trkpt lat="45.61411" lon="4.6058">
        <ele>753</ele>
        <time>2012-11-07T08:59:13Z</time>
      </trkpt>
      <trkpt lat="45.61408" lon="4.60579">
        <ele>751</ele>
        <time>2012-11-07T08:59:15Z</time>
      </trkpt>
      <trkpt lat="45.61397" lon="4.60579">
        <ele>749</ele>
        <time>2012-11-07T08:59:26Z</time>
      </trkpt>
      <trkpt lat="45.61392" lon="4.60578">
        <ele>749</ele>
        <time>2012-11-07T08:59:29Z</time>
      </trkpt>
      <trkpt lat="45.6139" lon="4.60578">
        <ele>749</ele>
        <time>2012-11-07T08:59:30Z</time>
      </trkpt>
      <trkpt lat="45.61388" lon="4.60576">
        <ele>747</ele>
        <time>2012-11-07T08:59:33Z</time>
      </trkpt>
      <trkpt lat="45.61389" lon="4.60573">
        <ele>747</ele>
        <time>2012-11-07T08:59:36Z</time>
      </trkpt>
      <trkpt lat="45.61386" lon="4.60574">
        <ele>746</ele>
        <time>2012-11-07T08:59:39Z</time>
      </trkpt>
      <trkpt lat="45.61384" lon="4.60575">
        <ele>745</ele>
        <time>2012-11-07T08:59:41Z</time>
      </trkpt>
      <trkpt lat="45.61381" lon="4.60576">
        <ele>746</ele>
        <time>2012-11-07T08:59:43Z</time>
      </trkpt>
      <trkpt lat="45.61378" lon="4.60577">
        <ele>745</ele>
        <time>2012-11-07T08:59:45Z</time>
      </trkpt>
      <trkpt lat="45.61375" lon="4.60576">
        <ele>746</ele>
        <time>2012-11-07T08:59:47Z</time>
      </trkpt>
      <trkpt lat="45.61372" lon="4.60575">
        <ele>745</ele>
        <time>2012-11-07T08:59:49Z</time>
      </trkpt>
      <trkpt lat="45.6137" lon="4.60574">
        <ele>745</ele>
        <time>2012-11-07T08:59:51Z</time>
      </trkpt>
      <trkpt lat="45.61368" lon="4.60572">
        <ele>745</ele>
        <time>2012-11-07T08:59:53Z</time>
      </trkpt>
      <trkpt lat="45.61366" lon="4.60571">
        <ele>744</ele>
        <time>2012-11-07T08:59:55Z</time>
      </trkpt>
      <trkpt lat="45.61364" lon="4.60571">
        <ele>745</ele>
        <time>2012-11-07T08:59:57Z</time>
      </trkpt>
      <trkpt lat="45.6136" lon="4.60571">
        <ele>745</ele>
        <time>2012-11-07T09:00:00Z</time>
      </trkpt>
      <trkpt lat="45.61356" lon="4.6057">
        <ele>745</ele>
        <time>2012-11-07T09:00:03Z</time>
      </trkpt>
      <trkpt lat="45.61353" lon="4.60569">
        <ele>744</ele>
        <time>2012-11-07T09:00:05Z</time>
      </trkpt>
      <trkpt lat="45.6135" lon="4.60568">
        <ele>744</ele>
        <time>2012-11-07T09:00:07Z</time>
      </trkpt>
      <trkpt lat="45.61347" lon="4.60566">
        <ele>743</ele>
        <time>2012-11-07T09:00:09Z</time>
      </trkpt>
      <trkpt lat="45.61345" lon="4.60564">
        <ele>743</ele>
        <time>2012-11-07T09:00:11Z</time>
      </trkpt>
      <trkpt lat="45.61343" lon="4.60562">
        <ele>744</ele>
        <time>2012-11-07T09:00:13Z</time>
      </trkpt>
      <trkpt lat="45.61337" lon="4.60557">
        <ele>745</ele>
        <time>2012-11-07T09:00:19Z</time>
      </trkpt>
      <trkpt lat="45.61335" lon="4.60555">
        <ele>746</ele>
        <time>2012-11-07T09:00:21Z</time>
      </trkpt>
      <trkpt lat="45.61334" lon="4.60552">
        <ele>746</ele>
        <time>2012-11-07T09:00:23Z</time>
      </trkpt>
      <trkpt lat="45.61332" lon="4.60549">
        <ele>745</ele>
        <time>2012-11-07T09:00:25Z</time>
      </trkpt>
      <trkpt lat="45.6133" lon="4.60547">
        <ele>745</ele>
        <time>2012-11-07T09:00:27Z</time>
      </trkpt>
      <trkpt lat="45.61324" lon="4.60541">
        <ele>743</ele>
        <time>2012-11-07T09:00:30Z</time>
      </trkpt>
      <trkpt lat="45.61323" lon="4.60539">
        <ele>742</ele>
        <time>2012-11-07T09:00:31Z</time>
      </trkpt>
      <trkpt lat="45.61321" lon="4.60535">
        <ele>743</ele>
        <time>2012-11-07T09:00:33Z</time>
      </trkpt>
      <trkpt lat="45.6132" lon="4.60532">
        <ele>742</ele>
        <time>2012-11-07T09:00:35Z</time>
      </trkpt>
      <trkpt lat="45.61319" lon="4.6053">
        <ele>741</ele>
        <time>2012-11-07T09:00:38Z</time>
      </trkpt>
      <trkpt lat="45.61317" lon="4.60531">
        <ele>740</ele>
        <time>2012-11-07T09:00:41Z</time>
      </trkpt>
      <trkpt lat="45.61315" lon="4.60533">
        <ele>740</ele>
        <time>2012-11-07T09:00:45Z</time>
      </trkpt>
      <trkpt lat="45.61314" lon="4.6053">
        <ele>741</ele>
        <time>2012-11-07T09:00:47Z</time>
      </trkpt>
      <trkpt lat="45.61312" lon="4.60527">
        <ele>741</ele>
        <time>2012-11-07T09:00:49Z</time>
      </trkpt>
      <trkpt lat="45.61311" lon="4.60524">
        <ele>742</ele>
        <time>2012-11-07T09:00:51Z</time>
      </trkpt>
      <trkpt lat="45.61309" lon="4.60522">
        <ele>743</ele>
        <time>2012-11-07T09:00:53Z</time>
      </trkpt>
      <trkpt lat="45.61308" lon="4.60519">
        <ele>742</ele>
        <time>2012-11-07T09:00:56Z</time>
      </trkpt>
      <trkpt lat="45.61306" lon="4.60517">
        <ele>740</ele>
        <time>2012-11-07T09:01:01Z</time>
      </trkpt>
      <trkpt lat="45.61304" lon="4.60514">
        <ele>740</ele>
        <time>2012-11-07T09:01:06Z</time>
      </trkpt>
      <trkpt lat="45.61301" lon="4.60513">
        <ele>741</ele>
        <time>2012-11-07T09:01:08Z</time>
      </trkpt>
      <trkpt lat="45.61299" lon="4.60511">
        <ele>742</ele>
        <time>2012-11-07T09:01:11Z</time>
      </trkpt>
      <trkpt lat="45.61297" lon="4.60506">
        <ele>742</ele>
        <time>2012-11-07T09:01:14Z</time>
      </trkpt>
      <trkpt lat="45.61297" lon="4.60503">
        <ele>741</ele>
        <time>2012-11-07T09:01:15Z</time>
      </trkpt>
      <trkpt lat="45.61297" lon="4.605">
        <ele>741</ele>
        <time>2012-11-07T09:01:16Z</time>
      </trkpt>
      <trkpt lat="45.61297" lon="4.60498">
        <ele>740</ele>
        <time>2012-11-07T09:01:17Z</time>
      </trkpt>
      <trkpt lat="45.61298" lon="4.60492">
        <ele>740</ele>
        <time>2012-11-07T09:01:20Z</time>
      </trkpt>
      <trkpt lat="45.61297" lon="4.60489">
        <ele>741</ele>
        <time>2012-11-07T09:01:22Z</time>
      </trkpt>
      <trkpt lat="45.61297" lon="4.60485">
        <ele>742</ele>
        <time>2012-11-07T09:01:24Z</time>
      </trkpt>
      <trkpt lat="45.61297" lon="4.60481">
        <ele>741</ele>
        <time>2012-11-07T09:01:25Z</time>
      </trkpt>
      <trkpt lat="45.61297" lon="4.60478">
        <ele>741</ele>
        <time>2012-11-07T09:01:26Z</time>
      </trkpt>
      <trkpt lat="45.61295" lon="4.60468">
        <ele>741</ele>
        <time>2012-11-07T09:01:29Z</time>
      </trkpt>
      <trkpt lat="45.61295" lon="4.60464">
        <ele>742</ele>
        <time>2012-11-07T09:01:30Z</time>
      </trkpt>
      <trkpt lat="45.61294" lon="4.60461">
        <ele>742</ele>
        <time>2012-11-07T09:01:31Z</time>
      </trkpt>
      <trkpt lat="45.61294" lon="4.60457">
        <ele>742</ele>
        <time>2012-11-07T09:01:32Z</time>
      </trkpt>
      <trkpt lat="45.61294" lon="4.60454">
        <ele>742</ele>
        <time>2012-11-07T09:01:33Z</time>
      </trkpt>
      <trkpt lat="45.61294" lon="4.6045">
        <ele>742</ele>
        <time>2012-11-07T09:01:34Z</time>
      </trkpt>
      <trkpt lat="45.61293" lon="4.60446">
        <ele>743</ele>
        <time>2012-11-07T09:01:36Z</time>
      </trkpt>
      <trkpt lat="45.61292" lon="4.60443">
        <ele>745</ele>
        <time>2012-11-07T09:01:38Z</time>
      </trkpt>
      <trkpt lat="45.6129" lon="4.60441">
        <ele>746</ele>
        <time>2012-11-07T09:01:40Z</time>
      </trkpt>
      <trkpt lat="45.61291" lon="4.60438">
        <ele>743</ele>
        <time>2012-11-07T09:01:45Z</time>
      </trkpt>
      <trkpt lat="45.61291" lon="4.60432">
        <ele>743</ele>
        <time>2012-11-07T09:01:50Z</time>
      </trkpt>
      <trkpt lat="45.61293" lon="4.6043">
        <ele>743</ele>
        <time>2012-11-07T09:01:53Z</time>
      </trkpt>
      <trkpt lat="45.61292" lon="4.60427">
        <ele>742</ele>
        <time>2012-11-07T09:01:56Z</time>
      </trkpt>
      <trkpt lat="45.61291" lon="4.60423">
        <ele>744</ele>
        <time>2012-11-07T09:01:58Z</time>
      </trkpt>
      <trkpt lat="45.61291" lon="4.6042">
        <ele>743</ele>
        <time>2012-11-07T09:01:59Z</time>
      </trkpt>
      <trkpt lat="45.61291" lon="4.60417">
        <ele>743</ele>
        <time>2012-11-07T09:02:00Z</time>
      </trkpt>
      <trkpt lat="45.61291" lon="4.60409">
        <ele>742</ele>
        <time>2012-11-07T09:02:05Z</time>
      </trkpt>
      <trkpt lat="45.61291" lon="4.60405">
        <ele>744</ele>
        <time>2012-11-07T09:02:08Z</time>
      </trkpt>
      <trkpt lat="45.61289" lon="4.60402">
        <ele>743</ele>
        <time>2012-11-07T09:02:10Z</time>
      </trkpt>
      <trkpt lat="45.61287" lon="4.60398">
        <ele>742</ele>
        <time>2012-11-07T09:02:12Z</time>
      </trkpt>
      <trkpt lat="45.61286" lon="4.60394">
        <ele>743</ele>
        <time>2012-11-07T09:02:14Z</time>
      </trkpt>
      <trkpt lat="45.61285" lon="4.60391">
        <ele>745</ele>
        <time>2012-11-07T09:02:16Z</time>
      </trkpt>
      <trkpt lat="45.61283" lon="4.60389">
        <ele>748</ele>
        <time>2012-11-07T09:02:18Z</time>
      </trkpt>
      <trkpt lat="45.6128" lon="4.60387">
        <ele>748</ele>
        <time>2012-11-07T09:02:20Z</time>
      </trkpt>
      <trkpt lat="45.61278" lon="4.60386">
        <ele>747</ele>
        <time>2012-11-07T09:02:22Z</time>
      </trkpt>
      <trkpt lat="45.61276" lon="4.60382">
        <ele>747</ele>
        <time>2012-11-07T09:02:24Z</time>
      </trkpt>
      <trkpt lat="45.61276" lon="4.60375">
        <ele>744</ele>
        <time>2012-11-07T09:02:28Z</time>
      </trkpt>
      <trkpt lat="45.61274" lon="4.60368">
        <ele>746</ele>
        <time>2012-11-07T09:02:31Z</time>
      </trkpt>
      <trkpt lat="45.61272" lon="4.60363">
        <ele>746</ele>
        <time>2012-11-07T09:02:33Z</time>
      </trkpt>
      <trkpt lat="45.61271" lon="4.60361">
        <ele>746</ele>
        <time>2012-11-07T09:02:35Z</time>
      </trkpt>
      <trkpt lat="45.61268" lon="4.60359">
        <ele>745</ele>
        <time>2012-11-07T09:02:37Z</time>
      </trkpt>
      <trkpt lat="45.61267" lon="4.60358">
        <ele>745</ele>
        <time>2012-11-07T09:02:39Z</time>
      </trkpt>
      <trkpt lat="45.61264" lon="4.60359">
        <ele>745</ele>
        <time>2012-11-07T09:02:42Z</time>
      </trkpt>
      <trkpt lat="45.61262" lon="4.60357">
        <ele>745</ele>
        <time>2012-11-07T09:02:45Z</time>
      </trkpt>
      <trkpt lat="45.6126" lon="4.60353">
        <ele>746</ele>
        <time>2012-11-07T09:02:49Z</time>
      </trkpt>
      <trkpt lat="45.61258" lon="4.60351">
        <ele>746</ele>
        <time>2012-11-07T09:02:52Z</time>
      </trkpt>
      <trkpt lat="45.61256" lon="4.60349">
        <ele>744</ele>
        <time>2012-11-07T09:02:54Z</time>
      </trkpt>
      <trkpt lat="45.61254" lon="4.60346">
        <ele>742</ele>
        <time>2012-11-07T09:02:56Z</time>
      </trkpt>
      <trkpt lat="45.61252" lon="4.60343">
        <ele>741</ele>
        <time>2012-11-07T09:02:58Z</time>
      </trkpt>
      <trkpt lat="45.6125" lon="4.60341">
        <ele>741</ele>
        <time>2012-11-07T09:03:00Z</time>
      </trkpt>
      <trkpt lat="45.61248" lon="4.60339">
        <ele>742</ele>
        <time>2012-11-07T09:03:03Z</time>
      </trkpt>
      <trkpt lat="45.61245" lon="4.60333">
        <ele>743</ele>
        <time>2012-11-07T09:03:08Z</time>
      </trkpt>
      <trkpt lat="45.61241" lon="4.6033">
        <ele>743</ele>
        <time>2012-11-07T09:03:11Z</time>
      </trkpt>
      <trkpt lat="45.61239" lon="4.60327">
        <ele>741</ele>
        <time>2012-11-07T09:03:13Z</time>
      </trkpt>
      <trkpt lat="45.61237" lon="4.60326">
        <ele>740</ele>
        <time>2012-11-07T09:03:15Z</time>
      </trkpt>
      <trkpt lat="45.61234" lon="4.60325">
        <ele>739</ele>
        <time>2012-11-07T09:03:18Z</time>
      </trkpt>
      <trkpt lat="45.61233" lon="4.60321">
        <ele>740</ele>
        <time>2012-11-07T09:03:21Z</time>
      </trkpt>
      <trkpt lat="45.61232" lon="4.60317">
        <ele>740</ele>
        <time>2012-11-07T09:03:23Z</time>
      </trkpt>
      <trkpt lat="45.61231" lon="4.60314">
        <ele>742</ele>
        <time>2012-11-07T09:03:25Z</time>
      </trkpt>
      <trkpt lat="45.6123" lon="4.60311">
        <ele>742</ele>
        <time>2012-11-07T09:03:27Z</time>
      </trkpt>
      <trkpt lat="45.61228" lon="4.60308">
        <ele>745</ele>
        <time>2012-11-07T09:03:29Z</time>
      </trkpt>
      <trkpt lat="45.61226" lon="4.60306">
        <ele>745</ele>
        <time>2012-11-07T09:03:31Z</time>
      </trkpt>
      <trkpt lat="45.61225" lon="4.60303">
        <ele>746</ele>
        <time>2012-11-07T09:03:34Z</time>
      </trkpt>
      <trkpt lat="45.61222" lon="4.60301">
        <ele>746</ele>
        <time>2012-11-07T09:03:36Z</time>
      </trkpt>
      <trkpt lat="45.61219" lon="4.60299">
        <ele>746</ele>
        <time>2012-11-07T09:03:38Z</time>
      </trkpt>
      <trkpt lat="45.61218" lon="4.60298">
        <ele>746</ele>
        <time>2012-11-07T09:03:39Z</time>
      </trkpt>
      <trkpt lat="45.61216" lon="4.60296">
        <ele>747</ele>
        <time>2012-11-07T09:03:40Z</time>
      </trkpt>
      <trkpt lat="45.61214" lon="4.60294">
        <ele>747</ele>
        <time>2012-11-07T09:03:41Z</time>
      </trkpt>
      <trkpt lat="45.61213" lon="4.60292">
        <ele>749</ele>
        <time>2012-11-07T09:03:42Z</time>
      </trkpt>
      <trkpt lat="45.61211" lon="4.60289">
        <ele>749</ele>
        <time>2012-11-07T09:03:44Z</time>
      </trkpt>
      <trkpt lat="45.61206" lon="4.60284">
        <ele>750</ele>
        <time>2012-11-07T09:03:49Z</time>
      </trkpt>
      <trkpt lat="45.61204" lon="4.60282">
        <ele>748</ele>
        <time>2012-11-07T09:03:51Z</time>
      </trkpt>
      <trkpt lat="45.61201" lon="4.60278">
        <ele>748</ele>
        <time>2012-11-07T09:03:53Z</time>
      </trkpt>
      <trkpt lat="45.61201" lon="4.60274">
        <ele>748</ele>
        <time>2012-11-07T09:03:55Z</time>
      </trkpt>
      <trkpt lat="45.61201" lon="4.6027">
        <ele>746</ele>
        <time>2012-11-07T09:03:57Z</time>
      </trkpt>
      <trkpt lat="45.61202" lon="4.60256">
        <ele>745</ele>
        <time>2012-11-07T09:04:07Z</time>
      </trkpt>
      <trkpt lat="45.61199" lon="4.6025">
        <ele>746</ele>
        <time>2012-11-07T09:04:12Z</time>
      </trkpt>
      <trkpt lat="45.61199" lon="4.60247">
        <ele>744</ele>
        <time>2012-11-07T09:04:14Z</time>
      </trkpt>
      <trkpt lat="45.61198" lon="4.60244">
        <ele>743</ele>
        <time>2012-11-07T09:04:16Z</time>
      </trkpt>
      <trkpt lat="45.61197" lon="4.60233">
        <ele>744</ele>
        <time>2012-11-07T09:04:22Z</time>
      </trkpt>
      <trkpt lat="45.61196" lon="4.60227">
        <ele>744</ele>
        <time>2012-11-07T09:04:25Z</time>
      </trkpt>
      <trkpt lat="45.61196" lon="4.60224">
        <ele>745</ele>
        <time>2012-11-07T09:04:28Z</time>
      </trkpt>
      <trkpt lat="45.61197" lon="4.6022">
        <ele>743</ele>
        <time>2012-11-07T09:04:31Z</time>
      </trkpt>
      <trkpt lat="45.61196" lon="4.60218">
        <ele>740</ele>
        <time>2012-11-07T09:04:33Z</time>
      </trkpt>
      <trkpt lat="45.61195" lon="4.60213">
        <ele>735</ele>
        <time>2012-11-07T09:04:37Z</time>
      </trkpt>
      <trkpt lat="45.61195" lon="4.60209">
        <ele>738</ele>
        <time>2012-11-07T09:04:39Z</time>
      </trkpt>
      <trkpt lat="45.61193" lon="4.60206">
        <ele>739</ele>
        <time>2012-11-07T09:04:43Z</time>
      </trkpt>
      <trkpt lat="45.61192" lon="4.60202">
        <ele>735</ele>
        <time>2012-11-07T09:04:45Z</time>
      </trkpt>
      <trkpt lat="45.61191" lon="4.60199">
        <ele>736</ele>
        <time>2012-11-07T09:04:47Z</time>
      </trkpt>
      <trkpt lat="45.6119" lon="4.60197">
        <ele>736</ele>
        <time>2012-11-07T09:04:49Z</time>
      </trkpt>
      <trkpt lat="45.6119" lon="4.60194">
        <ele>738</ele>
        <time>2012-11-07T09:04:52Z</time>
      </trkpt>
      <trkpt lat="45.61191" lon="4.60192">
        <ele>736</ele>
        <time>2012-11-07T09:04:56Z</time>
      </trkpt>
      <trkpt lat="45.61188" lon="4.60185">
        <ele>735</ele>
        <time>2012-11-07T09:05:00Z</time>
      </trkpt>
      <trkpt lat="45.61187" lon="4.60182">
        <ele>740</ele>
        <time>2012-11-07T09:05:02Z</time>
      </trkpt>
      <trkpt lat="45.61187" lon="4.60179">
        <ele>738</ele>
        <time>2012-11-07T09:05:03Z</time>
      </trkpt>
      <trkpt lat="45.61187" lon="4.60175">
        <ele>739</ele>
        <time>2012-11-07T09:05:05Z</time>
      </trkpt>
      <trkpt lat="45.61186" lon="4.6017">
        <ele>738</ele>
        <time>2012-11-07T09:05:08Z</time>
      </trkpt>
      <trkpt lat="45.61186" lon="4.60165">
        <ele>737</ele>
        <time>2012-11-07T09:05:10Z</time>
      </trkpt>
      <trkpt lat="45.61185" lon="4.60161">
        <ele>739</ele>
        <time>2012-11-07T09:05:12Z</time>
      </trkpt>
      <trkpt lat="45.61184" lon="4.60157">
        <ele>738</ele>
        <time>2012-11-07T09:05:14Z</time>
      </trkpt>
      <trkpt lat="45.61184" lon="4.60153">
        <ele>738</ele>
        <time>2012-11-07T09:05:16Z</time>
      </trkpt>
      <trkpt lat="45.61185" lon="4.6015">
        <ele>739</ele>
        <time>2012-11-07T09:05:18Z</time>
      </trkpt>
      <trkpt lat="45.61186" lon="4.60147">
        <ele>740</ele>
        <time>2012-11-07T09:05:20Z</time>
      </trkpt>
      <trkpt lat="45.61185" lon="4.60144">
        <ele>739</ele>
        <time>2012-11-07T09:05:21Z</time>
      </trkpt>
      <trkpt lat="45.61185" lon="4.60141">
        <ele>739</ele>
        <time>2012-11-07T09:05:22Z</time>
      </trkpt>
      <trkpt lat="45.61184" lon="4.60137">
        <ele>739</ele>
        <time>2012-11-07T09:05:23Z</time>
      </trkpt>
      <trkpt lat="45.61184" lon="4.60134">
        <ele>739</ele>
        <time>2012-11-07T09:05:25Z</time>
      </trkpt>
      <trkpt lat="45.61185" lon="4.60131">
        <ele>738</ele>
        <time>2012-11-07T09:05:28Z</time>
      </trkpt>
      <trkpt lat="45.61186" lon="4.60127">
        <ele>740</ele>
        <time>2012-11-07T09:05:31Z</time>
      </trkpt>
      <trkpt lat="45.61184" lon="4.60123">
        <ele>744</ele>
        <time>2012-11-07T09:05:35Z</time>
      </trkpt>
      <trkpt lat="45.61182" lon="4.60121">
        <ele>746</ele>
        <time>2012-11-07T09:05:37Z</time>
      </trkpt>
      <trkpt lat="45.61181" lon="4.60117">
        <ele>747</ele>
        <time>2012-11-07T09:05:40Z</time>
      </trkpt>
      <trkpt lat="45.61181" lon="4.60114">
        <ele>746</ele>
        <time>2012-11-07T09:05:42Z</time>
      </trkpt>
      <trkpt lat="45.6118" lon="4.60109">
        <ele>752</ele>
        <time>2012-11-07T09:05:46Z</time>
      </trkpt>
      <trkpt lat="45.61179" lon="4.60105">
        <ele>752</ele>
        <time>2012-11-07T09:05:50Z</time>
      </trkpt>
      <trkpt lat="45.61179" lon="4.60101">
        <ele>758</ele>
        <time>2012-11-07T09:05:52Z</time>
      </trkpt>
      <trkpt lat="45.61178" lon="4.60098">
        <ele>760</ele>
        <time>2012-11-07T09:05:53Z</time>
      </trkpt>
      <trkpt lat="45.61177" lon="4.60096">
        <ele>759</ele>
        <time>2012-11-07T09:05:54Z</time>
      </trkpt>
      <trkpt lat="45.61176" lon="4.60092">
        <ele>760</ele>
        <time>2012-11-07T09:05:56Z</time>
      </trkpt>
      <trkpt lat="45.61175" lon="4.60088">
        <ele>760</ele>
        <time>2012-11-07T09:05:58Z</time>
      </trkpt>
      <trkpt lat="45.61175" lon="4.60085">
        <ele>761</ele>
        <time>2012-11-07T09:06:00Z</time>
      </trkpt>
      <trkpt lat="45.61175" lon="4.60081">
        <ele>761</ele>
        <time>2012-11-07T09:06:02Z</time>
      </trkpt>
      <trkpt lat="45.61176" lon="4.60078">
        <ele>760</ele>
        <time>2012-11-07T09:06:04Z</time>
      </trkpt>
      <trkpt lat="45.61176" lon="4.60073">
        <ele>760</ele>
        <time>2012-11-07T09:06:07Z</time>
      </trkpt>
      <trkpt lat="45.61176" lon="4.60069">
        <ele>758</ele>
        <time>2012-11-07T09:06:09Z</time>
      </trkpt>
      <trkpt lat="45.61175" lon="4.60065">
        <ele>758</ele>
        <time>2012-11-07T09:06:11Z</time>
      </trkpt>
      <trkpt lat="45.61173" lon="4.60062">
        <ele>758</ele>
        <time>2012-11-07T09:06:13Z</time>
      </trkpt>
      <trkpt lat="45.61172" lon="4.60059">
        <ele>756</ele>
        <time>2012-11-07T09:06:15Z</time>
      </trkpt>
      <trkpt lat="45.61169" lon="4.60056">
        <ele>756</ele>
        <time>2012-11-07T09:06:19Z</time>
      </trkpt>
      <trkpt lat="45.61167" lon="4.60053">
        <ele>756</ele>
        <time>2012-11-07T09:06:22Z</time>
      </trkpt>
      <trkpt lat="45.61165" lon="4.60052">
        <ele>756</ele>
        <time>2012-11-07T09:06:26Z</time>
      </trkpt>
      <trkpt lat="45.61164" lon="4.6005">
        <ele>756</ele>
        <time>2012-11-07T09:06:29Z</time>
      </trkpt>
      <trkpt lat="45.61161" lon="4.60049">
        <ele>757</ele>
        <time>2012-11-07T09:06:34Z</time>
      </trkpt>
      <trkpt lat="45.61158" lon="4.60048">
        <ele>755</ele>
        <time>2012-11-07T09:06:36Z</time>
      </trkpt>
      <trkpt lat="45.61156" lon="4.60047">
        <ele>755</ele>
        <time>2012-11-07T09:06:37Z</time>
      </trkpt>
      <trkpt lat="45.61153" lon="4.60045">
        <ele>755</ele>
        <time>2012-11-07T09:06:39Z</time>
      </trkpt>
      <trkpt lat="45.61151" lon="4.60044">
        <ele>755</ele>
        <time>2012-11-07T09:06:41Z</time>
      </trkpt>
      <trkpt lat="45.61148" lon="4.60042">
        <ele>756</ele>
        <time>2012-11-07T09:06:44Z</time>
      </trkpt>
      <trkpt lat="45.61146" lon="4.60041">
        <ele>756</ele>
        <time>2012-11-07T09:06:48Z</time>
      </trkpt>
      <trkpt lat="45.61142" lon="4.6004">
        <ele>756</ele>
        <time>2012-11-07T09:06:50Z</time>
      </trkpt>
      <trkpt lat="45.61138" lon="4.60039">
        <ele>755</ele>
        <time>2012-11-07T09:06:53Z</time>
      </trkpt>
      <trkpt lat="45.61135" lon="4.60038">
        <ele>755</ele>
        <time>2012-11-07T09:06:56Z</time>
      </trkpt>
      <trkpt lat="45.61132" lon="4.60036">
        <ele>756</ele>
        <time>2012-11-07T09:06:59Z</time>
      </trkpt>
      <trkpt lat="45.61129" lon="4.60035">
        <ele>756</ele>
        <time>2012-11-07T09:07:02Z</time>
      </trkpt>
      <trkpt lat="45.61125" lon="4.60034">
        <ele>755</ele>
        <time>2012-11-07T09:07:04Z</time>
      </trkpt>
      <trkpt lat="45.61121" lon="4.60034">
        <ele>755</ele>
        <time>2012-11-07T09:07:07Z</time>
      </trkpt>
      <trkpt lat="45.61119" lon="4.60034">
        <ele>755</ele>
        <time>2012-11-07T09:07:11Z</time>
      </trkpt>
      <trkpt lat="45.61116" lon="4.60033">
        <ele>756</ele>
        <time>2012-11-07T09:07:13Z</time>
      </trkpt>
      <trkpt lat="45.61114" lon="4.60032">
        <ele>756</ele>
        <time>2012-11-07T09:07:15Z</time>
      </trkpt>
      <trkpt lat="45.6111" lon="4.60029">
        <ele>757</ele>
        <time>2012-11-07T09:07:18Z</time>
      </trkpt>
      <trkpt lat="45.61106" lon="4.60023">
        <ele>757</ele>
        <time>2012-11-07T09:07:23Z</time>
      </trkpt>
      <trkpt lat="45.6111" lon="4.60024">
        <ele>757</ele>
        <time>2012-11-07T09:07:29Z</time>
      </trkpt>
      <trkpt lat="45.61107" lon="4.60021">
        <ele>757</ele>
        <time>2012-11-07T09:07:31Z</time>
      </trkpt>
      <trkpt lat="45.61098" lon="4.60015">
        <ele>758</ele>
        <time>2012-11-07T09:07:34Z</time>
      </trkpt>
      <trkpt lat="45.61096" lon="4.60013">
        <ele>758</ele>
        <time>2012-11-07T09:07:35Z</time>
      </trkpt>
      <trkpt lat="45.61093" lon="4.60011">
        <ele>758</ele>
        <time>2012-11-07T09:07:36Z</time>
      </trkpt>
      <trkpt lat="45.6108" lon="4.60008">
        <ele>759</ele>
        <time>2012-11-07T09:07:40Z</time>
      </trkpt>
      <trkpt lat="45.61079" lon="4.60007">
        <ele>759</ele>
        <time>2012-11-07T09:07:41Z</time>
      </trkpt>
      <trkpt lat="45.61076" lon="4.60005">
        <ele>758</ele>
        <time>2012-11-07T09:07:44Z</time>
      </trkpt>
      <trkpt lat="45.61073" lon="4.60003">
        <ele>760</ele>
        <time>2012-11-07T09:07:48Z</time>
      </trkpt>
      <trkpt lat="45.61071" lon="4.60001">
        <ele>760</ele>
        <time>2012-11-07T09:07:50Z</time>
      </trkpt>
      <trkpt lat="45.61067" lon="4.59997">
        <ele>762</ele>
        <time>2012-11-07T09:07:53Z</time>
      </trkpt>
      <trkpt lat="45.61065" lon="4.59997">
        <ele>761</ele>
        <time>2012-11-07T09:07:55Z</time>
      </trkpt>
      <trkpt lat="45.61062" lon="4.59996">
        <ele>760</ele>
        <time>2012-11-07T09:07:57Z</time>
      </trkpt>
      <trkpt lat="45.61059" lon="4.59994">
        <ele>758</ele>
        <time>2012-11-07T09:08:00Z</time>
      </trkpt>
      <trkpt lat="45.61057" lon="4.59991">
        <ele>756</ele>
        <time>2012-11-07T09:08:02Z</time>
      </trkpt>
      <trkpt lat="45.61056" lon="4.59989">
        <ele>754</ele>
        <time>2012-11-07T09:08:04Z</time>
      </trkpt>
      <trkpt lat="45.61056" lon="4.59984">
        <ele>756</ele>
        <time>2012-11-07T09:08:06Z</time>
      </trkpt>
      <trkpt lat="45.61055" lon="4.59981">
        <ele>755</ele>
        <time>2012-11-07T09:08:08Z</time>
      </trkpt>
      <trkpt lat="45.61054" lon="4.59977">
        <ele>756</ele>
        <time>2012-11-07T09:08:10Z</time>
      </trkpt>
      <trkpt lat="45.61053" lon="4.59974">
        <ele>757</ele>
        <time>2012-11-07T09:08:12Z</time>
      </trkpt>
      <trkpt lat="45.61051" lon="4.59973">
        <ele>757</ele>
        <time>2012-11-07T09:08:15Z</time>
      </trkpt>
      <trkpt lat="45.61051" lon="4.59969">
        <ele>758</ele>
        <time>2012-11-07T09:08:18Z</time>
      </trkpt>
      <trkpt lat="45.6105" lon="4.59966">
        <ele>759</ele>
        <time>2012-11-07T09:08:20Z</time>
      </trkpt>
      <trkpt lat="45.61047" lon="4.59964">
        <ele>758</ele>
        <time>2012-11-07T09:08:23Z</time>
      </trkpt>
      <trkpt lat="45.61041" lon="4.59959">
        <ele>759</ele>
        <time>2012-11-07T09:08:27Z</time>
      </trkpt>
      <trkpt lat="45.61039" lon="4.59958">
        <ele>759</ele>
        <time>2012-11-07T09:08:29Z</time>
      </trkpt>
      <trkpt lat="45.61037" lon="4.59956">
        <ele>758</ele>
        <time>2012-11-07T09:08:31Z</time>
      </trkpt>
      <trkpt lat="45.61034" lon="4.59953">
        <ele>758</ele>
        <time>2012-11-07T09:08:33Z</time>
      </trkpt>
      <trkpt lat="45.61032" lon="4.59952">
        <ele>759</ele>
        <time>2012-11-07T09:08:34Z</time>
      </trkpt>
      <trkpt lat="45.6103" lon="4.59949">
        <ele>758</ele>
        <time>2012-11-07T09:08:36Z</time>
      </trkpt>
      <trkpt lat="45.61028" lon="4.59942">
        <ele>757</ele>
        <time>2012-11-07T09:08:40Z</time>
      </trkpt>
      <trkpt lat="45.61027" lon="4.59938">
        <ele>757</ele>
        <time>2012-11-07T09:08:42Z</time>
      </trkpt>
      <trkpt lat="45.61024" lon="4.59934">
        <ele>757</ele>
        <time>2012-11-07T09:08:45Z</time>
      </trkpt>
      <trkpt lat="45.61023" lon="4.59932">
        <ele>757</ele>
        <time>2012-11-07T09:08:46Z</time>
      </trkpt>
      <trkpt lat="45.61018" lon="4.59926">
        <ele>757</ele>
        <time>2012-11-07T09:08:50Z</time>
      </trkpt>
      <trkpt lat="45.61017" lon="4.59923">
        <ele>757</ele>
        <time>2012-11-07T09:08:52Z</time>
      </trkpt>
      <trkpt lat="45.61016" lon="4.59919">
        <ele>756</ele>
        <time>2012-11-07T09:08:54Z</time>
      </trkpt>
      <trkpt lat="45.61014" lon="4.59911">
        <ele>752</ele>
        <time>2012-11-07T09:08:58Z</time>
      </trkpt>
      <trkpt lat="45.61013" lon="4.59907">
        <ele>752</ele>
        <time>2012-11-07T09:09:00Z</time>
      </trkpt>
      <trkpt lat="45.61013" lon="4.59903">
        <ele>752</ele>
        <time>2012-11-07T09:09:02Z</time>
      </trkpt>
      <trkpt lat="45.61013" lon="4.59898">
        <ele>751</ele>
        <time>2012-11-07T09:09:04Z</time>
      </trkpt>
      <trkpt lat="45.61013" lon="4.59895">
        <ele>754</ele>
        <time>2012-11-07T09:09:05Z</time>
      </trkpt>
      <trkpt lat="45.61012" lon="4.5989">
        <ele>753</ele>
        <time>2012-11-07T09:09:07Z</time>
      </trkpt>
      <trkpt lat="45.61013" lon="4.59884">
        <ele>755</ele>
        <time>2012-11-07T09:09:10Z</time>
      </trkpt>
      <trkpt lat="45.61014" lon="4.59872">
        <ele>756</ele>
        <time>2012-11-07T09:09:15Z</time>
      </trkpt>
      <trkpt lat="45.61015" lon="4.59869">
        <ele>756</ele>
        <time>2012-11-07T09:09:17Z</time>
      </trkpt>
      <trkpt lat="45.61014" lon="4.59864">
        <ele>755</ele>
        <time>2012-11-07T09:09:20Z</time>
      </trkpt>
      <trkpt lat="45.61015" lon="4.59861">
        <ele>754</ele>
        <time>2012-11-07T09:09:22Z</time>
      </trkpt>
      <trkpt lat="45.61017" lon="4.59858">
        <ele>755</ele>
        <time>2012-11-07T09:09:24Z</time>
      </trkpt>
      <trkpt lat="45.61019" lon="4.59855">
        <ele>757</ele>
        <time>2012-11-07T09:09:26Z</time>
      </trkpt>
      <trkpt lat="45.6102" lon="4.59853">
        <ele>758</ele>
        <time>2012-11-07T09:09:28Z</time>
      </trkpt>
      <trkpt lat="45.61021" lon="4.5985">
        <ele>759</ele>
        <time>2012-11-07T09:09:30Z</time>
      </trkpt>
      <trkpt lat="45.61021" lon="4.59846">
        <ele>759</ele>
        <time>2012-11-07T09:09:31Z</time>
      </trkpt>
      <trkpt lat="45.61021" lon="4.59843">
        <ele>759</ele>
        <time>2012-11-07T09:09:32Z</time>
      </trkpt>
      <trkpt lat="45.61021" lon="4.5984">
        <ele>759</ele>
        <time>2012-11-07T09:09:33Z</time>
      </trkpt>
      <trkpt lat="45.61023" lon="4.59829">
        <ele>758</ele>
        <time>2012-11-07T09:09:36Z</time>
      </trkpt>
      <trkpt lat="45.61032" lon="4.59837">
        <ele>745</ele>
        <time>2012-11-07T09:09:38Z</time>
      </trkpt>
      <trkpt lat="45.61037" lon="4.59842">
        <ele>738</ele>
        <time>2012-11-07T09:09:39Z</time>
      </trkpt>
      <trkpt lat="45.61038" lon="4.59831">
        <ele>745</ele>
        <time>2012-11-07T09:09:45Z</time>
      </trkpt>
      <trkpt lat="45.61038" lon="4.59825">
        <ele>745</ele>
        <time>2012-11-07T09:09:46Z</time>
      </trkpt>
      <trkpt lat="45.61039" lon="4.5982">
        <ele>746</ele>
        <time>2012-11-07T09:09:47Z</time>
      </trkpt>
      <trkpt lat="45.61039" lon="4.59817">
        <ele>748</ele>
        <time>2012-11-07T09:09:48Z</time>
      </trkpt>
      <trkpt lat="45.6104" lon="4.59813">
        <ele>747</ele>
        <time>2012-11-07T09:09:50Z</time>
      </trkpt>
      <trkpt lat="45.61041" lon="4.59809">
        <ele>747</ele>
        <time>2012-11-07T09:09:52Z</time>
      </trkpt>
      <trkpt lat="45.6104" lon="4.59806">
        <ele>751</ele>
        <time>2012-11-07T09:09:54Z</time>
      </trkpt>
      <trkpt lat="45.6104" lon="4.59802">
        <ele>749</ele>
        <time>2012-11-07T09:09:56Z</time>
      </trkpt>
      <trkpt lat="45.61039" lon="4.59799">
        <ele>753</ele>
        <time>2012-11-07T09:09:57Z</time>
      </trkpt>
      <trkpt lat="45.61037" lon="4.59797">
        <ele>754</ele>
        <time>2012-11-07T09:09:58Z</time>
      </trkpt>
      <trkpt lat="45.61035" lon="4.59792">
        <ele>755</ele>
        <time>2012-11-07T09:10:00Z</time>
      </trkpt>
      <trkpt lat="45.61033" lon="4.5979">
        <ele>755</ele>
        <time>2012-11-07T09:10:01Z</time>
      </trkpt>
      <trkpt lat="45.61032" lon="4.59788">
        <ele>755</ele>
        <time>2012-11-07T09:10:02Z</time>
      </trkpt>
      <trkpt lat="45.6103" lon="4.59786">
        <ele>756</ele>
        <time>2012-11-07T09:10:03Z</time>
      </trkpt>
      <trkpt lat="45.61029" lon="4.59782">
        <ele>756</ele>
        <time>2012-11-07T09:10:05Z</time>
      </trkpt>
      <trkpt lat="45.61027" lon="4.59779">
        <ele>757</ele>
        <time>2012-11-07T09:10:07Z</time>
      </trkpt>
      <trkpt lat="45.61023" lon="4.59777">
        <ele>755</ele>
        <time>2012-11-07T09:10:09Z</time>
      </trkpt>
      <trkpt lat="45.61022" lon="4.59776">
        <ele>755</ele>
        <time>2012-11-07T09:10:10Z</time>
      </trkpt>
      <trkpt lat="45.6102" lon="4.59776">
        <ele>755</ele>
        <time>2012-11-07T09:10:11Z</time>
      </trkpt>
      <trkpt lat="45.61017" lon="4.59775">
        <ele>755</ele>
        <time>2012-11-07T09:10:13Z</time>
      </trkpt>
      <trkpt lat="45.61015" lon="4.59774">
        <ele>754</ele>
        <time>2012-11-07T09:10:15Z</time>
      </trkpt>
      <trkpt lat="45.61013" lon="4.59773">
        <ele>753</ele>
        <time>2012-11-07T09:10:18Z</time>
      </trkpt>
      <trkpt lat="45.6101" lon="4.59772">
        <ele>753</ele>
        <time>2012-11-07T09:10:21Z</time>
      </trkpt>
      <trkpt lat="45.61008" lon="4.59771">
        <ele>754</ele>
        <time>2012-11-07T09:10:23Z</time>
      </trkpt>
      <trkpt lat="45.61006" lon="4.5977">
        <ele>754</ele>
        <time>2012-11-07T09:10:25Z</time>
      </trkpt>
      <trkpt lat="45.61003" lon="4.59769">
        <ele>755</ele>
        <time>2012-11-07T09:10:28Z</time>
      </trkpt>
      <trkpt lat="45.61003" lon="4.59766">
        <ele>754</ele>
        <time>2012-11-07T09:10:31Z</time>
      </trkpt>
      <trkpt lat="45.61001" lon="4.59766">
        <ele>754</ele>
        <time>2012-11-07T09:10:33Z</time>
      </trkpt>
      <trkpt lat="45.61" lon="4.59766">
        <ele>754</ele>
        <time>2012-11-07T09:10:34Z</time>
      </trkpt>
      <trkpt lat="45.60998" lon="4.59766">
        <ele>755</ele>
        <time>2012-11-07T09:10:35Z</time>
      </trkpt>
      <trkpt lat="45.60996" lon="4.59766">
        <ele>755</ele>
        <time>2012-11-07T09:10:36Z</time>
      </trkpt>
      <trkpt lat="45.60994" lon="4.59765">
        <ele>754</ele>
        <time>2012-11-07T09:10:37Z</time>
      </trkpt>
      <trkpt lat="45.60992" lon="4.59764">
        <ele>755</ele>
        <time>2012-11-07T09:10:38Z</time>
      </trkpt>
      <trkpt lat="45.6099" lon="4.59763">
        <ele>755</ele>
        <time>2012-11-07T09:10:39Z</time>
      </trkpt>
      <trkpt lat="45.60988" lon="4.59762">
        <ele>755</ele>
        <time>2012-11-07T09:10:40Z</time>
      </trkpt>
      <trkpt lat="45.60985" lon="4.5976">
        <ele>757</ele>
        <time>2012-11-07T09:10:42Z</time>
      </trkpt>
      <trkpt lat="45.6098" lon="4.59756">
        <ele>756</ele>
        <time>2012-11-07T09:10:46Z</time>
      </trkpt>
      <trkpt lat="45.60977" lon="4.59753">
        <ele>757</ele>
        <time>2012-11-07T09:10:49Z</time>
      </trkpt>
      <trkpt lat="45.60976" lon="4.5975">
        <ele>753</ele>
        <time>2012-11-07T09:10:51Z</time>
      </trkpt>
      <trkpt lat="45.60976" lon="4.59746">
        <ele>755</ele>
        <time>2012-11-07T09:10:53Z</time>
      </trkpt>
      <trkpt lat="45.60976" lon="4.59742">
        <ele>756</ele>
        <time>2012-11-07T09:10:55Z</time>
      </trkpt>
      <trkpt lat="45.60975" lon="4.59738">
        <ele>758</ele>
        <time>2012-11-07T09:10:57Z</time>
      </trkpt>
      <trkpt lat="45.60974" lon="4.59735">
        <ele>757</ele>
        <time>2012-11-07T09:10:59Z</time>
      </trkpt>
      <trkpt lat="45.60974" lon="4.59731">
        <ele>758</ele>
        <time>2012-11-07T09:11:01Z</time>
      </trkpt>
      <trkpt lat="45.60972" lon="4.59728">
        <ele>759</ele>
        <time>2012-11-07T09:11:03Z</time>
      </trkpt>
      <trkpt lat="45.60971" lon="4.59725">
        <ele>758</ele>
        <time>2012-11-07T09:11:05Z</time>
      </trkpt>
      <trkpt lat="45.60967" lon="4.59719">
        <ele>761</ele>
        <time>2012-11-07T09:11:08Z</time>
      </trkpt>
      <trkpt lat="45.60962" lon="4.59714">
        <ele>762</ele>
        <time>2012-11-07T09:11:13Z</time>
      </trkpt>
      <trkpt lat="45.60961" lon="4.5971">
        <ele>762</ele>
        <time>2012-11-07T09:11:15Z</time>
      </trkpt>
      <trkpt lat="45.60961" lon="4.59706">
        <ele>763</ele>
        <time>2012-11-07T09:11:17Z</time>
      </trkpt>
      <trkpt lat="45.6096" lon="4.59695">
        <ele>760</ele>
        <time>2012-11-07T09:11:22Z</time>
      </trkpt>
      <trkpt lat="45.6096" lon="4.59692">
        <ele>760</ele>
        <time>2012-11-07T09:11:23Z</time>
      </trkpt>
      <trkpt lat="45.60959" lon="4.59685">
        <ele>760</ele>
        <time>2012-11-07T09:11:26Z</time>
      </trkpt>
      <trkpt lat="45.60959" lon="4.59683">
        <ele>760</ele>
        <time>2012-11-07T09:11:28Z</time>
      </trkpt>
      <trkpt lat="45.60959" lon="4.59679">
        <ele>760</ele>
        <time>2012-11-07T09:11:30Z</time>
      </trkpt>
      <trkpt lat="45.60958" lon="4.59677">
        <ele>761</ele>
        <time>2012-11-07T09:11:31Z</time>
      </trkpt>
      <trkpt lat="45.60956" lon="4.59675">
        <ele>762</ele>
        <time>2012-11-07T09:11:32Z</time>
      </trkpt>
      <trkpt lat="45.60954" lon="4.59673">
        <ele>763</ele>
        <time>2012-11-07T09:11:34Z</time>
      </trkpt>
      <trkpt lat="45.60952" lon="4.59671">
        <ele>762</ele>
        <time>2012-11-07T09:11:36Z</time>
      </trkpt>
      <trkpt lat="45.6095" lon="4.59669">
        <ele>762</ele>
        <time>2012-11-07T09:11:38Z</time>
      </trkpt>
      <trkpt lat="45.60948" lon="4.59666">
        <ele>762</ele>
        <time>2012-11-07T09:11:40Z</time>
      </trkpt>
      <trkpt lat="45.60946" lon="4.59662">
        <ele>762</ele>
        <time>2012-11-07T09:11:42Z</time>
      </trkpt>
      <trkpt lat="45.60945" lon="4.5966">
        <ele>762</ele>
        <time>2012-11-07T09:11:44Z</time>
      </trkpt>
      <trkpt lat="45.60944" lon="4.59657">
        <ele>761</ele>
        <time>2012-11-07T09:11:46Z</time>
      </trkpt>
      <trkpt lat="45.60942" lon="4.59652">
        <ele>763</ele>
        <time>2012-11-07T09:11:50Z</time>
      </trkpt>
      <trkpt lat="45.60941" lon="4.59648">
        <ele>764</ele>
        <time>2012-11-07T09:11:52Z</time>
      </trkpt>
      <trkpt lat="45.6094" lon="4.59642">
        <ele>766</ele>
        <time>2012-11-07T09:11:55Z</time>
      </trkpt>
      <trkpt lat="45.60939" lon="4.59638">
        <ele>764</ele>
        <time>2012-11-07T09:11:57Z</time>
      </trkpt>
      <trkpt lat="45.60939" lon="4.59635">
        <ele>764</ele>
        <time>2012-11-07T09:11:58Z</time>
      </trkpt>
      <trkpt lat="45.60939" lon="4.59632">
        <ele>764</ele>
        <time>2012-11-07T09:12:00Z</time>
      </trkpt>
      <trkpt lat="45.60937" lon="4.59627">
        <ele>766</ele>
        <time>2012-11-07T09:12:03Z</time>
      </trkpt>
      <trkpt lat="45.60935" lon="4.59623">
        <ele>766</ele>
        <time>2012-11-07T09:12:06Z</time>
      </trkpt>
      <trkpt lat="45.60931" lon="4.59621">
        <ele>767</ele>
        <time>2012-11-07T09:12:10Z</time>
      </trkpt>
      <trkpt lat="45.60929" lon="4.59621">
        <ele>766</ele>
        <time>2012-11-07T09:12:11Z</time>
      </trkpt>
      <trkpt lat="45.60927" lon="4.5962">
        <ele>766</ele>
        <time>2012-11-07T09:12:12Z</time>
      </trkpt>
      <trkpt lat="45.60925" lon="4.59619">
        <ele>766</ele>
        <time>2012-11-07T09:12:13Z</time>
      </trkpt>
      <trkpt lat="45.60923" lon="4.59617">
        <ele>766</ele>
        <time>2012-11-07T09:12:14Z</time>
      </trkpt>
      <trkpt lat="45.60921" lon="4.59615">
        <ele>766</ele>
        <time>2012-11-07T09:12:16Z</time>
      </trkpt>
      <trkpt lat="45.60918" lon="4.59614">
        <ele>766</ele>
        <time>2012-11-07T09:12:19Z</time>
      </trkpt>
      <trkpt lat="45.60915" lon="4.59612">
        <ele>766</ele>
        <time>2012-11-07T09:12:21Z</time>
      </trkpt>
      <trkpt lat="45.60913" lon="4.5961">
        <ele>765</ele>
        <time>2012-11-07T09:12:22Z</time>
      </trkpt>
      <trkpt lat="45.60911" lon="4.59609">
        <ele>765</ele>
        <time>2012-11-07T09:12:23Z</time>
      </trkpt>
      <trkpt lat="45.6091" lon="4.59607">
        <ele>766</ele>
        <time>2012-11-07T09:12:24Z</time>
      </trkpt>
      <trkpt lat="45.60908" lon="4.59605">
        <ele>767</ele>
        <time>2012-11-07T09:12:25Z</time>
      </trkpt>
      <trkpt lat="45.60906" lon="4.59602">
        <ele>767</ele>
        <time>2012-11-07T09:12:26Z</time>
      </trkpt>
      <trkpt lat="45.60904" lon="4.59599">
        <ele>767</ele>
        <time>2012-11-07T09:12:27Z</time>
      </trkpt>
      <trkpt lat="45.60902" lon="4.59597">
        <ele>766</ele>
        <time>2012-11-07T09:12:28Z</time>
      </trkpt>
      <trkpt lat="45.60901" lon="4.59595">
        <ele>767</ele>
        <time>2012-11-07T09:12:29Z</time>
      </trkpt>
      <trkpt lat="45.60899" lon="4.59593">
        <ele>764</ele>
        <time>2012-11-07T09:12:34Z</time>
      </trkpt>
      <trkpt lat="45.60897" lon="4.59591">
        <ele>762</ele>
        <time>2012-11-07T09:12:36Z</time>
      </trkpt>
      <trkpt lat="45.60894" lon="4.59587">
        <ele>763</ele>
        <time>2012-11-07T09:12:38Z</time>
      </trkpt>
      <trkpt lat="45.60892" lon="4.59581">
        <ele>764</ele>
        <time>2012-11-07T09:12:41Z</time>
      </trkpt>
      <trkpt lat="45.60891" lon="4.59578">
        <ele>764</ele>
        <time>2012-11-07T09:12:43Z</time>
      </trkpt>
      <trkpt lat="45.6089" lon="4.59575">
        <ele>765</ele>
        <time>2012-11-07T09:12:46Z</time>
      </trkpt>
      <trkpt lat="45.60888" lon="4.59572">
        <ele>764</ele>
        <time>2012-11-07T09:12:48Z</time>
      </trkpt>
      <trkpt lat="45.60885" lon="4.59566">
        <ele>766</ele>
        <time>2012-11-07T09:12:51Z</time>
      </trkpt>
      <trkpt lat="45.60883" lon="4.59562">
        <ele>767</ele>
        <time>2012-11-07T09:12:54Z</time>
      </trkpt>
      <trkpt lat="45.60883" lon="4.59559">
        <ele>767</ele>
        <time>2012-11-07T09:12:56Z</time>
      </trkpt>
      <trkpt lat="45.60882" lon="4.59556">
        <ele>765</ele>
        <time>2012-11-07T09:12:58Z</time>
      </trkpt>
      <trkpt lat="45.60881" lon="4.59553">
        <ele>765</ele>
        <time>2012-11-07T09:13:00Z</time>
      </trkpt>
      <trkpt lat="45.60879" lon="4.59551">
        <ele>765</ele>
        <time>2012-11-07T09:13:01Z</time>
      </trkpt>
      <trkpt lat="45.60879" lon="4.59549">
        <ele>765</ele>
        <time>2012-11-07T09:13:02Z</time>
      </trkpt>
      <trkpt lat="45.60876" lon="4.59544">
        <ele>764</ele>
        <time>2012-11-07T09:13:04Z</time>
      </trkpt>
      <trkpt lat="45.60876" lon="4.59541">
        <ele>764</ele>
        <time>2012-11-07T09:13:05Z</time>
      </trkpt>
      <trkpt lat="45.60875" lon="4.59538">
        <ele>764</ele>
        <time>2012-11-07T09:13:06Z</time>
      </trkpt>
      <trkpt lat="45.60875" lon="4.59536">
        <ele>764</ele>
        <time>2012-11-07T09:13:07Z</time>
      </trkpt>
      <trkpt lat="45.60874" lon="4.59529">
        <ele>765</ele>
        <time>2012-11-07T09:13:10Z</time>
      </trkpt>
      <trkpt lat="45.60874" lon="4.59524">
        <ele>763</ele>
        <time>2012-11-07T09:13:12Z</time>
      </trkpt>
      <trkpt lat="45.60874" lon="4.59521">
        <ele>763</ele>
        <time>2012-11-07T09:13:14Z</time>
      </trkpt>
      <trkpt lat="45.60873" lon="4.59518">
        <ele>762</ele>
        <time>2012-11-07T09:13:16Z</time>
      </trkpt>
      <trkpt lat="45.60873" lon="4.59515">
        <ele>762</ele>
        <time>2012-11-07T09:13:18Z</time>
      </trkpt>
      <trkpt lat="45.60872" lon="4.59512">
        <ele>764</ele>
        <time>2012-11-07T09:13:19Z</time>
      </trkpt>
      <trkpt lat="45.60871" lon="4.59508">
        <ele>765</ele>
        <time>2012-11-07T09:13:21Z</time>
      </trkpt>
      <trkpt lat="45.6087" lon="4.59505">
        <ele>766</ele>
        <time>2012-11-07T09:13:22Z</time>
      </trkpt>
      <trkpt lat="45.6087" lon="4.59502">
        <ele>766</ele>
        <time>2012-11-07T09:13:23Z</time>
      </trkpt>
      <trkpt lat="45.60869" lon="4.59499">
        <ele>766</ele>
        <time>2012-11-07T09:13:24Z</time>
      </trkpt>
      <trkpt lat="45.60869" lon="4.59494">
        <ele>765</ele>
        <time>2012-11-07T09:13:26Z</time>
      </trkpt>
      <trkpt lat="45.60868" lon="4.5949">
        <ele>765</ele>
        <time>2012-11-07T09:13:28Z</time>
      </trkpt>
      <trkpt lat="45.60869" lon="4.59486">
        <ele>764</ele>
        <time>2012-11-07T09:13:30Z</time>
      </trkpt>
      <trkpt lat="45.6087" lon="4.59482">
        <ele>763</ele>
        <time>2012-11-07T09:13:32Z</time>
      </trkpt>
      <trkpt lat="45.6087" lon="4.59478">
        <ele>763</ele>
        <time>2012-11-07T09:13:34Z</time>
      </trkpt>
      <trkpt lat="45.6087" lon="4.59475">
        <ele>762</ele>
        <time>2012-11-07T09:13:35Z</time>
      </trkpt>
      <trkpt lat="45.6087" lon="4.59472">
        <ele>763</ele>
        <time>2012-11-07T09:13:36Z</time>
      </trkpt>
      <trkpt lat="45.6087" lon="4.5947">
        <ele>763</ele>
        <time>2012-11-07T09:13:37Z</time>
      </trkpt>
      <trkpt lat="45.6087" lon="4.59464">
        <ele>764</ele>
        <time>2012-11-07T09:13:39Z</time>
      </trkpt>
      <trkpt lat="45.60869" lon="4.59459">
        <ele>765</ele>
        <time>2012-11-07T09:13:41Z</time>
      </trkpt>
      <trkpt lat="45.60869" lon="4.59456">
        <ele>765</ele>
        <time>2012-11-07T09:13:43Z</time>
      </trkpt>
      <trkpt lat="45.60869" lon="4.59446">
        <ele>766</ele>
        <time>2012-11-07T09:13:47Z</time>
      </trkpt>
      <trkpt lat="45.60869" lon="4.59443">
        <ele>767</ele>
        <time>2012-11-07T09:13:48Z</time>
      </trkpt>
      <trkpt lat="45.6087" lon="4.59439">
        <ele>768</ele>
        <time>2012-11-07T09:13:50Z</time>
      </trkpt>
      <trkpt lat="45.60871" lon="4.59436">
        <ele>768</ele>
        <time>2012-11-07T09:13:52Z</time>
      </trkpt>
      <trkpt lat="45.60872" lon="4.59433">
        <ele>769</ele>
        <time>2012-11-07T09:13:54Z</time>
      </trkpt>
      <trkpt lat="45.60873" lon="4.59427">
        <ele>767</ele>
        <time>2012-11-07T09:13:57Z</time>
      </trkpt>
      <trkpt lat="45.60873" lon="4.59424">
        <ele>766</ele>
        <time>2012-11-07T09:13:58Z</time>
      </trkpt>
      <trkpt lat="45.60874" lon="4.59411">
        <ele>766</ele>
        <time>2012-11-07T09:14:02Z</time>
      </trkpt>
      <trkpt lat="45.60876" lon="4.59401">
        <ele>767</ele>
        <time>2012-11-07T09:14:04Z</time>
      </trkpt>
      <trkpt lat="45.6088" lon="4.5939">
        <ele>766</ele>
        <time>2012-11-07T09:14:05Z</time>
      </trkpt>
      <trkpt lat="45.60875" lon="4.59397">
        <ele>765</ele>
        <time>2012-11-07T09:14:06Z</time>
      </trkpt>
      <trkpt lat="45.60876" lon="4.59394">
        <ele>765</ele>
        <time>2012-11-07T09:14:12Z</time>
      </trkpt>
      <trkpt lat="45.60874" lon="4.59392">
        <ele>766</ele>
        <time>2012-11-07T09:14:15Z</time>
      </trkpt>
      <trkpt lat="45.60876" lon="4.59388">
        <ele>766</ele>
        <time>2012-11-07T09:14:18Z</time>
      </trkpt>
      <trkpt lat="45.60877" lon="4.59386">
        <ele>767</ele>
        <time>2012-11-07T09:14:19Z</time>
      </trkpt>
      <trkpt lat="45.60879" lon="4.59384">
        <ele>767</ele>
        <time>2012-11-07T09:14:20Z</time>
      </trkpt>
      <trkpt lat="45.6088" lon="4.59379">
        <ele>766</ele>
        <time>2012-11-07T09:14:22Z</time>
      </trkpt>
      <trkpt lat="45.60881" lon="4.59376">
        <ele>766</ele>
        <time>2012-11-07T09:14:23Z</time>
      </trkpt>
      <trkpt lat="45.60881" lon="4.59373">
        <ele>767</ele>
        <time>2012-11-07T09:14:24Z</time>
      </trkpt>
      <trkpt lat="45.60882" lon="4.5937">
        <ele>762</ele>
        <time>2012-11-07T09:14:26Z</time>
      </trkpt>
      <trkpt lat="45.60883" lon="4.59367">
        <ele>763</ele>
        <time>2012-11-07T09:14:28Z</time>
      </trkpt>
      <trkpt lat="45.60884" lon="4.59363">
        <ele>763</ele>
        <time>2012-11-07T09:14:30Z</time>
      </trkpt>
      <trkpt lat="45.60885" lon="4.59358">
        <ele>764</ele>
        <time>2012-11-07T09:14:32Z</time>
      </trkpt>
      <trkpt lat="45.60885" lon="4.59355">
        <ele>763</ele>
        <time>2012-11-07T09:14:33Z</time>
      </trkpt>
      <trkpt lat="45.60887" lon="4.59345">
        <ele>763</ele>
        <time>2012-11-07T09:14:38Z</time>
      </trkpt>
      <trkpt lat="45.60887" lon="4.5934">
        <ele>763</ele>
        <time>2012-11-07T09:14:40Z</time>
      </trkpt>
      <trkpt lat="45.60888" lon="4.59335">
        <ele>761</ele>
        <time>2012-11-07T09:14:43Z</time>
      </trkpt>
      <trkpt lat="45.60889" lon="4.5933">
        <ele>761</ele>
        <time>2012-11-07T09:14:46Z</time>
      </trkpt>
      <trkpt lat="45.6089" lon="4.59326">
        <ele>760</ele>
        <time>2012-11-07T09:14:48Z</time>
      </trkpt>
      <trkpt lat="45.60888" lon="4.59321">
        <ele>760</ele>
        <time>2012-11-07T09:14:50Z</time>
      </trkpt>
      <trkpt lat="45.60887" lon="4.59318">
        <ele>760</ele>
        <time>2012-11-07T09:14:51Z</time>
      </trkpt>
      <trkpt lat="45.60885" lon="4.59315">
        <ele>761</ele>
        <time>2012-11-07T09:14:52Z</time>
      </trkpt>
      <trkpt lat="45.60884" lon="4.59311">
        <ele>761</ele>
        <time>2012-11-07T09:14:53Z</time>
      </trkpt>
      <trkpt lat="45.60883" lon="4.59308">
        <ele>761</ele>
        <time>2012-11-07T09:14:54Z</time>
      </trkpt>
      <trkpt lat="45.60885" lon="4.59305">
        <ele>761</ele>
        <time>2012-11-07T09:14:55Z</time>
      </trkpt>
      <trkpt lat="45.60886" lon="4.59301">
        <ele>761</ele>
        <time>2012-11-07T09:14:57Z</time>
      </trkpt>
      <trkpt lat="45.60887" lon="4.59297">
        <ele>762</ele>
        <time>2012-11-07T09:14:59Z</time>
      </trkpt>
      <trkpt lat="45.60889" lon="4.59294">
        <ele>763</ele>
        <time>2012-11-07T09:15:01Z</time>
      </trkpt>
      <trkpt lat="45.6089" lon="4.59291">
        <ele>763</ele>
        <time>2012-11-07T09:15:02Z</time>
      </trkpt>
      <trkpt lat="45.60891" lon="4.59287">
        <ele>763</ele>
        <time>2012-11-07T09:15:04Z</time>
      </trkpt>
      <trkpt lat="45.60892" lon="4.59283">
        <ele>763</ele>
        <time>2012-11-07T09:15:06Z</time>
      </trkpt>
      <trkpt lat="45.60891" lon="4.59279">
        <ele>764</ele>
        <time>2012-11-07T09:15:08Z</time>
      </trkpt>
      <trkpt lat="45.60891" lon="4.59275">
        <ele>764</ele>
        <time>2012-11-07T09:15:10Z</time>
      </trkpt>
      <trkpt lat="45.60892" lon="4.59272">
        <ele>764</ele>
        <time>2012-11-07T09:15:11Z</time>
      </trkpt>
      <trkpt lat="45.60892" lon="4.59269">
        <ele>764</ele>
        <time>2012-11-07T09:15:12Z</time>
      </trkpt>
      <trkpt lat="45.60892" lon="4.59263">
        <ele>763</ele>
        <time>2012-11-07T09:15:14Z</time>
      </trkpt>
      <trkpt lat="45.60893" lon="4.59259">
        <ele>764</ele>
        <time>2012-11-07T09:15:16Z</time>
      </trkpt>
      <trkpt lat="45.60893" lon="4.59255">
        <ele>768</ele>
        <time>2012-11-07T09:15:18Z</time>
      </trkpt>
      <trkpt lat="45.60893" lon="4.59253">
        <ele>768</ele>
        <time>2012-11-07T09:15:20Z</time>
      </trkpt>
      <trkpt lat="45.60893" lon="4.59249">
        <ele>770</ele>
        <time>2012-11-07T09:15:22Z</time>
      </trkpt>
      <trkpt lat="45.60894" lon="4.59241">
        <ele>769</ele>
        <time>2012-11-07T09:15:25Z</time>
      </trkpt>
      <trkpt lat="45.60894" lon="4.59239">
        <ele>769</ele>
        <time>2012-11-07T09:15:26Z</time>
      </trkpt>
      <trkpt lat="45.60893" lon="4.59234">
        <ele>769</ele>
        <time>2012-11-07T09:15:28Z</time>
      </trkpt>
      <trkpt lat="45.60892" lon="4.59231">
        <ele>771</ele>
        <time>2012-11-07T09:15:30Z</time>
      </trkpt>
      <trkpt lat="45.60891" lon="4.59228">
        <ele>771</ele>
        <time>2012-11-07T09:15:32Z</time>
      </trkpt>
      <trkpt lat="45.60891" lon="4.59225">
        <ele>772</ele>
        <time>2012-11-07T09:15:37Z</time>
      </trkpt>
      <trkpt lat="45.60893" lon="4.59219">
        <ele>771</ele>
        <time>2012-11-07T09:15:40Z</time>
      </trkpt>
      <trkpt lat="45.60894" lon="4.59215">
        <ele>771</ele>
        <time>2012-11-07T09:15:42Z</time>
      </trkpt>
      <trkpt lat="45.60895" lon="4.59205">
        <ele>771</ele>
        <time>2012-11-07T09:15:47Z</time>
      </trkpt>
      <trkpt lat="45.60896" lon="4.592">
        <ele>771</ele>
        <time>2012-11-07T09:15:50Z</time>
      </trkpt>
      <trkpt lat="45.60897" lon="4.59196">
        <ele>771</ele>
        <time>2012-11-07T09:15:52Z</time>
      </trkpt>
      <trkpt lat="45.60897" lon="4.5919">
        <ele>770</ele>
        <time>2012-11-07T09:15:55Z</time>
      </trkpt>
      <trkpt lat="45.60898" lon="4.59186">
        <ele>770</ele>
        <time>2012-11-07T09:15:57Z</time>
      </trkpt>
      <trkpt lat="45.609" lon="4.59183">
        <ele>770</ele>
        <time>2012-11-07T09:15:59Z</time>
      </trkpt>
      <trkpt lat="45.60903" lon="4.59178">
        <ele>769</ele>
        <time>2012-11-07T09:16:02Z</time>
      </trkpt>
      <trkpt lat="45.60902" lon="4.59174">
        <ele>768</ele>
        <time>2012-11-07T09:16:04Z</time>
      </trkpt>
      <trkpt lat="45.60902" lon="4.59172">
        <ele>769</ele>
        <time>2012-11-07T09:16:05Z</time>
      </trkpt>
      <trkpt lat="45.609" lon="4.59168">
        <ele>770</ele>
        <time>2012-11-07T09:16:06Z</time>
      </trkpt>
      <trkpt lat="45.60899" lon="4.59165">
        <ele>770</ele>
        <time>2012-11-07T09:16:07Z</time>
      </trkpt>
      <trkpt lat="45.60898" lon="4.59162">
        <ele>771</ele>
        <time>2012-11-07T09:16:08Z</time>
      </trkpt>
      <trkpt lat="45.60897" lon="4.59159">
        <ele>772</ele>
        <time>2012-11-07T09:16:09Z</time>
      </trkpt>
      <trkpt lat="45.60896" lon="4.59156">
        <ele>771</ele>
        <time>2012-11-07T09:16:10Z</time>
      </trkpt>
      <trkpt lat="45.60894" lon="4.59149">
        <ele>772</ele>
        <time>2012-11-07T09:16:13Z</time>
      </trkpt>
      <trkpt lat="45.60893" lon="4.59146">
        <ele>768</ele>
        <time>2012-11-07T09:16:16Z</time>
      </trkpt>
      <trkpt lat="45.60892" lon="4.59143">
        <ele>767</ele>
        <time>2012-11-07T09:16:19Z</time>
      </trkpt>
      <trkpt lat="45.60892" lon="4.59139">
        <ele>767</ele>
        <time>2012-11-07T09:16:21Z</time>
      </trkpt>
      <trkpt lat="45.6089" lon="4.59129">
        <ele>768</ele>
        <time>2012-11-07T09:16:26Z</time>
      </trkpt>
      <trkpt lat="45.60889" lon="4.59125">
        <ele>766</ele>
        <time>2012-11-07T09:16:28Z</time>
      </trkpt>
      <trkpt lat="45.60888" lon="4.59121">
        <ele>765</ele>
        <time>2012-11-07T09:16:30Z</time>
      </trkpt>
      <trkpt lat="45.60886" lon="4.59117">
        <ele>766</ele>
        <time>2012-11-07T09:16:32Z</time>
      </trkpt>
      <trkpt lat="45.60885" lon="4.59112">
        <ele>766</ele>
        <time>2012-11-07T09:16:35Z</time>
      </trkpt>
      <trkpt lat="45.60883" lon="4.59109">
        <ele>766</ele>
        <time>2012-11-07T09:16:37Z</time>
      </trkpt>
      <trkpt lat="45.6088" lon="4.59102">
        <ele>767</ele>
        <time>2012-11-07T09:16:43Z</time>
      </trkpt>
      <trkpt lat="45.60879" lon="4.59099">
        <ele>767</ele>
        <time>2012-11-07T09:16:45Z</time>
      </trkpt>
      <trkpt lat="45.60873" lon="4.59081">
        <ele>766</ele>
        <time>2012-11-07T09:16:54Z</time>
      </trkpt>
      <trkpt lat="45.6087" lon="4.59069">
        <ele>768</ele>
        <time>2012-11-07T09:16:59Z</time>
      </trkpt>
      <trkpt lat="45.60868" lon="4.59064">
        <ele>768</ele>
        <time>2012-11-07T09:17:01Z</time>
      </trkpt>
      <trkpt lat="45.60867" lon="4.59062">
        <ele>768</ele>
        <time>2012-11-07T09:17:02Z</time>
      </trkpt>
      <trkpt lat="45.60867" lon="4.5906">
        <ele>769</ele>
        <time>2012-11-07T09:17:03Z</time>
      </trkpt>
      <trkpt lat="45.60864" lon="4.59056">
        <ele>769</ele>
        <time>2012-11-07T09:17:05Z</time>
      </trkpt>
      <trkpt lat="45.60863" lon="4.59053">
        <ele>769</ele>
        <time>2012-11-07T09:17:07Z</time>
      </trkpt>
      <trkpt lat="45.60862" lon="4.5905">
        <ele>768</ele>
        <time>2012-11-07T09:17:08Z</time>
      </trkpt>
      <trkpt lat="45.6086" lon="4.59048">
        <ele>769</ele>
        <time>2012-11-07T09:17:09Z</time>
      </trkpt>
      <trkpt lat="45.60857" lon="4.59041">
        <ele>767</ele>
        <time>2012-11-07T09:17:12Z</time>
      </trkpt>
      <trkpt lat="45.60855" lon="4.59038">
        <ele>766</ele>
        <time>2012-11-07T09:17:14Z</time>
      </trkpt>
      <trkpt lat="45.60854" lon="4.59035">
        <ele>765</ele>
        <time>2012-11-07T09:17:16Z</time>
      </trkpt>
      <trkpt lat="45.60852" lon="4.59032">
        <ele>767</ele>
        <time>2012-11-07T09:17:18Z</time>
      </trkpt>
      <trkpt lat="45.60852" lon="4.59029">
        <ele>763</ele>
        <time>2012-11-07T09:17:20Z</time>
      </trkpt>
      <trkpt lat="45.60854" lon="4.59026">
        <ele>757</ele>
        <time>2012-11-07T09:17:24Z</time>
      </trkpt>
      <trkpt lat="45.60853" lon="4.59023">
        <ele>758</ele>
        <time>2012-11-07T09:17:26Z</time>
      </trkpt>
      <trkpt lat="45.60851" lon="4.59021">
        <ele>761</ele>
        <time>2012-11-07T09:17:27Z</time>
      </trkpt>
      <trkpt lat="45.60845" lon="4.59015">
        <ele>762</ele>
        <time>2012-11-07T09:17:32Z</time>
      </trkpt>
      <trkpt lat="45.60844" lon="4.59011">
        <ele>766</ele>
        <time>2012-11-07T09:17:35Z</time>
      </trkpt>
      <trkpt lat="45.60843" lon="4.59008">
        <ele>766</ele>
        <time>2012-11-07T09:17:38Z</time>
      </trkpt>
      <trkpt lat="45.60842" lon="4.59006">
        <ele>766</ele>
        <time>2012-11-07T09:17:42Z</time>
      </trkpt>
      <trkpt lat="45.6084" lon="4.59005">
        <ele>763</ele>
        <time>2012-11-07T09:17:43Z</time>
      </trkpt>
      <trkpt lat="45.60837" lon="4.59003">
        <ele>764</ele>
        <time>2012-11-07T09:17:44Z</time>
      </trkpt>
      <trkpt lat="45.60835" lon="4.59002">
        <ele>765</ele>
        <time>2012-11-07T09:17:45Z</time>
      </trkpt>
      <trkpt lat="45.60821" lon="4.58995">
        <ele>764</ele>
        <time>2012-11-07T09:17:51Z</time>
      </trkpt>
      <trkpt lat="45.60819" lon="4.58994">
        <ele>765</ele>
        <time>2012-11-07T09:17:52Z</time>
      </trkpt>
      <trkpt lat="45.60813" lon="4.5899">
        <ele>768</ele>
        <time>2012-11-07T09:17:56Z</time>
      </trkpt>
      <trkpt lat="45.60809" lon="4.58989">
        <ele>769</ele>
        <time>2012-11-07T09:17:58Z</time>
      </trkpt>
      <trkpt lat="45.60806" lon="4.58987">
        <ele>769</ele>
        <time>2012-11-07T09:18:00Z</time>
      </trkpt>
      <trkpt lat="45.60805" lon="4.58986">
        <ele>769</ele>
        <time>2012-11-07T09:18:01Z</time>
      </trkpt>
      <trkpt lat="45.60801" lon="4.58986">
        <ele>770</ele>
        <time>2012-11-07T09:18:03Z</time>
      </trkpt>
      <trkpt lat="45.60799" lon="4.58986">
        <ele>771</ele>
        <time>2012-11-07T09:18:04Z</time>
      </trkpt>
      <trkpt lat="45.60797" lon="4.58986">
        <ele>771</ele>
        <time>2012-11-07T09:18:05Z</time>
      </trkpt>
      <trkpt lat="45.60795" lon="4.58986">
        <ele>771</ele>
        <time>2012-11-07T09:18:06Z</time>
      </trkpt>
      <trkpt lat="45.60793" lon="4.58987">
        <ele>771</ele>
        <time>2012-11-07T09:18:07Z</time>
      </trkpt>
      <trkpt lat="45.60791" lon="4.58986">
        <ele>772</ele>
        <time>2012-11-07T09:18:11Z</time>
      </trkpt>
      <trkpt lat="45.60786" lon="4.58988">
        <ele>770</ele>
        <time>2012-11-07T09:18:15Z</time>
      </trkpt>
      <trkpt lat="45.60784" lon="4.58989">
        <ele>769</ele>
        <time>2012-11-07T09:18:16Z</time>
      </trkpt>
      <trkpt lat="45.60782" lon="4.5899">
        <ele>769</ele>
        <time>2012-11-07T09:18:17Z</time>
      </trkpt>
      <trkpt lat="45.60779" lon="4.58992">
        <ele>766</ele>
        <time>2012-11-07T09:18:19Z</time>
      </trkpt>
      <trkpt lat="45.60774" lon="4.58994">
        <ele>767</ele>
        <time>2012-11-07T09:18:22Z</time>
      </trkpt>
      <trkpt lat="45.60771" lon="4.58995">
        <ele>766</ele>
        <time>2012-11-07T09:18:24Z</time>
      </trkpt>
      <trkpt lat="45.60769" lon="4.58995">
        <ele>765</ele>
        <time>2012-11-07T09:18:25Z</time>
      </trkpt>
      <trkpt lat="45.60762" lon="4.58997">
        <ele>768</ele>
        <time>2012-11-07T09:18:29Z</time>
      </trkpt>
      <trkpt lat="45.60759" lon="4.58999">
        <ele>767</ele>
        <time>2012-11-07T09:18:31Z</time>
      </trkpt>
      <trkpt lat="45.60758" lon="4.58999">
        <ele>767</ele>
        <time>2012-11-07T09:18:32Z</time>
      </trkpt>
      <trkpt lat="45.60754" lon="4.59">
        <ele>768</ele>
        <time>2012-11-07T09:18:34Z</time>
      </trkpt>
      <trkpt lat="45.60751" lon="4.59">
        <ele>769</ele>
        <time>2012-11-07T09:18:36Z</time>
      </trkpt>
      <trkpt lat="45.60746" lon="4.59">
        <ele>769</ele>
        <time>2012-11-07T09:18:40Z</time>
      </trkpt>
      <trkpt lat="45.60743" lon="4.59">
        <ele>768</ele>
        <time>2012-11-07T09:18:42Z</time>
      </trkpt>
      <trkpt lat="45.6074" lon="4.59">
        <ele>770</ele>
        <time>2012-11-07T09:18:44Z</time>
      </trkpt>
      <trkpt lat="45.60738" lon="4.59">
        <ele>772</ele>
        <time>2012-11-07T09:18:45Z</time>
      </trkpt>
      <trkpt lat="45.60737" lon="4.59">
        <ele>773</ele>
        <time>2012-11-07T09:18:46Z</time>
      </trkpt>
      <trkpt lat="45.60735" lon="4.59">
        <ele>773</ele>
        <time>2012-11-07T09:18:47Z</time>
      </trkpt>
      <trkpt lat="45.60732" lon="4.58999">
        <ele>773</ele>
        <time>2012-11-07T09:18:49Z</time>
      </trkpt>
      <trkpt lat="45.60729" lon="4.58998">
        <ele>773</ele>
        <time>2012-11-07T09:18:51Z</time>
      </trkpt>
      <trkpt lat="45.60727" lon="4.58996">
        <ele>772</ele>
        <time>2012-11-07T09:18:53Z</time>
      </trkpt>
      <trkpt lat="45.60724" lon="4.58995">
        <ele>771</ele>
        <time>2012-11-07T09:18:55Z</time>
      </trkpt>
      <trkpt lat="45.60721" lon="4.58994">
        <ele>770</ele>
        <time>2012-11-07T09:18:57Z</time>
      </trkpt>
      <trkpt lat="45.60718" lon="4.58994">
        <ele>769</ele>
        <time>2012-11-07T09:18:59Z</time>
      </trkpt>
      <trkpt lat="45.60715" lon="4.58991">
        <ele>769</ele>
        <time>2012-11-07T09:19:01Z</time>
      </trkpt>
      <trkpt lat="45.60712" lon="4.58989">
        <ele>768</ele>
        <time>2012-11-07T09:19:03Z</time>
      </trkpt>
      <trkpt lat="45.60711" lon="4.58987">
        <ele>768</ele>
        <time>2012-11-07T09:19:04Z</time>
      </trkpt>
      <trkpt lat="45.60708" lon="4.58985">
        <ele>768</ele>
        <time>2012-11-07T09:19:05Z</time>
      </trkpt>
      <trkpt lat="45.60706" lon="4.58983">
        <ele>768</ele>
        <time>2012-11-07T09:19:06Z</time>
      </trkpt>
      <trkpt lat="45.60704" lon="4.58982">
        <ele>767</ele>
        <time>2012-11-07T09:19:07Z</time>
      </trkpt>
      <trkpt lat="45.60702" lon="4.58981">
        <ele>765</ele>
        <time>2012-11-07T09:19:09Z</time>
      </trkpt>
      <trkpt lat="45.607" lon="4.58982">
        <ele>766</ele>
        <time>2012-11-07T09:19:11Z</time>
      </trkpt>
      <trkpt lat="45.60698" lon="4.58983">
        <ele>766</ele>
        <time>2012-11-07T09:19:13Z</time>
      </trkpt>
      <trkpt lat="45.60694" lon="4.58984">
        <ele>766</ele>
        <time>2012-11-07T09:19:17Z</time>
      </trkpt>
      <trkpt lat="45.6069" lon="4.58985">
        <ele>764</ele>
        <time>2012-11-07T09:19:20Z</time>
      </trkpt>
      <trkpt lat="45.60688" lon="4.58984">
        <ele>764</ele>
        <time>2012-11-07T09:19:21Z</time>
      </trkpt>
      <trkpt lat="45.60686" lon="4.58983">
        <ele>765</ele>
        <time>2012-11-07T09:19:22Z</time>
      </trkpt>
      <trkpt lat="45.60683" lon="4.58983">
        <ele>765</ele>
        <time>2012-11-07T09:19:23Z</time>
      </trkpt>
      <trkpt lat="45.60681" lon="4.58982">
        <ele>765</ele>
        <time>2012-11-07T09:19:24Z</time>
      </trkpt>
      <trkpt lat="45.60679" lon="4.58981">
        <ele>765</ele>
        <time>2012-11-07T09:19:25Z</time>
      </trkpt>
      <trkpt lat="45.60677" lon="4.5898">
        <ele>766</ele>
        <time>2012-11-07T09:19:26Z</time>
      </trkpt>
      <trkpt lat="45.60673" lon="4.5898">
        <ele>766</ele>
        <time>2012-11-07T09:19:28Z</time>
      </trkpt>
      <trkpt lat="45.60671" lon="4.5898">
        <ele>766</ele>
        <time>2012-11-07T09:19:30Z</time>
      </trkpt>
      <trkpt lat="45.60668" lon="4.5898">
        <ele>767</ele>
        <time>2012-11-07T09:19:33Z</time>
      </trkpt>
      <trkpt lat="45.60666" lon="4.5898">
        <ele>767</ele>
        <time>2012-11-07T09:19:35Z</time>
      </trkpt>
      <trkpt lat="45.60663" lon="4.58979">
        <ele>765</ele>
        <time>2012-11-07T09:19:37Z</time>
      </trkpt>
      <trkpt lat="45.60661" lon="4.58978">
        <ele>763</ele>
        <time>2012-11-07T09:19:38Z</time>
      </trkpt>
      <trkpt lat="45.60659" lon="4.58977">
        <ele>763</ele>
        <time>2012-11-07T09:19:39Z</time>
      </trkpt>
      <trkpt lat="45.60657" lon="4.58976">
        <ele>763</ele>
        <time>2012-11-07T09:19:40Z</time>
      </trkpt>
      <trkpt lat="45.60654" lon="4.58975">
        <ele>763</ele>
        <time>2012-11-07T09:19:42Z</time>
      </trkpt>
      <trkpt lat="45.60651" lon="4.58974">
        <ele>764</ele>
        <time>2012-11-07T09:19:44Z</time>
      </trkpt>
      <trkpt lat="45.6065" lon="4.58976">
        <ele>763</ele>
        <time>2012-11-07T09:19:46Z</time>
      </trkpt>
      <trkpt lat="45.6065" lon="4.58979">
        <ele>763</ele>
        <time>2012-11-07T09:19:47Z</time>
      </trkpt>
      <trkpt lat="45.60649" lon="4.58983">
        <ele>763</ele>
        <time>2012-11-07T09:19:49Z</time>
      </trkpt>
      <trkpt lat="45.60646" lon="4.58983">
        <ele>768</ele>
        <time>2012-11-07T09:19:51Z</time>
      </trkpt>
      <trkpt lat="45.60641" lon="4.58983">
        <ele>771</ele>
        <time>2012-11-07T09:19:54Z</time>
      </trkpt>
      <trkpt lat="45.60638" lon="4.58982">
        <ele>771</ele>
        <time>2012-11-07T09:19:56Z</time>
      </trkpt>
      <trkpt lat="45.60636" lon="4.58981">
        <ele>771</ele>
        <time>2012-11-07T09:19:58Z</time>
      </trkpt>
      <trkpt lat="45.60633" lon="4.58979">
        <ele>771</ele>
        <time>2012-11-07T09:20:00Z</time>
      </trkpt>
      <trkpt lat="45.6063" lon="4.58978">
        <ele>771</ele>
        <time>2012-11-07T09:20:02Z</time>
      </trkpt>
      <trkpt lat="45.60628" lon="4.58976">
        <ele>766</ele>
        <time>2012-11-07T09:20:04Z</time>
      </trkpt>
      <trkpt lat="45.60626" lon="4.58974">
        <ele>763</ele>
        <time>2012-11-07T09:20:06Z</time>
      </trkpt>
      <trkpt lat="45.60623" lon="4.58972">
        <ele>765</ele>
        <time>2012-11-07T09:20:08Z</time>
      </trkpt>
      <trkpt lat="45.60617" lon="4.58969">
        <ele>766</ele>
        <time>2012-11-07T09:20:12Z</time>
      </trkpt>
      <trkpt lat="45.60615" lon="4.58968">
        <ele>766</ele>
        <time>2012-11-07T09:20:13Z</time>
      </trkpt>
      <trkpt lat="45.60611" lon="4.58967">
        <ele>767</ele>
        <time>2012-11-07T09:20:14Z</time>
      </trkpt>
      <trkpt lat="45.60609" lon="4.58967">
        <ele>768</ele>
        <time>2012-11-07T09:20:15Z</time>
      </trkpt>
      <trkpt lat="45.60607" lon="4.58966">
        <ele>768</ele>
        <time>2012-11-07T09:20:16Z</time>
      </trkpt>
      <trkpt lat="45.60605" lon="4.58966">
        <ele>767</ele>
        <time>2012-11-07T09:20:17Z</time>
      </trkpt>
      <trkpt lat="45.60602" lon="4.58964">
        <ele>768</ele>
        <time>2012-11-07T09:20:19Z</time>
      </trkpt>
      <trkpt lat="45.60599" lon="4.58959">
        <ele>767</ele>
        <time>2012-11-07T09:20:22Z</time>
      </trkpt>
      <trkpt lat="45.60597" lon="4.58957">
        <ele>767</ele>
        <time>2012-11-07T09:20:24Z</time>
      </trkpt>
      <trkpt lat="45.60594" lon="4.58954">
        <ele>768</ele>
        <time>2012-11-07T09:20:26Z</time>
      </trkpt>
      <trkpt lat="45.60591" lon="4.58953">
        <ele>768</ele>
        <time>2012-11-07T09:20:28Z</time>
      </trkpt>
      <trkpt lat="45.60589" lon="4.58952">
        <ele>768</ele>
        <time>2012-11-07T09:20:30Z</time>
      </trkpt>
      <trkpt lat="45.60587" lon="4.5895">
        <ele>768</ele>
        <time>2012-11-07T09:20:32Z</time>
      </trkpt>
      <trkpt lat="45.60582" lon="4.5895">
        <ele>768</ele>
        <time>2012-11-07T09:20:36Z</time>
      </trkpt>
      <trkpt lat="45.60579" lon="4.58949">
        <ele>768</ele>
        <time>2012-11-07T09:20:38Z</time>
      </trkpt>
      <trkpt lat="45.60577" lon="4.58948">
        <ele>768</ele>
        <time>2012-11-07T09:20:40Z</time>
      </trkpt>
      <trkpt lat="45.60575" lon="4.58946">
        <ele>768</ele>
        <time>2012-11-07T09:20:43Z</time>
      </trkpt>
      <trkpt lat="45.60572" lon="4.58944">
        <ele>769</ele>
        <time>2012-11-07T09:20:45Z</time>
      </trkpt>
      <trkpt lat="45.6057" lon="4.58944">
        <ele>767</ele>
        <time>2012-11-07T09:20:46Z</time>
      </trkpt>
      <trkpt lat="45.60568" lon="4.58944">
        <ele>768</ele>
        <time>2012-11-07T09:20:47Z</time>
      </trkpt>
      <trkpt lat="45.60564" lon="4.58943">
        <ele>767</ele>
        <time>2012-11-07T09:20:50Z</time>
      </trkpt>
      <trkpt lat="45.60562" lon="4.58941">
        <ele>769</ele>
        <time>2012-11-07T09:20:52Z</time>
      </trkpt>
      <trkpt lat="45.60558" lon="4.58938">
        <ele>766</ele>
        <time>2012-11-07T09:20:55Z</time>
      </trkpt>
      <trkpt lat="45.60556" lon="4.58937">
        <ele>768</ele>
        <time>2012-11-07T09:20:57Z</time>
      </trkpt>
      <trkpt lat="45.60553" lon="4.58937">
        <ele>767</ele>
        <time>2012-11-07T09:20:59Z</time>
      </trkpt>
      <trkpt lat="45.60547" lon="4.58935">
        <ele>766</ele>
        <time>2012-11-07T09:21:03Z</time>
      </trkpt>
      <trkpt lat="45.60545" lon="4.58935">
        <ele>766</ele>
        <time>2012-11-07T09:21:04Z</time>
      </trkpt>
      <trkpt lat="45.60536" lon="4.58937">
        <ele>764</ele>
        <time>2012-11-07T09:21:09Z</time>
      </trkpt>
      <trkpt lat="45.60533" lon="4.58936">
        <ele>765</ele>
        <time>2012-11-07T09:21:11Z</time>
      </trkpt>
      <trkpt lat="45.6053" lon="4.58935">
        <ele>763</ele>
        <time>2012-11-07T09:21:14Z</time>
      </trkpt>
      <trkpt lat="45.60527" lon="4.58934">
        <ele>764</ele>
        <time>2012-11-07T09:21:17Z</time>
      </trkpt>
      <trkpt lat="45.60524" lon="4.58933">
        <ele>765</ele>
        <time>2012-11-07T09:21:20Z</time>
      </trkpt>
      <trkpt lat="45.60521" lon="4.58932">
        <ele>766</ele>
        <time>2012-11-07T09:21:22Z</time>
      </trkpt>
      <trkpt lat="45.60518" lon="4.5893">
        <ele>769</ele>
        <time>2012-11-07T09:21:24Z</time>
      </trkpt>
      <trkpt lat="45.60515" lon="4.58928">
        <ele>770</ele>
        <time>2012-11-07T09:21:26Z</time>
      </trkpt>
      <trkpt lat="45.60512" lon="4.58925">
        <ele>770</ele>
        <time>2012-11-07T09:21:28Z</time>
      </trkpt>
      <trkpt lat="45.6051" lon="4.58925">
        <ele>768</ele>
        <time>2012-11-07T09:21:29Z</time>
      </trkpt>
      <trkpt lat="45.60508" lon="4.58924">
        <ele>769</ele>
        <time>2012-11-07T09:21:30Z</time>
      </trkpt>
      <trkpt lat="45.60504" lon="4.58923">
        <ele>767</ele>
        <time>2012-11-07T09:21:32Z</time>
      </trkpt>
      <trkpt lat="45.60502" lon="4.58921">
        <ele>767</ele>
        <time>2012-11-07T09:21:34Z</time>
      </trkpt>
      <trkpt lat="45.60496" lon="4.58924">
        <ele>768</ele>
        <time>2012-11-07T09:21:39Z</time>
      </trkpt>
      <trkpt lat="45.60494" lon="4.58926">
        <ele>769</ele>
        <time>2012-11-07T09:21:40Z</time>
      </trkpt>
      <trkpt lat="45.60491" lon="4.58927">
        <ele>767</ele>
        <time>2012-11-07T09:21:42Z</time>
      </trkpt>
      <trkpt lat="45.60488" lon="4.58927">
        <ele>766</ele>
        <time>2012-11-07T09:21:44Z</time>
      </trkpt>
      <trkpt lat="45.60485" lon="4.58927">
        <ele>765</ele>
        <time>2012-11-07T09:21:47Z</time>
      </trkpt>
      <trkpt lat="45.60484" lon="4.58929">
        <ele>764</ele>
        <time>2012-11-07T09:21:51Z</time>
      </trkpt>
      <trkpt lat="45.60481" lon="4.58931">
        <ele>764</ele>
        <time>2012-11-07T09:21:54Z</time>
      </trkpt>
      <trkpt lat="45.60479" lon="4.58932">
        <ele>765</ele>
        <time>2012-11-07T09:21:56Z</time>
      </trkpt>
      <trkpt lat="45.60477" lon="4.58933">
        <ele>765</ele>
        <time>2012-11-07T09:21:57Z</time>
      </trkpt>
      <trkpt lat="45.60475" lon="4.58934">
        <ele>764</ele>
        <time>2012-11-07T09:21:58Z</time>
      </trkpt>
      <trkpt lat="45.60473" lon="4.58935">
        <ele>770</ele>
        <time>2012-11-07T09:21:59Z</time>
      </trkpt>
      <trkpt lat="45.60462" lon="4.58942">
        <ele>771</ele>
        <time>2012-11-07T09:22:05Z</time>
      </trkpt>
      <trkpt lat="45.60458" lon="4.58943">
        <ele>771</ele>
        <time>2012-11-07T09:22:08Z</time>
      </trkpt>
      <trkpt lat="45.60454" lon="4.58943">
        <ele>774</ele>
        <time>2012-11-07T09:22:10Z</time>
      </trkpt>
      <trkpt lat="45.6045" lon="4.58944">
        <ele>772</ele>
        <time>2012-11-07T09:22:12Z</time>
      </trkpt>
      <trkpt lat="45.60446" lon="4.58944">
        <ele>771</ele>
        <time>2012-11-07T09:22:15Z</time>
      </trkpt>
      <trkpt lat="45.60444" lon="4.58944">
        <ele>771</ele>
        <time>2012-11-07T09:22:17Z</time>
      </trkpt>
      <trkpt lat="45.60441" lon="4.58943">
        <ele>770</ele>
        <time>2012-11-07T09:22:20Z</time>
      </trkpt>
      <trkpt lat="45.60438" lon="4.58944">
        <ele>770</ele>
        <time>2012-11-07T09:22:23Z</time>
      </trkpt>
      <trkpt lat="45.60435" lon="4.58942">
        <ele>770</ele>
        <time>2012-11-07T09:22:26Z</time>
      </trkpt>
      <trkpt lat="45.60432" lon="4.58943">
        <ele>769</ele>
        <time>2012-11-07T09:22:27Z</time>
      </trkpt>
      <trkpt lat="45.60428" lon="4.58943">
        <ele>768</ele>
        <time>2012-11-07T09:22:28Z</time>
      </trkpt>
      <trkpt lat="45.60426" lon="4.58944">
        <ele>767</ele>
        <time>2012-11-07T09:22:29Z</time>
      </trkpt>
      <trkpt lat="45.60424" lon="4.58944">
        <ele>767</ele>
        <time>2012-11-07T09:22:30Z</time>
      </trkpt>
      <trkpt lat="45.60419" lon="4.58944">
        <ele>766</ele>
        <time>2012-11-07T09:22:33Z</time>
      </trkpt>
      <trkpt lat="45.60417" lon="4.58945">
        <ele>765</ele>
        <time>2012-11-07T09:22:34Z</time>
      </trkpt>
      <trkpt lat="45.60413" lon="4.58947">
        <ele>765</ele>
        <time>2012-11-07T09:22:38Z</time>
      </trkpt>
      <trkpt lat="45.6041" lon="4.5895">
        <ele>765</ele>
        <time>2012-11-07T09:22:39Z</time>
      </trkpt>
      <trkpt lat="45.60409" lon="4.58952">
        <ele>764</ele>
        <time>2012-11-07T09:22:40Z</time>
      </trkpt>
      <trkpt lat="45.60403" lon="4.58959">
        <ele>761</ele>
        <time>2012-11-07T09:22:44Z</time>
      </trkpt>
      <trkpt lat="45.60397" lon="4.58963">
        <ele>760</ele>
        <time>2012-11-07T09:22:48Z</time>
      </trkpt>
      <trkpt lat="45.60395" lon="4.58963">
        <ele>759</ele>
        <time>2012-11-07T09:22:49Z</time>
      </trkpt>
      <trkpt lat="45.60391" lon="4.58963">
        <ele>758</ele>
        <time>2012-11-07T09:22:51Z</time>
      </trkpt>
      <trkpt lat="45.60389" lon="4.58961">
        <ele>756</ele>
        <time>2012-11-07T09:22:53Z</time>
      </trkpt>
      <trkpt lat="45.60388" lon="4.58958">
        <ele>752</ele>
        <time>2012-11-07T09:22:57Z</time>
      </trkpt>
      <trkpt lat="45.60388" lon="4.58958">
        <ele>753</ele>
        <time>2012-11-07T09:22:58Z</time>
      </trkpt>
      <trkpt lat="45.60388" lon="4.58958">
        <ele>753</ele>
        <time>2012-11-07T09:23:04Z</time>
      </trkpt>
      <trkpt lat="45.60379" lon="4.58961">
        <ele>750</ele>
        <time>2012-11-07T09:23:06Z</time>
      </trkpt>
      <trkpt lat="45.60377" lon="4.58962">
        <ele>749</ele>
        <time>2012-11-07T09:23:08Z</time>
      </trkpt>
      <trkpt lat="45.60374" lon="4.58963">
        <ele>747</ele>
        <time>2012-11-07T09:23:10Z</time>
      </trkpt>
      <trkpt lat="45.60372" lon="4.58964">
        <ele>748</ele>
        <time>2012-11-07T09:23:12Z</time>
      </trkpt>
      <trkpt lat="45.6037" lon="4.58964">
        <ele>746</ele>
        <time>2012-11-07T09:23:15Z</time>
      </trkpt>
      <trkpt lat="45.60367" lon="4.58964">
        <ele>745</ele>
        <time>2012-11-07T09:23:17Z</time>
      </trkpt>
      <trkpt lat="45.60364" lon="4.58963">
        <ele>745</ele>
        <time>2012-11-07T09:23:18Z</time>
      </trkpt>
      <trkpt lat="45.60362" lon="4.58963">
        <ele>746</ele>
        <time>2012-11-07T09:23:19Z</time>
      </trkpt>
      <trkpt lat="45.6036" lon="4.58963">
        <ele>746</ele>
        <time>2012-11-07T09:23:20Z</time>
      </trkpt>
      <trkpt lat="45.60359" lon="4.58963">
        <ele>746</ele>
        <time>2012-11-07T09:23:21Z</time>
      </trkpt>
      <trkpt lat="45.60357" lon="4.58963">
        <ele>746</ele>
        <time>2012-11-07T09:23:22Z</time>
      </trkpt>
      <trkpt lat="45.60355" lon="4.58963">
        <ele>745</ele>
        <time>2012-11-07T09:23:23Z</time>
      </trkpt>
      <trkpt lat="45.6035" lon="4.58963">
        <ele>745</ele>
        <time>2012-11-07T09:23:25Z</time>
      </trkpt>
      <trkpt lat="45.60346" lon="4.58961">
        <ele>746</ele>
        <time>2012-11-07T09:23:26Z</time>
      </trkpt>
      <trkpt lat="45.60342" lon="4.58959">
        <ele>746</ele>
        <time>2012-11-07T09:23:27Z</time>
      </trkpt>
      <trkpt lat="45.6034" lon="4.58959">
        <ele>746</ele>
        <time>2012-11-07T09:23:28Z</time>
      </trkpt>
      <trkpt lat="45.60338" lon="4.5896">
        <ele>745</ele>
        <time>2012-11-07T09:23:30Z</time>
      </trkpt>
      <trkpt lat="45.60336" lon="4.5896">
        <ele>744</ele>
        <time>2012-11-07T09:23:33Z</time>
      </trkpt>
      <trkpt lat="45.60334" lon="4.58961">
        <ele>744</ele>
        <time>2012-11-07T09:23:35Z</time>
      </trkpt>
      <trkpt lat="45.60332" lon="4.58961">
        <ele>744</ele>
        <time>2012-11-07T09:23:36Z</time>
      </trkpt>
      <trkpt lat="45.60329" lon="4.58961">
        <ele>743</ele>
        <time>2012-11-07T09:23:38Z</time>
      </trkpt>
      <trkpt lat="45.60327" lon="4.5896">
        <ele>742</ele>
        <time>2012-11-07T09:23:40Z</time>
      </trkpt>
      <trkpt lat="45.60325" lon="4.58959">
        <ele>743</ele>
        <time>2012-11-07T09:23:43Z</time>
      </trkpt>
      <trkpt lat="45.60322" lon="4.58959">
        <ele>742</ele>
        <time>2012-11-07T09:23:45Z</time>
      </trkpt>
      <trkpt lat="45.6032" lon="4.58959">
        <ele>741</ele>
        <time>2012-11-07T09:23:46Z</time>
      </trkpt>
      <trkpt lat="45.60318" lon="4.58958">
        <ele>741</ele>
        <time>2012-11-07T09:23:47Z</time>
      </trkpt>
      <trkpt lat="45.60316" lon="4.58958">
        <ele>741</ele>
        <time>2012-11-07T09:23:48Z</time>
      </trkpt>
      <trkpt lat="45.60314" lon="4.58957">
        <ele>740</ele>
        <time>2012-11-07T09:23:50Z</time>
      </trkpt>
      <trkpt lat="45.60315" lon="4.58954">
        <ele>739</ele>
        <time>2012-11-07T09:23:53Z</time>
      </trkpt>
      <trkpt lat="45.60317" lon="4.58951">
        <ele>739</ele>
        <time>2012-11-07T09:23:55Z</time>
      </trkpt>
      <trkpt lat="45.60315" lon="4.58948">
        <ele>738</ele>
        <time>2012-11-07T09:23:57Z</time>
      </trkpt>
      <trkpt lat="45.60314" lon="4.58947">
        <ele>738</ele>
        <time>2012-11-07T09:23:58Z</time>
      </trkpt>
      <trkpt lat="45.60311" lon="4.58946">
        <ele>737</ele>
        <time>2012-11-07T09:23:59Z</time>
      </trkpt>
      <trkpt lat="45.60309" lon="4.58946">
        <ele>738</ele>
        <time>2012-11-07T09:24:00Z</time>
      </trkpt>
      <trkpt lat="45.60307" lon="4.58945">
        <ele>738</ele>
        <time>2012-11-07T09:24:01Z</time>
      </trkpt>
      <trkpt lat="45.60305" lon="4.58945">
        <ele>738</ele>
        <time>2012-11-07T09:24:02Z</time>
      </trkpt>
      <trkpt lat="45.60302" lon="4.58945">
        <ele>738</ele>
        <time>2012-11-07T09:24:03Z</time>
      </trkpt>
      <trkpt lat="45.603" lon="4.58946">
        <ele>738</ele>
        <time>2012-11-07T09:24:04Z</time>
      </trkpt>
      <trkpt lat="45.60297" lon="4.58947">
        <ele>740</ele>
        <time>2012-11-07T09:24:05Z</time>
      </trkpt>
      <trkpt lat="45.60295" lon="4.58947">
        <ele>740</ele>
        <time>2012-11-07T09:24:06Z</time>
      </trkpt>
      <trkpt lat="45.60293" lon="4.58947">
        <ele>740</ele>
        <time>2012-11-07T09:24:07Z</time>
      </trkpt>
      <trkpt lat="45.60291" lon="4.58946">
        <ele>741</ele>
        <time>2012-11-07T09:24:08Z</time>
      </trkpt>
      <trkpt lat="45.60288" lon="4.58946">
        <ele>740</ele>
        <time>2012-11-07T09:24:09Z</time>
      </trkpt>
      <trkpt lat="45.60286" lon="4.58946">
        <ele>740</ele>
        <time>2012-11-07T09:24:10Z</time>
      </trkpt>
      <trkpt lat="45.60284" lon="4.58946">
        <ele>740</ele>
        <time>2012-11-07T09:24:11Z</time>
      </trkpt>
      <trkpt lat="45.60282" lon="4.58945">
        <ele>740</ele>
        <time>2012-11-07T09:24:13Z</time>
      </trkpt>
      <trkpt lat="45.60279" lon="4.58941">
        <ele>739</ele>
        <time>2012-11-07T09:24:18Z</time>
      </trkpt>
      <trkpt lat="45.60277" lon="4.58938">
        <ele>738</ele>
        <time>2012-11-07T09:24:20Z</time>
      </trkpt>
      <trkpt lat="45.60275" lon="4.58938">
        <ele>741</ele>
        <time>2012-11-07T09:24:21Z</time>
      </trkpt>
      <trkpt lat="45.60273" lon="4.58938">
        <ele>742</ele>
        <time>2012-11-07T09:24:22Z</time>
      </trkpt>
      <trkpt lat="45.6027" lon="4.58937">
        <ele>742</ele>
        <time>2012-11-07T09:24:23Z</time>
      </trkpt>
      <trkpt lat="45.60268" lon="4.58938">
        <ele>742</ele>
        <time>2012-11-07T09:24:24Z</time>
      </trkpt>
      <trkpt lat="45.60266" lon="4.58938">
        <ele>742</ele>
        <time>2012-11-07T09:24:25Z</time>
      </trkpt>
      <trkpt lat="45.60264" lon="4.58937">
        <ele>741</ele>
        <time>2012-11-07T09:24:26Z</time>
      </trkpt>
      <trkpt lat="45.60262" lon="4.58936">
        <ele>741</ele>
        <time>2012-11-07T09:24:27Z</time>
      </trkpt>
      <trkpt lat="45.60254" lon="4.58934">
        <ele>740</ele>
        <time>2012-11-07T09:24:32Z</time>
      </trkpt>
      <trkpt lat="45.60249" lon="4.58931">
        <ele>738</ele>
        <time>2012-11-07T09:24:35Z</time>
      </trkpt>
      <trkpt lat="45.60247" lon="4.5893">
        <ele>738</ele>
        <time>2012-11-07T09:24:36Z</time>
      </trkpt>
      <trkpt lat="45.60244" lon="4.58929">
        <ele>736</ele>
        <time>2012-11-07T09:24:38Z</time>
      </trkpt>
      <trkpt lat="45.6024" lon="4.58928">
        <ele>734</ele>
        <time>2012-11-07T09:24:41Z</time>
      </trkpt>
      <trkpt lat="45.60237" lon="4.58928">
        <ele>733</ele>
        <time>2012-11-07T09:24:43Z</time>
      </trkpt>
      <trkpt lat="45.60234" lon="4.58927">
        <ele>733</ele>
        <time>2012-11-07T09:24:45Z</time>
      </trkpt>
      <trkpt lat="45.60231" lon="4.58926">
        <ele>732</ele>
        <time>2012-11-07T09:24:47Z</time>
      </trkpt>
      <trkpt lat="45.60229" lon="4.58924">
        <ele>730</ele>
        <time>2012-11-07T09:24:49Z</time>
      </trkpt>
      <trkpt lat="45.60227" lon="4.58923">
        <ele>729</ele>
        <time>2012-11-07T09:24:51Z</time>
      </trkpt>
      <trkpt lat="45.6022" lon="4.58923">
        <ele>725</ele>
        <time>2012-11-07T09:24:55Z</time>
      </trkpt>
      <trkpt lat="45.60218" lon="4.58923">
        <ele>725</ele>
        <time>2012-11-07T09:24:57Z</time>
      </trkpt>
      <trkpt lat="45.60215" lon="4.58923">
        <ele>725</ele>
        <time>2012-11-07T09:24:59Z</time>
      </trkpt>
      <trkpt lat="45.60212" lon="4.58921">
        <ele>723</ele>
        <time>2012-11-07T09:25:01Z</time>
      </trkpt>
      <trkpt lat="45.6021" lon="4.58917">
        <ele>722</ele>
        <time>2012-11-07T09:25:03Z</time>
      </trkpt>
      <trkpt lat="45.60209" lon="4.58914">
        <ele>722</ele>
        <time>2012-11-07T09:25:05Z</time>
      </trkpt>
      <trkpt lat="45.60208" lon="4.58912">
        <ele>721</ele>
        <time>2012-11-07T09:25:08Z</time>
      </trkpt>
      <trkpt lat="45.60206" lon="4.58913">
        <ele>721</ele>
        <time>2012-11-07T09:25:11Z</time>
      </trkpt>
      <trkpt lat="45.60204" lon="4.58915">
        <ele>721</ele>
        <time>2012-11-07T09:25:13Z</time>
      </trkpt>
      <trkpt lat="45.60201" lon="4.58915">
        <ele>720</ele>
        <time>2012-11-07T09:25:15Z</time>
      </trkpt>
      <trkpt lat="45.60194" lon="4.58913">
        <ele>719</ele>
        <time>2012-11-07T09:25:19Z</time>
      </trkpt>
      <trkpt lat="45.60192" lon="4.58912">
        <ele>719</ele>
        <time>2012-11-07T09:25:20Z</time>
      </trkpt>
      <trkpt lat="45.6019" lon="4.58913">
        <ele>718</ele>
        <time>2012-11-07T09:25:22Z</time>
      </trkpt>
      <trkpt lat="45.60188" lon="4.58916">
        <ele>716</ele>
        <time>2012-11-07T09:25:23Z</time>
      </trkpt>
      <trkpt lat="45.60187" lon="4.58918">
        <ele>716</ele>
        <time>2012-11-07T09:25:24Z</time>
      </trkpt>
      <trkpt lat="45.60185" lon="4.58919">
        <ele>715</ele>
        <time>2012-11-07T09:25:25Z</time>
      </trkpt>
      <trkpt lat="45.60181" lon="4.58919">
        <ele>715</ele>
        <time>2012-11-07T09:25:27Z</time>
      </trkpt>
      <trkpt lat="45.60177" lon="4.58916">
        <ele>714</ele>
        <time>2012-11-07T09:25:28Z</time>
      </trkpt>
      <trkpt lat="45.60174" lon="4.58913">
        <ele>714</ele>
        <time>2012-11-07T09:25:29Z</time>
      </trkpt>
      <trkpt lat="45.60171" lon="4.5891">
        <ele>715</ele>
        <time>2012-11-07T09:25:30Z</time>
      </trkpt>
      <trkpt lat="45.60168" lon="4.58906">
        <ele>715</ele>
        <time>2012-11-07T09:25:31Z</time>
      </trkpt>
      <trkpt lat="45.60166" lon="4.58904">
        <ele>715</ele>
        <time>2012-11-07T09:25:32Z</time>
      </trkpt>
      <trkpt lat="45.60164" lon="4.58902">
        <ele>715</ele>
        <time>2012-11-07T09:25:33Z</time>
      </trkpt>
      <trkpt lat="45.60162" lon="4.58901">
        <ele>714</ele>
        <time>2012-11-07T09:25:34Z</time>
      </trkpt>
      <trkpt lat="45.60159" lon="4.58899">
        <ele>715</ele>
        <time>2012-11-07T09:25:36Z</time>
      </trkpt>
      <trkpt lat="45.60156" lon="4.58899">
        <ele>714</ele>
        <time>2012-11-07T09:25:39Z</time>
      </trkpt>
      <trkpt lat="45.60155" lon="4.58896">
        <ele>714</ele>
        <time>2012-11-07T09:25:43Z</time>
      </trkpt>
      <trkpt lat="45.60154" lon="4.58894">
        <ele>713</ele>
        <time>2012-11-07T09:25:46Z</time>
      </trkpt>
      <trkpt lat="45.60151" lon="4.58894">
        <ele>714</ele>
        <time>2012-11-07T09:25:49Z</time>
      </trkpt>
      <trkpt lat="45.60149" lon="4.58895">
        <ele>714</ele>
        <time>2012-11-07T09:25:50Z</time>
      </trkpt>
      <trkpt lat="45.60145" lon="4.58897">
        <ele>715</ele>
        <time>2012-11-07T09:25:52Z</time>
      </trkpt>
      <trkpt lat="45.60143" lon="4.58898">
        <ele>714</ele>
        <time>2012-11-07T09:25:53Z</time>
      </trkpt>
      <trkpt lat="45.6014" lon="4.58901">
        <ele>714</ele>
        <time>2012-11-07T09:25:55Z</time>
      </trkpt>
      <trkpt lat="45.60139" lon="4.58904">
        <ele>714</ele>
        <time>2012-11-07T09:25:56Z</time>
      </trkpt>
      <trkpt lat="45.60139" lon="4.58907">
        <ele>714</ele>
        <time>2012-11-07T09:25:57Z</time>
      </trkpt>
      <trkpt lat="45.60137" lon="4.5891">
        <ele>714</ele>
        <time>2012-11-07T09:25:58Z</time>
      </trkpt>
      <trkpt lat="45.60136" lon="4.58912">
        <ele>715</ele>
        <time>2012-11-07T09:25:59Z</time>
      </trkpt>
      <trkpt lat="45.60135" lon="4.58915">
        <ele>715</ele>
        <time>2012-11-07T09:26:00Z</time>
      </trkpt>
      <trkpt lat="45.60134" lon="4.58917">
        <ele>714</ele>
        <time>2012-11-07T09:26:01Z</time>
      </trkpt>
      <trkpt lat="45.60133" lon="4.58921">
        <ele>713</ele>
        <time>2012-11-07T09:26:03Z</time>
      </trkpt>
      <trkpt lat="45.60133" lon="4.58924">
        <ele>712</ele>
        <time>2012-11-07T09:26:05Z</time>
      </trkpt>
      <trkpt lat="45.60131" lon="4.58927">
        <ele>713</ele>
        <time>2012-11-07T09:26:07Z</time>
      </trkpt>
      <trkpt lat="45.60129" lon="4.58928">
        <ele>713</ele>
        <time>2012-11-07T09:26:09Z</time>
      </trkpt>
      <trkpt lat="45.60126" lon="4.58928">
        <ele>713</ele>
        <time>2012-11-07T09:26:11Z</time>
      </trkpt>
      <trkpt lat="45.60118" lon="4.58927">
        <ele>713</ele>
        <time>2012-11-07T09:26:15Z</time>
      </trkpt>
      <trkpt lat="45.60116" lon="4.58926">
        <ele>711</ele>
        <time>2012-11-07T09:26:16Z</time>
      </trkpt>
      <trkpt lat="45.60114" lon="4.58925">
        <ele>711</ele>
        <time>2012-11-07T09:26:17Z</time>
      </trkpt>
      <trkpt lat="45.60112" lon="4.58923">
        <ele>710</ele>
        <time>2012-11-07T09:26:18Z</time>
      </trkpt>
      <trkpt lat="45.60109" lon="4.58921">
        <ele>710</ele>
        <time>2012-11-07T09:26:20Z</time>
      </trkpt>
      <trkpt lat="45.60106" lon="4.58919">
        <ele>709</ele>
        <time>2012-11-07T09:26:22Z</time>
      </trkpt>
      <trkpt lat="45.60104" lon="4.58917">
        <ele>709</ele>
        <time>2012-11-07T09:26:24Z</time>
      </trkpt>
      <trkpt lat="45.60101" lon="4.58913">
        <ele>709</ele>
        <time>2012-11-07T09:26:27Z</time>
      </trkpt>
      <trkpt lat="45.60098" lon="4.58912">
        <ele>709</ele>
        <time>2012-11-07T09:26:30Z</time>
      </trkpt>
      <trkpt lat="45.60096" lon="4.58911">
        <ele>709</ele>
        <time>2012-11-07T09:26:32Z</time>
      </trkpt>
      <trkpt lat="45.60075" lon="4.58917">
        <ele>707</ele>
        <time>2012-11-07T09:26:47Z</time>
      </trkpt>
      <trkpt lat="45.60049" lon="4.58926">
        <ele>706</ele>
        <time>2012-11-07T09:27:01Z</time>
      </trkpt>
      <trkpt lat="45.60048" lon="4.58929">
        <ele>706</ele>
        <time>2012-11-07T09:27:02Z</time>
      </trkpt>
      <trkpt lat="45.60045" lon="4.58927">
        <ele>707</ele>
        <time>2012-11-07T09:27:03Z</time>
      </trkpt>
      <trkpt lat="45.60043" lon="4.58927">
        <ele>707</ele>
        <time>2012-11-07T09:27:04Z</time>
      </trkpt>
      <trkpt lat="45.60037" lon="4.58926">
        <ele>706</ele>
        <time>2012-11-07T09:27:06Z</time>
      </trkpt>
      <trkpt lat="45.60034" lon="4.58926">
        <ele>706</ele>
        <time>2012-11-07T09:27:07Z</time>
      </trkpt>
      <trkpt lat="45.60032" lon="4.58926">
        <ele>705</ele>
        <time>2012-11-07T09:27:08Z</time>
      </trkpt>
      <trkpt lat="45.60031" lon="4.58926">
        <ele>707</ele>
        <time>2012-11-07T09:27:09Z</time>
      </trkpt>
      <trkpt lat="45.60029" lon="4.58927">
        <ele>707</ele>
        <time>2012-11-07T09:27:13Z</time>
      </trkpt>
      <trkpt lat="45.60035" lon="4.58924">
        <ele>702</ele>
        <time>2012-11-07T09:27:16Z</time>
      </trkpt>
      <trkpt lat="45.60036" lon="4.58921">
        <ele>699</ele>
        <time>2012-11-07T09:27:18Z</time>
      </trkpt>
      <trkpt lat="45.60035" lon="4.58917">
        <ele>701</ele>
        <time>2012-11-07T09:27:20Z</time>
      </trkpt>
      <trkpt lat="45.60034" lon="4.58915">
        <ele>701</ele>
        <time>2012-11-07T09:27:21Z</time>
      </trkpt>
      <trkpt lat="45.60031" lon="4.58913">
        <ele>701</ele>
        <time>2012-11-07T09:27:23Z</time>
      </trkpt>
      <trkpt lat="45.60027" lon="4.58913">
        <ele>703</ele>
        <time>2012-11-07T09:27:26Z</time>
      </trkpt>
      <trkpt lat="45.60024" lon="4.58912">
        <ele>702</ele>
        <time>2012-11-07T09:27:28Z</time>
      </trkpt>
      <trkpt lat="45.6002" lon="4.58911">
        <ele>701</ele>
        <time>2012-11-07T09:27:30Z</time>
      </trkpt>
      <trkpt lat="45.60017" lon="4.58911">
        <ele>702</ele>
        <time>2012-11-07T09:27:32Z</time>
      </trkpt>
      <trkpt lat="45.60016" lon="4.58912">
        <ele>703</ele>
        <time>2012-11-07T09:27:34Z</time>
      </trkpt>
      <trkpt lat="45.60015" lon="4.58915">
        <ele>705</ele>
        <time>2012-11-07T09:27:42Z</time>
      </trkpt>
      <trkpt lat="45.60013" lon="4.58917">
        <ele>704</ele>
        <time>2012-11-07T09:27:43Z</time>
      </trkpt>
      <trkpt lat="45.60011" lon="4.58918">
        <ele>706</ele>
        <time>2012-11-07T09:27:44Z</time>
      </trkpt>
      <trkpt lat="45.60009" lon="4.58919">
        <ele>707</ele>
        <time>2012-11-07T09:27:45Z</time>
      </trkpt>
      <trkpt lat="45.60007" lon="4.5892">
        <ele>707</ele>
        <time>2012-11-07T09:27:46Z</time>
      </trkpt>
      <trkpt lat="45.60002" lon="4.58921">
        <ele>706</ele>
        <time>2012-11-07T09:27:49Z</time>
      </trkpt>
      <trkpt lat="45.6" lon="4.58922">
        <ele>706</ele>
        <time>2012-11-07T09:27:50Z</time>
      </trkpt>
      <trkpt lat="45.59997" lon="4.58922">
        <ele>706</ele>
        <time>2012-11-07T09:27:51Z</time>
      </trkpt>
      <trkpt lat="45.59995" lon="4.58922">
        <ele>706</ele>
        <time>2012-11-07T09:27:52Z</time>
      </trkpt>
      <trkpt lat="45.59993" lon="4.58923">
        <ele>706</ele>
        <time>2012-11-07T09:27:53Z</time>
      </trkpt>
      <trkpt lat="45.59991" lon="4.58925">
        <ele>706</ele>
        <time>2012-11-07T09:27:55Z</time>
      </trkpt>
      <trkpt lat="45.59988" lon="4.58926">
        <ele>706</ele>
        <time>2012-11-07T09:28:01Z</time>
      </trkpt>
      <trkpt lat="45.59986" lon="4.58925">
        <ele>707</ele>
        <time>2012-11-07T09:28:03Z</time>
      </trkpt>
      <trkpt lat="45.59984" lon="4.58923">
        <ele>708</ele>
        <time>2012-11-07T09:28:04Z</time>
      </trkpt>
      <trkpt lat="45.59983" lon="4.58921">
        <ele>711</ele>
        <time>2012-11-07T09:28:05Z</time>
      </trkpt>
      <trkpt lat="45.59981" lon="4.58919">
        <ele>711</ele>
        <time>2012-11-07T09:28:06Z</time>
      </trkpt>
      <trkpt lat="45.59979" lon="4.58918">
        <ele>711</ele>
        <time>2012-11-07T09:28:07Z</time>
      </trkpt>
      <trkpt lat="45.59977" lon="4.58917">
        <ele>712</ele>
        <time>2012-11-07T09:28:08Z</time>
      </trkpt>
      <trkpt lat="45.59975" lon="4.58917">
        <ele>712</ele>
        <time>2012-11-07T09:28:09Z</time>
      </trkpt>
      <trkpt lat="45.59973" lon="4.58916">
        <ele>713</ele>
        <time>2012-11-07T09:28:10Z</time>
      </trkpt>
      <trkpt lat="45.59971" lon="4.58916">
        <ele>713</ele>
        <time>2012-11-07T09:28:11Z</time>
      </trkpt>
      <trkpt lat="45.59969" lon="4.58917">
        <ele>714</ele>
        <time>2012-11-07T09:28:12Z</time>
      </trkpt>
      <trkpt lat="45.59967" lon="4.58918">
        <ele>714</ele>
        <time>2012-11-07T09:28:13Z</time>
      </trkpt>
      <trkpt lat="45.59965" lon="4.58919">
        <ele>715</ele>
        <time>2012-11-07T09:28:14Z</time>
      </trkpt>
      <trkpt lat="45.5996" lon="4.58921">
        <ele>714</ele>
        <time>2012-11-07T09:28:16Z</time>
      </trkpt>
      <trkpt lat="45.59957" lon="4.58922">
        <ele>715</ele>
        <time>2012-11-07T09:28:17Z</time>
      </trkpt>
      <trkpt lat="45.59955" lon="4.58923">
        <ele>714</ele>
        <time>2012-11-07T09:28:18Z</time>
      </trkpt>
      <trkpt lat="45.59953" lon="4.58924">
        <ele>714</ele>
        <time>2012-11-07T09:28:19Z</time>
      </trkpt>
      <trkpt lat="45.59951" lon="4.58924">
        <ele>714</ele>
        <time>2012-11-07T09:28:20Z</time>
      </trkpt>
      <trkpt lat="45.59948" lon="4.58925">
        <ele>714</ele>
        <time>2012-11-07T09:28:22Z</time>
      </trkpt>
      <trkpt lat="45.59947" lon="4.58926">
        <ele>714</ele>
        <time>2012-11-07T09:28:24Z</time>
      </trkpt>
      <trkpt lat="45.59947" lon="4.58929">
        <ele>713</ele>
        <time>2012-11-07T09:28:27Z</time>
      </trkpt>
      <trkpt lat="45.59946" lon="4.58932">
        <ele>713</ele>
        <time>2012-11-07T09:28:30Z</time>
      </trkpt>
      <trkpt lat="45.59945" lon="4.58934">
        <ele>714</ele>
        <time>2012-11-07T09:28:32Z</time>
      </trkpt>
      <trkpt lat="45.59938" lon="4.58941">
        <ele>716</ele>
        <time>2012-11-07T09:28:36Z</time>
      </trkpt>
      <trkpt lat="45.59936" lon="4.58942">
        <ele>716</ele>
        <time>2012-11-07T09:28:37Z</time>
      </trkpt>
      <trkpt lat="45.59934" lon="4.58943">
        <ele>717</ele>
        <time>2012-11-07T09:28:38Z</time>
      </trkpt>
      <trkpt lat="45.59932" lon="4.58944">
        <ele>716</ele>
        <time>2012-11-07T09:28:39Z</time>
      </trkpt>
      <trkpt lat="45.5993" lon="4.58946">
        <ele>716</ele>
        <time>2012-11-07T09:28:40Z</time>
      </trkpt>
      <trkpt lat="45.59929" lon="4.58947">
        <ele>717</ele>
        <time>2012-11-07T09:28:41Z</time>
      </trkpt>
      <trkpt lat="45.59927" lon="4.58948">
        <ele>718</ele>
        <time>2012-11-07T09:28:42Z</time>
      </trkpt>
      <trkpt lat="45.59925" lon="4.5895">
        <ele>719</ele>
        <time>2012-11-07T09:28:43Z</time>
      </trkpt>
      <trkpt lat="45.59923" lon="4.5895">
        <ele>717</ele>
        <time>2012-11-07T09:28:44Z</time>
      </trkpt>
      <trkpt lat="45.59921" lon="4.58951">
        <ele>718</ele>
        <time>2012-11-07T09:28:45Z</time>
      </trkpt>
      <trkpt lat="45.59918" lon="4.58952">
        <ele>719</ele>
        <time>2012-11-07T09:28:47Z</time>
      </trkpt>
      <trkpt lat="45.59916" lon="4.58953">
        <ele>719</ele>
        <time>2012-11-07T09:28:49Z</time>
      </trkpt>
      <trkpt lat="45.59914" lon="4.58953">
        <ele>719</ele>
        <time>2012-11-07T09:28:51Z</time>
      </trkpt>
      <trkpt lat="45.59912" lon="4.58954">
        <ele>721</ele>
        <time>2012-11-07T09:28:54Z</time>
      </trkpt>
      <trkpt lat="45.59911" lon="4.58954">
        <ele>722</ele>
        <time>2012-11-07T09:28:59Z</time>
      </trkpt>
      <trkpt lat="45.59911" lon="4.58954">
        <ele>722</ele>
        <time>2012-11-07T09:31:34Z</time>
      </trkpt>
      <trkpt lat="45.59913" lon="4.58955">
        <ele>722</ele>
        <time>2012-11-07T09:31:39Z</time>
      </trkpt>
      <trkpt lat="45.59915" lon="4.58957">
        <ele>721</ele>
        <time>2012-11-07T09:32:05Z</time>
      </trkpt>
      <trkpt lat="45.59913" lon="4.58959">
        <ele>723</ele>
        <time>2012-11-07T09:32:20Z</time>
      </trkpt>
      <trkpt lat="45.59913" lon="4.58959">
        <ele>721</ele>
        <time>2012-11-07T09:32:47Z</time>
      </trkpt>
      <trkpt lat="45.59913" lon="4.58953">
        <ele>721</ele>
        <time>2012-11-07T09:32:48Z</time>
      </trkpt>
      <trkpt lat="45.59913" lon="4.5895">
        <ele>721</ele>
        <time>2012-11-07T09:33:02Z</time>
      </trkpt>
      <trkpt lat="45.59915" lon="4.58948">
        <ele>723</ele>
        <time>2012-11-07T09:33:11Z</time>
      </trkpt>
      <trkpt lat="45.59915" lon="4.58947">
        <ele>721</ele>
        <time>2012-11-07T09:33:37Z</time>
      </trkpt>
      <trkpt lat="45.5991" lon="4.58944">
        <ele>721</ele>
        <time>2012-11-07T09:33:38Z</time>
      </trkpt>
      <trkpt lat="45.59907" lon="4.58944">
        <ele>723</ele>
        <time>2012-11-07T09:33:45Z</time>
      </trkpt>
      <trkpt lat="45.59905" lon="4.58944">
        <ele>723</ele>
        <time>2012-11-07T09:33:48Z</time>
      </trkpt>
      <trkpt lat="45.59905" lon="4.58947">
        <ele>724</ele>
        <time>2012-11-07T09:33:51Z</time>
      </trkpt>
      <trkpt lat="45.59902" lon="4.5895">
        <ele>725</ele>
        <time>2012-11-07T09:33:55Z</time>
      </trkpt>
      <trkpt lat="45.599" lon="4.58951">
        <ele>725</ele>
        <time>2012-11-07T09:33:56Z</time>
      </trkpt>
      <trkpt lat="45.59898" lon="4.58948">
        <ele>724</ele>
        <time>2012-11-07T09:34:01Z</time>
      </trkpt>
      <trkpt lat="45.59895" lon="4.58945">
        <ele>721</ele>
        <time>2012-11-07T09:34:03Z</time>
      </trkpt>
      <trkpt lat="45.59893" lon="4.58944">
        <ele>723</ele>
        <time>2012-11-07T09:34:05Z</time>
      </trkpt>
      <trkpt lat="45.59888" lon="4.58944">
        <ele>716</ele>
        <time>2012-11-07T09:34:08Z</time>
      </trkpt>
      <trkpt lat="45.59885" lon="4.58943">
        <ele>716</ele>
        <time>2012-11-07T09:34:10Z</time>
      </trkpt>
      <trkpt lat="45.59883" lon="4.5894">
        <ele>717</ele>
        <time>2012-11-07T09:34:12Z</time>
      </trkpt>
      <trkpt lat="45.5988" lon="4.58936">
        <ele>715</ele>
        <time>2012-11-07T09:34:15Z</time>
      </trkpt>
      <trkpt lat="45.59878" lon="4.58935">
        <ele>717</ele>
        <time>2012-11-07T09:34:16Z</time>
      </trkpt>
      <trkpt lat="45.59876" lon="4.58933">
        <ele>719</ele>
        <time>2012-11-07T09:34:17Z</time>
      </trkpt>
      <trkpt lat="45.59872" lon="4.58929">
        <ele>716</ele>
        <time>2012-11-07T09:34:19Z</time>
      </trkpt>
      <trkpt lat="45.5987" lon="4.58925">
        <ele>714</ele>
        <time>2012-11-07T09:34:21Z</time>
      </trkpt>
      <trkpt lat="45.59869" lon="4.58922">
        <ele>713</ele>
        <time>2012-11-07T09:34:23Z</time>
      </trkpt>
      <trkpt lat="45.59867" lon="4.5892">
        <ele>714</ele>
        <time>2012-11-07T09:34:25Z</time>
      </trkpt>
      <trkpt lat="45.59865" lon="4.58917">
        <ele>714</ele>
        <time>2012-11-07T09:34:27Z</time>
      </trkpt>
      <trkpt lat="45.59861" lon="4.58911">
        <ele>715</ele>
        <time>2012-11-07T09:34:32Z</time>
      </trkpt>
      <trkpt lat="45.59858" lon="4.58909">
        <ele>715</ele>
        <time>2012-11-07T09:34:34Z</time>
      </trkpt>
      <trkpt lat="45.59855" lon="4.58907">
        <ele>712</ele>
        <time>2012-11-07T09:34:36Z</time>
      </trkpt>
      <trkpt lat="45.59852" lon="4.58905">
        <ele>711</ele>
        <time>2012-11-07T09:34:38Z</time>
      </trkpt>
      <trkpt lat="45.59851" lon="4.58904">
        <ele>710</ele>
        <time>2012-11-07T09:34:39Z</time>
      </trkpt>
      <trkpt lat="45.59848" lon="4.58901">
        <ele>709</ele>
        <time>2012-11-07T09:34:41Z</time>
      </trkpt>
      <trkpt lat="45.59846" lon="4.58898">
        <ele>707</ele>
        <time>2012-11-07T09:34:43Z</time>
      </trkpt>
      <trkpt lat="45.59844" lon="4.58893">
        <ele>708</ele>
        <time>2012-11-07T09:34:46Z</time>
      </trkpt>
      <trkpt lat="45.59842" lon="4.5889">
        <ele>709</ele>
        <time>2012-11-07T09:34:48Z</time>
      </trkpt>
      <trkpt lat="45.59838" lon="4.58886">
        <ele>712</ele>
        <time>2012-11-07T09:34:51Z</time>
      </trkpt>
      <trkpt lat="45.59836" lon="4.58885">
        <ele>712</ele>
        <time>2012-11-07T09:34:52Z</time>
      </trkpt>
      <trkpt lat="45.59833" lon="4.58881">
        <ele>713</ele>
        <time>2012-11-07T09:34:54Z</time>
      </trkpt>
      <trkpt lat="45.59831" lon="4.58879">
        <ele>713</ele>
        <time>2012-11-07T09:34:55Z</time>
      </trkpt>
      <trkpt lat="45.59829" lon="4.58877">
        <ele>713</ele>
        <time>2012-11-07T09:34:56Z</time>
      </trkpt>
      <trkpt lat="45.59826" lon="4.58874">
        <ele>712</ele>
        <time>2012-11-07T09:34:57Z</time>
      </trkpt>
      <trkpt lat="45.59822" lon="4.58871">
        <ele>713</ele>
        <time>2012-11-07T09:34:59Z</time>
      </trkpt>
      <trkpt lat="45.59819" lon="4.58867">
        <ele>711</ele>
        <time>2012-11-07T09:35:02Z</time>
      </trkpt>
      <trkpt lat="45.59819" lon="4.58863">
        <ele>712</ele>
        <time>2012-11-07T09:35:05Z</time>
      </trkpt>
      <trkpt lat="45.59819" lon="4.5886">
        <ele>712</ele>
        <time>2012-11-07T09:35:07Z</time>
      </trkpt>
      <trkpt lat="45.59821" lon="4.5885">
        <ele>712</ele>
        <time>2012-11-07T09:35:11Z</time>
      </trkpt>
      <trkpt lat="45.5982" lon="4.58848">
        <ele>710</ele>
        <time>2012-11-07T09:35:13Z</time>
      </trkpt>
      <trkpt lat="45.59818" lon="4.58847">
        <ele>710</ele>
        <time>2012-11-07T09:35:15Z</time>
      </trkpt>
      <trkpt lat="45.59816" lon="4.58846">
        <ele>710</ele>
        <time>2012-11-07T09:35:18Z</time>
      </trkpt>
      <trkpt lat="45.59813" lon="4.58844">
        <ele>709</ele>
        <time>2012-11-07T09:35:23Z</time>
      </trkpt>
      <trkpt lat="45.59811" lon="4.58846">
        <ele>709</ele>
        <time>2012-11-07T09:35:25Z</time>
      </trkpt>
      <trkpt lat="45.5981" lon="4.58849">
        <ele>709</ele>
        <time>2012-11-07T09:35:28Z</time>
      </trkpt>
      <trkpt lat="45.59812" lon="4.58847">
        <ele>710</ele>
        <time>2012-11-07T09:35:37Z</time>
      </trkpt>
      <trkpt lat="45.59813" lon="4.58847">
        <ele>713</ele>
        <time>2012-11-07T09:35:43Z</time>
      </trkpt>
      <trkpt lat="45.59809" lon="4.5885">
        <ele>714</ele>
        <time>2012-11-07T09:35:44Z</time>
      </trkpt>
      <trkpt lat="45.59807" lon="4.5885">
        <ele>715</ele>
        <time>2012-11-07T09:35:48Z</time>
      </trkpt>
      <trkpt lat="45.59805" lon="4.58848">
        <ele>717</ele>
        <time>2012-11-07T09:36:11Z</time>
      </trkpt>
      <trkpt lat="45.59806" lon="4.58842">
        <ele>714</ele>
        <time>2012-11-07T09:36:24Z</time>
      </trkpt>
      <trkpt lat="45.59807" lon="4.58842">
        <ele>718</ele>
        <time>2012-11-07T09:36:35Z</time>
      </trkpt>
      <trkpt lat="45.59806" lon="4.58849">
        <ele>719</ele>
        <time>2012-11-07T09:36:36Z</time>
      </trkpt>
      <trkpt lat="45.59806" lon="4.58845">
        <ele>717</ele>
        <time>2012-11-07T09:36:51Z</time>
      </trkpt>
      <trkpt lat="45.59803" lon="4.58845">
        <ele>716</ele>
        <time>2012-11-07T09:36:53Z</time>
      </trkpt>
      <trkpt lat="45.59805" lon="4.58843">
        <ele>712</ele>
        <time>2012-11-07T09:36:57Z</time>
      </trkpt>
      <trkpt lat="45.59808" lon="4.58843">
        <ele>708</ele>
        <time>2012-11-07T09:36:58Z</time>
      </trkpt>
      <trkpt lat="45.5981" lon="4.58844">
        <ele>710</ele>
        <time>2012-11-07T09:37:00Z</time>
      </trkpt>
      <trkpt lat="45.59813" lon="4.58842">
        <ele>713</ele>
        <time>2012-11-07T09:37:08Z</time>
      </trkpt>
      <trkpt lat="45.59814" lon="4.58837">
        <ele>706</ele>
        <time>2012-11-07T09:37:17Z</time>
      </trkpt>
      <trkpt lat="45.59813" lon="4.58834">
        <ele>706</ele>
        <time>2012-11-07T09:37:23Z</time>
      </trkpt>
      <trkpt lat="45.59812" lon="4.58832">
        <ele>704</ele>
        <time>2012-11-07T09:37:24Z</time>
      </trkpt>
      <trkpt lat="45.59811" lon="4.58829">
        <ele>702</ele>
        <time>2012-11-07T09:37:26Z</time>
      </trkpt>
      <trkpt lat="45.5981" lon="4.58827">
        <ele>702</ele>
        <time>2012-11-07T09:37:29Z</time>
      </trkpt>
      <trkpt lat="45.59808" lon="4.58825">
        <ele>702</ele>
        <time>2012-11-07T09:37:31Z</time>
      </trkpt>
      <trkpt lat="45.59805" lon="4.58821">
        <ele>700</ele>
        <time>2012-11-07T09:37:33Z</time>
      </trkpt>
      <trkpt lat="45.59804" lon="4.5882">
        <ele>700</ele>
        <time>2012-11-07T09:37:36Z</time>
      </trkpt>
      <trkpt lat="45.59802" lon="4.58823">
        <ele>698</ele>
        <time>2012-11-07T09:37:41Z</time>
      </trkpt>
      <trkpt lat="45.59799" lon="4.58822">
        <ele>699</ele>
        <time>2012-11-07T09:37:44Z</time>
      </trkpt>
      <trkpt lat="45.59796" lon="4.58821">
        <ele>700</ele>
        <time>2012-11-07T09:37:46Z</time>
      </trkpt>
      <trkpt lat="45.59793" lon="4.58822">
        <ele>702</ele>
        <time>2012-11-07T09:37:48Z</time>
      </trkpt>
      <trkpt lat="45.59791" lon="4.58825">
        <ele>703</ele>
        <time>2012-11-07T09:37:49Z</time>
      </trkpt>
      <trkpt lat="45.59789" lon="4.58829">
        <ele>702</ele>
        <time>2012-11-07T09:37:51Z</time>
      </trkpt>
      <trkpt lat="45.59787" lon="4.58831">
        <ele>701</ele>
        <time>2012-11-07T09:37:52Z</time>
      </trkpt>
      <trkpt lat="45.59785" lon="4.58837">
        <ele>703</ele>
        <time>2012-11-07T09:37:55Z</time>
      </trkpt>
      <trkpt lat="45.59784" lon="4.58839">
        <ele>703</ele>
        <time>2012-11-07T09:37:57Z</time>
      </trkpt>
      <trkpt lat="45.59782" lon="4.58841">
        <ele>704</ele>
        <time>2012-11-07T09:37:59Z</time>
      </trkpt>
      <trkpt lat="45.59777" lon="4.58849">
        <ele>704</ele>
        <time>2012-11-07T09:38:04Z</time>
      </trkpt>
      <trkpt lat="45.59774" lon="4.58853">
        <ele>703</ele>
        <time>2012-11-07T09:38:07Z</time>
      </trkpt>
      <trkpt lat="45.59771" lon="4.58858">
        <ele>704</ele>
        <time>2012-11-07T09:38:09Z</time>
      </trkpt>
      <trkpt lat="45.59769" lon="4.58861">
        <ele>703</ele>
        <time>2012-11-07T09:38:10Z</time>
      </trkpt>
      <trkpt lat="45.59767" lon="4.58863">
        <ele>704</ele>
        <time>2012-11-07T09:38:11Z</time>
      </trkpt>
      <trkpt lat="45.5976" lon="4.58872">
        <ele>704</ele>
        <time>2012-11-07T09:38:15Z</time>
      </trkpt>
      <trkpt lat="45.59758" lon="4.58874">
        <ele>703</ele>
        <time>2012-11-07T09:38:16Z</time>
      </trkpt>
      <trkpt lat="45.59756" lon="4.58876">
        <ele>703</ele>
        <time>2012-11-07T09:38:17Z</time>
      </trkpt>
      <trkpt lat="45.59755" lon="4.58877">
        <ele>703</ele>
        <time>2012-11-07T09:38:18Z</time>
      </trkpt>
      <trkpt lat="45.5975" lon="4.58882">
        <ele>704</ele>
        <time>2012-11-07T09:38:22Z</time>
      </trkpt>
      <trkpt lat="45.59748" lon="4.58883">
        <ele>704</ele>
        <time>2012-11-07T09:38:23Z</time>
      </trkpt>
      <trkpt lat="45.59746" lon="4.58884">
        <ele>704</ele>
        <time>2012-11-07T09:38:24Z</time>
      </trkpt>
      <trkpt lat="45.59743" lon="4.58886">
        <ele>704</ele>
        <time>2012-11-07T09:38:25Z</time>
      </trkpt>
      <trkpt lat="45.59742" lon="4.58888">
        <ele>704</ele>
        <time>2012-11-07T09:38:26Z</time>
      </trkpt>
      <trkpt lat="45.5974" lon="4.58889">
        <ele>704</ele>
        <time>2012-11-07T09:38:27Z</time>
      </trkpt>
      <trkpt lat="45.59738" lon="4.58891">
        <ele>704</ele>
        <time>2012-11-07T09:38:28Z</time>
      </trkpt>
      <trkpt lat="45.59736" lon="4.58894">
        <ele>703</ele>
        <time>2012-11-07T09:38:29Z</time>
      </trkpt>
      <trkpt lat="45.59735" lon="4.58898">
        <ele>703</ele>
        <time>2012-11-07T09:38:30Z</time>
      </trkpt>
      <trkpt lat="45.59733" lon="4.58902">
        <ele>703</ele>
        <time>2012-11-07T09:38:31Z</time>
      </trkpt>
      <trkpt lat="45.59731" lon="4.58906">
        <ele>702</ele>
        <time>2012-11-07T09:38:32Z</time>
      </trkpt>
      <trkpt lat="45.59729" lon="4.58909">
        <ele>702</ele>
        <time>2012-11-07T09:38:33Z</time>
      </trkpt>
      <trkpt lat="45.59727" lon="4.58912">
        <ele>702</ele>
        <time>2012-11-07T09:38:34Z</time>
      </trkpt>
      <trkpt lat="45.59726" lon="4.58914">
        <ele>702</ele>
        <time>2012-11-07T09:38:35Z</time>
      </trkpt>
      <trkpt lat="45.59724" lon="4.58916">
        <ele>701</ele>
        <time>2012-11-07T09:38:37Z</time>
      </trkpt>
      <trkpt lat="45.59722" lon="4.58916">
        <ele>701</ele>
        <time>2012-11-07T09:38:39Z</time>
      </trkpt>
      <trkpt lat="45.59719" lon="4.58916">
        <ele>701</ele>
        <time>2012-11-07T09:38:42Z</time>
      </trkpt>
      <trkpt lat="45.59716" lon="4.58916">
        <ele>701</ele>
        <time>2012-11-07T09:38:45Z</time>
      </trkpt>
      <trkpt lat="45.59713" lon="4.58917">
        <ele>699</ele>
        <time>2012-11-07T09:38:47Z</time>
      </trkpt>
      <trkpt lat="45.5971" lon="4.58919">
        <ele>700</ele>
        <time>2012-11-07T09:38:49Z</time>
      </trkpt>
      <trkpt lat="45.5971" lon="4.58922">
        <ele>700</ele>
        <time>2012-11-07T09:38:51Z</time>
      </trkpt>
      <trkpt lat="45.59708" lon="4.58923">
        <ele>700</ele>
        <time>2012-11-07T09:38:52Z</time>
      </trkpt>
      <trkpt lat="45.59705" lon="4.58925">
        <ele>700</ele>
        <time>2012-11-07T09:38:54Z</time>
      </trkpt>
      <trkpt lat="45.59701" lon="4.58928">
        <ele>698</ele>
        <time>2012-11-07T09:38:55Z</time>
      </trkpt>
      <trkpt lat="45.59699" lon="4.5893">
        <ele>698</ele>
        <time>2012-11-07T09:38:56Z</time>
      </trkpt>
      <trkpt lat="45.59697" lon="4.58932">
        <ele>697</ele>
        <time>2012-11-07T09:38:57Z</time>
      </trkpt>
      <trkpt lat="45.59696" lon="4.58933">
        <ele>698</ele>
        <time>2012-11-07T09:38:58Z</time>
      </trkpt>
      <trkpt lat="45.59694" lon="4.58934">
        <ele>699</ele>
        <time>2012-11-07T09:39:01Z</time>
      </trkpt>
      <trkpt lat="45.59696" lon="4.58932">
        <ele>698</ele>
        <time>2012-11-07T09:39:04Z</time>
      </trkpt>
      <trkpt lat="45.59699" lon="4.5893">
        <ele>697</ele>
        <time>2012-11-07T09:39:07Z</time>
      </trkpt>
      <trkpt lat="45.59701" lon="4.58929">
        <ele>697</ele>
        <time>2012-11-07T09:39:09Z</time>
      </trkpt>
      <trkpt lat="45.59701" lon="4.5893">
        <ele>697</ele>
        <time>2012-11-07T09:39:10Z</time>
      </trkpt>
      <trkpt lat="45.59701" lon="4.5893">
        <ele>697</ele>
        <time>2012-11-07T09:39:35Z</time>
      </trkpt>
      <trkpt lat="45.59714" lon="4.58924">
        <ele>694</ele>
        <time>2012-11-07T09:39:37Z</time>
      </trkpt>
      <trkpt lat="45.59715" lon="4.58926">
        <ele>694</ele>
        <time>2012-11-07T09:39:40Z</time>
      </trkpt>
      <trkpt lat="45.59715" lon="4.5893">
        <ele>690</ele>
        <time>2012-11-07T09:39:50Z</time>
      </trkpt>
      <trkpt lat="45.59716" lon="4.58936">
        <ele>690</ele>
        <time>2012-11-07T09:39:54Z</time>
      </trkpt>
      <trkpt lat="45.59716" lon="4.5894">
        <ele>690</ele>
        <time>2012-11-07T09:39:56Z</time>
      </trkpt>
      <trkpt lat="45.59716" lon="4.58945">
        <ele>689</ele>
        <time>2012-11-07T09:39:58Z</time>
      </trkpt>
      <trkpt lat="45.59717" lon="4.58954">
        <ele>689</ele>
        <time>2012-11-07T09:40:02Z</time>
      </trkpt>
      <trkpt lat="45.59717" lon="4.58957">
        <ele>691</ele>
        <time>2012-11-07T09:40:03Z</time>
      </trkpt>
      <trkpt lat="45.59717" lon="4.58962">
        <ele>691</ele>
        <time>2012-11-07T09:40:05Z</time>
      </trkpt>
      <trkpt lat="45.59717" lon="4.58972">
        <ele>693</ele>
        <time>2012-11-07T09:40:10Z</time>
      </trkpt>
      <trkpt lat="45.59717" lon="4.58974">
        <ele>693</ele>
        <time>2012-11-07T09:40:11Z</time>
      </trkpt>
      <trkpt lat="45.59717" lon="4.58977">
        <ele>693</ele>
        <time>2012-11-07T09:40:12Z</time>
      </trkpt>
      <trkpt lat="45.59718" lon="4.5898">
        <ele>693</ele>
        <time>2012-11-07T09:40:13Z</time>
      </trkpt>
      <trkpt lat="45.59718" lon="4.58984">
        <ele>693</ele>
        <time>2012-11-07T09:40:14Z</time>
      </trkpt>
      <trkpt lat="45.59718" lon="4.58987">
        <ele>693</ele>
        <time>2012-11-07T09:40:15Z</time>
      </trkpt>
      <trkpt lat="45.59719" lon="4.58991">
        <ele>694</ele>
        <time>2012-11-07T09:40:16Z</time>
      </trkpt>
      <trkpt lat="45.59719" lon="4.58995">
        <ele>695</ele>
        <time>2012-11-07T09:40:17Z</time>
      </trkpt>
      <trkpt lat="45.5972" lon="4.59007">
        <ele>695</ele>
        <time>2012-11-07T09:40:20Z</time>
      </trkpt>
      <trkpt lat="45.5972" lon="4.5901">
        <ele>695</ele>
        <time>2012-11-07T09:40:21Z</time>
      </trkpt>
      <trkpt lat="45.59719" lon="4.59014">
        <ele>696</ele>
        <time>2012-11-07T09:40:23Z</time>
      </trkpt>
      <trkpt lat="45.59719" lon="4.59018">
        <ele>697</ele>
        <time>2012-11-07T09:40:25Z</time>
      </trkpt>
      <trkpt lat="45.59719" lon="4.59021">
        <ele>697</ele>
        <time>2012-11-07T09:40:27Z</time>
      </trkpt>
      <trkpt lat="45.5972" lon="4.59025">
        <ele>695</ele>
        <time>2012-11-07T09:40:31Z</time>
      </trkpt>
      <trkpt lat="45.59719" lon="4.59027">
        <ele>697</ele>
        <time>2012-11-07T09:40:33Z</time>
      </trkpt>
      <trkpt lat="45.59719" lon="4.5903">
        <ele>697</ele>
        <time>2012-11-07T09:40:35Z</time>
      </trkpt>
      <trkpt lat="45.59719" lon="4.59034">
        <ele>696</ele>
        <time>2012-11-07T09:40:38Z</time>
      </trkpt>
      <trkpt lat="45.5972" lon="4.59039">
        <ele>694</ele>
        <time>2012-11-07T09:40:40Z</time>
      </trkpt>
      <trkpt lat="45.59721" lon="4.59042">
        <ele>694</ele>
        <time>2012-11-07T09:40:41Z</time>
      </trkpt>
      <trkpt lat="45.59721" lon="4.59044">
        <ele>694</ele>
        <time>2012-11-07T09:40:42Z</time>
      </trkpt>
      <trkpt lat="45.59723" lon="4.59049">
        <ele>696</ele>
        <time>2012-11-07T09:40:45Z</time>
      </trkpt>
      <trkpt lat="45.59724" lon="4.59055">
        <ele>694</ele>
        <time>2012-11-07T09:40:49Z</time>
      </trkpt>
      <trkpt lat="45.59724" lon="4.59058">
        <ele>694</ele>
        <time>2012-11-07T09:40:50Z</time>
      </trkpt>
      <trkpt lat="45.59724" lon="4.59062">
        <ele>694</ele>
        <time>2012-11-07T09:40:51Z</time>
      </trkpt>
      <trkpt lat="45.59724" lon="4.59065">
        <ele>693</ele>
        <time>2012-11-07T09:40:52Z</time>
      </trkpt>
      <trkpt lat="45.59724" lon="4.59069">
        <ele>693</ele>
        <time>2012-11-07T09:40:53Z</time>
      </trkpt>
      <trkpt lat="45.59724" lon="4.59072">
        <ele>693</ele>
        <time>2012-11-07T09:40:54Z</time>
      </trkpt>
      <trkpt lat="45.59723" lon="4.59074">
        <ele>693</ele>
        <time>2012-11-07T09:40:55Z</time>
      </trkpt>
      <trkpt lat="45.59722" lon="4.59079">
        <ele>692</ele>
        <time>2012-11-07T09:40:57Z</time>
      </trkpt>
      <trkpt lat="45.5972" lon="4.5909">
        <ele>689</ele>
        <time>2012-11-07T09:41:02Z</time>
      </trkpt>
      <trkpt lat="45.5972" lon="4.59094">
        <ele>687</ele>
        <time>2012-11-07T09:41:03Z</time>
      </trkpt>
      <trkpt lat="45.5972" lon="4.59097">
        <ele>686</ele>
        <time>2012-11-07T09:41:04Z</time>
      </trkpt>
      <trkpt lat="45.59719" lon="4.591">
        <ele>686</ele>
        <time>2012-11-07T09:41:06Z</time>
      </trkpt>
      <trkpt lat="45.59718" lon="4.59102">
        <ele>687</ele>
        <time>2012-11-07T09:41:08Z</time>
      </trkpt>
      <trkpt lat="45.59716" lon="4.59103">
        <ele>686</ele>
        <time>2012-11-07T09:41:10Z</time>
      </trkpt>
      <trkpt lat="45.59715" lon="4.59105">
        <ele>685</ele>
        <time>2012-11-07T09:41:11Z</time>
      </trkpt>
      <trkpt lat="45.59714" lon="4.59108">
        <ele>685</ele>
        <time>2012-11-07T09:41:12Z</time>
      </trkpt>
      <trkpt lat="45.59713" lon="4.5911">
        <ele>684</ele>
        <time>2012-11-07T09:41:13Z</time>
      </trkpt>
      <trkpt lat="45.59712" lon="4.59113">
        <ele>684</ele>
        <time>2012-11-07T09:41:14Z</time>
      </trkpt>
      <trkpt lat="45.59711" lon="4.59116">
        <ele>684</ele>
        <time>2012-11-07T09:41:15Z</time>
      </trkpt>
      <trkpt lat="45.5971" lon="4.59118">
        <ele>684</ele>
        <time>2012-11-07T09:41:16Z</time>
      </trkpt>
      <trkpt lat="45.59709" lon="4.59122">
        <ele>683</ele>
        <time>2012-11-07T09:41:18Z</time>
      </trkpt>
      <trkpt lat="45.59709" lon="4.59125">
        <ele>682</ele>
        <time>2012-11-07T09:41:20Z</time>
      </trkpt>
      <trkpt lat="45.59708" lon="4.59128">
        <ele>682</ele>
        <time>2012-11-07T09:41:21Z</time>
      </trkpt>
      <trkpt lat="45.59707" lon="4.59133">
        <ele>681</ele>
        <time>2012-11-07T09:41:23Z</time>
      </trkpt>
      <trkpt lat="45.59706" lon="4.59135">
        <ele>681</ele>
        <time>2012-11-07T09:41:24Z</time>
      </trkpt>
      <trkpt lat="45.59704" lon="4.59138">
        <ele>682</ele>
        <time>2012-11-07T09:41:25Z</time>
      </trkpt>
      <trkpt lat="45.59702" lon="4.59142">
        <ele>681</ele>
        <time>2012-11-07T09:41:26Z</time>
      </trkpt>
      <trkpt lat="45.59701" lon="4.59146">
        <ele>681</ele>
        <time>2012-11-07T09:41:27Z</time>
      </trkpt>
      <trkpt lat="45.59699" lon="4.59148">
        <ele>680</ele>
        <time>2012-11-07T09:41:28Z</time>
      </trkpt>
      <trkpt lat="45.59698" lon="4.59151">
        <ele>680</ele>
        <time>2012-11-07T09:41:29Z</time>
      </trkpt>
      <trkpt lat="45.59697" lon="4.59155">
        <ele>679</ele>
        <time>2012-11-07T09:41:31Z</time>
      </trkpt>
      <trkpt lat="45.59696" lon="4.59158">
        <ele>679</ele>
        <time>2012-11-07T09:41:32Z</time>
      </trkpt>
      <trkpt lat="45.59696" lon="4.59161">
        <ele>678</ele>
        <time>2012-11-07T09:41:33Z</time>
      </trkpt>
      <trkpt lat="45.59695" lon="4.59164">
        <ele>677</ele>
        <time>2012-11-07T09:41:34Z</time>
      </trkpt>
      <trkpt lat="45.59694" lon="4.59166">
        <ele>675</ele>
        <time>2012-11-07T09:41:35Z</time>
      </trkpt>
      <trkpt lat="45.59694" lon="4.5917">
        <ele>674</ele>
        <time>2012-11-07T09:41:37Z</time>
      </trkpt>
      <trkpt lat="45.59695" lon="4.59174">
        <ele>673</ele>
        <time>2012-11-07T09:41:39Z</time>
      </trkpt>
      <trkpt lat="45.59695" lon="4.59178">
        <ele>672</ele>
        <time>2012-11-07T09:41:41Z</time>
      </trkpt>
      <trkpt lat="45.59696" lon="4.59185">
        <ele>670</ele>
        <time>2012-11-07T09:41:45Z</time>
      </trkpt>
      <trkpt lat="45.59696" lon="4.59189">
        <ele>668</ele>
        <time>2012-11-07T09:41:47Z</time>
      </trkpt>
      <trkpt lat="45.59697" lon="4.59193">
        <ele>668</ele>
        <time>2012-11-07T09:41:49Z</time>
      </trkpt>
      <trkpt lat="45.59697" lon="4.59198">
        <ele>668</ele>
        <time>2012-11-07T09:41:51Z</time>
      </trkpt>
      <trkpt lat="45.59697" lon="4.59201">
        <ele>667</ele>
        <time>2012-11-07T09:41:53Z</time>
      </trkpt>
      <trkpt lat="45.59696" lon="4.59204">
        <ele>668</ele>
        <time>2012-11-07T09:41:55Z</time>
      </trkpt>
      <trkpt lat="45.59696" lon="4.59208">
        <ele>666</ele>
        <time>2012-11-07T09:41:57Z</time>
      </trkpt>
      <trkpt lat="45.59696" lon="4.59213">
        <ele>666</ele>
        <time>2012-11-07T09:41:59Z</time>
      </trkpt>
      <trkpt lat="45.59696" lon="4.59217">
        <ele>665</ele>
        <time>2012-11-07T09:42:01Z</time>
      </trkpt>
      <trkpt lat="45.59695" lon="4.59227">
        <ele>663</ele>
        <time>2012-11-07T09:42:05Z</time>
      </trkpt>
      <trkpt lat="45.59694" lon="4.59231">
        <ele>663</ele>
        <time>2012-11-07T09:42:06Z</time>
      </trkpt>
      <trkpt lat="45.59693" lon="4.59235">
        <ele>663</ele>
        <time>2012-11-07T09:42:07Z</time>
      </trkpt>
      <trkpt lat="45.59691" lon="4.59256">
        <ele>660</ele>
        <time>2012-11-07T09:42:13Z</time>
      </trkpt>
      <trkpt lat="45.5969" lon="4.59261">
        <ele>660</ele>
        <time>2012-11-07T09:42:15Z</time>
      </trkpt>
      <trkpt lat="45.5969" lon="4.59264">
        <ele>657</ele>
        <time>2012-11-07T09:42:18Z</time>
      </trkpt>
      <trkpt lat="45.5969" lon="4.59268">
        <ele>658</ele>
        <time>2012-11-07T09:42:21Z</time>
      </trkpt>
      <trkpt lat="45.59689" lon="4.59272">
        <ele>657</ele>
        <time>2012-11-07T09:42:23Z</time>
      </trkpt>
      <trkpt lat="45.5969" lon="4.59275">
        <ele>658</ele>
        <time>2012-11-07T09:42:25Z</time>
      </trkpt>
      <trkpt lat="45.59691" lon="4.59278">
        <ele>658</ele>
        <time>2012-11-07T09:42:28Z</time>
      </trkpt>
      <trkpt lat="45.5969" lon="4.5928">
        <ele>656</ele>
        <time>2012-11-07T09:42:30Z</time>
      </trkpt>
      <trkpt lat="45.59688" lon="4.59284">
        <ele>656</ele>
        <time>2012-11-07T09:42:32Z</time>
      </trkpt>
      <trkpt lat="45.59687" lon="4.59287">
        <ele>656</ele>
        <time>2012-11-07T09:42:33Z</time>
      </trkpt>
      <trkpt lat="45.59686" lon="4.5929">
        <ele>656</ele>
        <time>2012-11-07T09:42:34Z</time>
      </trkpt>
      <trkpt lat="45.59686" lon="4.59293">
        <ele>656</ele>
        <time>2012-11-07T09:42:35Z</time>
      </trkpt>
      <trkpt lat="45.59685" lon="4.59313">
        <ele>655</ele>
        <time>2012-11-07T09:42:39Z</time>
      </trkpt>
      <trkpt lat="45.59684" lon="4.59317">
        <ele>655</ele>
        <time>2012-11-07T09:42:40Z</time>
      </trkpt>
      <trkpt lat="45.59684" lon="4.5932">
        <ele>654</ele>
        <time>2012-11-07T09:42:41Z</time>
      </trkpt>
      <trkpt lat="45.59685" lon="4.59323">
        <ele>652</ele>
        <time>2012-11-07T09:42:43Z</time>
      </trkpt>
      <trkpt lat="45.59686" lon="4.59327">
        <ele>651</ele>
        <time>2012-11-07T09:42:46Z</time>
      </trkpt>
      <trkpt lat="45.59687" lon="4.5933">
        <ele>650</ele>
        <time>2012-11-07T09:42:48Z</time>
      </trkpt>
      <trkpt lat="45.59688" lon="4.59335">
        <ele>650</ele>
        <time>2012-11-07T09:42:51Z</time>
      </trkpt>
      <trkpt lat="45.59688" lon="4.59339">
        <ele>650</ele>
        <time>2012-11-07T09:42:53Z</time>
      </trkpt>
      <trkpt lat="45.59688" lon="4.59342">
        <ele>650</ele>
        <time>2012-11-07T09:42:54Z</time>
      </trkpt>
      <trkpt lat="45.59687" lon="4.59346">
        <ele>647</ele>
        <time>2012-11-07T09:42:56Z</time>
      </trkpt>
      <trkpt lat="45.59686" lon="4.59349">
        <ele>646</ele>
        <time>2012-11-07T09:42:58Z</time>
      </trkpt>
      <trkpt lat="45.59685" lon="4.59352">
        <ele>645</ele>
        <time>2012-11-07T09:43:00Z</time>
      </trkpt>
      <trkpt lat="45.59684" lon="4.59361">
        <ele>644</ele>
        <time>2012-11-07T09:43:04Z</time>
      </trkpt>
      <trkpt lat="45.59682" lon="4.59364">
        <ele>643</ele>
        <time>2012-11-07T09:43:06Z</time>
      </trkpt>
      <trkpt lat="45.5968" lon="4.59365">
        <ele>644</ele>
        <time>2012-11-07T09:43:08Z</time>
      </trkpt>
      <trkpt lat="45.59679" lon="4.59367">
        <ele>644</ele>
        <time>2012-11-07T09:43:10Z</time>
      </trkpt>
      <trkpt lat="45.59678" lon="4.59371">
        <ele>645</ele>
        <time>2012-11-07T09:43:12Z</time>
      </trkpt>
      <trkpt lat="45.59679" lon="4.59376">
        <ele>647</ele>
        <time>2012-11-07T09:43:14Z</time>
      </trkpt>
      <trkpt lat="45.5968" lon="4.59383">
        <ele>645</ele>
        <time>2012-11-07T09:43:18Z</time>
      </trkpt>
      <trkpt lat="45.59681" lon="4.59386">
        <ele>643</ele>
        <time>2012-11-07T09:43:20Z</time>
      </trkpt>
      <trkpt lat="45.59682" lon="4.59391">
        <ele>642</ele>
        <time>2012-11-07T09:43:22Z</time>
      </trkpt>
      <trkpt lat="45.59682" lon="4.59395">
        <ele>643</ele>
        <time>2012-11-07T09:43:24Z</time>
      </trkpt>
      <trkpt lat="45.59683" lon="4.594">
        <ele>642</ele>
        <time>2012-11-07T09:43:26Z</time>
      </trkpt>
      <trkpt lat="45.59685" lon="4.59403">
        <ele>641</ele>
        <time>2012-11-07T09:43:28Z</time>
      </trkpt>
      <trkpt lat="45.59686" lon="4.59406">
        <ele>640</ele>
        <time>2012-11-07T09:43:30Z</time>
      </trkpt>
      <trkpt lat="45.59685" lon="4.5941">
        <ele>637</ele>
        <time>2012-11-07T09:43:32Z</time>
      </trkpt>
      <trkpt lat="45.59683" lon="4.59414">
        <ele>638</ele>
        <time>2012-11-07T09:43:34Z</time>
      </trkpt>
      <trkpt lat="45.59682" lon="4.59417">
        <ele>637</ele>
        <time>2012-11-07T09:43:35Z</time>
      </trkpt>
      <trkpt lat="45.59682" lon="4.5942">
        <ele>638</ele>
        <time>2012-11-07T09:43:36Z</time>
      </trkpt>
      <trkpt lat="45.59683" lon="4.59428">
        <ele>640</ele>
        <time>2012-11-07T09:43:40Z</time>
      </trkpt>
      <trkpt lat="45.59682" lon="4.59432">
        <ele>639</ele>
        <time>2012-11-07T09:43:41Z</time>
      </trkpt>
      <trkpt lat="45.5968" lon="4.59439">
        <ele>633</ele>
        <time>2012-11-07T09:43:44Z</time>
      </trkpt>
      <trkpt lat="45.59679" lon="4.59445">
        <ele>631</ele>
        <time>2012-11-07T09:43:47Z</time>
      </trkpt>
      <trkpt lat="45.59678" lon="4.59448">
        <ele>632</ele>
        <time>2012-11-07T09:43:48Z</time>
      </trkpt>
      <trkpt lat="45.59677" lon="4.59452">
        <ele>630</ele>
        <time>2012-11-07T09:43:50Z</time>
      </trkpt>
      <trkpt lat="45.59676" lon="4.59455">
        <ele>630</ele>
        <time>2012-11-07T09:43:51Z</time>
      </trkpt>
      <trkpt lat="45.59674" lon="4.5946">
        <ele>629</ele>
        <time>2012-11-07T09:43:53Z</time>
      </trkpt>
      <trkpt lat="45.59673" lon="4.59463">
        <ele>629</ele>
        <time>2012-11-07T09:43:54Z</time>
      </trkpt>
      <trkpt lat="45.59672" lon="4.59465">
        <ele>629</ele>
        <time>2012-11-07T09:43:55Z</time>
      </trkpt>
      <trkpt lat="45.59671" lon="4.59468">
        <ele>630</ele>
        <time>2012-11-07T09:43:56Z</time>
      </trkpt>
      <trkpt lat="45.5967" lon="4.59474">
        <ele>629</ele>
        <time>2012-11-07T09:43:58Z</time>
      </trkpt>
      <trkpt lat="45.5967" lon="4.59476">
        <ele>629</ele>
        <time>2012-11-07T09:43:59Z</time>
      </trkpt>
      <trkpt lat="45.5967" lon="4.59479">
        <ele>628</ele>
        <time>2012-11-07T09:44:00Z</time>
      </trkpt>
      <trkpt lat="45.59669" lon="4.59486">
        <ele>628</ele>
        <time>2012-11-07T09:44:03Z</time>
      </trkpt>
      <trkpt lat="45.59669" lon="4.5949">
        <ele>628</ele>
        <time>2012-11-07T09:44:06Z</time>
      </trkpt>
      <trkpt lat="45.59669" lon="4.59493">
        <ele>628</ele>
        <time>2012-11-07T09:44:07Z</time>
      </trkpt>
      <trkpt lat="45.5967" lon="4.59496">
        <ele>628</ele>
        <time>2012-11-07T09:44:08Z</time>
      </trkpt>
      <trkpt lat="45.5967" lon="4.595">
        <ele>629</ele>
        <time>2012-11-07T09:44:09Z</time>
      </trkpt>
      <trkpt lat="45.5967" lon="4.59503">
        <ele>628</ele>
        <time>2012-11-07T09:44:10Z</time>
      </trkpt>
      <trkpt lat="45.5967" lon="4.59505">
        <ele>628</ele>
        <time>2012-11-07T09:44:11Z</time>
      </trkpt>
      <trkpt lat="45.59669" lon="4.59509">
        <ele>627</ele>
        <time>2012-11-07T09:44:13Z</time>
      </trkpt>
      <trkpt lat="45.59668" lon="4.59513">
        <ele>624</ele>
        <time>2012-11-07T09:44:15Z</time>
      </trkpt>
      <trkpt lat="45.59666" lon="4.59517">
        <ele>623</ele>
        <time>2012-11-07T09:44:17Z</time>
      </trkpt>
      <trkpt lat="45.59665" lon="4.5952">
        <ele>623</ele>
        <time>2012-11-07T09:44:18Z</time>
      </trkpt>
      <trkpt lat="45.59663" lon="4.59521">
        <ele>625</ele>
        <time>2012-11-07T09:44:19Z</time>
      </trkpt>
      <trkpt lat="45.59661" lon="4.59524">
        <ele>623</ele>
        <time>2012-11-07T09:44:21Z</time>
      </trkpt>
      <trkpt lat="45.59661" lon="4.59527">
        <ele>623</ele>
        <time>2012-11-07T09:44:25Z</time>
      </trkpt>
      <trkpt lat="45.59659" lon="4.5953">
        <ele>623</ele>
        <time>2012-11-07T09:44:27Z</time>
      </trkpt>
      <trkpt lat="45.59657" lon="4.59533">
        <ele>624</ele>
        <time>2012-11-07T09:44:28Z</time>
      </trkpt>
      <trkpt lat="45.59656" lon="4.59536">
        <ele>623</ele>
        <time>2012-11-07T09:44:29Z</time>
      </trkpt>
      <trkpt lat="45.59654" lon="4.59539">
        <ele>623</ele>
        <time>2012-11-07T09:44:30Z</time>
      </trkpt>
      <trkpt lat="45.59647" lon="4.59552">
        <ele>623</ele>
        <time>2012-11-07T09:44:34Z</time>
      </trkpt>
      <trkpt lat="45.59645" lon="4.59556">
        <ele>622</ele>
        <time>2012-11-07T09:44:35Z</time>
      </trkpt>
      <trkpt lat="45.59644" lon="4.5956">
        <ele>622</ele>
        <time>2012-11-07T09:44:36Z</time>
      </trkpt>
      <trkpt lat="45.59641" lon="4.59567">
        <ele>622</ele>
        <time>2012-11-07T09:44:38Z</time>
      </trkpt>
      <trkpt lat="45.59641" lon="4.5957">
        <ele>621</ele>
        <time>2012-11-07T09:44:39Z</time>
      </trkpt>
      <trkpt lat="45.5964" lon="4.59575">
        <ele>620</ele>
        <time>2012-11-07T09:44:41Z</time>
      </trkpt>
      <trkpt lat="45.59639" lon="4.59578">
        <ele>620</ele>
        <time>2012-11-07T09:44:42Z</time>
      </trkpt>
      <trkpt lat="45.59638" lon="4.5958">
        <ele>619</ele>
        <time>2012-11-07T09:44:43Z</time>
      </trkpt>
      <trkpt lat="45.59639" lon="4.59584">
        <ele>619</ele>
        <time>2012-11-07T09:44:45Z</time>
      </trkpt>
      <trkpt lat="45.5964" lon="4.5958">
        <ele>618</ele>
        <time>2012-11-07T09:44:52Z</time>
      </trkpt>
      <trkpt lat="45.59639" lon="4.59577">
        <ele>618</ele>
        <time>2012-11-07T09:44:54Z</time>
      </trkpt>
      <trkpt lat="45.59639" lon="4.59574">
        <ele>616</ele>
        <time>2012-11-07T09:44:56Z</time>
      </trkpt>
      <trkpt lat="45.59637" lon="4.59573">
        <ele>616</ele>
        <time>2012-11-07T09:44:58Z</time>
      </trkpt>
      <trkpt lat="45.59639" lon="4.59573">
        <ele>618</ele>
        <time>2012-11-07T09:45:08Z</time>
      </trkpt>
      <trkpt lat="45.59641" lon="4.59575">
        <ele>619</ele>
        <time>2012-11-07T09:45:11Z</time>
      </trkpt>
      <trkpt lat="45.5964" lon="4.59579">
        <ele>619</ele>
        <time>2012-11-07T09:45:13Z</time>
      </trkpt>
      <trkpt lat="45.5964" lon="4.59583">
        <ele>619</ele>
        <time>2012-11-07T09:45:15Z</time>
      </trkpt>
      <trkpt lat="45.59642" lon="4.59586">
        <ele>619</ele>
        <time>2012-11-07T09:45:17Z</time>
      </trkpt>
      <trkpt lat="45.59644" lon="4.59587">
        <ele>618</ele>
        <time>2012-11-07T09:45:18Z</time>
      </trkpt>
      <trkpt lat="45.59646" lon="4.59588">
        <ele>618</ele>
        <time>2012-11-07T09:45:19Z</time>
      </trkpt>
      <trkpt lat="45.59647" lon="4.59589">
        <ele>618</ele>
        <time>2012-11-07T09:45:20Z</time>
      </trkpt>
      <trkpt lat="45.5965" lon="4.59592">
        <ele>617</ele>
        <time>2012-11-07T09:45:22Z</time>
      </trkpt>
      <trkpt lat="45.59652" lon="4.59595">
        <ele>617</ele>
        <time>2012-11-07T09:45:24Z</time>
      </trkpt>
      <trkpt lat="45.59655" lon="4.59598">
        <ele>615</ele>
        <time>2012-11-07T09:45:27Z</time>
      </trkpt>
      <trkpt lat="45.59659" lon="4.59602">
        <ele>615</ele>
        <time>2012-11-07T09:45:30Z</time>
      </trkpt>
      <trkpt lat="45.59661" lon="4.59603">
        <ele>615</ele>
        <time>2012-11-07T09:45:31Z</time>
      </trkpt>
      <trkpt lat="45.59662" lon="4.59604">
        <ele>615</ele>
        <time>2012-11-07T09:45:32Z</time>
      </trkpt>
      <trkpt lat="45.59664" lon="4.59605">
        <ele>615</ele>
        <time>2012-11-07T09:45:33Z</time>
      </trkpt>
      <trkpt lat="45.59667" lon="4.59607">
        <ele>616</ele>
        <time>2012-11-07T09:45:35Z</time>
      </trkpt>
      <trkpt lat="45.59669" lon="4.59609">
        <ele>615</ele>
        <time>2012-11-07T09:45:37Z</time>
      </trkpt>
      <trkpt lat="45.59671" lon="4.59612">
        <ele>616</ele>
        <time>2012-11-07T09:45:39Z</time>
      </trkpt>
      <trkpt lat="45.59673" lon="4.59614">
        <ele>617</ele>
        <time>2012-11-07T09:45:40Z</time>
      </trkpt>
      <trkpt lat="45.59676" lon="4.59616">
        <ele>616</ele>
        <time>2012-11-07T09:45:42Z</time>
      </trkpt>
      <trkpt lat="45.59679" lon="4.59617">
        <ele>616</ele>
        <time>2012-11-07T09:45:44Z</time>
      </trkpt>
      <trkpt lat="45.59682" lon="4.59615">
        <ele>616</ele>
        <time>2012-11-07T09:45:46Z</time>
      </trkpt>
      <trkpt lat="45.59684" lon="4.59615">
        <ele>616</ele>
        <time>2012-11-07T09:45:48Z</time>
      </trkpt>
      <trkpt lat="45.59685" lon="4.59619">
        <ele>616</ele>
        <time>2012-11-07T09:45:50Z</time>
      </trkpt>
      <trkpt lat="45.59687" lon="4.59621">
        <ele>616</ele>
        <time>2012-11-07T09:45:51Z</time>
      </trkpt>
      <trkpt lat="45.59688" lon="4.59624">
        <ele>616</ele>
        <time>2012-11-07T09:45:52Z</time>
      </trkpt>
      <trkpt lat="45.5969" lon="4.59627">
        <ele>616</ele>
        <time>2012-11-07T09:45:53Z</time>
      </trkpt>
      <trkpt lat="45.59694" lon="4.59631">
        <ele>615</ele>
        <time>2012-11-07T09:45:55Z</time>
      </trkpt>
      <trkpt lat="45.59698" lon="4.59634">
        <ele>616</ele>
        <time>2012-11-07T09:45:57Z</time>
      </trkpt>
      <trkpt lat="45.597" lon="4.59635">
        <ele>616</ele>
        <time>2012-11-07T09:45:58Z</time>
      </trkpt>
      <trkpt lat="45.59703" lon="4.59636">
        <ele>616</ele>
        <time>2012-11-07T09:46:00Z</time>
      </trkpt>
      <trkpt lat="45.59705" lon="4.59638">
        <ele>616</ele>
        <time>2012-11-07T09:46:03Z</time>
      </trkpt>
      <trkpt lat="45.59708" lon="4.5964">
        <ele>614</ele>
        <time>2012-11-07T09:46:06Z</time>
      </trkpt>
      <trkpt lat="45.5971" lon="4.59641">
        <ele>613</ele>
        <time>2012-11-07T09:46:08Z</time>
      </trkpt>
      <trkpt lat="45.59713" lon="4.59642">
        <ele>613</ele>
        <time>2012-11-07T09:46:09Z</time>
      </trkpt>
      <trkpt lat="45.59716" lon="4.59643">
        <ele>612</ele>
        <time>2012-11-07T09:46:11Z</time>
      </trkpt>
      <trkpt lat="45.5972" lon="4.59643">
        <ele>612</ele>
        <time>2012-11-07T09:46:13Z</time>
      </trkpt>
      <trkpt lat="45.59722" lon="4.59644">
        <ele>612</ele>
        <time>2012-11-07T09:46:14Z</time>
      </trkpt>
      <trkpt lat="45.59724" lon="4.59645">
        <ele>612</ele>
        <time>2012-11-07T09:46:15Z</time>
      </trkpt>
      <trkpt lat="45.59728" lon="4.59647">
        <ele>613</ele>
        <time>2012-11-07T09:46:16Z</time>
      </trkpt>
      <trkpt lat="45.59732" lon="4.59649">
        <ele>616</ele>
        <time>2012-11-07T09:46:18Z</time>
      </trkpt>
      <trkpt lat="45.59734" lon="4.59649">
        <ele>617</ele>
        <time>2012-11-07T09:46:20Z</time>
      </trkpt>
      <trkpt lat="45.59737" lon="4.59648">
        <ele>613</ele>
        <time>2012-11-07T09:46:23Z</time>
      </trkpt>
      <trkpt lat="45.59742" lon="4.59645">
        <ele>613</ele>
        <time>2012-11-07T09:46:26Z</time>
      </trkpt>
      <trkpt lat="45.59746" lon="4.59642">
        <ele>613</ele>
        <time>2012-11-07T09:46:28Z</time>
      </trkpt>
      <trkpt lat="45.59748" lon="4.59641">
        <ele>613</ele>
        <time>2012-11-07T09:46:29Z</time>
      </trkpt>
      <trkpt lat="45.59755" lon="4.59633">
        <ele>611</ele>
        <time>2012-11-07T09:46:33Z</time>
      </trkpt>
      <trkpt lat="45.59756" lon="4.59632">
        <ele>611</ele>
        <time>2012-11-07T09:46:34Z</time>
      </trkpt>
      <trkpt lat="45.59761" lon="4.59626">
        <ele>609</ele>
        <time>2012-11-07T09:46:38Z</time>
      </trkpt>
      <trkpt lat="45.59764" lon="4.59623">
        <ele>608</ele>
        <time>2012-11-07T09:46:40Z</time>
      </trkpt>
      <trkpt lat="45.59767" lon="4.5962">
        <ele>607</ele>
        <time>2012-11-07T09:46:42Z</time>
      </trkpt>
      <trkpt lat="45.59769" lon="4.59617">
        <ele>607</ele>
        <time>2012-11-07T09:46:44Z</time>
      </trkpt>
      <trkpt lat="45.59771" lon="4.59614">
        <ele>606</ele>
        <time>2012-11-07T09:46:46Z</time>
      </trkpt>
      <trkpt lat="45.59774" lon="4.59611">
        <ele>607</ele>
        <time>2012-11-07T09:46:50Z</time>
      </trkpt>
      <trkpt lat="45.59775" lon="4.59609">
        <ele>606</ele>
        <time>2012-11-07T09:46:51Z</time>
      </trkpt>
      <trkpt lat="45.59777" lon="4.59607">
        <ele>606</ele>
        <time>2012-11-07T09:46:52Z</time>
      </trkpt>
      <trkpt lat="45.59778" lon="4.59606">
        <ele>606</ele>
        <time>2012-11-07T09:46:53Z</time>
      </trkpt>
      <trkpt lat="45.59781" lon="4.59604">
        <ele>607</ele>
        <time>2012-11-07T09:46:55Z</time>
      </trkpt>
      <trkpt lat="45.59784" lon="4.59602">
        <ele>607</ele>
        <time>2012-11-07T09:46:57Z</time>
      </trkpt>
      <trkpt lat="45.59788" lon="4.59598">
        <ele>604</ele>
        <time>2012-11-07T09:47:01Z</time>
      </trkpt>
      <trkpt lat="45.5979" lon="4.59596">
        <ele>604</ele>
        <time>2012-11-07T09:47:03Z</time>
      </trkpt>
      <trkpt lat="45.59795" lon="4.59594">
        <ele>605</ele>
        <time>2012-11-07T09:47:06Z</time>
      </trkpt>
      <trkpt lat="45.59797" lon="4.59592">
        <ele>605</ele>
        <time>2012-11-07T09:47:08Z</time>
      </trkpt>
      <trkpt lat="45.59793" lon="4.59589">
        <ele>605</ele>
        <time>2012-11-07T09:47:12Z</time>
      </trkpt>
      <trkpt lat="45.59794" lon="4.59585">
        <ele>605</ele>
        <time>2012-11-07T09:47:15Z</time>
      </trkpt>
      <trkpt lat="45.59802" lon="4.59579">
        <ele>605</ele>
        <time>2012-11-07T09:47:20Z</time>
      </trkpt>
      <trkpt lat="45.59804" lon="4.59575">
        <ele>605</ele>
        <time>2012-11-07T09:47:22Z</time>
      </trkpt>
      <trkpt lat="45.59806" lon="4.59571">
        <ele>605</ele>
        <time>2012-11-07T09:47:24Z</time>
      </trkpt>
      <trkpt lat="45.59807" lon="4.59569">
        <ele>607</ele>
        <time>2012-11-07T09:47:25Z</time>
      </trkpt>
      <trkpt lat="45.59807" lon="4.59566">
        <ele>607</ele>
        <time>2012-11-07T09:47:26Z</time>
      </trkpt>
      <trkpt lat="45.59809" lon="4.59559">
        <ele>606</ele>
        <time>2012-11-07T09:47:29Z</time>
      </trkpt>
      <trkpt lat="45.59811" lon="4.59553">
        <ele>607</ele>
        <time>2012-11-07T09:47:32Z</time>
      </trkpt>
      <trkpt lat="45.59814" lon="4.59544">
        <ele>609</ele>
        <time>2012-11-07T09:47:36Z</time>
      </trkpt>
      <trkpt lat="45.59815" lon="4.59542">
        <ele>607</ele>
        <time>2012-11-07T09:47:37Z</time>
      </trkpt>
      <trkpt lat="45.59817" lon="4.5954">
        <ele>606</ele>
        <time>2012-11-07T09:47:38Z</time>
      </trkpt>
      <trkpt lat="45.5982" lon="4.59537">
        <ele>606</ele>
        <time>2012-11-07T09:47:40Z</time>
      </trkpt>
      <trkpt lat="45.59822" lon="4.59535">
        <ele>605</ele>
        <time>2012-11-07T09:47:41Z</time>
      </trkpt>
      <trkpt lat="45.59824" lon="4.59534">
        <ele>603</ele>
        <time>2012-11-07T09:47:42Z</time>
      </trkpt>
      <trkpt lat="45.59827" lon="4.59534">
        <ele>604</ele>
        <time>2012-11-07T09:47:45Z</time>
      </trkpt>
      <trkpt lat="45.59829" lon="4.59537">
        <ele>604</ele>
        <time>2012-11-07T09:47:48Z</time>
      </trkpt>
      <trkpt lat="45.59832" lon="4.59539">
        <ele>602</ele>
        <time>2012-11-07T09:47:50Z</time>
      </trkpt>
      <trkpt lat="45.59834" lon="4.5954">
        <ele>602</ele>
        <time>2012-11-07T09:47:51Z</time>
      </trkpt>
      <trkpt lat="45.59839" lon="4.59544">
        <ele>601</ele>
        <time>2012-11-07T09:47:54Z</time>
      </trkpt>
      <trkpt lat="45.59841" lon="4.59544">
        <ele>601</ele>
        <time>2012-11-07T09:47:55Z</time>
      </trkpt>
      <trkpt lat="45.59844" lon="4.59545">
        <ele>600</ele>
        <time>2012-11-07T09:47:56Z</time>
      </trkpt>
      <trkpt lat="45.59846" lon="4.59546">
        <ele>599</ele>
        <time>2012-11-07T09:47:57Z</time>
      </trkpt>
      <trkpt lat="45.59848" lon="4.59547">
        <ele>599</ele>
        <time>2012-11-07T09:47:58Z</time>
      </trkpt>
      <trkpt lat="45.59854" lon="4.59551">
        <ele>597</ele>
        <time>2012-11-07T09:48:02Z</time>
      </trkpt>
      <trkpt lat="45.59856" lon="4.59552">
        <ele>596</ele>
        <time>2012-11-07T09:48:03Z</time>
      </trkpt>
      <trkpt lat="45.59864" lon="4.59558">
        <ele>595</ele>
        <time>2012-11-07T09:48:07Z</time>
      </trkpt>
      <trkpt lat="45.59867" lon="4.5956">
        <ele>594</ele>
        <time>2012-11-07T09:48:09Z</time>
      </trkpt>
      <trkpt lat="45.59872" lon="4.59562">
        <ele>596</ele>
        <time>2012-11-07T09:48:12Z</time>
      </trkpt>
      <trkpt lat="45.59876" lon="4.59564">
        <ele>595</ele>
        <time>2012-11-07T09:48:14Z</time>
      </trkpt>
      <trkpt lat="45.59878" lon="4.59565">
        <ele>595</ele>
        <time>2012-11-07T09:48:15Z</time>
      </trkpt>
      <trkpt lat="45.59881" lon="4.59567">
        <ele>595</ele>
        <time>2012-11-07T09:48:17Z</time>
      </trkpt>
      <trkpt lat="45.59884" lon="4.59569">
        <ele>593</ele>
        <time>2012-11-07T09:48:19Z</time>
      </trkpt>
      <trkpt lat="45.59885" lon="4.5957">
        <ele>593</ele>
        <time>2012-11-07T09:48:20Z</time>
      </trkpt>
      <trkpt lat="45.59888" lon="4.59572">
        <ele>594</ele>
        <time>2012-11-07T09:48:22Z</time>
      </trkpt>
      <trkpt lat="45.59891" lon="4.59575">
        <ele>594</ele>
        <time>2012-11-07T09:48:24Z</time>
      </trkpt>
      <trkpt lat="45.59898" lon="4.5958">
        <ele>594</ele>
        <time>2012-11-07T09:48:29Z</time>
      </trkpt>
      <trkpt lat="45.59905" lon="4.59586">
        <ele>592</ele>
        <time>2012-11-07T09:48:34Z</time>
      </trkpt>
      <trkpt lat="45.59907" lon="4.59588">
        <ele>591</ele>
        <time>2012-11-07T09:48:36Z</time>
      </trkpt>
      <trkpt lat="45.59909" lon="4.5959">
        <ele>589</ele>
        <time>2012-11-07T09:48:38Z</time>
      </trkpt>
      <trkpt lat="45.59912" lon="4.59592">
        <ele>589</ele>
        <time>2012-11-07T09:48:40Z</time>
      </trkpt>
      <trkpt lat="45.59914" lon="4.59593">
        <ele>588</ele>
        <time>2012-11-07T09:48:42Z</time>
      </trkpt>
      <trkpt lat="45.59918" lon="4.59595">
        <ele>588</ele>
        <time>2012-11-07T09:48:46Z</time>
      </trkpt>
      <trkpt lat="45.59921" lon="4.59595">
        <ele>590</ele>
        <time>2012-11-07T09:48:49Z</time>
      </trkpt>
      <trkpt lat="45.59923" lon="4.59597">
        <ele>590</ele>
        <time>2012-11-07T09:48:50Z</time>
      </trkpt>
      <trkpt lat="45.59925" lon="4.596">
        <ele>591</ele>
        <time>2012-11-07T09:48:52Z</time>
      </trkpt>
      <trkpt lat="45.59926" lon="4.59602">
        <ele>592</ele>
        <time>2012-11-07T09:48:54Z</time>
      </trkpt>
      <trkpt lat="45.5993" lon="4.59606">
        <ele>591</ele>
        <time>2012-11-07T09:48:58Z</time>
      </trkpt>
      <trkpt lat="45.59934" lon="4.5961">
        <ele>589</ele>
        <time>2012-11-07T09:49:01Z</time>
      </trkpt>
      <trkpt lat="45.59937" lon="4.59613">
        <ele>591</ele>
        <time>2012-11-07T09:49:03Z</time>
      </trkpt>
      <trkpt lat="45.59942" lon="4.59621">
        <ele>592</ele>
        <time>2012-11-07T09:49:08Z</time>
      </trkpt>
      <trkpt lat="45.59944" lon="4.59624">
        <ele>593</ele>
        <time>2012-11-07T09:49:10Z</time>
      </trkpt>
      <trkpt lat="45.59945" lon="4.59625">
        <ele>595</ele>
        <time>2012-11-07T09:49:13Z</time>
      </trkpt>
      <trkpt lat="45.59947" lon="4.59625">
        <ele>595</ele>
        <time>2012-11-07T09:49:16Z</time>
      </trkpt>
      <trkpt lat="45.59947" lon="4.59627">
        <ele>594</ele>
        <time>2012-11-07T09:49:21Z</time>
      </trkpt>
      <trkpt lat="45.59947" lon="4.59631">
        <ele>595</ele>
        <time>2012-11-07T09:49:24Z</time>
      </trkpt>
      <trkpt lat="45.59948" lon="4.59633">
        <ele>596</ele>
        <time>2012-11-07T09:49:26Z</time>
      </trkpt>
      <trkpt lat="45.5995" lon="4.59637">
        <ele>594</ele>
        <time>2012-11-07T09:49:28Z</time>
      </trkpt>
      <trkpt lat="45.59951" lon="4.5964">
        <ele>595</ele>
        <time>2012-11-07T09:49:30Z</time>
      </trkpt>
      <trkpt lat="45.59953" lon="4.59643">
        <ele>595</ele>
        <time>2012-11-07T09:49:31Z</time>
      </trkpt>
      <trkpt lat="45.59958" lon="4.59652">
        <ele>594</ele>
        <time>2012-11-07T09:49:34Z</time>
      </trkpt>
      <trkpt lat="45.5996" lon="4.59655">
        <ele>594</ele>
        <time>2012-11-07T09:49:35Z</time>
      </trkpt>
      <trkpt lat="45.59962" lon="4.59657">
        <ele>594</ele>
        <time>2012-11-07T09:49:36Z</time>
      </trkpt>
      <trkpt lat="45.59963" lon="4.59659">
        <ele>594</ele>
        <time>2012-11-07T09:49:37Z</time>
      </trkpt>
      <trkpt lat="45.59965" lon="4.59661">
        <ele>594</ele>
        <time>2012-11-07T09:49:38Z</time>
      </trkpt>
      <trkpt lat="45.59968" lon="4.59665">
        <ele>593</ele>
        <time>2012-11-07T09:49:40Z</time>
      </trkpt>
      <trkpt lat="45.5997" lon="4.59667">
        <ele>592</ele>
        <time>2012-11-07T09:49:41Z</time>
      </trkpt>
      <trkpt lat="45.59971" lon="4.5967">
        <ele>593</ele>
        <time>2012-11-07T09:49:42Z</time>
      </trkpt>
      <trkpt lat="45.59973" lon="4.59672">
        <ele>592</ele>
        <time>2012-11-07T09:49:43Z</time>
      </trkpt>
      <trkpt lat="45.59975" lon="4.59675">
        <ele>593</ele>
        <time>2012-11-07T09:49:45Z</time>
      </trkpt>
      <trkpt lat="45.59977" lon="4.59678">
        <ele>593</ele>
        <time>2012-11-07T09:49:47Z</time>
      </trkpt>
      <trkpt lat="45.59979" lon="4.59681">
        <ele>594</ele>
        <time>2012-11-07T09:49:49Z</time>
      </trkpt>
      <trkpt lat="45.5998" lon="4.59685">
        <ele>595</ele>
        <time>2012-11-07T09:49:51Z</time>
      </trkpt>
      <trkpt lat="45.59981" lon="4.5969">
        <ele>595</ele>
        <time>2012-11-07T09:49:53Z</time>
      </trkpt>
      <trkpt lat="45.59982" lon="4.59694">
        <ele>595</ele>
        <time>2012-11-07T09:49:55Z</time>
      </trkpt>
      <trkpt lat="45.59986" lon="4.59699">
        <ele>594</ele>
        <time>2012-11-07T09:49:57Z</time>
      </trkpt>
      <trkpt lat="45.59988" lon="4.597">
        <ele>593</ele>
        <time>2012-11-07T09:49:58Z</time>
      </trkpt>
      <trkpt lat="45.5999" lon="4.59702">
        <ele>593</ele>
        <time>2012-11-07T09:50:00Z</time>
      </trkpt>
      <trkpt lat="45.59991" lon="4.59704">
        <ele>594</ele>
        <time>2012-11-07T09:50:02Z</time>
      </trkpt>
      <trkpt lat="45.59992" lon="4.59706">
        <ele>593</ele>
        <time>2012-11-07T09:50:03Z</time>
      </trkpt>
      <trkpt lat="45.59996" lon="4.59713">
        <ele>593</ele>
        <time>2012-11-07T09:50:07Z</time>
      </trkpt>
      <trkpt lat="45.59997" lon="4.59718">
        <ele>593</ele>
        <time>2012-11-07T09:50:09Z</time>
      </trkpt>
      <trkpt lat="45.59999" lon="4.59722">
        <ele>593</ele>
        <time>2012-11-07T09:50:11Z</time>
      </trkpt>
      <trkpt lat="45.60001" lon="4.59725">
        <ele>593</ele>
        <time>2012-11-07T09:50:13Z</time>
      </trkpt>
      <trkpt lat="45.60003" lon="4.59727">
        <ele>593</ele>
        <time>2012-11-07T09:50:15Z</time>
      </trkpt>
      <trkpt lat="45.60004" lon="4.59731">
        <ele>593</ele>
        <time>2012-11-07T09:50:17Z</time>
      </trkpt>
      <trkpt lat="45.60005" lon="4.59736">
        <ele>592</ele>
        <time>2012-11-07T09:50:19Z</time>
      </trkpt>
      <trkpt lat="45.60006" lon="4.59739">
        <ele>591</ele>
        <time>2012-11-07T09:50:21Z</time>
      </trkpt>
      <trkpt lat="45.60008" lon="4.59743">
        <ele>592</ele>
        <time>2012-11-07T09:50:24Z</time>
      </trkpt>
      <trkpt lat="45.6001" lon="4.59746">
        <ele>593</ele>
        <time>2012-11-07T09:50:26Z</time>
      </trkpt>
      <trkpt lat="45.60013" lon="4.59748">
        <ele>592</ele>
        <time>2012-11-07T09:50:28Z</time>
      </trkpt>
      <trkpt lat="45.60016" lon="4.5975">
        <ele>592</ele>
        <time>2012-11-07T09:50:32Z</time>
      </trkpt>
      <trkpt lat="45.60018" lon="4.59752">
        <ele>590</ele>
        <time>2012-11-07T09:50:36Z</time>
      </trkpt>
      <trkpt lat="45.6002" lon="4.59754">
        <ele>590</ele>
        <time>2012-11-07T09:50:38Z</time>
      </trkpt>
      <trkpt lat="45.60022" lon="4.59757">
        <ele>591</ele>
        <time>2012-11-07T09:50:40Z</time>
      </trkpt>
      <trkpt lat="45.60025" lon="4.59761">
        <ele>589</ele>
        <time>2012-11-07T09:50:43Z</time>
      </trkpt>
      <trkpt lat="45.60025" lon="4.59764">
        <ele>589</ele>
        <time>2012-11-07T09:50:46Z</time>
      </trkpt>
      <trkpt lat="45.60025" lon="4.59767">
        <ele>589</ele>
        <time>2012-11-07T09:50:48Z</time>
      </trkpt>
      <trkpt lat="45.60026" lon="4.59772">
        <ele>591</ele>
        <time>2012-11-07T09:50:50Z</time>
      </trkpt>
      <trkpt lat="45.60026" lon="4.59777">
        <ele>591</ele>
        <time>2012-11-07T09:50:52Z</time>
      </trkpt>
      <trkpt lat="45.60026" lon="4.59782">
        <ele>590</ele>
        <time>2012-11-07T09:50:54Z</time>
      </trkpt>
      <trkpt lat="45.60027" lon="4.59786">
        <ele>591</ele>
        <time>2012-11-07T09:50:56Z</time>
      </trkpt>
      <trkpt lat="45.60029" lon="4.59788">
        <ele>591</ele>
        <time>2012-11-07T09:50:57Z</time>
      </trkpt>
      <trkpt lat="45.60031" lon="4.5979">
        <ele>591</ele>
        <time>2012-11-07T09:50:58Z</time>
      </trkpt>
      <trkpt lat="45.60036" lon="4.59794">
        <ele>593</ele>
        <time>2012-11-07T09:51:00Z</time>
      </trkpt>
      <trkpt lat="45.60042" lon="4.59798">
        <ele>594</ele>
        <time>2012-11-07T09:51:03Z</time>
      </trkpt>
      <trkpt lat="45.60048" lon="4.59803">
        <ele>594</ele>
        <time>2012-11-07T09:51:07Z</time>
      </trkpt>
      <trkpt lat="45.6005" lon="4.59805">
        <ele>593</ele>
        <time>2012-11-07T09:51:09Z</time>
      </trkpt>
      <trkpt lat="45.60053" lon="4.59808">
        <ele>594</ele>
        <time>2012-11-07T09:51:11Z</time>
      </trkpt>
      <trkpt lat="45.60055" lon="4.59811">
        <ele>594</ele>
        <time>2012-11-07T09:51:13Z</time>
      </trkpt>
      <trkpt lat="45.60057" lon="4.59814">
        <ele>593</ele>
        <time>2012-11-07T09:51:15Z</time>
      </trkpt>
      <trkpt lat="45.60059" lon="4.59816">
        <ele>592</ele>
        <time>2012-11-07T09:51:17Z</time>
      </trkpt>
      <trkpt lat="45.60062" lon="4.59819">
        <ele>593</ele>
        <time>2012-11-07T09:51:19Z</time>
      </trkpt>
      <trkpt lat="45.60064" lon="4.59821">
        <ele>592</ele>
        <time>2012-11-07T09:51:20Z</time>
      </trkpt>
      <trkpt lat="45.60066" lon="4.59824">
        <ele>592</ele>
        <time>2012-11-07T09:51:22Z</time>
      </trkpt>
      <trkpt lat="45.60068" lon="4.59827">
        <ele>591</ele>
        <time>2012-11-07T09:51:24Z</time>
      </trkpt>
      <trkpt lat="45.6007" lon="4.59829">
        <ele>593</ele>
        <time>2012-11-07T09:51:26Z</time>
      </trkpt>
      <trkpt lat="45.60073" lon="4.5983">
        <ele>592</ele>
        <time>2012-11-07T09:51:30Z</time>
      </trkpt>
      <trkpt lat="45.60071" lon="4.59831">
        <ele>591</ele>
        <time>2012-11-07T09:51:37Z</time>
      </trkpt>
      <trkpt lat="45.60072" lon="4.59836">
        <ele>590</ele>
        <time>2012-11-07T09:51:40Z</time>
      </trkpt>
      <trkpt lat="45.60076" lon="4.59846">
        <ele>589</ele>
        <time>2012-11-07T09:51:45Z</time>
      </trkpt>
      <trkpt lat="45.60077" lon="4.59853">
        <ele>589</ele>
        <time>2012-11-07T09:51:48Z</time>
      </trkpt>
      <trkpt lat="45.6008" lon="4.59865">
        <ele>584</ele>
        <time>2012-11-07T09:51:52Z</time>
      </trkpt>
      <trkpt lat="45.6008" lon="4.59868">
        <ele>583</ele>
        <time>2012-11-07T09:51:53Z</time>
      </trkpt>
      <trkpt lat="45.6008" lon="4.59871">
        <ele>583</ele>
        <time>2012-11-07T09:51:54Z</time>
      </trkpt>
      <trkpt lat="45.6008" lon="4.59873">
        <ele>583</ele>
        <time>2012-11-07T09:51:55Z</time>
      </trkpt>
      <trkpt lat="45.6008" lon="4.59876">
        <ele>582</ele>
        <time>2012-11-07T09:51:56Z</time>
      </trkpt>
      <trkpt lat="45.60082" lon="4.59888">
        <ele>581</ele>
        <time>2012-11-07T09:52:00Z</time>
      </trkpt>
      <trkpt lat="45.60083" lon="4.5989">
        <ele>581</ele>
        <time>2012-11-07T09:52:01Z</time>
      </trkpt>
      <trkpt lat="45.60083" lon="4.59895">
        <ele>579</ele>
        <time>2012-11-07T09:52:04Z</time>
      </trkpt>
      <trkpt lat="45.60082" lon="4.59899">
        <ele>579</ele>
        <time>2012-11-07T09:52:07Z</time>
      </trkpt>
      <trkpt lat="45.6008" lon="4.59903">
        <ele>579</ele>
        <time>2012-11-07T09:52:09Z</time>
      </trkpt>
      <trkpt lat="45.60079" lon="4.59906">
        <ele>579</ele>
        <time>2012-11-07T09:52:10Z</time>
      </trkpt>
      <trkpt lat="45.60075" lon="4.59917">
        <ele>577</ele>
        <time>2012-11-07T09:52:14Z</time>
      </trkpt>
      <trkpt lat="45.60074" lon="4.59919">
        <ele>578</ele>
        <time>2012-11-07T09:52:15Z</time>
      </trkpt>
      <trkpt lat="45.60072" lon="4.59922">
        <ele>578</ele>
        <time>2012-11-07T09:52:16Z</time>
      </trkpt>
      <trkpt lat="45.60068" lon="4.59932">
        <ele>578</ele>
        <time>2012-11-07T09:52:20Z</time>
      </trkpt>
      <trkpt lat="45.60067" lon="4.59935">
        <ele>577</ele>
        <time>2012-11-07T09:52:21Z</time>
      </trkpt>
      <trkpt lat="45.60067" lon="4.59938">
        <ele>578</ele>
        <time>2012-11-07T09:52:22Z</time>
      </trkpt>
      <trkpt lat="45.60066" lon="4.5994">
        <ele>578</ele>
        <time>2012-11-07T09:52:23Z</time>
      </trkpt>
      <trkpt lat="45.60065" lon="4.59949">
        <ele>578</ele>
        <time>2012-11-07T09:52:26Z</time>
      </trkpt>
      <trkpt lat="45.60064" lon="4.59952">
        <ele>578</ele>
        <time>2012-11-07T09:52:27Z</time>
      </trkpt>
      <trkpt lat="45.60063" lon="4.59954">
        <ele>576</ele>
        <time>2012-11-07T09:52:29Z</time>
      </trkpt>
      <trkpt lat="45.60062" lon="4.59959">
        <ele>576</ele>
        <time>2012-11-07T09:52:32Z</time>
      </trkpt>
      <trkpt lat="45.6006" lon="4.59964">
        <ele>575</ele>
        <time>2012-11-07T09:52:34Z</time>
      </trkpt>
      <trkpt lat="45.6006" lon="4.59966">
        <ele>575</ele>
        <time>2012-11-07T09:52:35Z</time>
      </trkpt>
      <trkpt lat="45.60058" lon="4.59969">
        <ele>574</ele>
        <time>2012-11-07T09:52:37Z</time>
      </trkpt>
      <trkpt lat="45.60055" lon="4.59973">
        <ele>574</ele>
        <time>2012-11-07T09:52:39Z</time>
      </trkpt>
      <trkpt lat="45.60053" lon="4.59976">
        <ele>573</ele>
        <time>2012-11-07T09:52:40Z</time>
      </trkpt>
      <trkpt lat="45.60052" lon="4.59979">
        <ele>574</ele>
        <time>2012-11-07T09:52:41Z</time>
      </trkpt>
      <trkpt lat="45.60048" lon="4.59987">
        <ele>573</ele>
        <time>2012-11-07T09:52:45Z</time>
      </trkpt>
      <trkpt lat="45.60046" lon="4.5999">
        <ele>573</ele>
        <time>2012-11-07T09:52:48Z</time>
      </trkpt>
      <trkpt lat="45.60044" lon="4.59993">
        <ele>574</ele>
        <time>2012-11-07T09:52:49Z</time>
      </trkpt>
      <trkpt lat="45.60043" lon="4.59997">
        <ele>574</ele>
        <time>2012-11-07T09:52:50Z</time>
      </trkpt>
      <trkpt lat="45.60041" lon="4.6">
        <ele>575</ele>
        <time>2012-11-07T09:52:51Z</time>
      </trkpt>
      <trkpt lat="45.60041" lon="4.60007">
        <ele>575</ele>
        <time>2012-11-07T09:52:53Z</time>
      </trkpt>
      <trkpt lat="45.60043" lon="4.60009">
        <ele>579</ele>
        <time>2012-11-07T09:52:56Z</time>
      </trkpt>
      <trkpt lat="45.60044" lon="4.60009">
        <ele>580</ele>
        <time>2012-11-07T09:53:01Z</time>
      </trkpt>
      <trkpt lat="45.60044" lon="4.60009">
        <ele>580</ele>
        <time>2012-11-07T09:53:47Z</time>
      </trkpt>
      <trkpt lat="45.60046" lon="4.59988">
        <ele>576</ele>
        <time>2012-11-07T09:53:49Z</time>
      </trkpt>
      <trkpt lat="45.60045" lon="4.59987">
        <ele>575</ele>
        <time>2012-11-07T09:53:52Z</time>
      </trkpt>
      <trkpt lat="45.60045" lon="4.59987">
        <ele>575</ele>
        <time>2012-11-07T09:54:25Z</time>
      </trkpt>
      <trkpt lat="45.60048" lon="4.6">
        <ele>573</ele>
        <time>2012-11-07T09:54:27Z</time>
      </trkpt>
      <trkpt lat="45.60047" lon="4.60002">
        <ele>573</ele>
        <time>2012-11-07T09:54:28Z</time>
      </trkpt>
      <trkpt lat="45.60046" lon="4.60004">
        <ele>573</ele>
        <time>2012-11-07T09:54:29Z</time>
      </trkpt>
      <trkpt lat="45.60045" lon="4.60007">
        <ele>572</ele>
        <time>2012-11-07T09:54:30Z</time>
      </trkpt>
      <trkpt lat="45.60044" lon="4.60009">
        <ele>572</ele>
        <time>2012-11-07T09:54:31Z</time>
      </trkpt>
      <trkpt lat="45.60043" lon="4.60011">
        <ele>571</ele>
        <time>2012-11-07T09:54:32Z</time>
      </trkpt>
      <trkpt lat="45.60042" lon="4.60014">
        <ele>572</ele>
        <time>2012-11-07T09:54:33Z</time>
      </trkpt>
      <trkpt lat="45.6004" lon="4.60016">
        <ele>570</ele>
        <time>2012-11-07T09:54:34Z</time>
      </trkpt>
      <trkpt lat="45.60036" lon="4.60021">
        <ele>571</ele>
        <time>2012-11-07T09:54:37Z</time>
      </trkpt>
      <trkpt lat="45.60035" lon="4.60023">
        <ele>570</ele>
        <time>2012-11-07T09:54:38Z</time>
      </trkpt>
      <trkpt lat="45.60034" lon="4.60025">
        <ele>571</ele>
        <time>2012-11-07T09:54:39Z</time>
      </trkpt>
      <trkpt lat="45.60033" lon="4.60028">
        <ele>571</ele>
        <time>2012-11-07T09:54:40Z</time>
      </trkpt>
      <trkpt lat="45.60032" lon="4.6003">
        <ele>571</ele>
        <time>2012-11-07T09:54:41Z</time>
      </trkpt>
      <trkpt lat="45.60031" lon="4.60033">
        <ele>572</ele>
        <time>2012-11-07T09:54:42Z</time>
      </trkpt>
      <trkpt lat="45.6003" lon="4.60036">
        <ele>572</ele>
        <time>2012-11-07T09:54:43Z</time>
      </trkpt>
      <trkpt lat="45.6003" lon="4.60039">
        <ele>572</ele>
        <time>2012-11-07T09:54:44Z</time>
      </trkpt>
      <trkpt lat="45.6003" lon="4.60043">
        <ele>573</ele>
        <time>2012-11-07T09:54:45Z</time>
      </trkpt>
      <trkpt lat="45.6003" lon="4.60046">
        <ele>573</ele>
        <time>2012-11-07T09:54:46Z</time>
      </trkpt>
      <trkpt lat="45.6003" lon="4.6005">
        <ele>572</ele>
        <time>2012-11-07T09:54:47Z</time>
      </trkpt>
      <trkpt lat="45.6003" lon="4.60053">
        <ele>572</ele>
        <time>2012-11-07T09:54:48Z</time>
      </trkpt>
      <trkpt lat="45.6003" lon="4.60056">
        <ele>572</ele>
        <time>2012-11-07T09:54:49Z</time>
      </trkpt>
      <trkpt lat="45.6003" lon="4.60059">
        <ele>573</ele>
        <time>2012-11-07T09:54:50Z</time>
      </trkpt>
      <trkpt lat="45.6003" lon="4.60063">
        <ele>571</ele>
        <time>2012-11-07T09:54:52Z</time>
      </trkpt>
      <trkpt lat="45.60031" lon="4.60066">
        <ele>571</ele>
        <time>2012-11-07T09:54:54Z</time>
      </trkpt>
      <trkpt lat="45.60032" lon="4.60069">
        <ele>573</ele>
        <time>2012-11-07T09:54:56Z</time>
      </trkpt>
      <trkpt lat="45.60033" lon="4.60072">
        <ele>572</ele>
        <time>2012-11-07T09:54:59Z</time>
      </trkpt>
      <trkpt lat="45.60035" lon="4.60074">
        <ele>569</ele>
        <time>2012-11-07T09:55:02Z</time>
      </trkpt>
      <trkpt lat="45.60037" lon="4.60077">
        <ele>570</ele>
        <time>2012-11-07T09:55:04Z</time>
      </trkpt>
      <trkpt lat="45.60039" lon="4.60084">
        <ele>571</ele>
        <time>2012-11-07T09:55:07Z</time>
      </trkpt>
      <trkpt lat="45.60039" lon="4.60087">
        <ele>573</ele>
        <time>2012-11-07T09:55:08Z</time>
      </trkpt>
      <trkpt lat="45.6004" lon="4.60091">
        <ele>572</ele>
        <time>2012-11-07T09:55:09Z</time>
      </trkpt>
      <trkpt lat="45.60041" lon="4.60095">
        <ele>571</ele>
        <time>2012-11-07T09:55:10Z</time>
      </trkpt>
      <trkpt lat="45.60045" lon="4.60107">
        <ele>571</ele>
        <time>2012-11-07T09:55:14Z</time>
      </trkpt>
      <trkpt lat="45.60045" lon="4.60109">
        <ele>571</ele>
        <time>2012-11-07T09:55:15Z</time>
      </trkpt>
      <trkpt lat="45.60046" lon="4.60114">
        <ele>571</ele>
        <time>2012-11-07T09:55:17Z</time>
      </trkpt>
      <trkpt lat="45.60047" lon="4.60118">
        <ele>572</ele>
        <time>2012-11-07T09:55:19Z</time>
      </trkpt>
      <trkpt lat="45.60048" lon="4.60123">
        <ele>572</ele>
        <time>2012-11-07T09:55:21Z</time>
      </trkpt>
      <trkpt lat="45.60049" lon="4.60128">
        <ele>572</ele>
        <time>2012-11-07T09:55:23Z</time>
      </trkpt>
      <trkpt lat="45.60049" lon="4.60131">
        <ele>572</ele>
        <time>2012-11-07T09:55:24Z</time>
      </trkpt>
      <trkpt lat="45.60049" lon="4.60135">
        <ele>571</ele>
        <time>2012-11-07T09:55:25Z</time>
      </trkpt>
      <trkpt lat="45.60048" lon="4.60138">
        <ele>571</ele>
        <time>2012-11-07T09:55:26Z</time>
      </trkpt>
      <trkpt lat="45.60047" lon="4.60142">
        <ele>570</ele>
        <time>2012-11-07T09:55:27Z</time>
      </trkpt>
      <trkpt lat="45.60046" lon="4.60145">
        <ele>568</ele>
        <time>2012-11-07T09:55:28Z</time>
      </trkpt>
      <trkpt lat="45.60045" lon="4.60151">
        <ele>567</ele>
        <time>2012-11-07T09:55:30Z</time>
      </trkpt>
      <trkpt lat="45.60045" lon="4.60155">
        <ele>565</ele>
        <time>2012-11-07T09:55:33Z</time>
      </trkpt>
      <trkpt lat="45.60047" lon="4.60157">
        <ele>565</ele>
        <time>2012-11-07T09:55:36Z</time>
      </trkpt>
      <trkpt lat="45.60046" lon="4.60161">
        <ele>564</ele>
        <time>2012-11-07T09:55:38Z</time>
      </trkpt>
      <trkpt lat="45.60046" lon="4.60163">
        <ele>565</ele>
        <time>2012-11-07T09:55:39Z</time>
      </trkpt>
      <trkpt lat="45.60044" lon="4.60167">
        <ele>564</ele>
        <time>2012-11-07T09:55:41Z</time>
      </trkpt>
      <trkpt lat="45.60045" lon="4.6017">
        <ele>564</ele>
        <time>2012-11-07T09:55:43Z</time>
      </trkpt>
      <trkpt lat="45.60046" lon="4.60174">
        <ele>565</ele>
        <time>2012-11-07T09:55:45Z</time>
      </trkpt>
      <trkpt lat="45.60047" lon="4.60179">
        <ele>564</ele>
        <time>2012-11-07T09:55:47Z</time>
      </trkpt>
      <trkpt lat="45.6005" lon="4.60186">
        <ele>564</ele>
        <time>2012-11-07T09:55:50Z</time>
      </trkpt>
      <trkpt lat="45.6005" lon="4.60189">
        <ele>564</ele>
        <time>2012-11-07T09:55:51Z</time>
      </trkpt>
      <trkpt lat="45.6005" lon="4.60195">
        <ele>564</ele>
        <time>2012-11-07T09:55:53Z</time>
      </trkpt>
      <trkpt lat="45.6005" lon="4.60198">
        <ele>565</ele>
        <time>2012-11-07T09:55:54Z</time>
      </trkpt>
      <trkpt lat="45.6005" lon="4.60202">
        <ele>565</ele>
        <time>2012-11-07T09:55:55Z</time>
      </trkpt>
      <trkpt lat="45.60049" lon="4.60205">
        <ele>565</ele>
        <time>2012-11-07T09:55:56Z</time>
      </trkpt>
      <trkpt lat="45.60049" lon="4.60207">
        <ele>564</ele>
        <time>2012-11-07T09:55:57Z</time>
      </trkpt>
      <trkpt lat="45.60048" lon="4.6021">
        <ele>564</ele>
        <time>2012-11-07T09:55:58Z</time>
      </trkpt>
      <trkpt lat="45.60047" lon="4.60217">
        <ele>563</ele>
        <time>2012-11-07T09:56:01Z</time>
      </trkpt>
      <trkpt lat="45.60047" lon="4.6022">
        <ele>563</ele>
        <time>2012-11-07T09:56:03Z</time>
      </trkpt>
      <trkpt lat="45.60047" lon="4.60224">
        <ele>563</ele>
        <time>2012-11-07T09:56:05Z</time>
      </trkpt>
      <trkpt lat="45.60048" lon="4.60227">
        <ele>563</ele>
        <time>2012-11-07T09:56:07Z</time>
      </trkpt>
      <trkpt lat="45.60052" lon="4.60239">
        <ele>564</ele>
        <time>2012-11-07T09:56:13Z</time>
      </trkpt>
      <trkpt lat="45.60053" lon="4.60243">
        <ele>564</ele>
        <time>2012-11-07T09:56:16Z</time>
      </trkpt>
      <trkpt lat="45.60055" lon="4.60247">
        <ele>563</ele>
        <time>2012-11-07T09:56:19Z</time>
      </trkpt>
      <trkpt lat="45.60056" lon="4.60251">
        <ele>563</ele>
        <time>2012-11-07T09:56:21Z</time>
      </trkpt>
      <trkpt lat="45.60059" lon="4.60261">
        <ele>562</ele>
        <time>2012-11-07T09:56:26Z</time>
      </trkpt>
      <trkpt lat="45.60061" lon="4.60265">
        <ele>560</ele>
        <time>2012-11-07T09:56:28Z</time>
      </trkpt>
      <trkpt lat="45.60063" lon="4.6027">
        <ele>560</ele>
        <time>2012-11-07T09:56:31Z</time>
      </trkpt>
      <trkpt lat="45.60063" lon="4.60275">
        <ele>560</ele>
        <time>2012-11-07T09:56:33Z</time>
      </trkpt>
      <trkpt lat="45.60064" lon="4.60279">
        <ele>560</ele>
        <time>2012-11-07T09:56:34Z</time>
      </trkpt>
      <trkpt lat="45.60064" lon="4.60282">
        <ele>560</ele>
        <time>2012-11-07T09:56:35Z</time>
      </trkpt>
      <trkpt lat="45.60065" lon="4.60285">
        <ele>560</ele>
        <time>2012-11-07T09:56:36Z</time>
      </trkpt>
      <trkpt lat="45.60065" lon="4.60288">
        <ele>560</ele>
        <time>2012-11-07T09:56:37Z</time>
      </trkpt>
      <trkpt lat="45.60066" lon="4.60291">
        <ele>560</ele>
        <time>2012-11-07T09:56:38Z</time>
      </trkpt>
      <trkpt lat="45.60067" lon="4.60294">
        <ele>560</ele>
        <time>2012-11-07T09:56:39Z</time>
      </trkpt>
      <trkpt lat="45.60068" lon="4.60297">
        <ele>561</ele>
        <time>2012-11-07T09:56:40Z</time>
      </trkpt>
      <trkpt lat="45.60069" lon="4.603">
        <ele>560</ele>
        <time>2012-11-07T09:56:41Z</time>
      </trkpt>
      <trkpt lat="45.60069" lon="4.60303">
        <ele>560</ele>
        <time>2012-11-07T09:56:42Z</time>
      </trkpt>
      <trkpt lat="45.6007" lon="4.60306">
        <ele>560</ele>
        <time>2012-11-07T09:56:43Z</time>
      </trkpt>
      <trkpt lat="45.6007" lon="4.60309">
        <ele>559</ele>
        <time>2012-11-07T09:56:44Z</time>
      </trkpt>
      <trkpt lat="45.60071" lon="4.60314">
        <ele>558</ele>
        <time>2012-11-07T09:56:46Z</time>
      </trkpt>
      <trkpt lat="45.6007" lon="4.60318">
        <ele>559</ele>
        <time>2012-11-07T09:56:47Z</time>
      </trkpt>
      <trkpt lat="45.60069" lon="4.60321">
        <ele>558</ele>
        <time>2012-11-07T09:56:48Z</time>
      </trkpt>
      <trkpt lat="45.60069" lon="4.60323">
        <ele>557</ele>
        <time>2012-11-07T09:56:49Z</time>
      </trkpt>
      <trkpt lat="45.60067" lon="4.60328">
        <ele>556</ele>
        <time>2012-11-07T09:56:51Z</time>
      </trkpt>
      <trkpt lat="45.60067" lon="4.60336">
        <ele>554</ele>
        <time>2012-11-07T09:56:54Z</time>
      </trkpt>
      <trkpt lat="45.60067" lon="4.6034">
        <ele>554</ele>
        <time>2012-11-07T09:56:55Z</time>
      </trkpt>
      <trkpt lat="45.60067" lon="4.60348">
        <ele>553</ele>
        <time>2012-11-07T09:56:57Z</time>
      </trkpt>
      <trkpt lat="45.60068" lon="4.60353">
        <ele>551</ele>
        <time>2012-11-07T09:56:58Z</time>
      </trkpt>
      <trkpt lat="45.60069" lon="4.60356">
        <ele>551</ele>
        <time>2012-11-07T09:56:59Z</time>
      </trkpt>
      <trkpt lat="45.60069" lon="4.6036">
        <ele>549</ele>
        <time>2012-11-07T09:57:01Z</time>
      </trkpt>
      <trkpt lat="45.6007" lon="4.60363">
        <ele>547</ele>
        <time>2012-11-07T09:57:04Z</time>
      </trkpt>
      <trkpt lat="45.60072" lon="4.60365">
        <ele>547</ele>
        <time>2012-11-07T09:57:06Z</time>
      </trkpt>
      <trkpt lat="45.60073" lon="4.60368">
        <ele>547</ele>
        <time>2012-11-07T09:57:08Z</time>
      </trkpt>
      <trkpt lat="45.60073" lon="4.60372">
        <ele>546</ele>
        <time>2012-11-07T09:57:10Z</time>
      </trkpt>
      <trkpt lat="45.60073" lon="4.60376">
        <ele>546</ele>
        <time>2012-11-07T09:57:12Z</time>
      </trkpt>
      <trkpt lat="45.60073" lon="4.60379">
        <ele>546</ele>
        <time>2012-11-07T09:57:13Z</time>
      </trkpt>
      <trkpt lat="45.60072" lon="4.60381">
        <ele>546</ele>
        <time>2012-11-07T09:57:14Z</time>
      </trkpt>
      <trkpt lat="45.60072" lon="4.60384">
        <ele>546</ele>
        <time>2012-11-07T09:57:15Z</time>
      </trkpt>
      <trkpt lat="45.60072" lon="4.60393">
        <ele>547</ele>
        <time>2012-11-07T09:57:18Z</time>
      </trkpt>
      <trkpt lat="45.60072" lon="4.60399">
        <ele>546</ele>
        <time>2012-11-07T09:57:21Z</time>
      </trkpt>
      <trkpt lat="45.60071" lon="4.60404">
        <ele>547</ele>
        <time>2012-11-07T09:57:23Z</time>
      </trkpt>
      <trkpt lat="45.60069" lon="4.60406">
        <ele>548</ele>
        <time>2012-11-07T09:57:24Z</time>
      </trkpt>
      <trkpt lat="45.60068" lon="4.60409">
        <ele>548</ele>
        <time>2012-11-07T09:57:25Z</time>
      </trkpt>
      <trkpt lat="45.60068" lon="4.60412">
        <ele>547</ele>
        <time>2012-11-07T09:57:26Z</time>
      </trkpt>
      <trkpt lat="45.60068" lon="4.60415">
        <ele>547</ele>
        <time>2012-11-07T09:57:27Z</time>
      </trkpt>
      <trkpt lat="45.60068" lon="4.60417">
        <ele>546</ele>
        <time>2012-11-07T09:57:28Z</time>
      </trkpt>
      <trkpt lat="45.60068" lon="4.60423">
        <ele>546</ele>
        <time>2012-11-07T09:57:30Z</time>
      </trkpt>
      <trkpt lat="45.60069" lon="4.60426">
        <ele>545</ele>
        <time>2012-11-07T09:57:31Z</time>
      </trkpt>
      <trkpt lat="45.60068" lon="4.60429">
        <ele>546</ele>
        <time>2012-11-07T09:57:32Z</time>
      </trkpt>
      <trkpt lat="45.60066" lon="4.60433">
        <ele>546</ele>
        <time>2012-11-07T09:57:33Z</time>
      </trkpt>
      <trkpt lat="45.60065" lon="4.60435">
        <ele>546</ele>
        <time>2012-11-07T09:57:34Z</time>
      </trkpt>
      <trkpt lat="45.60064" lon="4.60439">
        <ele>545</ele>
        <time>2012-11-07T09:57:36Z</time>
      </trkpt>
      <trkpt lat="45.60063" lon="4.60442">
        <ele>543</ele>
        <time>2012-11-07T09:57:39Z</time>
      </trkpt>
      <trkpt lat="45.60062" lon="4.60451">
        <ele>543</ele>
        <time>2012-11-07T09:57:43Z</time>
      </trkpt>
      <trkpt lat="45.60062" lon="4.60455">
        <ele>541</ele>
        <time>2012-11-07T09:57:45Z</time>
      </trkpt>
      <trkpt lat="45.60061" lon="4.60458">
        <ele>541</ele>
        <time>2012-11-07T09:57:46Z</time>
      </trkpt>
      <trkpt lat="45.6006" lon="4.6046">
        <ele>541</ele>
        <time>2012-11-07T09:57:47Z</time>
      </trkpt>
      <trkpt lat="45.60059" lon="4.60465">
        <ele>540</ele>
        <time>2012-11-07T09:57:49Z</time>
      </trkpt>
      <trkpt lat="45.60058" lon="4.60469">
        <ele>541</ele>
        <time>2012-11-07T09:57:51Z</time>
      </trkpt>
      <trkpt lat="45.60057" lon="4.60472">
        <ele>541</ele>
        <time>2012-11-07T09:57:52Z</time>
      </trkpt>
      <trkpt lat="45.60056" lon="4.60475">
        <ele>541</ele>
        <time>2012-11-07T09:57:53Z</time>
      </trkpt>
      <trkpt lat="45.60056" lon="4.60477">
        <ele>540</ele>
        <time>2012-11-07T09:57:54Z</time>
      </trkpt>
      <trkpt lat="45.60054" lon="4.60484">
        <ele>540</ele>
        <time>2012-11-07T09:57:57Z</time>
      </trkpt>
      <trkpt lat="45.60052" lon="4.60488">
        <ele>539</ele>
        <time>2012-11-07T09:57:59Z</time>
      </trkpt>
      <trkpt lat="45.60051" lon="4.60491">
        <ele>540</ele>
        <time>2012-11-07T09:58:00Z</time>
      </trkpt>
      <trkpt lat="45.6005" lon="4.60493">
        <ele>540</ele>
        <time>2012-11-07T09:58:01Z</time>
      </trkpt>
      <trkpt lat="45.60046" lon="4.605">
        <ele>539</ele>
        <time>2012-11-07T09:58:04Z</time>
      </trkpt>
      <trkpt lat="45.60045" lon="4.60502">
        <ele>538</ele>
        <time>2012-11-07T09:58:05Z</time>
      </trkpt>
      <trkpt lat="45.60043" lon="4.60505">
        <ele>538</ele>
        <time>2012-11-07T09:58:06Z</time>
      </trkpt>
      <trkpt lat="45.60042" lon="4.60507">
        <ele>538</ele>
        <time>2012-11-07T09:58:07Z</time>
      </trkpt>
      <trkpt lat="45.60039" lon="4.60509">
        <ele>539</ele>
        <time>2012-11-07T09:58:09Z</time>
      </trkpt>
      <trkpt lat="45.60037" lon="4.6051">
        <ele>539</ele>
        <time>2012-11-07T09:58:11Z</time>
      </trkpt>
      <trkpt lat="45.60034" lon="4.60514">
        <ele>536</ele>
        <time>2012-11-07T09:58:15Z</time>
      </trkpt>
      <trkpt lat="45.60034" lon="4.60517">
        <ele>536</ele>
        <time>2012-11-07T09:58:16Z</time>
      </trkpt>
      <trkpt lat="45.60033" lon="4.6052">
        <ele>536</ele>
        <time>2012-11-07T09:58:17Z</time>
      </trkpt>
      <trkpt lat="45.60032" lon="4.60523">
        <ele>536</ele>
        <time>2012-11-07T09:58:19Z</time>
      </trkpt>
      <trkpt lat="45.6003" lon="4.60526">
        <ele>535</ele>
        <time>2012-11-07T09:58:21Z</time>
      </trkpt>
      <trkpt lat="45.60028" lon="4.60528">
        <ele>535</ele>
        <time>2012-11-07T09:58:22Z</time>
      </trkpt>
      <trkpt lat="45.60027" lon="4.6053">
        <ele>535</ele>
        <time>2012-11-07T09:58:23Z</time>
      </trkpt>
      <trkpt lat="45.60018" lon="4.60546">
        <ele>537</ele>
        <time>2012-11-07T09:58:31Z</time>
      </trkpt>
      <trkpt lat="45.60017" lon="4.60549">
        <ele>537</ele>
        <time>2012-11-07T09:58:32Z</time>
      </trkpt>
      <trkpt lat="45.60015" lon="4.60553">
        <ele>536</ele>
        <time>2012-11-07T09:58:34Z</time>
      </trkpt>
      <trkpt lat="45.60014" lon="4.60557">
        <ele>537</ele>
        <time>2012-11-07T09:58:36Z</time>
      </trkpt>
      <trkpt lat="45.60013" lon="4.60559">
        <ele>537</ele>
        <time>2012-11-07T09:58:37Z</time>
      </trkpt>
      <trkpt lat="45.60012" lon="4.60562">
        <ele>537</ele>
        <time>2012-11-07T09:58:38Z</time>
      </trkpt>
      <trkpt lat="45.60011" lon="4.60564">
        <ele>537</ele>
        <time>2012-11-07T09:58:39Z</time>
      </trkpt>
      <trkpt lat="45.6001" lon="4.60567">
        <ele>537</ele>
        <time>2012-11-07T09:58:40Z</time>
      </trkpt>
      <trkpt lat="45.60009" lon="4.60569">
        <ele>537</ele>
        <time>2012-11-07T09:58:41Z</time>
      </trkpt>
      <trkpt lat="45.60008" lon="4.60573">
        <ele>537</ele>
        <time>2012-11-07T09:58:43Z</time>
      </trkpt>
      <trkpt lat="45.60008" lon="4.60578">
        <ele>536</ele>
        <time>2012-11-07T09:58:45Z</time>
      </trkpt>
      <trkpt lat="45.60006" lon="4.60583">
        <ele>535</ele>
        <time>2012-11-07T09:58:47Z</time>
      </trkpt>
      <trkpt lat="45.60005" lon="4.6059">
        <ele>537</ele>
        <time>2012-11-07T09:58:50Z</time>
      </trkpt>
      <trkpt lat="45.60005" lon="4.60594">
        <ele>537</ele>
        <time>2012-11-07T09:58:52Z</time>
      </trkpt>
      <trkpt lat="45.60004" lon="4.60598">
        <ele>536</ele>
        <time>2012-11-07T09:58:54Z</time>
      </trkpt>
      <trkpt lat="45.60003" lon="4.60602">
        <ele>536</ele>
        <time>2012-11-07T09:58:56Z</time>
      </trkpt>
      <trkpt lat="45.60002" lon="4.60606">
        <ele>536</ele>
        <time>2012-11-07T09:58:58Z</time>
      </trkpt>
      <trkpt lat="45.60002" lon="4.60615">
        <ele>536</ele>
        <time>2012-11-07T09:59:03Z</time>
      </trkpt>
      <trkpt lat="45.60001" lon="4.60619">
        <ele>535</ele>
        <time>2012-11-07T09:59:05Z</time>
      </trkpt>
      <trkpt lat="45.60001" lon="4.60626">
        <ele>535</ele>
        <time>2012-11-07T09:59:08Z</time>
      </trkpt>
      <trkpt lat="45.6" lon="4.6063">
        <ele>534</ele>
        <time>2012-11-07T09:59:10Z</time>
      </trkpt>
      <trkpt lat="45.6" lon="4.60633">
        <ele>532</ele>
        <time>2012-11-07T09:59:12Z</time>
      </trkpt>
      <trkpt lat="45.6" lon="4.60636">
        <ele>530</ele>
        <time>2012-11-07T09:59:14Z</time>
      </trkpt>
      <trkpt lat="45.6" lon="4.6064">
        <ele>530</ele>
        <time>2012-11-07T09:59:16Z</time>
      </trkpt>
      <trkpt lat="45.6" lon="4.60661">
        <ele>529</ele>
        <time>2012-11-07T09:59:26Z</time>
      </trkpt>
      <trkpt lat="45.60002" lon="4.60664">
        <ele>531</ele>
        <time>2012-11-07T09:59:28Z</time>
      </trkpt>
      <trkpt lat="45.60004" lon="4.60667">
        <ele>532</ele>
        <time>2012-11-07T09:59:30Z</time>
      </trkpt>
      <trkpt lat="45.60007" lon="4.60668">
        <ele>533</ele>
        <time>2012-11-07T09:59:32Z</time>
      </trkpt>
      <trkpt lat="45.60012" lon="4.60666">
        <ele>533</ele>
        <time>2012-11-07T09:59:34Z</time>
      </trkpt>
      <trkpt lat="45.60016" lon="4.60664">
        <ele>533</ele>
        <time>2012-11-07T09:59:36Z</time>
      </trkpt>
      <trkpt lat="45.60019" lon="4.60663">
        <ele>534</ele>
        <time>2012-11-07T09:59:38Z</time>
      </trkpt>
      <trkpt lat="45.60023" lon="4.60663">
        <ele>534</ele>
        <time>2012-11-07T09:59:40Z</time>
      </trkpt>
      <trkpt lat="45.60025" lon="4.60662">
        <ele>534</ele>
        <time>2012-11-07T09:59:41Z</time>
      </trkpt>
      <trkpt lat="45.60027" lon="4.60662">
        <ele>534</ele>
        <time>2012-11-07T09:59:42Z</time>
      </trkpt>
      <trkpt lat="45.60029" lon="4.60662">
        <ele>534</ele>
        <time>2012-11-07T09:59:43Z</time>
      </trkpt>
      <trkpt lat="45.60036" lon="4.60663">
        <ele>534</ele>
        <time>2012-11-07T09:59:48Z</time>
      </trkpt>
      <trkpt lat="45.60039" lon="4.60664">
        <ele>533</ele>
        <time>2012-11-07T09:59:50Z</time>
      </trkpt>
      <trkpt lat="45.60044" lon="4.60665">
        <ele>531</ele>
        <time>2012-11-07T09:59:53Z</time>
      </trkpt>
      <trkpt lat="45.60048" lon="4.60666">
        <ele>531</ele>
        <time>2012-11-07T09:59:56Z</time>
      </trkpt>
      <trkpt lat="45.60052" lon="4.60668">
        <ele>531</ele>
        <time>2012-11-07T09:59:58Z</time>
      </trkpt>
      <trkpt lat="45.60059" lon="4.6067">
        <ele>529</ele>
        <time>2012-11-07T10:00:02Z</time>
      </trkpt>
      <trkpt lat="45.60063" lon="4.6067">
        <ele>527</ele>
        <time>2012-11-07T10:00:04Z</time>
      </trkpt>
      <trkpt lat="45.60067" lon="4.6067">
        <ele>527</ele>
        <time>2012-11-07T10:00:06Z</time>
      </trkpt>
      <trkpt lat="45.60073" lon="4.60673">
        <ele>527</ele>
        <time>2012-11-07T10:00:10Z</time>
      </trkpt>
      <trkpt lat="45.60077" lon="4.60674">
        <ele>527</ele>
        <time>2012-11-07T10:00:13Z</time>
      </trkpt>
      <trkpt lat="45.60079" lon="4.60676">
        <ele>527</ele>
        <time>2012-11-07T10:00:15Z</time>
      </trkpt>
      <trkpt lat="45.60081" lon="4.60679">
        <ele>526</ele>
        <time>2012-11-07T10:00:17Z</time>
      </trkpt>
      <trkpt lat="45.60082" lon="4.60683">
        <ele>526</ele>
        <time>2012-11-07T10:00:19Z</time>
      </trkpt>
      <trkpt lat="45.60083" lon="4.60686">
        <ele>527</ele>
        <time>2012-11-07T10:00:21Z</time>
      </trkpt>
      <trkpt lat="45.60085" lon="4.60691">
        <ele>527</ele>
        <time>2012-11-07T10:00:24Z</time>
      </trkpt>
      <trkpt lat="45.60087" lon="4.60695">
        <ele>527</ele>
        <time>2012-11-07T10:00:26Z</time>
      </trkpt>
      <trkpt lat="45.60088" lon="4.60698">
        <ele>528</ele>
        <time>2012-11-07T10:00:28Z</time>
      </trkpt>
      <trkpt lat="45.60089" lon="4.60702">
        <ele>527</ele>
        <time>2012-11-07T10:00:30Z</time>
      </trkpt>
      <trkpt lat="45.6009" lon="4.60705">
        <ele>527</ele>
        <time>2012-11-07T10:00:32Z</time>
      </trkpt>
      <trkpt lat="45.60092" lon="4.60708">
        <ele>527</ele>
        <time>2012-11-07T10:00:34Z</time>
      </trkpt>
      <trkpt lat="45.60097" lon="4.60714">
        <ele>527</ele>
        <time>2012-11-07T10:00:38Z</time>
      </trkpt>
      <trkpt lat="45.60099" lon="4.60716">
        <ele>527</ele>
        <time>2012-11-07T10:00:39Z</time>
      </trkpt>
      <trkpt lat="45.601" lon="4.60718">
        <ele>527</ele>
        <time>2012-11-07T10:00:40Z</time>
      </trkpt>
      <trkpt lat="45.60102" lon="4.6072">
        <ele>527</ele>
        <time>2012-11-07T10:00:41Z</time>
      </trkpt>
      <trkpt lat="45.60105" lon="4.60724">
        <ele>527</ele>
        <time>2012-11-07T10:00:43Z</time>
      </trkpt>
      <trkpt lat="45.60111" lon="4.60731">
        <ele>528</ele>
        <time>2012-11-07T10:00:47Z</time>
      </trkpt>
      <trkpt lat="45.60111" lon="4.60733">
        <ele>528</ele>
        <time>2012-11-07T10:00:48Z</time>
      </trkpt>
      <trkpt lat="45.60112" lon="4.60736">
        <ele>526</ele>
        <time>2012-11-07T10:00:49Z</time>
      </trkpt>
      <trkpt lat="45.60112" lon="4.60738">
        <ele>526</ele>
        <time>2012-11-07T10:00:50Z</time>
      </trkpt>
      <trkpt lat="45.60113" lon="4.60741">
        <ele>525</ele>
        <time>2012-11-07T10:00:51Z</time>
      </trkpt>
      <trkpt lat="45.60114" lon="4.60745">
        <ele>524</ele>
        <time>2012-11-07T10:00:53Z</time>
      </trkpt>
      <trkpt lat="45.60115" lon="4.6075">
        <ele>522</ele>
        <time>2012-11-07T10:00:55Z</time>
      </trkpt>
      <trkpt lat="45.60116" lon="4.60754">
        <ele>522</ele>
        <time>2012-11-07T10:00:57Z</time>
      </trkpt>
      <trkpt lat="45.60117" lon="4.60758">
        <ele>521</ele>
        <time>2012-11-07T10:00:59Z</time>
      </trkpt>
      <trkpt lat="45.60118" lon="4.60762">
        <ele>522</ele>
        <time>2012-11-07T10:01:01Z</time>
      </trkpt>
      <trkpt lat="45.60119" lon="4.60764">
        <ele>522</ele>
        <time>2012-11-07T10:01:02Z</time>
      </trkpt>
      <trkpt lat="45.60122" lon="4.60776">
        <ele>523</ele>
        <time>2012-11-07T10:01:07Z</time>
      </trkpt>
      <trkpt lat="45.60123" lon="4.6078">
        <ele>522</ele>
        <time>2012-11-07T10:01:09Z</time>
      </trkpt>
      <trkpt lat="45.60125" lon="4.60784">
        <ele>523</ele>
        <time>2012-11-07T10:01:11Z</time>
      </trkpt>
      <trkpt lat="45.60126" lon="4.60786">
        <ele>523</ele>
        <time>2012-11-07T10:01:12Z</time>
      </trkpt>
      <trkpt lat="45.6013" lon="4.60792">
        <ele>522</ele>
        <time>2012-11-07T10:01:15Z</time>
      </trkpt>
      <trkpt lat="45.60131" lon="4.60795">
        <ele>522</ele>
        <time>2012-11-07T10:01:16Z</time>
      </trkpt>
      <trkpt lat="45.60131" lon="4.60797">
        <ele>522</ele>
        <time>2012-11-07T10:01:17Z</time>
      </trkpt>
      <trkpt lat="45.60131" lon="4.60802">
        <ele>521</ele>
        <time>2012-11-07T10:01:19Z</time>
      </trkpt>
      <trkpt lat="45.60131" lon="4.60807">
        <ele>521</ele>
        <time>2012-11-07T10:01:21Z</time>
      </trkpt>
      <trkpt lat="45.60132" lon="4.60812">
        <ele>521</ele>
        <time>2012-11-07T10:01:23Z</time>
      </trkpt>
      <trkpt lat="45.60132" lon="4.60816">
        <ele>521</ele>
        <time>2012-11-07T10:01:25Z</time>
      </trkpt>
      <trkpt lat="45.60133" lon="4.60819">
        <ele>520</ele>
        <time>2012-11-07T10:01:26Z</time>
      </trkpt>
      <trkpt lat="45.60135" lon="4.60828">
        <ele>518</ele>
        <time>2012-11-07T10:01:30Z</time>
      </trkpt>
      <trkpt lat="45.60136" lon="4.60836">
        <ele>518</ele>
        <time>2012-11-07T10:01:34Z</time>
      </trkpt>
      <trkpt lat="45.60137" lon="4.6084">
        <ele>518</ele>
        <time>2012-11-07T10:01:36Z</time>
      </trkpt>
      <trkpt lat="45.60138" lon="4.60848">
        <ele>518</ele>
        <time>2012-11-07T10:01:40Z</time>
      </trkpt>
      <trkpt lat="45.60139" lon="4.60851">
        <ele>518</ele>
        <time>2012-11-07T10:01:42Z</time>
      </trkpt>
      <trkpt lat="45.6014" lon="4.60854">
        <ele>519</ele>
        <time>2012-11-07T10:01:44Z</time>
      </trkpt>
      <trkpt lat="45.6014" lon="4.60857">
        <ele>518</ele>
        <time>2012-11-07T10:01:47Z</time>
      </trkpt>
      <trkpt lat="45.60141" lon="4.60859">
        <ele>518</ele>
        <time>2012-11-07T10:01:49Z</time>
      </trkpt>
      <trkpt lat="45.60143" lon="4.60863">
        <ele>518</ele>
        <time>2012-11-07T10:01:51Z</time>
      </trkpt>
      <trkpt lat="45.60144" lon="4.60865">
        <ele>517</ele>
        <time>2012-11-07T10:01:52Z</time>
      </trkpt>
      <trkpt lat="45.60149" lon="4.60871">
        <ele>518</ele>
        <time>2012-11-07T10:01:55Z</time>
      </trkpt>
      <trkpt lat="45.60151" lon="4.60874">
        <ele>518</ele>
        <time>2012-11-07T10:01:56Z</time>
      </trkpt>
      <trkpt lat="45.60151" lon="4.60877">
        <ele>519</ele>
        <time>2012-11-07T10:01:57Z</time>
      </trkpt>
      <trkpt lat="45.60152" lon="4.6088">
        <ele>519</ele>
        <time>2012-11-07T10:01:58Z</time>
      </trkpt>
      <trkpt lat="45.60153" lon="4.60885">
        <ele>519</ele>
        <time>2012-11-07T10:02:00Z</time>
      </trkpt>
      <trkpt lat="45.60155" lon="4.60888">
        <ele>520</ele>
        <time>2012-11-07T10:02:01Z</time>
      </trkpt>
      <trkpt lat="45.60156" lon="4.60891">
        <ele>520</ele>
        <time>2012-11-07T10:02:02Z</time>
      </trkpt>
      <trkpt lat="45.60158" lon="4.60894">
        <ele>519</ele>
        <time>2012-11-07T10:02:03Z</time>
      </trkpt>
      <trkpt lat="45.60159" lon="4.60896">
        <ele>519</ele>
        <time>2012-11-07T10:02:04Z</time>
      </trkpt>
      <trkpt lat="45.6016" lon="4.60899">
        <ele>520</ele>
        <time>2012-11-07T10:02:05Z</time>
      </trkpt>
      <trkpt lat="45.60161" lon="4.60901">
        <ele>520</ele>
        <time>2012-11-07T10:02:06Z</time>
      </trkpt>
      <trkpt lat="45.60162" lon="4.60904">
        <ele>520</ele>
        <time>2012-11-07T10:02:07Z</time>
      </trkpt>
      <trkpt lat="45.60163" lon="4.60906">
        <ele>519</ele>
        <time>2012-11-07T10:02:08Z</time>
      </trkpt>
      <trkpt lat="45.60164" lon="4.60908">
        <ele>518</ele>
        <time>2012-11-07T10:02:09Z</time>
      </trkpt>
      <trkpt lat="45.60166" lon="4.6091">
        <ele>517</ele>
        <time>2012-11-07T10:02:10Z</time>
      </trkpt>
      <trkpt lat="45.60167" lon="4.60915">
        <ele>515</ele>
        <time>2012-11-07T10:02:12Z</time>
      </trkpt>
      <trkpt lat="45.60168" lon="4.60919">
        <ele>514</ele>
        <time>2012-11-07T10:02:14Z</time>
      </trkpt>
      <trkpt lat="45.60172" lon="4.6093">
        <ele>511</ele>
        <time>2012-11-07T10:02:19Z</time>
      </trkpt>
      <trkpt lat="45.60173" lon="4.60934">
        <ele>510</ele>
        <time>2012-11-07T10:02:21Z</time>
      </trkpt>
      <trkpt lat="45.60174" lon="4.60938">
        <ele>511</ele>
        <time>2012-11-07T10:02:23Z</time>
      </trkpt>
      <trkpt lat="45.60175" lon="4.6094">
        <ele>510</ele>
        <time>2012-11-07T10:02:25Z</time>
      </trkpt>
      <trkpt lat="45.60177" lon="4.60943">
        <ele>509</ele>
        <time>2012-11-07T10:02:27Z</time>
      </trkpt>
      <trkpt lat="45.60179" lon="4.60945">
        <ele>509</ele>
        <time>2012-11-07T10:02:29Z</time>
      </trkpt>
      <trkpt lat="45.6018" lon="4.60946">
        <ele>508</ele>
        <time>2012-11-07T10:02:31Z</time>
      </trkpt>
      <trkpt lat="45.60183" lon="4.60948">
        <ele>508</ele>
        <time>2012-11-07T10:02:33Z</time>
      </trkpt>
      <trkpt lat="45.60186" lon="4.6095">
        <ele>508</ele>
        <time>2012-11-07T10:02:35Z</time>
      </trkpt>
      <trkpt lat="45.60191" lon="4.60952">
        <ele>507</ele>
        <time>2012-11-07T10:02:37Z</time>
      </trkpt>
      <trkpt lat="45.60199" lon="4.60954">
        <ele>506</ele>
        <time>2012-11-07T10:02:40Z</time>
      </trkpt>
      <trkpt lat="45.60205" lon="4.60957">
        <ele>501</ele>
        <time>2012-11-07T10:02:44Z</time>
      </trkpt>
      <trkpt lat="45.60208" lon="4.60957">
        <ele>501</ele>
        <time>2012-11-07T10:02:46Z</time>
      </trkpt>
      <trkpt lat="45.60211" lon="4.60958">
        <ele>500</ele>
        <time>2012-11-07T10:02:48Z</time>
      </trkpt>
      <trkpt lat="45.60213" lon="4.60959">
        <ele>500</ele>
        <time>2012-11-07T10:02:49Z</time>
      </trkpt>
      <trkpt lat="45.60215" lon="4.6096">
        <ele>500</ele>
        <time>2012-11-07T10:02:50Z</time>
      </trkpt>
      <trkpt lat="45.60217" lon="4.60961">
        <ele>500</ele>
        <time>2012-11-07T10:02:51Z</time>
      </trkpt>
      <trkpt lat="45.60221" lon="4.60963">
        <ele>499</ele>
        <time>2012-11-07T10:02:53Z</time>
      </trkpt>
      <trkpt lat="45.60224" lon="4.60964">
        <ele>499</ele>
        <time>2012-11-07T10:02:55Z</time>
      </trkpt>
      <trkpt lat="45.60227" lon="4.60966">
        <ele>499</ele>
        <time>2012-11-07T10:02:58Z</time>
      </trkpt>
      <trkpt lat="45.6023" lon="4.60966">
        <ele>498</ele>
        <time>2012-11-07T10:03:00Z</time>
      </trkpt>
      <trkpt lat="45.60234" lon="4.60965">
        <ele>498</ele>
        <time>2012-11-07T10:03:02Z</time>
      </trkpt>
      <trkpt lat="45.60237" lon="4.60965">
        <ele>499</ele>
        <time>2012-11-07T10:03:04Z</time>
      </trkpt>
      <trkpt lat="45.60239" lon="4.60965">
        <ele>500</ele>
        <time>2012-11-07T10:03:05Z</time>
      </trkpt>
      <trkpt lat="45.60241" lon="4.60965">
        <ele>500</ele>
        <time>2012-11-07T10:03:06Z</time>
      </trkpt>
      <trkpt lat="45.60247" lon="4.60967">
        <ele>501</ele>
        <time>2012-11-07T10:03:09Z</time>
      </trkpt>
      <trkpt lat="45.60251" lon="4.60967">
        <ele>501</ele>
        <time>2012-11-07T10:03:11Z</time>
      </trkpt>
      <trkpt lat="45.60253" lon="4.60967">
        <ele>502</ele>
        <time>2012-11-07T10:03:13Z</time>
      </trkpt>
      <trkpt lat="45.60255" lon="4.60967">
        <ele>503</ele>
        <time>2012-11-07T10:03:15Z</time>
      </trkpt>
      <trkpt lat="45.60258" lon="4.60967">
        <ele>503</ele>
        <time>2012-11-07T10:03:17Z</time>
      </trkpt>
      <trkpt lat="45.60261" lon="4.60967">
        <ele>504</ele>
        <time>2012-11-07T10:03:19Z</time>
      </trkpt>
      <trkpt lat="45.60264" lon="4.60968">
        <ele>503</ele>
        <time>2012-11-07T10:03:22Z</time>
      </trkpt>
      <trkpt lat="45.60268" lon="4.60969">
        <ele>504</ele>
        <time>2012-11-07T10:03:28Z</time>
      </trkpt>
      <trkpt lat="45.60275" lon="4.60971">
        <ele>504</ele>
        <time>2012-11-07T10:03:32Z</time>
      </trkpt>
      <trkpt lat="45.60278" lon="4.60972">
        <ele>504</ele>
        <time>2012-11-07T10:03:34Z</time>
      </trkpt>
      <trkpt lat="45.60281" lon="4.60972">
        <ele>505</ele>
        <time>2012-11-07T10:03:36Z</time>
      </trkpt>
      <trkpt lat="45.60284" lon="4.60972">
        <ele>504</ele>
        <time>2012-11-07T10:03:37Z</time>
      </trkpt>
      <trkpt lat="45.60286" lon="4.60973">
        <ele>504</ele>
        <time>2012-11-07T10:03:38Z</time>
      </trkpt>
      <trkpt lat="45.60288" lon="4.60974">
        <ele>505</ele>
        <time>2012-11-07T10:03:39Z</time>
      </trkpt>
      <trkpt lat="45.6029" lon="4.60975">
        <ele>506</ele>
        <time>2012-11-07T10:03:40Z</time>
      </trkpt>
      <trkpt lat="45.60292" lon="4.60976">
        <ele>506</ele>
        <time>2012-11-07T10:03:41Z</time>
      </trkpt>
      <trkpt lat="45.60296" lon="4.60978">
        <ele>506</ele>
        <time>2012-11-07T10:03:43Z</time>
      </trkpt>
      <trkpt lat="45.603" lon="4.6098">
        <ele>505</ele>
        <time>2012-11-07T10:03:45Z</time>
      </trkpt>
      <trkpt lat="45.60302" lon="4.60981">
        <ele>505</ele>
        <time>2012-11-07T10:03:46Z</time>
      </trkpt>
      <trkpt lat="45.60304" lon="4.60982">
        <ele>505</ele>
        <time>2012-11-07T10:03:47Z</time>
      </trkpt>
      <trkpt lat="45.60306" lon="4.60984">
        <ele>506</ele>
        <time>2012-11-07T10:03:48Z</time>
      </trkpt>
      <trkpt lat="45.6031" lon="4.60985">
        <ele>506</ele>
        <time>2012-11-07T10:03:50Z</time>
      </trkpt>
      <trkpt lat="45.60315" lon="4.60987">
        <ele>507</ele>
        <time>2012-11-07T10:03:53Z</time>
      </trkpt>
      <trkpt lat="45.60319" lon="4.60991">
        <ele>507</ele>
        <time>2012-11-07T10:03:56Z</time>
      </trkpt>
      <trkpt lat="45.60324" lon="4.60997">
        <ele>508</ele>
        <time>2012-11-07T10:04:00Z</time>
      </trkpt>
      <trkpt lat="45.60326" lon="4.61">
        <ele>508</ele>
        <time>2012-11-07T10:04:02Z</time>
      </trkpt>
      <trkpt lat="45.60328" lon="4.61001">
        <ele>508</ele>
        <time>2012-11-07T10:04:04Z</time>
      </trkpt>
      <trkpt lat="45.6033" lon="4.61003">
        <ele>508</ele>
        <time>2012-11-07T10:04:06Z</time>
      </trkpt>
      <trkpt lat="45.60335" lon="4.61006">
        <ele>509</ele>
        <time>2012-11-07T10:04:10Z</time>
      </trkpt>
      <trkpt lat="45.60337" lon="4.61009">
        <ele>508</ele>
        <time>2012-11-07T10:04:12Z</time>
      </trkpt>
      <trkpt lat="45.60339" lon="4.61011">
        <ele>508</ele>
        <time>2012-11-07T10:04:14Z</time>
      </trkpt>
      <trkpt lat="45.60342" lon="4.61013">
        <ele>508</ele>
        <time>2012-11-07T10:04:16Z</time>
      </trkpt>
      <trkpt lat="45.60344" lon="4.61015">
        <ele>510</ele>
        <time>2012-11-07T10:04:18Z</time>
      </trkpt>
      <trkpt lat="45.60346" lon="4.61016">
        <ele>510</ele>
        <time>2012-11-07T10:04:20Z</time>
      </trkpt>
      <trkpt lat="45.60347" lon="4.61018">
        <ele>510</ele>
        <time>2012-11-07T10:04:22Z</time>
      </trkpt>
      <trkpt lat="45.60352" lon="4.61021">
        <ele>511</ele>
        <time>2012-11-07T10:04:26Z</time>
      </trkpt>
      <trkpt lat="45.60354" lon="4.61024">
        <ele>511</ele>
        <time>2012-11-07T10:04:28Z</time>
      </trkpt>
      <trkpt lat="45.60357" lon="4.61026">
        <ele>511</ele>
        <time>2012-11-07T10:04:30Z</time>
      </trkpt>
      <trkpt lat="45.60359" lon="4.61028">
        <ele>511</ele>
        <time>2012-11-07T10:04:31Z</time>
      </trkpt>
      <trkpt lat="45.60361" lon="4.6103">
        <ele>511</ele>
        <time>2012-11-07T10:04:32Z</time>
      </trkpt>
      <trkpt lat="45.60362" lon="4.61032">
        <ele>510</ele>
        <time>2012-11-07T10:04:33Z</time>
      </trkpt>
      <trkpt lat="45.60366" lon="4.61036">
        <ele>509</ele>
        <time>2012-11-07T10:04:36Z</time>
      </trkpt>
      <trkpt lat="45.6037" lon="4.61038">
        <ele>509</ele>
        <time>2012-11-07T10:04:39Z</time>
      </trkpt>
      <trkpt lat="45.60374" lon="4.61041">
        <ele>510</ele>
        <time>2012-11-07T10:04:42Z</time>
      </trkpt>
      <trkpt lat="45.60377" lon="4.61042">
        <ele>510</ele>
        <time>2012-11-07T10:04:44Z</time>
      </trkpt>
      <trkpt lat="45.60379" lon="4.61043">
        <ele>510</ele>
        <time>2012-11-07T10:04:46Z</time>
      </trkpt>
      <trkpt lat="45.60381" lon="4.61044">
        <ele>512</ele>
        <time>2012-11-07T10:04:48Z</time>
      </trkpt>
      <trkpt lat="45.60384" lon="4.61046">
        <ele>513</ele>
        <time>2012-11-07T10:04:50Z</time>
      </trkpt>
      <trkpt lat="45.60386" lon="4.61049">
        <ele>511</ele>
        <time>2012-11-07T10:04:52Z</time>
      </trkpt>
      <trkpt lat="45.60388" lon="4.61052">
        <ele>511</ele>
        <time>2012-11-07T10:04:53Z</time>
      </trkpt>
      <trkpt lat="45.60389" lon="4.61054">
        <ele>512</ele>
        <time>2012-11-07T10:04:54Z</time>
      </trkpt>
      <trkpt lat="45.60391" lon="4.61058">
        <ele>512</ele>
        <time>2012-11-07T10:04:56Z</time>
      </trkpt>
      <trkpt lat="45.60392" lon="4.61061">
        <ele>512</ele>
        <time>2012-11-07T10:04:57Z</time>
      </trkpt>
      <trkpt lat="45.60394" lon="4.61063">
        <ele>512</ele>
        <time>2012-11-07T10:04:58Z</time>
      </trkpt>
      <trkpt lat="45.60396" lon="4.61065">
        <ele>512</ele>
        <time>2012-11-07T10:04:59Z</time>
      </trkpt>
      <trkpt lat="45.60399" lon="4.61066">
        <ele>512</ele>
        <time>2012-11-07T10:05:01Z</time>
      </trkpt>
      <trkpt lat="45.60402" lon="4.61068">
        <ele>511</ele>
        <time>2012-11-07T10:05:03Z</time>
      </trkpt>
      <trkpt lat="45.60405" lon="4.61069">
        <ele>511</ele>
        <time>2012-11-07T10:05:05Z</time>
      </trkpt>
      <trkpt lat="45.60407" lon="4.61071">
        <ele>510</ele>
        <time>2012-11-07T10:05:07Z</time>
      </trkpt>
      <trkpt lat="45.60407" lon="4.61074">
        <ele>510</ele>
        <time>2012-11-07T10:05:09Z</time>
      </trkpt>
      <trkpt lat="45.60409" lon="4.61079">
        <ele>510</ele>
        <time>2012-11-07T10:05:11Z</time>
      </trkpt>
      <trkpt lat="45.60411" lon="4.61082">
        <ele>509</ele>
        <time>2012-11-07T10:05:12Z</time>
      </trkpt>
      <trkpt lat="45.60412" lon="4.61085">
        <ele>509</ele>
        <time>2012-11-07T10:05:13Z</time>
      </trkpt>
      <trkpt lat="45.60414" lon="4.61087">
        <ele>509</ele>
        <time>2012-11-07T10:05:15Z</time>
      </trkpt>
      <trkpt lat="45.60416" lon="4.61089">
        <ele>509</ele>
        <time>2012-11-07T10:05:17Z</time>
      </trkpt>
      <trkpt lat="45.60419" lon="4.61092">
        <ele>509</ele>
        <time>2012-11-07T10:05:19Z</time>
      </trkpt>
      <trkpt lat="45.6042" lon="4.61095">
        <ele>509</ele>
        <time>2012-11-07T10:05:20Z</time>
      </trkpt>
      <trkpt lat="45.60422" lon="4.61097">
        <ele>509</ele>
        <time>2012-11-07T10:05:21Z</time>
      </trkpt>
      <trkpt lat="45.60424" lon="4.611">
        <ele>509</ele>
        <time>2012-11-07T10:05:23Z</time>
      </trkpt>
      <trkpt lat="45.60426" lon="4.61102">
        <ele>509</ele>
        <time>2012-11-07T10:05:26Z</time>
      </trkpt>
      <trkpt lat="45.60428" lon="4.61105">
        <ele>509</ele>
        <time>2012-11-07T10:05:28Z</time>
      </trkpt>
      <trkpt lat="45.6043" lon="4.61109">
        <ele>508</ele>
        <time>2012-11-07T10:05:30Z</time>
      </trkpt>
      <trkpt lat="45.60431" lon="4.61113">
        <ele>508</ele>
        <time>2012-11-07T10:05:32Z</time>
      </trkpt>
      <trkpt lat="45.60432" lon="4.61117">
        <ele>509</ele>
        <time>2012-11-07T10:05:34Z</time>
      </trkpt>
      <trkpt lat="45.60434" lon="4.6112">
        <ele>509</ele>
        <time>2012-11-07T10:05:36Z</time>
      </trkpt>
      <trkpt lat="45.60436" lon="4.61128">
        <ele>510</ele>
        <time>2012-11-07T10:05:40Z</time>
      </trkpt>
      <trkpt lat="45.60438" lon="4.61132">
        <ele>510</ele>
        <time>2012-11-07T10:05:42Z</time>
      </trkpt>
      <trkpt lat="45.60441" lon="4.61138">
        <ele>510</ele>
        <time>2012-11-07T10:05:45Z</time>
      </trkpt>
      <trkpt lat="45.60443" lon="4.61142">
        <ele>511</ele>
        <time>2012-11-07T10:05:47Z</time>
      </trkpt>
      <trkpt lat="45.60444" lon="4.61145">
        <ele>511</ele>
        <time>2012-11-07T10:05:49Z</time>
      </trkpt>
      <trkpt lat="45.60446" lon="4.61145">
        <ele>511</ele>
        <time>2012-11-07T10:05:52Z</time>
      </trkpt>
      <trkpt lat="45.60447" lon="4.61148">
        <ele>511</ele>
        <time>2012-11-07T10:05:54Z</time>
      </trkpt>
      <trkpt lat="45.60447" lon="4.61153">
        <ele>510</ele>
        <time>2012-11-07T10:05:56Z</time>
      </trkpt>
      <trkpt lat="45.60448" lon="4.61156">
        <ele>510</ele>
        <time>2012-11-07T10:05:58Z</time>
      </trkpt>
      <trkpt lat="45.60449" lon="4.61159">
        <ele>511</ele>
        <time>2012-11-07T10:06:00Z</time>
      </trkpt>
      <trkpt lat="45.60451" lon="4.61163">
        <ele>509</ele>
        <time>2012-11-07T10:06:02Z</time>
      </trkpt>
      <trkpt lat="45.60453" lon="4.61168">
        <ele>509</ele>
        <time>2012-11-07T10:06:04Z</time>
      </trkpt>
      <trkpt lat="45.60453" lon="4.61171">
        <ele>510</ele>
        <time>2012-11-07T10:06:05Z</time>
      </trkpt>
      <trkpt lat="45.60454" lon="4.61173">
        <ele>509</ele>
        <time>2012-11-07T10:06:06Z</time>
      </trkpt>
      <trkpt lat="45.60454" lon="4.61176">
        <ele>510</ele>
        <time>2012-11-07T10:06:07Z</time>
      </trkpt>
      <trkpt lat="45.60455" lon="4.61178">
        <ele>511</ele>
        <time>2012-11-07T10:06:08Z</time>
      </trkpt>
      <trkpt lat="45.60455" lon="4.61181">
        <ele>512</ele>
        <time>2012-11-07T10:06:09Z</time>
      </trkpt>
      <trkpt lat="45.60456" lon="4.61185">
        <ele>513</ele>
        <time>2012-11-07T10:06:11Z</time>
      </trkpt>
      <trkpt lat="45.60458" lon="4.61188">
        <ele>511</ele>
        <time>2012-11-07T10:06:13Z</time>
      </trkpt>
      <trkpt lat="45.60461" lon="4.6119">
        <ele>509</ele>
        <time>2012-11-07T10:06:15Z</time>
      </trkpt>
      <trkpt lat="45.60464" lon="4.61192">
        <ele>508</ele>
        <time>2012-11-07T10:06:17Z</time>
      </trkpt>
      <trkpt lat="45.60467" lon="4.61196">
        <ele>508</ele>
        <time>2012-11-07T10:06:19Z</time>
      </trkpt>
      <trkpt lat="45.60468" lon="4.61198">
        <ele>507</ele>
        <time>2012-11-07T10:06:20Z</time>
      </trkpt>
      <trkpt lat="45.6047" lon="4.612">
        <ele>507</ele>
        <time>2012-11-07T10:06:21Z</time>
      </trkpt>
      <trkpt lat="45.60471" lon="4.61201">
        <ele>507</ele>
        <time>2012-11-07T10:06:22Z</time>
      </trkpt>
      <trkpt lat="45.60483" lon="4.61211">
        <ele>509</ele>
        <time>2012-11-07T10:06:31Z</time>
      </trkpt>
      <trkpt lat="45.60486" lon="4.61213">
        <ele>509</ele>
        <time>2012-11-07T10:06:33Z</time>
      </trkpt>
      <trkpt lat="45.60489" lon="4.61216">
        <ele>509</ele>
        <time>2012-11-07T10:06:35Z</time>
      </trkpt>
      <trkpt lat="45.60492" lon="4.61218">
        <ele>509</ele>
        <time>2012-11-07T10:06:37Z</time>
      </trkpt>
      <trkpt lat="45.60495" lon="4.6122">
        <ele>509</ele>
        <time>2012-11-07T10:06:39Z</time>
      </trkpt>
      <trkpt lat="45.60496" lon="4.61223">
        <ele>509</ele>
        <time>2012-11-07T10:06:40Z</time>
      </trkpt>
      <trkpt lat="45.60498" lon="4.61225">
        <ele>508</ele>
        <time>2012-11-07T10:06:41Z</time>
      </trkpt>
      <trkpt lat="45.60499" lon="4.61228">
        <ele>508</ele>
        <time>2012-11-07T10:06:42Z</time>
      </trkpt>
      <trkpt lat="45.60501" lon="4.61232">
        <ele>508</ele>
        <time>2012-11-07T10:06:44Z</time>
      </trkpt>
      <trkpt lat="45.60503" lon="4.61233">
        <ele>509</ele>
        <time>2012-11-07T10:06:46Z</time>
      </trkpt>
      <trkpt lat="45.60507" lon="4.61235">
        <ele>510</ele>
        <time>2012-11-07T10:06:48Z</time>
      </trkpt>
      <trkpt lat="45.6051" lon="4.61238">
        <ele>510</ele>
        <time>2012-11-07T10:06:50Z</time>
      </trkpt>
      <trkpt lat="45.60512" lon="4.61239">
        <ele>506</ele>
        <time>2012-11-07T10:06:51Z</time>
      </trkpt>
      <trkpt lat="45.60515" lon="4.61241">
        <ele>504</ele>
        <time>2012-11-07T10:06:53Z</time>
      </trkpt>
      <trkpt lat="45.60516" lon="4.61243">
        <ele>504</ele>
        <time>2012-11-07T10:06:54Z</time>
      </trkpt>
      <trkpt lat="45.60518" lon="4.61246">
        <ele>504</ele>
        <time>2012-11-07T10:06:56Z</time>
      </trkpt>
      <trkpt lat="45.60521" lon="4.61251">
        <ele>505</ele>
        <time>2012-11-07T10:06:59Z</time>
      </trkpt>
      <trkpt lat="45.60523" lon="4.61253">
        <ele>505</ele>
        <time>2012-11-07T10:07:01Z</time>
      </trkpt>
      <trkpt lat="45.60527" lon="4.61259">
        <ele>506</ele>
        <time>2012-11-07T10:07:06Z</time>
      </trkpt>
      <trkpt lat="45.60529" lon="4.6126">
        <ele>506</ele>
        <time>2012-11-07T10:07:08Z</time>
      </trkpt>
      <trkpt lat="45.60531" lon="4.61262">
        <ele>505</ele>
        <time>2012-11-07T10:07:10Z</time>
      </trkpt>
      <trkpt lat="45.60533" lon="4.61263">
        <ele>505</ele>
        <time>2012-11-07T10:07:13Z</time>
      </trkpt>
      <trkpt lat="45.60535" lon="4.61265">
        <ele>505</ele>
        <time>2012-11-07T10:07:15Z</time>
      </trkpt>
      <trkpt lat="45.60536" lon="4.61268">
        <ele>506</ele>
        <time>2012-11-07T10:07:17Z</time>
      </trkpt>
      <trkpt lat="45.60539" lon="4.6127">
        <ele>504</ele>
        <time>2012-11-07T10:07:20Z</time>
      </trkpt>
      <trkpt lat="45.60543" lon="4.61276">
        <ele>503</ele>
        <time>2012-11-07T10:07:23Z</time>
      </trkpt>
      <trkpt lat="45.60545" lon="4.61277">
        <ele>503</ele>
        <time>2012-11-07T10:07:24Z</time>
      </trkpt>
      <trkpt lat="45.60547" lon="4.61279">
        <ele>502</ele>
        <time>2012-11-07T10:07:25Z</time>
      </trkpt>
      <trkpt lat="45.6055" lon="4.61281">
        <ele>499</ele>
        <time>2012-11-07T10:07:26Z</time>
      </trkpt>
      <trkpt lat="45.60552" lon="4.61282">
        <ele>498</ele>
        <time>2012-11-07T10:07:27Z</time>
      </trkpt>
      <trkpt lat="45.60554" lon="4.61284">
        <ele>497</ele>
        <time>2012-11-07T10:07:28Z</time>
      </trkpt>
      <trkpt lat="45.60556" lon="4.61286">
        <ele>499</ele>
        <time>2012-11-07T10:07:29Z</time>
      </trkpt>
      <trkpt lat="45.60558" lon="4.61288">
        <ele>499</ele>
        <time>2012-11-07T10:07:30Z</time>
      </trkpt>
      <trkpt lat="45.6056" lon="4.61291">
        <ele>500</ele>
        <time>2012-11-07T10:07:34Z</time>
      </trkpt>
      <trkpt lat="45.60561" lon="4.61295">
        <ele>500</ele>
        <time>2012-11-07T10:07:38Z</time>
      </trkpt>
      <trkpt lat="45.60562" lon="4.61297">
        <ele>501</ele>
        <time>2012-11-07T10:07:39Z</time>
      </trkpt>
      <trkpt lat="45.60563" lon="4.613">
        <ele>501</ele>
        <time>2012-11-07T10:07:40Z</time>
      </trkpt>
      <trkpt lat="45.60566" lon="4.61303">
        <ele>501</ele>
        <time>2012-11-07T10:07:42Z</time>
      </trkpt>
      <trkpt lat="45.60567" lon="4.613">
        <ele>505</ele>
        <time>2012-11-07T10:07:47Z</time>
      </trkpt>
      <trkpt lat="45.60567" lon="4.613">
        <ele>505</ele>
        <time>2012-11-07T10:07:53Z</time>
      </trkpt>
      <trkpt lat="45.60574" lon="4.61303">
        <ele>507</ele>
        <time>2012-11-07T10:07:55Z</time>
      </trkpt>
      <trkpt lat="45.60575" lon="4.61305">
        <ele>507</ele>
        <time>2012-11-07T10:07:57Z</time>
      </trkpt>
      <trkpt lat="45.60578" lon="4.61309">
        <ele>509</ele>
        <time>2012-11-07T10:08:02Z</time>
      </trkpt>
      <trkpt lat="45.60581" lon="4.61315">
        <ele>510</ele>
        <time>2012-11-07T10:08:06Z</time>
      </trkpt>
      <trkpt lat="45.60581" lon="4.61319">
        <ele>509</ele>
        <time>2012-11-07T10:08:08Z</time>
      </trkpt>
      <trkpt lat="45.60581" lon="4.61321">
        <ele>510</ele>
        <time>2012-11-07T10:08:12Z</time>
      </trkpt>
      <trkpt lat="45.60583" lon="4.61323">
        <ele>509</ele>
        <time>2012-11-07T10:08:14Z</time>
      </trkpt>
      <trkpt lat="45.60585" lon="4.61324">
        <ele>508</ele>
        <time>2012-11-07T10:08:15Z</time>
      </trkpt>
      <trkpt lat="45.60588" lon="4.61326">
        <ele>511</ele>
        <time>2012-11-07T10:08:18Z</time>
      </trkpt>
      <trkpt lat="45.6059" lon="4.61328">
        <ele>514</ele>
        <time>2012-11-07T10:08:22Z</time>
      </trkpt>
      <trkpt lat="45.60591" lon="4.61332">
        <ele>515</ele>
        <time>2012-11-07T10:08:26Z</time>
      </trkpt>
      <trkpt lat="45.60596" lon="4.61335">
        <ele>514</ele>
        <time>2012-11-07T10:08:30Z</time>
      </trkpt>
      <trkpt lat="45.60598" lon="4.61337">
        <ele>512</ele>
        <time>2012-11-07T10:08:31Z</time>
      </trkpt>
      <trkpt lat="45.606" lon="4.61338">
        <ele>510</ele>
        <time>2012-11-07T10:08:32Z</time>
      </trkpt>
      <trkpt lat="45.60604" lon="4.61341">
        <ele>512</ele>
        <time>2012-11-07T10:08:34Z</time>
      </trkpt>
      <trkpt lat="45.60606" lon="4.61344">
        <ele>514</ele>
        <time>2012-11-07T10:08:36Z</time>
      </trkpt>
      <trkpt lat="45.60607" lon="4.61347">
        <ele>515</ele>
        <time>2012-11-07T10:08:39Z</time>
      </trkpt>
      <trkpt lat="45.60608" lon="4.6135">
        <ele>511</ele>
        <time>2012-11-07T10:08:42Z</time>
      </trkpt>
      <trkpt lat="45.60609" lon="4.61354">
        <ele>510</ele>
        <time>2012-11-07T10:08:45Z</time>
      </trkpt>
      <trkpt lat="45.60611" lon="4.61358">
        <ele>510</ele>
        <time>2012-11-07T10:08:47Z</time>
      </trkpt>
      <trkpt lat="45.60614" lon="4.61362">
        <ele>511</ele>
        <time>2012-11-07T10:08:52Z</time>
      </trkpt>
      <trkpt lat="45.60614" lon="4.61365">
        <ele>511</ele>
        <time>2012-11-07T10:08:55Z</time>
      </trkpt>
      <trkpt lat="45.60613" lon="4.61367">
        <ele>512</ele>
        <time>2012-11-07T10:08:57Z</time>
      </trkpt>
      <trkpt lat="45.60612" lon="4.6137">
        <ele>512</ele>
        <time>2012-11-07T10:08:59Z</time>
      </trkpt>
      <trkpt lat="45.60612" lon="4.61381">
        <ele>513</ele>
        <time>2012-11-07T10:09:03Z</time>
      </trkpt>
      <trkpt lat="45.60612" lon="4.61384">
        <ele>513</ele>
        <time>2012-11-07T10:09:04Z</time>
      </trkpt>
      <trkpt lat="45.60613" lon="4.61387">
        <ele>516</ele>
        <time>2012-11-07T10:09:06Z</time>
      </trkpt>
      <trkpt lat="45.60612" lon="4.61389">
        <ele>518</ele>
        <time>2012-11-07T10:09:09Z</time>
      </trkpt>
      <trkpt lat="45.60612" lon="4.61394">
        <ele>520</ele>
        <time>2012-11-07T10:09:14Z</time>
      </trkpt>
      <trkpt lat="45.60613" lon="4.61398">
        <ele>518</ele>
        <time>2012-11-07T10:09:17Z</time>
      </trkpt>
      <trkpt lat="45.60615" lon="4.61401">
        <ele>518</ele>
        <time>2012-11-07T10:09:18Z</time>
      </trkpt>
      <trkpt lat="45.60617" lon="4.61403">
        <ele>517</ele>
        <time>2012-11-07T10:09:19Z</time>
      </trkpt>
      <trkpt lat="45.60618" lon="4.61405">
        <ele>517</ele>
        <time>2012-11-07T10:09:20Z</time>
      </trkpt>
      <trkpt lat="45.60621" lon="4.61413">
        <ele>521</ele>
        <time>2012-11-07T10:09:25Z</time>
      </trkpt>
      <trkpt lat="45.60622" lon="4.61417">
        <ele>523</ele>
        <time>2012-11-07T10:09:28Z</time>
      </trkpt>
      <trkpt lat="45.60621" lon="4.61422">
        <ele>525</ele>
        <time>2012-11-07T10:09:30Z</time>
      </trkpt>
      <trkpt lat="45.6062" lon="4.61426">
        <ele>526</ele>
        <time>2012-11-07T10:09:32Z</time>
      </trkpt>
      <trkpt lat="45.60621" lon="4.61429">
        <ele>526</ele>
        <time>2012-11-07T10:09:34Z</time>
      </trkpt>
      <trkpt lat="45.60622" lon="4.61431">
        <ele>527</ele>
        <time>2012-11-07T10:09:36Z</time>
      </trkpt>
      <trkpt lat="45.60623" lon="4.61435">
        <ele>527</ele>
        <time>2012-11-07T10:09:38Z</time>
      </trkpt>
      <trkpt lat="45.60625" lon="4.61438">
        <ele>528</ele>
        <time>2012-11-07T10:09:40Z</time>
      </trkpt>
      <trkpt lat="45.60627" lon="4.61441">
        <ele>527</ele>
        <time>2012-11-07T10:09:42Z</time>
      </trkpt>
      <trkpt lat="45.60628" lon="4.61444">
        <ele>528</ele>
        <time>2012-11-07T10:09:44Z</time>
      </trkpt>
      <trkpt lat="45.60631" lon="4.61448">
        <ele>527</ele>
        <time>2012-11-07T10:09:48Z</time>
      </trkpt>
      <trkpt lat="45.60635" lon="4.61454">
        <ele>528</ele>
        <time>2012-11-07T10:09:53Z</time>
      </trkpt>
      <trkpt lat="45.60636" lon="4.61457">
        <ele>529</ele>
        <time>2012-11-07T10:09:55Z</time>
      </trkpt>
      <trkpt lat="45.60638" lon="4.6146">
        <ele>528</ele>
        <time>2012-11-07T10:09:57Z</time>
      </trkpt>
      <trkpt lat="45.60641" lon="4.61462">
        <ele>529</ele>
        <time>2012-11-07T10:09:59Z</time>
      </trkpt>
      <trkpt lat="45.60643" lon="4.61465">
        <ele>530</ele>
        <time>2012-11-07T10:10:01Z</time>
      </trkpt>
      <trkpt lat="45.60645" lon="4.61468">
        <ele>531</ele>
        <time>2012-11-07T10:10:03Z</time>
      </trkpt>
      <trkpt lat="45.60646" lon="4.61471">
        <ele>531</ele>
        <time>2012-11-07T10:10:04Z</time>
      </trkpt>
      <trkpt lat="45.60647" lon="4.61473">
        <ele>532</ele>
        <time>2012-11-07T10:10:05Z</time>
      </trkpt>
      <trkpt lat="45.60649" lon="4.61475">
        <ele>532</ele>
        <time>2012-11-07T10:10:06Z</time>
      </trkpt>
      <trkpt lat="45.6065" lon="4.61477">
        <ele>532</ele>
        <time>2012-11-07T10:10:07Z</time>
      </trkpt>
      <trkpt lat="45.60656" lon="4.61487">
        <ele>533</ele>
        <time>2012-11-07T10:10:12Z</time>
      </trkpt>
      <trkpt lat="45.60659" lon="4.6149">
        <ele>534</ele>
        <time>2012-11-07T10:10:14Z</time>
      </trkpt>
      <trkpt lat="45.60661" lon="4.61492">
        <ele>533</ele>
        <time>2012-11-07T10:10:15Z</time>
      </trkpt>
      <trkpt lat="45.60663" lon="4.61493">
        <ele>533</ele>
        <time>2012-11-07T10:10:16Z</time>
      </trkpt>
      <trkpt lat="45.60664" lon="4.61494">
        <ele>534</ele>
        <time>2012-11-07T10:10:17Z</time>
      </trkpt>
      <trkpt lat="45.60668" lon="4.61497">
        <ele>534</ele>
        <time>2012-11-07T10:10:19Z</time>
      </trkpt>
      <trkpt lat="45.6067" lon="4.61498">
        <ele>535</ele>
        <time>2012-11-07T10:10:20Z</time>
      </trkpt>
      <trkpt lat="45.60673" lon="4.615">
        <ele>536</ele>
        <time>2012-11-07T10:10:22Z</time>
      </trkpt>
      <trkpt lat="45.60675" lon="4.61501">
        <ele>537</ele>
        <time>2012-11-07T10:10:23Z</time>
      </trkpt>
      <trkpt lat="45.60676" lon="4.61505">
        <ele>539</ele>
        <time>2012-11-07T10:10:25Z</time>
      </trkpt>
      <trkpt lat="45.60676" lon="4.61509">
        <ele>540</ele>
        <time>2012-11-07T10:10:27Z</time>
      </trkpt>
      <trkpt lat="45.60678" lon="4.61512">
        <ele>541</ele>
        <time>2012-11-07T10:10:29Z</time>
      </trkpt>
      <trkpt lat="45.60679" lon="4.61513">
        <ele>540</ele>
        <time>2012-11-07T10:10:32Z</time>
      </trkpt>
      <trkpt lat="45.60682" lon="4.61516">
        <ele>541</ele>
        <time>2012-11-07T10:10:35Z</time>
      </trkpt>
      <trkpt lat="45.60686" lon="4.61519">
        <ele>541</ele>
        <time>2012-11-07T10:10:41Z</time>
      </trkpt>
      <trkpt lat="45.60688" lon="4.6152">
        <ele>541</ele>
        <time>2012-11-07T10:10:43Z</time>
      </trkpt>
      <trkpt lat="45.6069" lon="4.61519">
        <ele>542</ele>
        <time>2012-11-07T10:10:45Z</time>
      </trkpt>
      <trkpt lat="45.60693" lon="4.61519">
        <ele>541</ele>
        <time>2012-11-07T10:10:47Z</time>
      </trkpt>
      <trkpt lat="45.60694" lon="4.61521">
        <ele>541</ele>
        <time>2012-11-07T10:10:48Z</time>
      </trkpt>
      <trkpt lat="45.60697" lon="4.61523">
        <ele>542</ele>
        <time>2012-11-07T10:10:49Z</time>
      </trkpt>
      <trkpt lat="45.60699" lon="4.61525">
        <ele>543</ele>
        <time>2012-11-07T10:10:50Z</time>
      </trkpt>
      <trkpt lat="45.60701" lon="4.61528">
        <ele>543</ele>
        <time>2012-11-07T10:10:52Z</time>
      </trkpt>
      <trkpt lat="45.60704" lon="4.61531">
        <ele>542</ele>
        <time>2012-11-07T10:10:54Z</time>
      </trkpt>
      <trkpt lat="45.60707" lon="4.61534">
        <ele>542</ele>
        <time>2012-11-07T10:10:56Z</time>
      </trkpt>
      <trkpt lat="45.6071" lon="4.61536">
        <ele>542</ele>
        <time>2012-11-07T10:10:58Z</time>
      </trkpt>
      <trkpt lat="45.60712" lon="4.61537">
        <ele>540</ele>
        <time>2012-11-07T10:11:00Z</time>
      </trkpt>
      <trkpt lat="45.60715" lon="4.61538">
        <ele>540</ele>
        <time>2012-11-07T10:11:02Z</time>
      </trkpt>
      <trkpt lat="45.60717" lon="4.61539">
        <ele>540</ele>
        <time>2012-11-07T10:11:03Z</time>
      </trkpt>
      <trkpt lat="45.60719" lon="4.6154">
        <ele>539</ele>
        <time>2012-11-07T10:11:04Z</time>
      </trkpt>
      <trkpt lat="45.60724" lon="4.61543">
        <ele>537</ele>
        <time>2012-11-07T10:11:07Z</time>
      </trkpt>
      <trkpt lat="45.60726" lon="4.61546">
        <ele>540</ele>
        <time>2012-11-07T10:11:09Z</time>
      </trkpt>
      <trkpt lat="45.60728" lon="4.61549">
        <ele>539</ele>
        <time>2012-11-07T10:11:11Z</time>
      </trkpt>
      <trkpt lat="45.60731" lon="4.61551">
        <ele>540</ele>
        <time>2012-11-07T10:11:13Z</time>
      </trkpt>
      <trkpt lat="45.60734" lon="4.61553">
        <ele>540</ele>
        <time>2012-11-07T10:11:15Z</time>
      </trkpt>
      <trkpt lat="45.60737" lon="4.61555">
        <ele>540</ele>
        <time>2012-11-07T10:11:17Z</time>
      </trkpt>
      <trkpt lat="45.60739" lon="4.61558">
        <ele>540</ele>
        <time>2012-11-07T10:11:19Z</time>
      </trkpt>
      <trkpt lat="45.60742" lon="4.61559">
        <ele>542</ele>
        <time>2012-11-07T10:11:21Z</time>
      </trkpt>
      <trkpt lat="45.60746" lon="4.6156">
        <ele>542</ele>
        <time>2012-11-07T10:11:23Z</time>
      </trkpt>
      <trkpt lat="45.60748" lon="4.6156">
        <ele>545</ele>
        <time>2012-11-07T10:11:24Z</time>
      </trkpt>
      <trkpt lat="45.6075" lon="4.61561">
        <ele>545</ele>
        <time>2012-11-07T10:11:26Z</time>
      </trkpt>
      <trkpt lat="45.60752" lon="4.61558">
        <ele>544</ele>
        <time>2012-11-07T10:11:31Z</time>
      </trkpt>
      <trkpt lat="45.60755" lon="4.61559">
        <ele>547</ele>
        <time>2012-11-07T10:11:33Z</time>
      </trkpt>
      <trkpt lat="45.60759" lon="4.61562">
        <ele>548</ele>
        <time>2012-11-07T10:11:35Z</time>
      </trkpt>
      <trkpt lat="45.60762" lon="4.61562">
        <ele>548</ele>
        <time>2012-11-07T10:11:36Z</time>
      </trkpt>
      <trkpt lat="45.6077" lon="4.61566">
        <ele>548</ele>
        <time>2012-11-07T10:11:40Z</time>
      </trkpt>
      <trkpt lat="45.60774" lon="4.61568">
        <ele>547</ele>
        <time>2012-11-07T10:11:42Z</time>
      </trkpt>
      <trkpt lat="45.60777" lon="4.61568">
        <ele>547</ele>
        <time>2012-11-07T10:11:44Z</time>
      </trkpt>
      <trkpt lat="45.60779" lon="4.61568">
        <ele>546</ele>
        <time>2012-11-07T10:11:46Z</time>
      </trkpt>
      <trkpt lat="45.60781" lon="4.61568">
        <ele>547</ele>
        <time>2012-11-07T10:11:49Z</time>
      </trkpt>
      <trkpt lat="45.60786" lon="4.61569">
        <ele>546</ele>
        <time>2012-11-07T10:11:52Z</time>
      </trkpt>
      <trkpt lat="45.60791" lon="4.61569">
        <ele>548</ele>
        <time>2012-11-07T10:11:55Z</time>
      </trkpt>
      <trkpt lat="45.60797" lon="4.6157">
        <ele>549</ele>
        <time>2012-11-07T10:11:59Z</time>
      </trkpt>
      <trkpt lat="45.60799" lon="4.6157">
        <ele>549</ele>
        <time>2012-11-07T10:12:01Z</time>
      </trkpt>
      <trkpt lat="45.60802" lon="4.61571">
        <ele>550</ele>
        <time>2012-11-07T10:12:03Z</time>
      </trkpt>
      <trkpt lat="45.60804" lon="4.61569">
        <ele>550</ele>
        <time>2012-11-07T10:12:04Z</time>
      </trkpt>
      <trkpt lat="45.60806" lon="4.61569">
        <ele>550</ele>
        <time>2012-11-07T10:12:05Z</time>
      </trkpt>
      <trkpt lat="45.60809" lon="4.61568">
        <ele>549</ele>
        <time>2012-11-07T10:12:06Z</time>
      </trkpt>
      <trkpt lat="45.60811" lon="4.61568">
        <ele>549</ele>
        <time>2012-11-07T10:12:07Z</time>
      </trkpt>
      <trkpt lat="45.60814" lon="4.61569">
        <ele>550</ele>
        <time>2012-11-07T10:12:08Z</time>
      </trkpt>
      <trkpt lat="45.60818" lon="4.6157">
        <ele>550</ele>
        <time>2012-11-07T10:12:11Z</time>
      </trkpt>
      <trkpt lat="45.60826" lon="4.61581">
        <ele>549</ele>
        <time>2012-11-07T10:12:16Z</time>
      </trkpt>
      <trkpt lat="45.60828" lon="4.61582">
        <ele>550</ele>
        <time>2012-11-07T10:12:18Z</time>
      </trkpt>
      <trkpt lat="45.60832" lon="4.61583">
        <ele>550</ele>
        <time>2012-11-07T10:12:21Z</time>
      </trkpt>
      <trkpt lat="45.60833" lon="4.61585">
        <ele>550</ele>
        <time>2012-11-07T10:12:23Z</time>
      </trkpt>
      <trkpt lat="45.60835" lon="4.61585">
        <ele>552</ele>
        <time>2012-11-07T10:12:27Z</time>
      </trkpt>
      <trkpt lat="45.60837" lon="4.61585">
        <ele>549</ele>
        <time>2012-11-07T10:12:30Z</time>
      </trkpt>
      <trkpt lat="45.60839" lon="4.61585">
        <ele>549</ele>
        <time>2012-11-07T10:12:32Z</time>
      </trkpt>
      <trkpt lat="45.60847" lon="4.61585">
        <ele>548</ele>
        <time>2012-11-07T10:12:38Z</time>
      </trkpt>
      <trkpt lat="45.60853" lon="4.61587">
        <ele>549</ele>
        <time>2012-11-07T10:12:42Z</time>
      </trkpt>
      <trkpt lat="45.60857" lon="4.61587">
        <ele>549</ele>
        <time>2012-11-07T10:12:44Z</time>
      </trkpt>
      <trkpt lat="45.60861" lon="4.61588">
        <ele>548</ele>
        <time>2012-11-07T10:12:46Z</time>
      </trkpt>
      <trkpt lat="45.60871" lon="4.6159">
        <ele>545</ele>
        <time>2012-11-07T10:12:50Z</time>
      </trkpt>
      <trkpt lat="45.60875" lon="4.6159">
        <ele>545</ele>
        <time>2012-11-07T10:12:52Z</time>
      </trkpt>
      <trkpt lat="45.60881" lon="4.61589">
        <ele>547</ele>
        <time>2012-11-07T10:12:56Z</time>
      </trkpt>
      <trkpt lat="45.60884" lon="4.61588">
        <ele>547</ele>
        <time>2012-11-07T10:12:58Z</time>
      </trkpt>
      <trkpt lat="45.60889" lon="4.61586">
        <ele>548</ele>
        <time>2012-11-07T10:13:01Z</time>
      </trkpt>
      <trkpt lat="45.60893" lon="4.61586">
        <ele>548</ele>
        <time>2012-11-07T10:13:04Z</time>
      </trkpt>
      <trkpt lat="45.60896" lon="4.61587">
        <ele>548</ele>
        <time>2012-11-07T10:13:06Z</time>
      </trkpt>
      <trkpt lat="45.60898" lon="4.61589">
        <ele>546</ele>
        <time>2012-11-07T10:13:09Z</time>
      </trkpt>
      <trkpt lat="45.609" lon="4.6159">
        <ele>545</ele>
        <time>2012-11-07T10:13:11Z</time>
      </trkpt>
      <trkpt lat="45.60903" lon="4.61591">
        <ele>543</ele>
        <time>2012-11-07T10:13:13Z</time>
      </trkpt>
      <trkpt lat="45.60908" lon="4.61592">
        <ele>545</ele>
        <time>2012-11-07T10:13:16Z</time>
      </trkpt>
      <trkpt lat="45.60911" lon="4.61594">
        <ele>545</ele>
        <time>2012-11-07T10:13:18Z</time>
      </trkpt>
      <trkpt lat="45.60914" lon="4.61598">
        <ele>547</ele>
        <time>2012-11-07T10:13:20Z</time>
      </trkpt>
      <trkpt lat="45.60918" lon="4.61601">
        <ele>547</ele>
        <time>2012-11-07T10:13:22Z</time>
      </trkpt>
      <trkpt lat="45.60921" lon="4.61603">
        <ele>549</ele>
        <time>2012-11-07T10:13:23Z</time>
      </trkpt>
      <trkpt lat="45.60924" lon="4.61604">
        <ele>549</ele>
        <time>2012-11-07T10:13:24Z</time>
      </trkpt>
      <trkpt lat="45.60929" lon="4.61604">
        <ele>548</ele>
        <time>2012-11-07T10:13:27Z</time>
      </trkpt>
      <trkpt lat="45.60931" lon="4.61601">
        <ele>547</ele>
        <time>2012-11-07T10:13:29Z</time>
      </trkpt>
      <trkpt lat="45.60932" lon="4.61599">
        <ele>546</ele>
        <time>2012-11-07T10:13:31Z</time>
      </trkpt>
      <trkpt lat="45.60933" lon="4.61596">
        <ele>546</ele>
        <time>2012-11-07T10:13:34Z</time>
      </trkpt>
      <trkpt lat="45.60936" lon="4.61596">
        <ele>544</ele>
        <time>2012-11-07T10:13:36Z</time>
      </trkpt>
      <trkpt lat="45.60939" lon="4.61594">
        <ele>544</ele>
        <time>2012-11-07T10:13:38Z</time>
      </trkpt>
      <trkpt lat="45.60942" lon="4.61592">
        <ele>543</ele>
        <time>2012-11-07T10:13:40Z</time>
      </trkpt>
      <trkpt lat="45.60943" lon="4.61589">
        <ele>545</ele>
        <time>2012-11-07T10:13:46Z</time>
      </trkpt>
      <trkpt lat="45.60947" lon="4.61585">
        <ele>545</ele>
        <time>2012-11-07T10:13:49Z</time>
      </trkpt>
      <trkpt lat="45.60949" lon="4.61584">
        <ele>544</ele>
        <time>2012-11-07T10:13:50Z</time>
      </trkpt>
      <trkpt lat="45.60952" lon="4.61583">
        <ele>544</ele>
        <time>2012-11-07T10:13:51Z</time>
      </trkpt>
      <trkpt lat="45.60966" lon="4.6158">
        <ele>546</ele>
        <time>2012-11-07T10:13:55Z</time>
      </trkpt>
      <trkpt lat="45.6098" lon="4.61577">
        <ele>548</ele>
        <time>2012-11-07T10:13:59Z</time>
      </trkpt>
      <trkpt lat="45.60983" lon="4.61576">
        <ele>547</ele>
        <time>2012-11-07T10:14:01Z</time>
      </trkpt>
      <trkpt lat="45.60989" lon="4.61575">
        <ele>547</ele>
        <time>2012-11-07T10:14:05Z</time>
      </trkpt>
      <trkpt lat="45.60994" lon="4.61574">
        <ele>547</ele>
        <time>2012-11-07T10:14:09Z</time>
      </trkpt>
      <trkpt lat="45.61" lon="4.61574">
        <ele>548</ele>
        <time>2012-11-07T10:14:14Z</time>
      </trkpt>
      <trkpt lat="45.61003" lon="4.61574">
        <ele>549</ele>
        <time>2012-11-07T10:14:16Z</time>
      </trkpt>
      <trkpt lat="45.61006" lon="4.61573">
        <ele>548</ele>
        <time>2012-11-07T10:14:18Z</time>
      </trkpt>
      <trkpt lat="45.61009" lon="4.61573">
        <ele>550</ele>
        <time>2012-11-07T10:14:20Z</time>
      </trkpt>
      <trkpt lat="45.61021" lon="4.6157">
        <ele>551</ele>
        <time>2012-11-07T10:14:31Z</time>
      </trkpt>
      <trkpt lat="45.61023" lon="4.61569">
        <ele>551</ele>
        <time>2012-11-07T10:14:33Z</time>
      </trkpt>
      <trkpt lat="45.61025" lon="4.61568">
        <ele>550</ele>
        <time>2012-11-07T10:14:35Z</time>
      </trkpt>
      <trkpt lat="45.61028" lon="4.61568">
        <ele>550</ele>
        <time>2012-11-07T10:14:37Z</time>
      </trkpt>
      <trkpt lat="45.61036" lon="4.61568">
        <ele>549</ele>
        <time>2012-11-07T10:14:43Z</time>
      </trkpt>
      <trkpt lat="45.6104" lon="4.61569">
        <ele>547</ele>
        <time>2012-11-07T10:14:46Z</time>
      </trkpt>
      <trkpt lat="45.61043" lon="4.61571">
        <ele>547</ele>
        <time>2012-11-07T10:14:49Z</time>
      </trkpt>
      <trkpt lat="45.61046" lon="4.61573">
        <ele>549</ele>
        <time>2012-11-07T10:14:51Z</time>
      </trkpt>
      <trkpt lat="45.6105" lon="4.61575">
        <ele>549</ele>
        <time>2012-11-07T10:14:53Z</time>
      </trkpt>
      <trkpt lat="45.61052" lon="4.61577">
        <ele>548</ele>
        <time>2012-11-07T10:14:55Z</time>
      </trkpt>
      <trkpt lat="45.61055" lon="4.61579">
        <ele>550</ele>
        <time>2012-11-07T10:14:57Z</time>
      </trkpt>
      <trkpt lat="45.61057" lon="4.61581">
        <ele>549</ele>
        <time>2012-11-07T10:14:58Z</time>
      </trkpt>
      <trkpt lat="45.61059" lon="4.61582">
        <ele>549</ele>
        <time>2012-11-07T10:14:59Z</time>
      </trkpt>
      <trkpt lat="45.61061" lon="4.61583">
        <ele>550</ele>
        <time>2012-11-07T10:15:00Z</time>
      </trkpt>
      <trkpt lat="45.61062" lon="4.61584">
        <ele>550</ele>
        <time>2012-11-07T10:15:01Z</time>
      </trkpt>
      <trkpt lat="45.61066" lon="4.61586">
        <ele>549</ele>
        <time>2012-11-07T10:15:03Z</time>
      </trkpt>
      <trkpt lat="45.6107" lon="4.61589">
        <ele>549</ele>
        <time>2012-11-07T10:15:05Z</time>
      </trkpt>
      <trkpt lat="45.61072" lon="4.6159">
        <ele>549</ele>
        <time>2012-11-07T10:15:06Z</time>
      </trkpt>
      <trkpt lat="45.61074" lon="4.61592">
        <ele>549</ele>
        <time>2012-11-07T10:15:07Z</time>
      </trkpt>
      <trkpt lat="45.61076" lon="4.61593">
        <ele>551</ele>
        <time>2012-11-07T10:15:08Z</time>
      </trkpt>
      <trkpt lat="45.61078" lon="4.61596">
        <ele>550</ele>
        <time>2012-11-07T10:15:10Z</time>
      </trkpt>
      <trkpt lat="45.61081" lon="4.61599">
        <ele>551</ele>
        <time>2012-11-07T10:15:12Z</time>
      </trkpt>
      <trkpt lat="45.61085" lon="4.61606">
        <ele>550</ele>
        <time>2012-11-07T10:15:17Z</time>
      </trkpt>
      <trkpt lat="45.61087" lon="4.6161">
        <ele>552</ele>
        <time>2012-11-07T10:15:20Z</time>
      </trkpt>
      <trkpt lat="45.61088" lon="4.61613">
        <ele>551</ele>
        <time>2012-11-07T10:15:22Z</time>
      </trkpt>
      <trkpt lat="45.61089" lon="4.6162">
        <ele>551</ele>
        <time>2012-11-07T10:15:25Z</time>
      </trkpt>
      <trkpt lat="45.61088" lon="4.61624">
        <ele>551</ele>
        <time>2012-11-07T10:15:27Z</time>
      </trkpt>
      <trkpt lat="45.61089" lon="4.61628">
        <ele>551</ele>
        <time>2012-11-07T10:15:29Z</time>
      </trkpt>
      <trkpt lat="45.6109" lon="4.61635">
        <ele>550</ele>
        <time>2012-11-07T10:15:32Z</time>
      </trkpt>
      <trkpt lat="45.6109" lon="4.61639">
        <ele>550</ele>
        <time>2012-11-07T10:15:33Z</time>
      </trkpt>
      <trkpt lat="45.61091" lon="4.61643">
        <ele>549</ele>
        <time>2012-11-07T10:15:34Z</time>
      </trkpt>
      <trkpt lat="45.61092" lon="4.61649">
        <ele>548</ele>
        <time>2012-11-07T10:15:37Z</time>
      </trkpt>
      <trkpt lat="45.61093" lon="4.61653">
        <ele>548</ele>
        <time>2012-11-07T10:15:39Z</time>
      </trkpt>
      <trkpt lat="45.61093" lon="4.61655">
        <ele>547</ele>
        <time>2012-11-07T10:15:40Z</time>
      </trkpt>
      <trkpt lat="45.61094" lon="4.6166">
        <ele>547</ele>
        <time>2012-11-07T10:15:42Z</time>
      </trkpt>
      <trkpt lat="45.61096" lon="4.61667">
        <ele>546</ele>
        <time>2012-11-07T10:15:45Z</time>
      </trkpt>
      <trkpt lat="45.61099" lon="4.61673">
        <ele>548</ele>
        <time>2012-11-07T10:15:48Z</time>
      </trkpt>
      <trkpt lat="45.61101" lon="4.61677">
        <ele>547</ele>
        <time>2012-11-07T10:15:50Z</time>
      </trkpt>
      <trkpt lat="45.61103" lon="4.61681">
        <ele>546</ele>
        <time>2012-11-07T10:15:52Z</time>
      </trkpt>
      <trkpt lat="45.61104" lon="4.61685">
        <ele>546</ele>
        <time>2012-11-07T10:15:54Z</time>
      </trkpt>
      <trkpt lat="45.61104" lon="4.61688">
        <ele>547</ele>
        <time>2012-11-07T10:15:56Z</time>
      </trkpt>
      <trkpt lat="45.61103" lon="4.61692">
        <ele>548</ele>
        <time>2012-11-07T10:15:58Z</time>
      </trkpt>
      <trkpt lat="45.61102" lon="4.61694">
        <ele>551</ele>
        <time>2012-11-07T10:15:59Z</time>
      </trkpt>
      <trkpt lat="45.61101" lon="4.61698">
        <ele>552</ele>
        <time>2012-11-07T10:16:00Z</time>
      </trkpt>
      <trkpt lat="45.611" lon="4.61701">
        <ele>552</ele>
        <time>2012-11-07T10:16:01Z</time>
      </trkpt>
      <trkpt lat="45.611" lon="4.61704">
        <ele>552</ele>
        <time>2012-11-07T10:16:02Z</time>
      </trkpt>
      <trkpt lat="45.61101" lon="4.61707">
        <ele>549</ele>
        <time>2012-11-07T10:16:04Z</time>
      </trkpt>
      <trkpt lat="45.61103" lon="4.61709">
        <ele>547</ele>
        <time>2012-11-07T10:16:06Z</time>
      </trkpt>
      <trkpt lat="45.61105" lon="4.61712">
        <ele>549</ele>
        <time>2012-11-07T10:16:08Z</time>
      </trkpt>
      <trkpt lat="45.61108" lon="4.61714">
        <ele>549</ele>
        <time>2012-11-07T10:16:10Z</time>
      </trkpt>
      <trkpt lat="45.6111" lon="4.61715">
        <ele>547</ele>
        <time>2012-11-07T10:16:12Z</time>
      </trkpt>
      <trkpt lat="45.61112" lon="4.61722">
        <ele>549</ele>
        <time>2012-11-07T10:16:17Z</time>
      </trkpt>
      <trkpt lat="45.61114" lon="4.61725">
        <ele>548</ele>
        <time>2012-11-07T10:16:19Z</time>
      </trkpt>
      <trkpt lat="45.61114" lon="4.6173">
        <ele>549</ele>
        <time>2012-11-07T10:16:21Z</time>
      </trkpt>
      <trkpt lat="45.61115" lon="4.61735">
        <ele>547</ele>
        <time>2012-11-07T10:16:23Z</time>
      </trkpt>
      <trkpt lat="45.61116" lon="4.61739">
        <ele>547</ele>
        <time>2012-11-07T10:16:25Z</time>
      </trkpt>
      <trkpt lat="45.61117" lon="4.61742">
        <ele>547</ele>
        <time>2012-11-07T10:16:26Z</time>
      </trkpt>
      <trkpt lat="45.61121" lon="4.61748">
        <ele>547</ele>
        <time>2012-11-07T10:16:31Z</time>
      </trkpt>
      <trkpt lat="45.61122" lon="4.61752">
        <ele>546</ele>
        <time>2012-11-07T10:16:33Z</time>
      </trkpt>
      <trkpt lat="45.61123" lon="4.61756">
        <ele>546</ele>
        <time>2012-11-07T10:16:35Z</time>
      </trkpt>
      <trkpt lat="45.61123" lon="4.61759">
        <ele>545</ele>
        <time>2012-11-07T10:16:36Z</time>
      </trkpt>
      <trkpt lat="45.61123" lon="4.61762">
        <ele>545</ele>
        <time>2012-11-07T10:16:37Z</time>
      </trkpt>
      <trkpt lat="45.61126" lon="4.61776">
        <ele>545</ele>
        <time>2012-11-07T10:16:43Z</time>
      </trkpt>
      <trkpt lat="45.6113" lon="4.61785">
        <ele>544</ele>
        <time>2012-11-07T10:16:48Z</time>
      </trkpt>
      <trkpt lat="45.61131" lon="4.61789">
        <ele>544</ele>
        <time>2012-11-07T10:16:50Z</time>
      </trkpt>
      <trkpt lat="45.61131" lon="4.61792">
        <ele>545</ele>
        <time>2012-11-07T10:16:51Z</time>
      </trkpt>
      <trkpt lat="45.61132" lon="4.61797">
        <ele>545</ele>
        <time>2012-11-07T10:16:53Z</time>
      </trkpt>
      <trkpt lat="45.61132" lon="4.618">
        <ele>544</ele>
        <time>2012-11-07T10:16:54Z</time>
      </trkpt>
      <trkpt lat="45.61133" lon="4.61805">
        <ele>545</ele>
        <time>2012-11-07T10:16:56Z</time>
      </trkpt>
      <trkpt lat="45.61134" lon="4.61808">
        <ele>545</ele>
        <time>2012-11-07T10:16:58Z</time>
      </trkpt>
      <trkpt lat="45.61136" lon="4.61812">
        <ele>545</ele>
        <time>2012-11-07T10:17:00Z</time>
      </trkpt>
      <trkpt lat="45.61136" lon="4.61814">
        <ele>545</ele>
        <time>2012-11-07T10:17:01Z</time>
      </trkpt>
      <trkpt lat="45.61137" lon="4.61817">
        <ele>545</ele>
        <time>2012-11-07T10:17:02Z</time>
      </trkpt>
      <trkpt lat="45.61138" lon="4.61823">
        <ele>546</ele>
        <time>2012-11-07T10:17:05Z</time>
      </trkpt>
      <trkpt lat="45.61139" lon="4.61828">
        <ele>545</ele>
        <time>2012-11-07T10:17:07Z</time>
      </trkpt>
      <trkpt lat="45.6114" lon="4.61831">
        <ele>546</ele>
        <time>2012-11-07T10:17:08Z</time>
      </trkpt>
      <trkpt lat="45.6114" lon="4.61833">
        <ele>546</ele>
        <time>2012-11-07T10:17:09Z</time>
      </trkpt>
      <trkpt lat="45.61141" lon="4.61838">
        <ele>545</ele>
        <time>2012-11-07T10:17:11Z</time>
      </trkpt>
      <trkpt lat="45.61143" lon="4.61841">
        <ele>544</ele>
        <time>2012-11-07T10:17:13Z</time>
      </trkpt>
      <trkpt lat="45.61144" lon="4.61845">
        <ele>543</ele>
        <time>2012-11-07T10:17:15Z</time>
      </trkpt>
      <trkpt lat="45.61145" lon="4.6185">
        <ele>543</ele>
        <time>2012-11-07T10:17:17Z</time>
      </trkpt>
      <trkpt lat="45.61151" lon="4.61869">
        <ele>543</ele>
        <time>2012-11-07T10:17:27Z</time>
      </trkpt>
      <trkpt lat="45.61152" lon="4.61873">
        <ele>542</ele>
        <time>2012-11-07T10:17:29Z</time>
      </trkpt>
      <trkpt lat="45.61154" lon="4.61876">
        <ele>541</ele>
        <time>2012-11-07T10:17:31Z</time>
      </trkpt>
      <trkpt lat="45.61155" lon="4.6188">
        <ele>542</ele>
        <time>2012-11-07T10:17:33Z</time>
      </trkpt>
      <trkpt lat="45.61157" lon="4.61883">
        <ele>541</ele>
        <time>2012-11-07T10:17:35Z</time>
      </trkpt>
      <trkpt lat="45.61158" lon="4.61887">
        <ele>541</ele>
        <time>2012-11-07T10:17:37Z</time>
      </trkpt>
      <trkpt lat="45.61159" lon="4.61891">
        <ele>541</ele>
        <time>2012-11-07T10:17:39Z</time>
      </trkpt>
      <trkpt lat="45.61161" lon="4.61895">
        <ele>541</ele>
        <time>2012-11-07T10:17:41Z</time>
      </trkpt>
      <trkpt lat="45.61162" lon="4.61899">
        <ele>542</ele>
        <time>2012-11-07T10:17:43Z</time>
      </trkpt>
      <trkpt lat="45.61163" lon="4.61902">
        <ele>541</ele>
        <time>2012-11-07T10:17:44Z</time>
      </trkpt>
      <trkpt lat="45.61168" lon="4.61913">
        <ele>541</ele>
        <time>2012-11-07T10:17:49Z</time>
      </trkpt>
      <trkpt lat="45.61172" lon="4.61917">
        <ele>540</ele>
        <time>2012-11-07T10:17:53Z</time>
      </trkpt>
      <trkpt lat="45.61174" lon="4.6192">
        <ele>539</ele>
        <time>2012-11-07T10:17:55Z</time>
      </trkpt>
      <trkpt lat="45.61176" lon="4.61923">
        <ele>538</ele>
        <time>2012-11-07T10:17:57Z</time>
      </trkpt>
      <trkpt lat="45.61177" lon="4.61927">
        <ele>538</ele>
        <time>2012-11-07T10:17:59Z</time>
      </trkpt>
      <trkpt lat="45.61178" lon="4.6193">
        <ele>539</ele>
        <time>2012-11-07T10:18:00Z</time>
      </trkpt>
      <trkpt lat="45.61179" lon="4.61935">
        <ele>539</ele>
        <time>2012-11-07T10:18:01Z</time>
      </trkpt>
      <trkpt lat="45.61181" lon="4.61943">
        <ele>539</ele>
        <time>2012-11-07T10:18:03Z</time>
      </trkpt>
      <trkpt lat="45.61182" lon="4.61945">
        <ele>539</ele>
        <time>2012-11-07T10:18:04Z</time>
      </trkpt>
      <trkpt lat="45.61184" lon="4.61947">
        <ele>539</ele>
        <time>2012-11-07T10:18:05Z</time>
      </trkpt>
      <trkpt lat="45.61185" lon="4.61948">
        <ele>538</ele>
        <time>2012-11-07T10:18:06Z</time>
      </trkpt>
      <trkpt lat="45.61188" lon="4.6195">
        <ele>538</ele>
        <time>2012-11-07T10:18:08Z</time>
      </trkpt>
      <trkpt lat="45.61191" lon="4.61953">
        <ele>539</ele>
        <time>2012-11-07T10:18:10Z</time>
      </trkpt>
      <trkpt lat="45.61192" lon="4.61955">
        <ele>539</ele>
        <time>2012-11-07T10:18:11Z</time>
      </trkpt>
      <trkpt lat="45.61196" lon="4.61964">
        <ele>539</ele>
        <time>2012-11-07T10:18:16Z</time>
      </trkpt>
      <trkpt lat="45.61198" lon="4.61968">
        <ele>538</ele>
        <time>2012-11-07T10:18:18Z</time>
      </trkpt>
      <trkpt lat="45.612" lon="4.61969">
        <ele>537</ele>
        <time>2012-11-07T10:18:19Z</time>
      </trkpt>
      <trkpt lat="45.61202" lon="4.61972">
        <ele>537</ele>
        <time>2012-11-07T10:18:21Z</time>
      </trkpt>
      <trkpt lat="45.61205" lon="4.61976">
        <ele>537</ele>
        <time>2012-11-07T10:18:24Z</time>
      </trkpt>
      <trkpt lat="45.61207" lon="4.61979">
        <ele>537</ele>
        <time>2012-11-07T10:18:26Z</time>
      </trkpt>
      <trkpt lat="45.61211" lon="4.61985">
        <ele>537</ele>
        <time>2012-11-07T10:18:31Z</time>
      </trkpt>
      <trkpt lat="45.61213" lon="4.61987">
        <ele>536</ele>
        <time>2012-11-07T10:18:33Z</time>
      </trkpt>
      <trkpt lat="45.61215" lon="4.61992">
        <ele>536</ele>
        <time>2012-11-07T10:18:36Z</time>
      </trkpt>
      <trkpt lat="45.61218" lon="4.61997">
        <ele>535</ele>
        <time>2012-11-07T10:18:39Z</time>
      </trkpt>
      <trkpt lat="45.6122" lon="4.62">
        <ele>536</ele>
        <time>2012-11-07T10:18:41Z</time>
      </trkpt>
      <trkpt lat="45.61222" lon="4.61999">
        <ele>536</ele>
        <time>2012-11-07T10:18:44Z</time>
      </trkpt>
      <trkpt lat="45.61223" lon="4.62002">
        <ele>535</ele>
        <time>2012-11-07T10:18:46Z</time>
      </trkpt>
      <trkpt lat="45.61223" lon="4.62005">
        <ele>535</ele>
        <time>2012-11-07T10:18:47Z</time>
      </trkpt>
      <trkpt lat="45.61223" lon="4.62009">
        <ele>532</ele>
        <time>2012-11-07T10:18:48Z</time>
      </trkpt>
      <trkpt lat="45.61223" lon="4.62012">
        <ele>531</ele>
        <time>2012-11-07T10:18:49Z</time>
      </trkpt>
      <trkpt lat="45.61222" lon="4.62016">
        <ele>531</ele>
        <time>2012-11-07T10:18:50Z</time>
      </trkpt>
      <trkpt lat="45.61222" lon="4.62018">
        <ele>530</ele>
        <time>2012-11-07T10:18:51Z</time>
      </trkpt>
      <trkpt lat="45.61221" lon="4.62023">
        <ele>530</ele>
        <time>2012-11-07T10:18:53Z</time>
      </trkpt>
      <trkpt lat="45.6122" lon="4.62026">
        <ele>529</ele>
        <time>2012-11-07T10:18:54Z</time>
      </trkpt>
      <trkpt lat="45.61219" lon="4.62028">
        <ele>528</ele>
        <time>2012-11-07T10:18:55Z</time>
      </trkpt>
      <trkpt lat="45.61218" lon="4.6203">
        <ele>528</ele>
        <time>2012-11-07T10:18:56Z</time>
      </trkpt>
      <trkpt lat="45.61217" lon="4.62032">
        <ele>527</ele>
        <time>2012-11-07T10:18:57Z</time>
      </trkpt>
      <trkpt lat="45.61216" lon="4.62034">
        <ele>527</ele>
        <time>2012-11-07T10:18:58Z</time>
      </trkpt>
      <trkpt lat="45.61214" lon="4.62036">
        <ele>527</ele>
        <time>2012-11-07T10:18:59Z</time>
      </trkpt>
      <trkpt lat="45.61213" lon="4.62038">
        <ele>528</ele>
        <time>2012-11-07T10:19:00Z</time>
      </trkpt>
      <trkpt lat="45.61211" lon="4.6204">
        <ele>527</ele>
        <time>2012-11-07T10:19:01Z</time>
      </trkpt>
      <trkpt lat="45.61209" lon="4.62041">
        <ele>527</ele>
        <time>2012-11-07T10:19:02Z</time>
      </trkpt>
      <trkpt lat="45.61208" lon="4.62043">
        <ele>527</ele>
        <time>2012-11-07T10:19:03Z</time>
      </trkpt>
      <trkpt lat="45.61205" lon="4.62045">
        <ele>526</ele>
        <time>2012-11-07T10:19:05Z</time>
      </trkpt>
      <trkpt lat="45.61202" lon="4.62047">
        <ele>525</ele>
        <time>2012-11-07T10:19:07Z</time>
      </trkpt>
      <trkpt lat="45.61195" lon="4.62052">
        <ele>525</ele>
        <time>2012-11-07T10:19:11Z</time>
      </trkpt>
      <trkpt lat="45.61193" lon="4.62055">
        <ele>525</ele>
        <time>2012-11-07T10:19:13Z</time>
      </trkpt>
      <trkpt lat="45.61191" lon="4.62058">
        <ele>524</ele>
        <time>2012-11-07T10:19:15Z</time>
      </trkpt>
      <trkpt lat="45.61189" lon="4.62061">
        <ele>524</ele>
        <time>2012-11-07T10:19:17Z</time>
      </trkpt>
      <trkpt lat="45.61188" lon="4.62065">
        <ele>523</ele>
        <time>2012-11-07T10:19:19Z</time>
      </trkpt>
      <trkpt lat="45.61187" lon="4.62069">
        <ele>523</ele>
        <time>2012-11-07T10:19:21Z</time>
      </trkpt>
      <trkpt lat="45.61187" lon="4.62074">
        <ele>522</ele>
        <time>2012-11-07T10:19:23Z</time>
      </trkpt>
      <trkpt lat="45.61187" lon="4.62079">
        <ele>522</ele>
        <time>2012-11-07T10:19:25Z</time>
      </trkpt>
      <trkpt lat="45.61187" lon="4.62083">
        <ele>521</ele>
        <time>2012-11-07T10:19:27Z</time>
      </trkpt>
      <trkpt lat="45.61187" lon="4.62092">
        <ele>520</ele>
        <time>2012-11-07T10:19:31Z</time>
      </trkpt>
      <trkpt lat="45.61186" lon="4.62101">
        <ele>518</ele>
        <time>2012-11-07T10:19:35Z</time>
      </trkpt>
      <trkpt lat="45.61186" lon="4.62104">
        <ele>518</ele>
        <time>2012-11-07T10:19:36Z</time>
      </trkpt>
      <trkpt lat="45.61185" lon="4.62107">
        <ele>518</ele>
        <time>2012-11-07T10:19:37Z</time>
      </trkpt>
      <trkpt lat="45.61184" lon="4.62112">
        <ele>517</ele>
        <time>2012-11-07T10:19:40Z</time>
      </trkpt>
      <trkpt lat="45.61184" lon="4.62116">
        <ele>517</ele>
        <time>2012-11-07T10:19:42Z</time>
      </trkpt>
      <trkpt lat="45.61184" lon="4.62121">
        <ele>517</ele>
        <time>2012-11-07T10:19:44Z</time>
      </trkpt>
      <trkpt lat="45.61183" lon="4.62125">
        <ele>518</ele>
        <time>2012-11-07T10:19:46Z</time>
      </trkpt>
      <trkpt lat="45.61183" lon="4.62128">
        <ele>517</ele>
        <time>2012-11-07T10:19:47Z</time>
      </trkpt>
      <trkpt lat="45.61183" lon="4.62131">
        <ele>517</ele>
        <time>2012-11-07T10:19:48Z</time>
      </trkpt>
      <trkpt lat="45.61182" lon="4.62134">
        <ele>517</ele>
        <time>2012-11-07T10:19:49Z</time>
      </trkpt>
      <trkpt lat="45.61182" lon="4.62138">
        <ele>516</ele>
        <time>2012-11-07T10:19:51Z</time>
      </trkpt>
      <trkpt lat="45.61183" lon="4.62141">
        <ele>514</ele>
        <time>2012-11-07T10:19:54Z</time>
      </trkpt>
      <trkpt lat="45.61183" lon="4.62145">
        <ele>513</ele>
        <time>2012-11-07T10:19:56Z</time>
      </trkpt>
      <trkpt lat="45.61182" lon="4.6215">
        <ele>513</ele>
        <time>2012-11-07T10:19:58Z</time>
      </trkpt>
      <trkpt lat="45.61182" lon="4.62154">
        <ele>513</ele>
        <time>2012-11-07T10:20:00Z</time>
      </trkpt>
      <trkpt lat="45.61182" lon="4.62157">
        <ele>512</ele>
        <time>2012-11-07T10:20:02Z</time>
      </trkpt>
      <trkpt lat="45.61184" lon="4.62169">
        <ele>511</ele>
        <time>2012-11-07T10:20:07Z</time>
      </trkpt>
      <trkpt lat="45.61186" lon="4.62181">
        <ele>512</ele>
        <time>2012-11-07T10:20:12Z</time>
      </trkpt>
      <trkpt lat="45.61188" lon="4.62193">
        <ele>513</ele>
        <time>2012-11-07T10:20:17Z</time>
      </trkpt>
      <trkpt lat="45.61188" lon="4.62198">
        <ele>514</ele>
        <time>2012-11-07T10:20:19Z</time>
      </trkpt>
      <trkpt lat="45.61189" lon="4.62201">
        <ele>514</ele>
        <time>2012-11-07T10:20:20Z</time>
      </trkpt>
      <trkpt lat="45.6119" lon="4.62205">
        <ele>514</ele>
        <time>2012-11-07T10:20:22Z</time>
      </trkpt>
      <trkpt lat="45.61191" lon="4.6221">
        <ele>515</ele>
        <time>2012-11-07T10:20:24Z</time>
      </trkpt>
      <trkpt lat="45.61192" lon="4.62215">
        <ele>515</ele>
        <time>2012-11-07T10:20:26Z</time>
      </trkpt>
      <trkpt lat="45.61193" lon="4.62217">
        <ele>514</ele>
        <time>2012-11-07T10:20:27Z</time>
      </trkpt>
      <trkpt lat="45.61197" lon="4.62222">
        <ele>516</ele>
        <time>2012-11-07T10:20:31Z</time>
      </trkpt>
      <trkpt lat="45.61197" lon="4.62226">
        <ele>516</ele>
        <time>2012-11-07T10:20:33Z</time>
      </trkpt>
      <trkpt lat="45.61197" lon="4.62228">
        <ele>516</ele>
        <time>2012-11-07T10:20:34Z</time>
      </trkpt>
      <trkpt lat="45.61198" lon="4.62233">
        <ele>513</ele>
        <time>2012-11-07T10:20:36Z</time>
      </trkpt>
      <trkpt lat="45.61199" lon="4.62236">
        <ele>513</ele>
        <time>2012-11-07T10:20:37Z</time>
      </trkpt>
      <trkpt lat="45.612" lon="4.62238">
        <ele>512</ele>
        <time>2012-11-07T10:20:38Z</time>
      </trkpt>
      <trkpt lat="45.61201" lon="4.62241">
        <ele>512</ele>
        <time>2012-11-07T10:20:39Z</time>
      </trkpt>
      <trkpt lat="45.61201" lon="4.62243">
        <ele>507</ele>
        <time>2012-11-07T10:20:40Z</time>
      </trkpt>
      <trkpt lat="45.61202" lon="4.62246">
        <ele>506</ele>
        <time>2012-11-07T10:20:41Z</time>
      </trkpt>
      <trkpt lat="45.61205" lon="4.62252">
        <ele>505</ele>
        <time>2012-11-07T10:20:44Z</time>
      </trkpt>
      <trkpt lat="45.61206" lon="4.62255">
        <ele>504</ele>
        <time>2012-11-07T10:20:46Z</time>
      </trkpt>
      <trkpt lat="45.61208" lon="4.62258">
        <ele>505</ele>
        <time>2012-11-07T10:20:48Z</time>
      </trkpt>
      <trkpt lat="45.61208" lon="4.62261">
        <ele>505</ele>
        <time>2012-11-07T10:20:54Z</time>
      </trkpt>
      <trkpt lat="45.6121" lon="4.62265">
        <ele>505</ele>
        <time>2012-11-07T10:20:55Z</time>
      </trkpt>
      <trkpt lat="45.61212" lon="4.62267">
        <ele>506</ele>
        <time>2012-11-07T10:20:56Z</time>
      </trkpt>
      <trkpt lat="45.61214" lon="4.6227">
        <ele>506</ele>
        <time>2012-11-07T10:20:57Z</time>
      </trkpt>
      <trkpt lat="45.61216" lon="4.62272">
        <ele>506</ele>
        <time>2012-11-07T10:20:58Z</time>
      </trkpt>
      <trkpt lat="45.6122" lon="4.62276">
        <ele>506</ele>
        <time>2012-11-07T10:21:00Z</time>
      </trkpt>
      <trkpt lat="45.61222" lon="4.62279">
        <ele>506</ele>
        <time>2012-11-07T10:21:01Z</time>
      </trkpt>
      <trkpt lat="45.61224" lon="4.62281">
        <ele>505</ele>
        <time>2012-11-07T10:21:02Z</time>
      </trkpt>
      <trkpt lat="45.61227" lon="4.62285">
        <ele>504</ele>
        <time>2012-11-07T10:21:05Z</time>
      </trkpt>
      <trkpt lat="45.61229" lon="4.62288">
        <ele>503</ele>
        <time>2012-11-07T10:21:07Z</time>
      </trkpt>
      <trkpt lat="45.61231" lon="4.6229">
        <ele>502</ele>
        <time>2012-11-07T10:21:08Z</time>
      </trkpt>
      <trkpt lat="45.61233" lon="4.62295">
        <ele>501</ele>
        <time>2012-11-07T10:21:10Z</time>
      </trkpt>
      <trkpt lat="45.61235" lon="4.62297">
        <ele>501</ele>
        <time>2012-11-07T10:21:11Z</time>
      </trkpt>
      <trkpt lat="45.61239" lon="4.62303">
        <ele>500</ele>
        <time>2012-11-07T10:21:14Z</time>
      </trkpt>
      <trkpt lat="45.61241" lon="4.62305">
        <ele>500</ele>
        <time>2012-11-07T10:21:15Z</time>
      </trkpt>
      <trkpt lat="45.61246" lon="4.6231">
        <ele>501</ele>
        <time>2012-11-07T10:21:19Z</time>
      </trkpt>
      <trkpt lat="45.61249" lon="4.62313">
        <ele>499</ele>
        <time>2012-11-07T10:21:21Z</time>
      </trkpt>
      <trkpt lat="45.61251" lon="4.62316">
        <ele>499</ele>
        <time>2012-11-07T10:21:23Z</time>
      </trkpt>
      <trkpt lat="45.61254" lon="4.6232">
        <ele>500</ele>
        <time>2012-11-07T10:21:25Z</time>
      </trkpt>
      <trkpt lat="45.61256" lon="4.62322">
        <ele>501</ele>
        <time>2012-11-07T10:21:26Z</time>
      </trkpt>
      <trkpt lat="45.61257" lon="4.62324">
        <ele>500</ele>
        <time>2012-11-07T10:21:27Z</time>
      </trkpt>
      <trkpt lat="45.6126" lon="4.62327">
        <ele>497</ele>
        <time>2012-11-07T10:21:29Z</time>
      </trkpt>
      <trkpt lat="45.61261" lon="4.62329">
        <ele>497</ele>
        <time>2012-11-07T10:21:31Z</time>
      </trkpt>
      <trkpt lat="45.61263" lon="4.62331">
        <ele>497</ele>
        <time>2012-11-07T10:21:33Z</time>
      </trkpt>
      <trkpt lat="45.61266" lon="4.62335">
        <ele>497</ele>
        <time>2012-11-07T10:21:35Z</time>
      </trkpt>
      <trkpt lat="45.61277" lon="4.62347">
        <ele>498</ele>
        <time>2012-11-07T10:21:43Z</time>
      </trkpt>
      <trkpt lat="45.61279" lon="4.62348">
        <ele>498</ele>
        <time>2012-11-07T10:21:45Z</time>
      </trkpt>
      <trkpt lat="45.61282" lon="4.62352">
        <ele>498</ele>
        <time>2012-11-07T10:21:47Z</time>
      </trkpt>
      <trkpt lat="45.61284" lon="4.62357">
        <ele>498</ele>
        <time>2012-11-07T10:21:49Z</time>
      </trkpt>
      <trkpt lat="45.61286" lon="4.6236">
        <ele>498</ele>
        <time>2012-11-07T10:21:50Z</time>
      </trkpt>
      <trkpt lat="45.61287" lon="4.62362">
        <ele>499</ele>
        <time>2012-11-07T10:21:51Z</time>
      </trkpt>
      <trkpt lat="45.61289" lon="4.62364">
        <ele>499</ele>
        <time>2012-11-07T10:21:52Z</time>
      </trkpt>
      <trkpt lat="45.61291" lon="4.62366">
        <ele>499</ele>
        <time>2012-11-07T10:21:53Z</time>
      </trkpt>
      <trkpt lat="45.61292" lon="4.62367">
        <ele>499</ele>
        <time>2012-11-07T10:21:54Z</time>
      </trkpt>
      <trkpt lat="45.61294" lon="4.62369">
        <ele>498</ele>
        <time>2012-11-07T10:21:55Z</time>
      </trkpt>
      <trkpt lat="45.61296" lon="4.62374">
        <ele>498</ele>
        <time>2012-11-07T10:21:58Z</time>
      </trkpt>
      <trkpt lat="45.61299" lon="4.62375">
        <ele>498</ele>
        <time>2012-11-07T10:22:00Z</time>
      </trkpt>
      <trkpt lat="45.61302" lon="4.62376">
        <ele>498</ele>
        <time>2012-11-07T10:22:02Z</time>
      </trkpt>
      <trkpt lat="45.61306" lon="4.62378">
        <ele>497</ele>
        <time>2012-11-07T10:22:05Z</time>
      </trkpt>
      <trkpt lat="45.6131" lon="4.62379">
        <ele>496</ele>
        <time>2012-11-07T10:22:08Z</time>
      </trkpt>
      <trkpt lat="45.61314" lon="4.62381">
        <ele>494</ele>
        <time>2012-11-07T10:22:11Z</time>
      </trkpt>
      <trkpt lat="45.61317" lon="4.62382">
        <ele>494</ele>
        <time>2012-11-07T10:22:13Z</time>
      </trkpt>
      <trkpt lat="45.61319" lon="4.62384">
        <ele>494</ele>
        <time>2012-11-07T10:22:15Z</time>
      </trkpt>
      <trkpt lat="45.61321" lon="4.62387">
        <ele>495</ele>
        <time>2012-11-07T10:22:17Z</time>
      </trkpt>
      <trkpt lat="45.61322" lon="4.62391">
        <ele>495</ele>
        <time>2012-11-07T10:22:19Z</time>
      </trkpt>
      <trkpt lat="45.61322" lon="4.62395">
        <ele>495</ele>
        <time>2012-11-07T10:22:21Z</time>
      </trkpt>
      <trkpt lat="45.61321" lon="4.624">
        <ele>494</ele>
        <time>2012-11-07T10:22:23Z</time>
      </trkpt>
      <trkpt lat="45.6132" lon="4.62404">
        <ele>494</ele>
        <time>2012-11-07T10:22:25Z</time>
      </trkpt>
      <trkpt lat="45.61318" lon="4.62414">
        <ele>495</ele>
        <time>2012-11-07T10:22:29Z</time>
      </trkpt>
      <trkpt lat="45.61317" lon="4.62418">
        <ele>494</ele>
        <time>2012-11-07T10:22:31Z</time>
      </trkpt>
      <trkpt lat="45.61317" lon="4.62422">
        <ele>494</ele>
        <time>2012-11-07T10:22:33Z</time>
      </trkpt>
      <trkpt lat="45.61316" lon="4.62427">
        <ele>494</ele>
        <time>2012-11-07T10:22:35Z</time>
      </trkpt>
      <trkpt lat="45.61315" lon="4.62431">
        <ele>494</ele>
        <time>2012-11-07T10:22:37Z</time>
      </trkpt>
      <trkpt lat="45.61314" lon="4.62443">
        <ele>494</ele>
        <time>2012-11-07T10:22:42Z</time>
      </trkpt>
      <trkpt lat="45.61313" lon="4.62448">
        <ele>494</ele>
        <time>2012-11-07T10:22:44Z</time>
      </trkpt>
      <trkpt lat="45.61312" lon="4.62452">
        <ele>494</ele>
        <time>2012-11-07T10:22:46Z</time>
      </trkpt>
      <trkpt lat="45.61311" lon="4.62457">
        <ele>494</ele>
        <time>2012-11-07T10:22:48Z</time>
      </trkpt>
      <trkpt lat="45.61311" lon="4.62462">
        <ele>493</ele>
        <time>2012-11-07T10:22:50Z</time>
      </trkpt>
      <trkpt lat="45.6131" lon="4.62472">
        <ele>491</ele>
        <time>2012-11-07T10:22:55Z</time>
      </trkpt>
      <trkpt lat="45.6131" lon="4.62477">
        <ele>491</ele>
        <time>2012-11-07T10:22:57Z</time>
      </trkpt>
      <trkpt lat="45.61309" lon="4.62483">
        <ele>491</ele>
        <time>2012-11-07T10:23:00Z</time>
      </trkpt>
      <trkpt lat="45.61308" lon="4.62492">
        <ele>491</ele>
        <time>2012-11-07T10:23:04Z</time>
      </trkpt>
      <trkpt lat="45.61307" lon="4.62496">
        <ele>491</ele>
        <time>2012-11-07T10:23:06Z</time>
      </trkpt>
      <trkpt lat="45.61305" lon="4.62502">
        <ele>491</ele>
        <time>2012-11-07T10:23:09Z</time>
      </trkpt>
      <trkpt lat="45.61304" lon="4.62507">
        <ele>491</ele>
        <time>2012-11-07T10:23:11Z</time>
      </trkpt>
      <trkpt lat="45.61302" lon="4.62514">
        <ele>490</ele>
        <time>2012-11-07T10:23:14Z</time>
      </trkpt>
      <trkpt lat="45.61301" lon="4.62517">
        <ele>490</ele>
        <time>2012-11-07T10:23:15Z</time>
      </trkpt>
      <trkpt lat="45.613" lon="4.62521">
        <ele>490</ele>
        <time>2012-11-07T10:23:17Z</time>
      </trkpt>
      <trkpt lat="45.61298" lon="4.62525">
        <ele>490</ele>
        <time>2012-11-07T10:23:19Z</time>
      </trkpt>
      <trkpt lat="45.61292" lon="4.62543">
        <ele>491</ele>
        <time>2012-11-07T10:23:28Z</time>
      </trkpt>
      <trkpt lat="45.61291" lon="4.62548">
        <ele>491</ele>
        <time>2012-11-07T10:23:30Z</time>
      </trkpt>
      <trkpt lat="45.6129" lon="4.62552">
        <ele>490</ele>
        <time>2012-11-07T10:23:32Z</time>
      </trkpt>
      <trkpt lat="45.6129" lon="4.62556">
        <ele>490</ele>
        <time>2012-11-07T10:23:34Z</time>
      </trkpt>
      <trkpt lat="45.6129" lon="4.62568">
        <ele>488</ele>
        <time>2012-11-07T10:23:40Z</time>
      </trkpt>
      <trkpt lat="45.61289" lon="4.62571">
        <ele>487</ele>
        <time>2012-11-07T10:23:42Z</time>
      </trkpt>
      <trkpt lat="45.61289" lon="4.62575">
        <ele>487</ele>
        <time>2012-11-07T10:23:44Z</time>
      </trkpt>
      <trkpt lat="45.61289" lon="4.62579">
        <ele>487</ele>
        <time>2012-11-07T10:23:46Z</time>
      </trkpt>
      <trkpt lat="45.61289" lon="4.62583">
        <ele>487</ele>
        <time>2012-11-07T10:23:47Z</time>
      </trkpt>
      <trkpt lat="45.6129" lon="4.62586">
        <ele>486</ele>
        <time>2012-11-07T10:23:48Z</time>
      </trkpt>
      <trkpt lat="45.6129" lon="4.62589">
        <ele>486</ele>
        <time>2012-11-07T10:23:49Z</time>
      </trkpt>
      <trkpt lat="45.61291" lon="4.62594">
        <ele>486</ele>
        <time>2012-11-07T10:23:51Z</time>
      </trkpt>
      <trkpt lat="45.61291" lon="4.626">
        <ele>487</ele>
        <time>2012-11-07T10:23:54Z</time>
      </trkpt>
      <trkpt lat="45.61291" lon="4.62605">
        <ele>487</ele>
        <time>2012-11-07T10:23:56Z</time>
      </trkpt>
      <trkpt lat="45.61292" lon="4.62617">
        <ele>487</ele>
        <time>2012-11-07T10:24:01Z</time>
      </trkpt>
      <trkpt lat="45.61293" lon="4.62629">
        <ele>485</ele>
        <time>2012-11-07T10:24:06Z</time>
      </trkpt>
      <trkpt lat="45.61294" lon="4.62651">
        <ele>485</ele>
        <time>2012-11-07T10:24:15Z</time>
      </trkpt>
      <trkpt lat="45.61295" lon="4.6266">
        <ele>485</ele>
        <time>2012-11-07T10:24:19Z</time>
      </trkpt>
      <trkpt lat="45.61294" lon="4.62672">
        <ele>486</ele>
        <time>2012-11-07T10:24:24Z</time>
      </trkpt>
      <trkpt lat="45.61295" lon="4.62681">
        <ele>487</ele>
        <time>2012-11-07T10:24:29Z</time>
      </trkpt>
      <trkpt lat="45.61295" lon="4.62685">
        <ele>486</ele>
        <time>2012-11-07T10:24:31Z</time>
      </trkpt>
      <trkpt lat="45.61294" lon="4.62689">
        <ele>484</ele>
        <time>2012-11-07T10:24:33Z</time>
      </trkpt>
      <trkpt lat="45.61294" lon="4.62698">
        <ele>483</ele>
        <time>2012-11-07T10:24:37Z</time>
      </trkpt>
      <trkpt lat="45.61293" lon="4.627">
        <ele>485</ele>
        <time>2012-11-07T10:24:38Z</time>
      </trkpt>
      <trkpt lat="45.61293" lon="4.62703">
        <ele>486</ele>
        <time>2012-11-07T10:24:39Z</time>
      </trkpt>
      <trkpt lat="45.61293" lon="4.62708">
        <ele>486</ele>
        <time>2012-11-07T10:24:41Z</time>
      </trkpt>
      <trkpt lat="45.61293" lon="4.62712">
        <ele>485</ele>
        <time>2012-11-07T10:24:43Z</time>
      </trkpt>
      <trkpt lat="45.61294" lon="4.62715">
        <ele>484</ele>
        <time>2012-11-07T10:24:44Z</time>
      </trkpt>
      <trkpt lat="45.61295" lon="4.62718">
        <ele>482</ele>
        <time>2012-11-07T10:24:45Z</time>
      </trkpt>
      <trkpt lat="45.61298" lon="4.62727">
        <ele>483</ele>
        <time>2012-11-07T10:24:49Z</time>
      </trkpt>
      <trkpt lat="45.61298" lon="4.6273">
        <ele>484</ele>
        <time>2012-11-07T10:24:51Z</time>
      </trkpt>
      <trkpt lat="45.61299" lon="4.62733">
        <ele>484</ele>
        <time>2012-11-07T10:24:53Z</time>
      </trkpt>
      <trkpt lat="45.613" lon="4.62737">
        <ele>483</ele>
        <time>2012-11-07T10:24:55Z</time>
      </trkpt>
      <trkpt lat="45.61303" lon="4.62746">
        <ele>485</ele>
        <time>2012-11-07T10:25:00Z</time>
      </trkpt>
      <trkpt lat="45.61308" lon="4.62754">
        <ele>484</ele>
        <time>2012-11-07T10:25:05Z</time>
      </trkpt>
      <trkpt lat="45.61309" lon="4.62759">
        <ele>484</ele>
        <time>2012-11-07T10:25:07Z</time>
      </trkpt>
      <trkpt lat="45.61309" lon="4.62761">
        <ele>484</ele>
        <time>2012-11-07T10:25:08Z</time>
      </trkpt>
      <trkpt lat="45.61309" lon="4.62764">
        <ele>484</ele>
        <time>2012-11-07T10:25:09Z</time>
      </trkpt>
      <trkpt lat="45.6131" lon="4.62766">
        <ele>484</ele>
        <time>2012-11-07T10:25:10Z</time>
      </trkpt>
      <trkpt lat="45.61318" lon="4.62786">
        <ele>484</ele>
        <time>2012-11-07T10:25:15Z</time>
      </trkpt>
      <trkpt lat="45.6132" lon="4.62788">
        <ele>483</ele>
        <time>2012-11-07T10:25:16Z</time>
      </trkpt>
      <trkpt lat="45.61321" lon="4.62791">
        <ele>483</ele>
        <time>2012-11-07T10:25:18Z</time>
      </trkpt>
      <trkpt lat="45.61323" lon="4.62793">
        <ele>483</ele>
        <time>2012-11-07T10:25:21Z</time>
      </trkpt>
      <trkpt lat="45.61325" lon="4.62798">
        <ele>483</ele>
        <time>2012-11-07T10:25:24Z</time>
      </trkpt>
      <trkpt lat="45.61326" lon="4.62801">
        <ele>479</ele>
        <time>2012-11-07T10:25:26Z</time>
      </trkpt>
      <trkpt lat="45.61325" lon="4.62804">
        <ele>478</ele>
        <time>2012-11-07T10:25:28Z</time>
      </trkpt>
      <trkpt lat="45.61326" lon="4.62808">
        <ele>479</ele>
        <time>2012-11-07T10:25:30Z</time>
      </trkpt>
      <trkpt lat="45.61328" lon="4.6281">
        <ele>479</ele>
        <time>2012-11-07T10:25:32Z</time>
      </trkpt>
      <trkpt lat="45.61329" lon="4.62813">
        <ele>478</ele>
        <time>2012-11-07T10:25:34Z</time>
      </trkpt>
      <trkpt lat="45.61331" lon="4.62815">
        <ele>478</ele>
        <time>2012-11-07T10:25:36Z</time>
      </trkpt>
      <trkpt lat="45.61334" lon="4.62822">
        <ele>478</ele>
        <time>2012-11-07T10:25:39Z</time>
      </trkpt>
      <trkpt lat="45.61338" lon="4.6283">
        <ele>479</ele>
        <time>2012-11-07T10:25:43Z</time>
      </trkpt>
      <trkpt lat="45.61339" lon="4.62833">
        <ele>479</ele>
        <time>2012-11-07T10:25:46Z</time>
      </trkpt>
      <trkpt lat="45.61339" lon="4.62837">
        <ele>478</ele>
        <time>2012-11-07T10:25:49Z</time>
      </trkpt>
      <trkpt lat="45.61341" lon="4.62841">
        <ele>479</ele>
        <time>2012-11-07T10:25:51Z</time>
      </trkpt>
      <trkpt lat="45.61342" lon="4.62844">
        <ele>479</ele>
        <time>2012-11-07T10:25:52Z</time>
      </trkpt>
      <trkpt lat="45.61344" lon="4.62847">
        <ele>479</ele>
        <time>2012-11-07T10:25:53Z</time>
      </trkpt>
      <trkpt lat="45.61345" lon="4.6285">
        <ele>478</ele>
        <time>2012-11-07T10:25:54Z</time>
      </trkpt>
      <trkpt lat="45.61346" lon="4.62853">
        <ele>479</ele>
        <time>2012-11-07T10:25:55Z</time>
      </trkpt>
      <trkpt lat="45.6135" lon="4.62862">
        <ele>479</ele>
        <time>2012-11-07T10:25:59Z</time>
      </trkpt>
      <trkpt lat="45.61352" lon="4.62865">
        <ele>480</ele>
        <time>2012-11-07T10:26:01Z</time>
      </trkpt>
      <trkpt lat="45.61354" lon="4.62868">
        <ele>480</ele>
        <time>2012-11-07T10:26:03Z</time>
      </trkpt>
      <trkpt lat="45.61356" lon="4.6287">
        <ele>478</ele>
        <time>2012-11-07T10:26:04Z</time>
      </trkpt>
      <trkpt lat="45.61357" lon="4.62871">
        <ele>478</ele>
        <time>2012-11-07T10:26:05Z</time>
      </trkpt>
      <trkpt lat="45.61361" lon="4.62874">
        <ele>478</ele>
        <time>2012-11-07T10:26:07Z</time>
      </trkpt>
      <trkpt lat="45.61364" lon="4.62875">
        <ele>477</ele>
        <time>2012-11-07T10:26:09Z</time>
      </trkpt>
      <trkpt lat="45.61366" lon="4.62875">
        <ele>478</ele>
        <time>2012-11-07T10:26:10Z</time>
      </trkpt>
      <trkpt lat="45.61369" lon="4.62874">
        <ele>477</ele>
        <time>2012-11-07T10:26:11Z</time>
      </trkpt>
      <trkpt lat="45.61371" lon="4.62875">
        <ele>477</ele>
        <time>2012-11-07T10:26:12Z</time>
      </trkpt>
      <trkpt lat="45.61374" lon="4.62874">
        <ele>476</ele>
        <time>2012-11-07T10:26:14Z</time>
      </trkpt>
      <trkpt lat="45.61376" lon="4.62872">
        <ele>476</ele>
        <time>2012-11-07T10:26:16Z</time>
      </trkpt>
      <trkpt lat="45.61379" lon="4.62872">
        <ele>475</ele>
        <time>2012-11-07T10:26:18Z</time>
      </trkpt>
      <trkpt lat="45.61382" lon="4.62872">
        <ele>474</ele>
        <time>2012-11-07T10:26:20Z</time>
      </trkpt>
      <trkpt lat="45.61386" lon="4.62872">
        <ele>474</ele>
        <time>2012-11-07T10:26:22Z</time>
      </trkpt>
      <trkpt lat="45.61389" lon="4.62872">
        <ele>474</ele>
        <time>2012-11-07T10:26:24Z</time>
      </trkpt>
      <trkpt lat="45.61392" lon="4.62873">
        <ele>473</ele>
        <time>2012-11-07T10:26:26Z</time>
      </trkpt>
      <trkpt lat="45.61395" lon="4.62877">
        <ele>474</ele>
        <time>2012-11-07T10:26:28Z</time>
      </trkpt>
      <trkpt lat="45.61396" lon="4.62879">
        <ele>475</ele>
        <time>2012-11-07T10:26:29Z</time>
      </trkpt>
      <trkpt lat="45.61397" lon="4.62881">
        <ele>475</ele>
        <time>2012-11-07T10:26:30Z</time>
      </trkpt>
      <trkpt lat="45.61398" lon="4.62884">
        <ele>475</ele>
        <time>2012-11-07T10:26:31Z</time>
      </trkpt>
      <trkpt lat="45.61399" lon="4.62887">
        <ele>476</ele>
        <time>2012-11-07T10:26:32Z</time>
      </trkpt>
      <trkpt lat="45.61399" lon="4.6289">
        <ele>475</ele>
        <time>2012-11-07T10:26:33Z</time>
      </trkpt>
      <trkpt lat="45.61399" lon="4.62893">
        <ele>475</ele>
        <time>2012-11-07T10:26:34Z</time>
      </trkpt>
      <trkpt lat="45.61399" lon="4.62897">
        <ele>474</ele>
        <time>2012-11-07T10:26:35Z</time>
      </trkpt>
      <trkpt lat="45.614" lon="4.62904">
        <ele>471</ele>
        <time>2012-11-07T10:26:38Z</time>
      </trkpt>
      <trkpt lat="45.61399" lon="4.62909">
        <ele>472</ele>
        <time>2012-11-07T10:26:40Z</time>
      </trkpt>
      <trkpt lat="45.61399" lon="4.62929">
        <ele>473</ele>
        <time>2012-11-07T10:26:49Z</time>
      </trkpt>
      <trkpt lat="45.61399" lon="4.62932">
        <ele>473</ele>
        <time>2012-11-07T10:26:50Z</time>
      </trkpt>
      <trkpt lat="45.61399" lon="4.62936">
        <ele>472</ele>
        <time>2012-11-07T10:26:52Z</time>
      </trkpt>
      <trkpt lat="45.61398" lon="4.6294">
        <ele>472</ele>
        <time>2012-11-07T10:26:54Z</time>
      </trkpt>
      <trkpt lat="45.61398" lon="4.62944">
        <ele>472</ele>
        <time>2012-11-07T10:26:56Z</time>
      </trkpt>
      <trkpt lat="45.61399" lon="4.62948">
        <ele>473</ele>
        <time>2012-11-07T10:26:59Z</time>
      </trkpt>
      <trkpt lat="45.61399" lon="4.62952">
        <ele>472</ele>
        <time>2012-11-07T10:27:02Z</time>
      </trkpt>
      <trkpt lat="45.61398" lon="4.62956">
        <ele>469</ele>
        <time>2012-11-07T10:27:04Z</time>
      </trkpt>
      <trkpt lat="45.61396" lon="4.62962">
        <ele>468</ele>
        <time>2012-11-07T10:27:06Z</time>
      </trkpt>
      <trkpt lat="45.61397" lon="4.62965">
        <ele>468</ele>
        <time>2012-11-07T10:27:07Z</time>
      </trkpt>
      <trkpt lat="45.61397" lon="4.62968">
        <ele>468</ele>
        <time>2012-11-07T10:27:08Z</time>
      </trkpt>
      <trkpt lat="45.61397" lon="4.62971">
        <ele>468</ele>
        <time>2012-11-07T10:27:09Z</time>
      </trkpt>
      <trkpt lat="45.61398" lon="4.62974">
        <ele>469</ele>
        <time>2012-11-07T10:27:10Z</time>
      </trkpt>
      <trkpt lat="45.61399" lon="4.62976">
        <ele>468</ele>
        <time>2012-11-07T10:27:11Z</time>
      </trkpt>
      <trkpt lat="45.61402" lon="4.62983">
        <ele>470</ele>
        <time>2012-11-07T10:27:14Z</time>
      </trkpt>
      <trkpt lat="45.61403" lon="4.62986">
        <ele>470</ele>
        <time>2012-11-07T10:27:16Z</time>
      </trkpt>
      <trkpt lat="45.61403" lon="4.6299">
        <ele>472</ele>
        <time>2012-11-07T10:27:18Z</time>
      </trkpt>
      <trkpt lat="45.61406" lon="4.63008">
        <ele>475</ele>
        <time>2012-11-07T10:27:27Z</time>
      </trkpt>
      <trkpt lat="45.61407" lon="4.63012">
        <ele>476</ele>
        <time>2012-11-07T10:27:29Z</time>
      </trkpt>
      <trkpt lat="45.61408" lon="4.63018">
        <ele>477</ele>
        <time>2012-11-07T10:27:32Z</time>
      </trkpt>
      <trkpt lat="45.61409" lon="4.63022">
        <ele>477</ele>
        <time>2012-11-07T10:27:34Z</time>
      </trkpt>
      <trkpt lat="45.61409" lon="4.63026">
        <ele>478</ele>
        <time>2012-11-07T10:27:36Z</time>
      </trkpt>
      <trkpt lat="45.6141" lon="4.63035">
        <ele>479</ele>
        <time>2012-11-07T10:27:40Z</time>
      </trkpt>
      <trkpt lat="45.61411" lon="4.63039">
        <ele>478</ele>
        <time>2012-11-07T10:27:42Z</time>
      </trkpt>
      <trkpt lat="45.61414" lon="4.63047">
        <ele>478</ele>
        <time>2012-11-07T10:27:47Z</time>
      </trkpt>
      <trkpt lat="45.61415" lon="4.6305">
        <ele>479</ele>
        <time>2012-11-07T10:27:49Z</time>
      </trkpt>
      <trkpt lat="45.61417" lon="4.63053">
        <ele>478</ele>
        <time>2012-11-07T10:27:52Z</time>
      </trkpt>
      <trkpt lat="45.61418" lon="4.63056">
        <ele>478</ele>
        <time>2012-11-07T10:27:54Z</time>
      </trkpt>
      <trkpt lat="45.61419" lon="4.63059">
        <ele>480</ele>
        <time>2012-11-07T10:27:55Z</time>
      </trkpt>
      <trkpt lat="45.61421" lon="4.63064">
        <ele>481</ele>
        <time>2012-11-07T10:27:57Z</time>
      </trkpt>
      <trkpt lat="45.61421" lon="4.63066">
        <ele>480</ele>
        <time>2012-11-07T10:27:58Z</time>
      </trkpt>
      <trkpt lat="45.61422" lon="4.63071">
        <ele>479</ele>
        <time>2012-11-07T10:28:00Z</time>
      </trkpt>
      <trkpt lat="45.61423" lon="4.63076">
        <ele>479</ele>
        <time>2012-11-07T10:28:02Z</time>
      </trkpt>
      <trkpt lat="45.61424" lon="4.6308">
        <ele>479</ele>
        <time>2012-11-07T10:28:03Z</time>
      </trkpt>
      <trkpt lat="45.61426" lon="4.63083">
        <ele>479</ele>
        <time>2012-11-07T10:28:04Z</time>
      </trkpt>
      <trkpt lat="45.61427" lon="4.63086">
        <ele>478</ele>
        <time>2012-11-07T10:28:05Z</time>
      </trkpt>
      <trkpt lat="45.61429" lon="4.63087">
        <ele>477</ele>
        <time>2012-11-07T10:28:06Z</time>
      </trkpt>
      <trkpt lat="45.61432" lon="4.63089">
        <ele>477</ele>
        <time>2012-11-07T10:28:08Z</time>
      </trkpt>
      <trkpt lat="45.61434" lon="4.63091">
        <ele>477</ele>
        <time>2012-11-07T10:28:10Z</time>
      </trkpt>
      <trkpt lat="45.61441" lon="4.63109">
        <ele>474</ele>
        <time>2012-11-07T10:28:18Z</time>
      </trkpt>
      <trkpt lat="45.61446" lon="4.6312">
        <ele>474</ele>
        <time>2012-11-07T10:28:24Z</time>
      </trkpt>
      <trkpt lat="45.61447" lon="4.63123">
        <ele>472</ele>
        <time>2012-11-07T10:28:25Z</time>
      </trkpt>
      <trkpt lat="45.61448" lon="4.63126">
        <ele>472</ele>
        <time>2012-11-07T10:28:26Z</time>
      </trkpt>
      <trkpt lat="45.61452" lon="4.63135">
        <ele>472</ele>
        <time>2012-11-07T10:28:30Z</time>
      </trkpt>
      <trkpt lat="45.61457" lon="4.63143">
        <ele>474</ele>
        <time>2012-11-07T10:28:35Z</time>
      </trkpt>
      <trkpt lat="45.61459" lon="4.63146">
        <ele>474</ele>
        <time>2012-11-07T10:28:37Z</time>
      </trkpt>
      <trkpt lat="45.61463" lon="4.63155">
        <ele>473</ele>
        <time>2012-11-07T10:28:42Z</time>
      </trkpt>
      <trkpt lat="45.61464" lon="4.63157">
        <ele>473</ele>
        <time>2012-11-07T10:28:44Z</time>
      </trkpt>
      <trkpt lat="45.61464" lon="4.63161">
        <ele>473</ele>
        <time>2012-11-07T10:28:46Z</time>
      </trkpt>
      <trkpt lat="45.61465" lon="4.6317">
        <ele>475</ele>
        <time>2012-11-07T10:28:49Z</time>
      </trkpt>
      <trkpt lat="45.61465" lon="4.63173">
        <ele>476</ele>
        <time>2012-11-07T10:28:50Z</time>
      </trkpt>
      <trkpt lat="45.61466" lon="4.63176">
        <ele>475</ele>
        <time>2012-11-07T10:28:51Z</time>
      </trkpt>
      <trkpt lat="45.61466" lon="4.63179">
        <ele>476</ele>
        <time>2012-11-07T10:28:53Z</time>
      </trkpt>
      <trkpt lat="45.61467" lon="4.63181">
        <ele>477</ele>
        <time>2012-11-07T10:28:55Z</time>
      </trkpt>
      <trkpt lat="45.6147" lon="4.63185">
        <ele>476</ele>
        <time>2012-11-07T10:28:59Z</time>
      </trkpt>
      <trkpt lat="45.61472" lon="4.63188">
        <ele>475</ele>
        <time>2012-11-07T10:29:01Z</time>
      </trkpt>
      <trkpt lat="45.61476" lon="4.63195">
        <ele>475</ele>
        <time>2012-11-07T10:29:06Z</time>
      </trkpt>
      <trkpt lat="45.61478" lon="4.63198">
        <ele>475</ele>
        <time>2012-11-07T10:29:08Z</time>
      </trkpt>
      <trkpt lat="45.61485" lon="4.63215">
        <ele>475</ele>
        <time>2012-11-07T10:29:18Z</time>
      </trkpt>
      <trkpt lat="45.61487" lon="4.63218">
        <ele>475</ele>
        <time>2012-11-07T10:29:20Z</time>
      </trkpt>
      <trkpt lat="45.6149" lon="4.63225">
        <ele>477</ele>
        <time>2012-11-07T10:29:24Z</time>
      </trkpt>
      <trkpt lat="45.61491" lon="4.63228">
        <ele>477</ele>
        <time>2012-11-07T10:29:25Z</time>
      </trkpt>
      <trkpt lat="45.61496" lon="4.63237">
        <ele>479</ele>
        <time>2012-11-07T10:29:30Z</time>
      </trkpt>
      <trkpt lat="45.61498" lon="4.6324">
        <ele>478</ele>
        <time>2012-11-07T10:29:32Z</time>
      </trkpt>
      <trkpt lat="45.615" lon="4.63243">
        <ele>477</ele>
        <time>2012-11-07T10:29:34Z</time>
      </trkpt>
      <trkpt lat="45.61504" lon="4.63249">
        <ele>475</ele>
        <time>2012-11-07T10:29:38Z</time>
      </trkpt>
      <trkpt lat="45.61505" lon="4.63253">
        <ele>475</ele>
        <time>2012-11-07T10:29:40Z</time>
      </trkpt>
      <trkpt lat="45.61507" lon="4.63256">
        <ele>474</ele>
        <time>2012-11-07T10:29:42Z</time>
      </trkpt>
      <trkpt lat="45.61509" lon="4.63262">
        <ele>473</ele>
        <time>2012-11-07T10:29:46Z</time>
      </trkpt>
      <trkpt lat="45.6151" lon="4.63265">
        <ele>474</ele>
        <time>2012-11-07T10:29:48Z</time>
      </trkpt>
      <trkpt lat="45.61512" lon="4.63268">
        <ele>472</ele>
        <time>2012-11-07T10:29:50Z</time>
      </trkpt>
      <trkpt lat="45.61515" lon="4.6327">
        <ele>472</ele>
        <time>2012-11-07T10:29:52Z</time>
      </trkpt>
      <trkpt lat="45.61516" lon="4.63272">
        <ele>471</ele>
        <time>2012-11-07T10:29:53Z</time>
      </trkpt>
      <trkpt lat="45.61522" lon="4.63277">
        <ele>470</ele>
        <time>2012-11-07T10:29:57Z</time>
      </trkpt>
      <trkpt lat="45.61525" lon="4.63279">
        <ele>469</ele>
        <time>2012-11-07T10:29:59Z</time>
      </trkpt>
      <trkpt lat="45.61528" lon="4.6328">
        <ele>469</ele>
        <time>2012-11-07T10:30:01Z</time>
      </trkpt>
      <trkpt lat="45.61532" lon="4.63282">
        <ele>470</ele>
        <time>2012-11-07T10:30:04Z</time>
      </trkpt>
      <trkpt lat="45.61537" lon="4.63283">
        <ele>471</ele>
        <time>2012-11-07T10:30:06Z</time>
      </trkpt>
      <trkpt lat="45.61539" lon="4.63284">
        <ele>470</ele>
        <time>2012-11-07T10:30:07Z</time>
      </trkpt>
      <trkpt lat="45.61542" lon="4.63286">
        <ele>470</ele>
        <time>2012-11-07T10:30:08Z</time>
      </trkpt>
      <trkpt lat="45.61544" lon="4.63288">
        <ele>471</ele>
        <time>2012-11-07T10:30:09Z</time>
      </trkpt>
      <trkpt lat="45.61546" lon="4.63289">
        <ele>471</ele>
        <time>2012-11-07T10:30:10Z</time>
      </trkpt>
      <trkpt lat="45.6155" lon="4.63293">
        <ele>471</ele>
        <time>2012-11-07T10:30:11Z</time>
      </trkpt>
      <trkpt lat="45.61556" lon="4.63296">
        <ele>471</ele>
        <time>2012-11-07T10:30:13Z</time>
      </trkpt>
      <trkpt lat="45.61558" lon="4.63297">
        <ele>470</ele>
        <time>2012-11-07T10:30:14Z</time>
      </trkpt>
      <trkpt lat="45.6156" lon="4.63299">
        <ele>472</ele>
        <time>2012-11-07T10:30:16Z</time>
      </trkpt>
      <trkpt lat="45.61562" lon="4.63302">
        <ele>472</ele>
        <time>2012-11-07T10:30:18Z</time>
      </trkpt>
      <trkpt lat="45.61563" lon="4.63305">
        <ele>472</ele>
        <time>2012-11-07T10:30:20Z</time>
      </trkpt>
      <trkpt lat="45.61564" lon="4.63308">
        <ele>472</ele>
        <time>2012-11-07T10:30:22Z</time>
      </trkpt>
      <trkpt lat="45.61564" lon="4.63311">
        <ele>471</ele>
        <time>2012-11-07T10:30:23Z</time>
      </trkpt>
      <trkpt lat="45.61566" lon="4.63321">
        <ele>472</ele>
        <time>2012-11-07T10:30:28Z</time>
      </trkpt>
      <trkpt lat="45.61568" lon="4.63326">
        <ele>472</ele>
        <time>2012-11-07T10:30:30Z</time>
      </trkpt>
      <trkpt lat="45.6157" lon="4.63329">
        <ele>473</ele>
        <time>2012-11-07T10:30:31Z</time>
      </trkpt>
      <trkpt lat="45.61572" lon="4.6333">
        <ele>472</ele>
        <time>2012-11-07T10:30:32Z</time>
      </trkpt>
      <trkpt lat="45.61575" lon="4.63331">
        <ele>471</ele>
        <time>2012-11-07T10:30:33Z</time>
      </trkpt>
      <trkpt lat="45.61576" lon="4.63333">
        <ele>470</ele>
        <time>2012-11-07T10:30:34Z</time>
      </trkpt>
      <trkpt lat="45.61578" lon="4.63334">
        <ele>471</ele>
        <time>2012-11-07T10:30:36Z</time>
      </trkpt>
      <trkpt lat="45.6158" lon="4.63335">
        <ele>471</ele>
        <time>2012-11-07T10:30:38Z</time>
      </trkpt>
      <trkpt lat="45.61582" lon="4.63336">
        <ele>472</ele>
        <time>2012-11-07T10:30:40Z</time>
      </trkpt>
      <trkpt lat="45.61584" lon="4.63338">
        <ele>472</ele>
        <time>2012-11-07T10:30:42Z</time>
      </trkpt>
      <trkpt lat="45.61588" lon="4.63341">
        <ele>473</ele>
        <time>2012-11-07T10:30:46Z</time>
      </trkpt>
      <trkpt lat="45.61591" lon="4.63343">
        <ele>473</ele>
        <time>2012-11-07T10:30:48Z</time>
      </trkpt>
      <trkpt lat="45.61595" lon="4.63345">
        <ele>473</ele>
        <time>2012-11-07T10:30:50Z</time>
      </trkpt>
      <trkpt lat="45.61597" lon="4.63347">
        <ele>472</ele>
        <time>2012-11-07T10:30:51Z</time>
      </trkpt>
      <trkpt lat="45.61599" lon="4.63348">
        <ele>472</ele>
        <time>2012-11-07T10:30:52Z</time>
      </trkpt>
      <trkpt lat="45.616" lon="4.6335">
        <ele>471</ele>
        <time>2012-11-07T10:30:53Z</time>
      </trkpt>
      <trkpt lat="45.61602" lon="4.63352">
        <ele>471</ele>
        <time>2012-11-07T10:30:54Z</time>
      </trkpt>
      <trkpt lat="45.61603" lon="4.63354">
        <ele>471</ele>
        <time>2012-11-07T10:30:55Z</time>
      </trkpt>
      <trkpt lat="45.61608" lon="4.63362">
        <ele>470</ele>
        <time>2012-11-07T10:31:00Z</time>
      </trkpt>
      <trkpt lat="45.6161" lon="4.63365">
        <ele>471</ele>
        <time>2012-11-07T10:31:02Z</time>
      </trkpt>
      <trkpt lat="45.61612" lon="4.63367">
        <ele>473</ele>
        <time>2012-11-07T10:31:03Z</time>
      </trkpt>
      <trkpt lat="45.61614" lon="4.63369">
        <ele>473</ele>
        <time>2012-11-07T10:31:04Z</time>
      </trkpt>
      <trkpt lat="45.61616" lon="4.6337">
        <ele>473</ele>
        <time>2012-11-07T10:31:05Z</time>
      </trkpt>
      <trkpt lat="45.61617" lon="4.63372">
        <ele>473</ele>
        <time>2012-11-07T10:31:06Z</time>
      </trkpt>
      <trkpt lat="45.6162" lon="4.63374">
        <ele>472</ele>
        <time>2012-11-07T10:31:08Z</time>
      </trkpt>
      <trkpt lat="45.61622" lon="4.63377">
        <ele>472</ele>
        <time>2012-11-07T10:31:10Z</time>
      </trkpt>
      <trkpt lat="45.61626" lon="4.63384">
        <ele>472</ele>
        <time>2012-11-07T10:31:15Z</time>
      </trkpt>
      <trkpt lat="45.6163" lon="4.6339">
        <ele>473</ele>
        <time>2012-11-07T10:31:19Z</time>
      </trkpt>
      <trkpt lat="45.61632" lon="4.63393">
        <ele>473</ele>
        <time>2012-11-07T10:31:21Z</time>
      </trkpt>
      <trkpt lat="45.61634" lon="4.63399">
        <ele>475</ele>
        <time>2012-11-07T10:31:24Z</time>
      </trkpt>
      <trkpt lat="45.61637" lon="4.63407">
        <ele>475</ele>
        <time>2012-11-07T10:31:29Z</time>
      </trkpt>
      <trkpt lat="45.61638" lon="4.63412">
        <ele>474</ele>
        <time>2012-11-07T10:31:32Z</time>
      </trkpt>
      <trkpt lat="45.6164" lon="4.63416">
        <ele>473</ele>
        <time>2012-11-07T10:31:37Z</time>
      </trkpt>
      <trkpt lat="45.61641" lon="4.6342">
        <ele>472</ele>
        <time>2012-11-07T10:31:39Z</time>
      </trkpt>
      <trkpt lat="45.61642" lon="4.63423">
        <ele>473</ele>
        <time>2012-11-07T10:31:40Z</time>
      </trkpt>
      <trkpt lat="45.61642" lon="4.63426">
        <ele>473</ele>
        <time>2012-11-07T10:31:41Z</time>
      </trkpt>
      <trkpt lat="45.61646" lon="4.63434">
        <ele>473</ele>
        <time>2012-11-07T10:31:45Z</time>
      </trkpt>
      <trkpt lat="45.61646" lon="4.6344">
        <ele>472</ele>
        <time>2012-11-07T10:31:48Z</time>
      </trkpt>
      <trkpt lat="45.61648" lon="4.63441">
        <ele>471</ele>
        <time>2012-11-07T10:31:50Z</time>
      </trkpt>
      <trkpt lat="45.6165" lon="4.63441">
        <ele>470</ele>
        <time>2012-11-07T10:31:52Z</time>
      </trkpt>
      <trkpt lat="45.61652" lon="4.63444">
        <ele>471</ele>
        <time>2012-11-07T10:31:54Z</time>
      </trkpt>
      <trkpt lat="45.61652" lon="4.63447">
        <ele>471</ele>
        <time>2012-11-07T10:31:56Z</time>
      </trkpt>
      <trkpt lat="45.61651" lon="4.6345">
        <ele>470</ele>
        <time>2012-11-07T10:31:58Z</time>
      </trkpt>
      <trkpt lat="45.61652" lon="4.63452">
        <ele>470</ele>
        <time>2012-11-07T10:32:00Z</time>
      </trkpt>
      <trkpt lat="45.61654" lon="4.63453">
        <ele>471</ele>
        <time>2012-11-07T10:32:02Z</time>
      </trkpt>
      <trkpt lat="45.61656" lon="4.63455">
        <ele>472</ele>
        <time>2012-11-07T10:32:04Z</time>
      </trkpt>
      <trkpt lat="45.61657" lon="4.63458">
        <ele>472</ele>
        <time>2012-11-07T10:32:06Z</time>
      </trkpt>
      <trkpt lat="45.61664" lon="4.63476">
        <ele>474</ele>
        <time>2012-11-07T10:32:16Z</time>
      </trkpt>
      <trkpt lat="45.61666" lon="4.63479">
        <ele>474</ele>
        <time>2012-11-07T10:32:18Z</time>
      </trkpt>
      <trkpt lat="45.61667" lon="4.63483">
        <ele>474</ele>
        <time>2012-11-07T10:32:20Z</time>
      </trkpt>
      <trkpt lat="45.61669" lon="4.63486">
        <ele>474</ele>
        <time>2012-11-07T10:32:22Z</time>
      </trkpt>
      <trkpt lat="45.61671" lon="4.6349">
        <ele>473</ele>
        <time>2012-11-07T10:32:25Z</time>
      </trkpt>
      <trkpt lat="45.61672" lon="4.63494">
        <ele>474</ele>
        <time>2012-11-07T10:32:27Z</time>
      </trkpt>
      <trkpt lat="45.61676" lon="4.63504">
        <ele>474</ele>
        <time>2012-11-07T10:32:32Z</time>
      </trkpt>
      <trkpt lat="45.61676" lon="4.63507">
        <ele>474</ele>
        <time>2012-11-07T10:32:34Z</time>
      </trkpt>
      <trkpt lat="45.61676" lon="4.63509">
        <ele>474</ele>
        <time>2012-11-07T10:32:36Z</time>
      </trkpt>
      <trkpt lat="45.61674" lon="4.63513">
        <ele>474</ele>
        <time>2012-11-07T10:32:38Z</time>
      </trkpt>
      <trkpt lat="45.61673" lon="4.63517">
        <ele>473</ele>
        <time>2012-11-07T10:32:40Z</time>
      </trkpt>
      <trkpt lat="45.61673" lon="4.63521">
        <ele>474</ele>
        <time>2012-11-07T10:32:42Z</time>
      </trkpt>
      <trkpt lat="45.61675" lon="4.63524">
        <ele>474</ele>
        <time>2012-11-07T10:32:44Z</time>
      </trkpt>
      <trkpt lat="45.61678" lon="4.63526">
        <ele>474</ele>
        <time>2012-11-07T10:32:46Z</time>
      </trkpt>
      <trkpt lat="45.61679" lon="4.63527">
        <ele>475</ele>
        <time>2012-11-07T10:32:47Z</time>
      </trkpt>
      <trkpt lat="45.61682" lon="4.6353">
        <ele>475</ele>
        <time>2012-11-07T10:32:49Z</time>
      </trkpt>
      <trkpt lat="45.61684" lon="4.63533">
        <ele>477</ele>
        <time>2012-11-07T10:32:51Z</time>
      </trkpt>
      <trkpt lat="45.61686" lon="4.63537">
        <ele>478</ele>
        <time>2012-11-07T10:32:53Z</time>
      </trkpt>
      <trkpt lat="45.61688" lon="4.6354">
        <ele>478</ele>
        <time>2012-11-07T10:32:55Z</time>
      </trkpt>
      <trkpt lat="45.6169" lon="4.63544">
        <ele>480</ele>
        <time>2012-11-07T10:32:57Z</time>
      </trkpt>
      <trkpt lat="45.61692" lon="4.63547">
        <ele>480</ele>
        <time>2012-11-07T10:32:59Z</time>
      </trkpt>
      <trkpt lat="45.61693" lon="4.6355">
        <ele>481</ele>
        <time>2012-11-07T10:33:01Z</time>
      </trkpt>
      <trkpt lat="45.61695" lon="4.63555">
        <ele>479</ele>
        <time>2012-11-07T10:33:03Z</time>
      </trkpt>
      <trkpt lat="45.61696" lon="4.63557">
        <ele>480</ele>
        <time>2012-11-07T10:33:04Z</time>
      </trkpt>
      <trkpt lat="45.61697" lon="4.63561">
        <ele>482</ele>
        <time>2012-11-07T10:33:06Z</time>
      </trkpt>
      <trkpt lat="45.61698" lon="4.63565">
        <ele>482</ele>
        <time>2012-11-07T10:33:08Z</time>
      </trkpt>
      <trkpt lat="45.61699" lon="4.63568">
        <ele>482</ele>
        <time>2012-11-07T10:33:10Z</time>
      </trkpt>
      <trkpt lat="45.61701" lon="4.63571">
        <ele>482</ele>
        <time>2012-11-07T10:33:12Z</time>
      </trkpt>
      <trkpt lat="45.61702" lon="4.63573">
        <ele>483</ele>
        <time>2012-11-07T10:33:14Z</time>
      </trkpt>
      <trkpt lat="45.61704" lon="4.63575">
        <ele>485</ele>
        <time>2012-11-07T10:33:15Z</time>
      </trkpt>
      <trkpt lat="45.61705" lon="4.63577">
        <ele>486</ele>
        <time>2012-11-07T10:33:16Z</time>
      </trkpt>
      <trkpt lat="45.61708" lon="4.63581">
        <ele>485</ele>
        <time>2012-11-07T10:33:18Z</time>
      </trkpt>
      <trkpt lat="45.6171" lon="4.63584">
        <ele>485</ele>
        <time>2012-11-07T10:33:20Z</time>
      </trkpt>
      <trkpt lat="45.61714" lon="4.6359">
        <ele>487</ele>
        <time>2012-11-07T10:33:25Z</time>
      </trkpt>
      <trkpt lat="45.61716" lon="4.63592">
        <ele>488</ele>
        <time>2012-11-07T10:33:27Z</time>
      </trkpt>
      <trkpt lat="45.61718" lon="4.63597">
        <ele>490</ele>
        <time>2012-11-07T10:33:30Z</time>
      </trkpt>
      <trkpt lat="45.6172" lon="4.636">
        <ele>490</ele>
        <time>2012-11-07T10:33:32Z</time>
      </trkpt>
      <trkpt lat="45.61721" lon="4.63605">
        <ele>488</ele>
        <time>2012-11-07T10:33:35Z</time>
      </trkpt>
      <trkpt lat="45.61719" lon="4.63604">
        <ele>489</ele>
        <time>2012-11-07T10:33:40Z</time>
      </trkpt>
      <trkpt lat="45.6172" lon="4.63608">
        <ele>490</ele>
        <time>2012-11-07T10:33:43Z</time>
      </trkpt>
      <trkpt lat="45.61719" lon="4.63612">
        <ele>493</ele>
        <time>2012-11-07T10:33:45Z</time>
      </trkpt>
      <trkpt lat="45.61719" lon="4.63616">
        <ele>494</ele>
        <time>2012-11-07T10:33:47Z</time>
      </trkpt>
      <trkpt lat="45.61719" lon="4.6362">
        <ele>495</ele>
        <time>2012-11-07T10:33:49Z</time>
      </trkpt>
      <trkpt lat="45.6172" lon="4.63623">
        <ele>495</ele>
        <time>2012-11-07T10:33:51Z</time>
      </trkpt>
      <trkpt lat="45.61723" lon="4.6363">
        <ele>496</ele>
        <time>2012-11-07T10:33:55Z</time>
      </trkpt>
      <trkpt lat="45.61723" lon="4.63634">
        <ele>497</ele>
        <time>2012-11-07T10:33:57Z</time>
      </trkpt>
      <trkpt lat="45.61724" lon="4.63639">
        <ele>496</ele>
        <time>2012-11-07T10:33:59Z</time>
      </trkpt>
      <trkpt lat="45.61726" lon="4.63646">
        <ele>496</ele>
        <time>2012-11-07T10:34:03Z</time>
      </trkpt>
      <trkpt lat="45.61726" lon="4.63649">
        <ele>496</ele>
        <time>2012-11-07T10:34:05Z</time>
      </trkpt>
      <trkpt lat="45.61728" lon="4.63651">
        <ele>498</ele>
        <time>2012-11-07T10:34:10Z</time>
      </trkpt>
      <trkpt lat="45.61731" lon="4.63658">
        <ele>498</ele>
        <time>2012-11-07T10:34:15Z</time>
      </trkpt>
      <trkpt lat="45.61732" lon="4.63661">
        <ele>498</ele>
        <time>2012-11-07T10:34:17Z</time>
      </trkpt>
      <trkpt lat="45.61734" lon="4.63668">
        <ele>498</ele>
        <time>2012-11-07T10:34:20Z</time>
      </trkpt>
      <trkpt lat="45.61734" lon="4.63674">
        <ele>499</ele>
        <time>2012-11-07T10:34:22Z</time>
      </trkpt>
      <trkpt lat="45.61735" lon="4.63676">
        <ele>498</ele>
        <time>2012-11-07T10:34:23Z</time>
      </trkpt>
      <trkpt lat="45.61737" lon="4.63685">
        <ele>498</ele>
        <time>2012-11-07T10:34:27Z</time>
      </trkpt>
      <trkpt lat="45.61739" lon="4.63697">
        <ele>498</ele>
        <time>2012-11-07T10:34:32Z</time>
      </trkpt>
      <trkpt lat="45.61741" lon="4.63709">
        <ele>496</ele>
        <time>2012-11-07T10:34:37Z</time>
      </trkpt>
      <trkpt lat="45.61742" lon="4.63713">
        <ele>496</ele>
        <time>2012-11-07T10:34:39Z</time>
      </trkpt>
      <trkpt lat="45.61744" lon="4.6372">
        <ele>497</ele>
        <time>2012-11-07T10:34:42Z</time>
      </trkpt>
      <trkpt lat="45.61745" lon="4.63723">
        <ele>497</ele>
        <time>2012-11-07T10:34:43Z</time>
      </trkpt>
      <trkpt lat="45.61745" lon="4.63726">
        <ele>498</ele>
        <time>2012-11-07T10:34:44Z</time>
      </trkpt>
      <trkpt lat="45.61745" lon="4.63729">
        <ele>498</ele>
        <time>2012-11-07T10:34:45Z</time>
      </trkpt>
      <trkpt lat="45.61745" lon="4.63732">
        <ele>497</ele>
        <time>2012-11-07T10:34:46Z</time>
      </trkpt>
      <trkpt lat="45.61744" lon="4.63736">
        <ele>497</ele>
        <time>2012-11-07T10:34:47Z</time>
      </trkpt>
      <trkpt lat="45.61744" lon="4.63741">
        <ele>498</ele>
        <time>2012-11-07T10:34:48Z</time>
      </trkpt>
      <trkpt lat="45.61744" lon="4.63745">
        <ele>498</ele>
        <time>2012-11-07T10:34:49Z</time>
      </trkpt>
      <trkpt lat="45.61745" lon="4.63748">
        <ele>497</ele>
        <time>2012-11-07T10:34:50Z</time>
      </trkpt>
      <trkpt lat="45.61745" lon="4.63751">
        <ele>497</ele>
        <time>2012-11-07T10:34:51Z</time>
      </trkpt>
      <trkpt lat="45.61747" lon="4.63754">
        <ele>498</ele>
        <time>2012-11-07T10:34:53Z</time>
      </trkpt>
      <trkpt lat="45.61748" lon="4.63757">
        <ele>497</ele>
        <time>2012-11-07T10:34:56Z</time>
      </trkpt>
      <trkpt lat="45.61749" lon="4.6376">
        <ele>497</ele>
        <time>2012-11-07T10:34:59Z</time>
      </trkpt>
      <trkpt lat="45.61751" lon="4.63763">
        <ele>498</ele>
        <time>2012-11-07T10:35:01Z</time>
      </trkpt>
      <trkpt lat="45.61753" lon="4.63766">
        <ele>497</ele>
        <time>2012-11-07T10:35:03Z</time>
      </trkpt>
      <trkpt lat="45.61754" lon="4.63769">
        <ele>497</ele>
        <time>2012-11-07T10:35:05Z</time>
      </trkpt>
      <trkpt lat="45.61756" lon="4.63774">
        <ele>496</ele>
        <time>2012-11-07T10:35:08Z</time>
      </trkpt>
      <trkpt lat="45.6176" lon="4.63781">
        <ele>494</ele>
        <time>2012-11-07T10:35:13Z</time>
      </trkpt>
      <trkpt lat="45.61761" lon="4.63783">
        <ele>493</ele>
        <time>2012-11-07T10:35:17Z</time>
      </trkpt>
      <trkpt lat="45.61762" lon="4.63785">
        <ele>492</ele>
        <time>2012-11-07T10:35:20Z</time>
      </trkpt>
      <trkpt lat="45.61763" lon="4.63788">
        <ele>492</ele>
        <time>2012-11-07T10:35:22Z</time>
      </trkpt>
      <trkpt lat="45.61762" lon="4.63791">
        <ele>490</ele>
        <time>2012-11-07T10:35:25Z</time>
      </trkpt>
      <trkpt lat="45.61762" lon="4.63791">
        <ele>490</ele>
        <time>2012-11-07T10:35:26Z</time>
      </trkpt>
      <trkpt lat="45.61762" lon="4.63791">
        <ele>490</ele>
        <time>2012-11-07T10:35:48Z</time>
      </trkpt>
      <trkpt lat="45.61768" lon="4.63791">
        <ele>490</ele>
        <time>2012-11-07T10:35:50Z</time>
      </trkpt>
      <trkpt lat="45.6177" lon="4.63791">
        <ele>490</ele>
        <time>2012-11-07T10:35:52Z</time>
      </trkpt>
      <trkpt lat="45.61772" lon="4.63792">
        <ele>491</ele>
        <time>2012-11-07T10:35:54Z</time>
      </trkpt>
      <trkpt lat="45.61775" lon="4.63793">
        <ele>490</ele>
        <time>2012-11-07T10:35:56Z</time>
      </trkpt>
      <trkpt lat="45.61776" lon="4.63796">
        <ele>489</ele>
        <time>2012-11-07T10:35:59Z</time>
      </trkpt>
      <trkpt lat="45.61779" lon="4.63797">
        <ele>489</ele>
        <time>2012-11-07T10:36:01Z</time>
      </trkpt>
      <trkpt lat="45.61782" lon="4.63798">
        <ele>490</ele>
        <time>2012-11-07T10:36:03Z</time>
      </trkpt>
      <trkpt lat="45.61785" lon="4.63799">
        <ele>490</ele>
        <time>2012-11-07T10:36:05Z</time>
      </trkpt>
      <trkpt lat="45.61787" lon="4.638">
        <ele>491</ele>
        <time>2012-11-07T10:36:06Z</time>
      </trkpt>
      <trkpt lat="45.61791" lon="4.638">
        <ele>492</ele>
        <time>2012-11-07T10:36:08Z</time>
      </trkpt>
      <trkpt lat="45.61793" lon="4.63802">
        <ele>491</ele>
        <time>2012-11-07T10:36:10Z</time>
      </trkpt>
      <trkpt lat="45.61796" lon="4.63803">
        <ele>493</ele>
        <time>2012-11-07T10:36:12Z</time>
      </trkpt>
      <trkpt lat="45.61799" lon="4.63804">
        <ele>492</ele>
        <time>2012-11-07T10:36:14Z</time>
      </trkpt>
      <trkpt lat="45.61805" lon="4.63808">
        <ele>490</ele>
        <time>2012-11-07T10:36:18Z</time>
      </trkpt>
      <trkpt lat="45.61808" lon="4.63809">
        <ele>490</ele>
        <time>2012-11-07T10:36:20Z</time>
      </trkpt>
      <trkpt lat="45.61811" lon="4.63809">
        <ele>490</ele>
        <time>2012-11-07T10:36:22Z</time>
      </trkpt>
      <trkpt lat="45.61816" lon="4.63809">
        <ele>489</ele>
        <time>2012-11-07T10:36:26Z</time>
      </trkpt>
      <trkpt lat="45.61818" lon="4.63807">
        <ele>490</ele>
        <time>2012-11-07T10:36:28Z</time>
      </trkpt>
      <trkpt lat="45.61818" lon="4.63804">
        <ele>489</ele>
        <time>2012-11-07T10:36:30Z</time>
      </trkpt>
      <trkpt lat="45.61818" lon="4.63801">
        <ele>489</ele>
        <time>2012-11-07T10:36:31Z</time>
      </trkpt>
      <trkpt lat="45.61818" lon="4.63798">
        <ele>489</ele>
        <time>2012-11-07T10:36:32Z</time>
      </trkpt>
      <trkpt lat="45.61818" lon="4.63796">
        <ele>489</ele>
        <time>2012-11-07T10:36:33Z</time>
      </trkpt>
      <trkpt lat="45.61817" lon="4.63793">
        <ele>489</ele>
        <time>2012-11-07T10:36:34Z</time>
      </trkpt>
      <trkpt lat="45.61817" lon="4.6379">
        <ele>490</ele>
        <time>2012-11-07T10:36:35Z</time>
      </trkpt>
      <trkpt lat="45.61817" lon="4.63787">
        <ele>490</ele>
        <time>2012-11-07T10:36:36Z</time>
      </trkpt>
      <trkpt lat="45.61817" lon="4.63785">
        <ele>490</ele>
        <time>2012-11-07T10:36:37Z</time>
      </trkpt>
      <trkpt lat="45.61817" lon="4.6378">
        <ele>491</ele>
        <time>2012-11-07T10:36:39Z</time>
      </trkpt>
      <trkpt lat="45.61817" lon="4.63776">
        <ele>490</ele>
        <time>2012-11-07T10:36:41Z</time>
      </trkpt>
      <trkpt lat="45.61817" lon="4.63772">
        <ele>490</ele>
        <time>2012-11-07T10:36:43Z</time>
      </trkpt>
      <trkpt lat="45.61817" lon="4.63768">
        <ele>490</ele>
        <time>2012-11-07T10:36:45Z</time>
      </trkpt>
      <trkpt lat="45.61817" lon="4.63764">
        <ele>491</ele>
        <time>2012-11-07T10:36:47Z</time>
      </trkpt>
      <trkpt lat="45.61817" lon="4.6376">
        <ele>491</ele>
        <time>2012-11-07T10:36:49Z</time>
      </trkpt>
      <trkpt lat="45.61817" lon="4.6374">
        <ele>495</ele>
        <time>2012-11-07T10:37:00Z</time>
      </trkpt>
      <trkpt lat="45.61817" lon="4.63732">
        <ele>495</ele>
        <time>2012-11-07T10:37:05Z</time>
      </trkpt>
      <trkpt lat="45.61817" lon="4.63728">
        <ele>495</ele>
        <time>2012-11-07T10:37:08Z</time>
      </trkpt>
      <trkpt lat="45.61818" lon="4.63726">
        <ele>496</ele>
        <time>2012-11-07T10:37:10Z</time>
      </trkpt>
      <trkpt lat="45.61819" lon="4.63722">
        <ele>495</ele>
        <time>2012-11-07T10:37:13Z</time>
      </trkpt>
      <trkpt lat="45.61819" lon="4.63719">
        <ele>496</ele>
        <time>2012-11-07T10:37:15Z</time>
      </trkpt>
      <trkpt lat="45.61819" lon="4.63717">
        <ele>496</ele>
        <time>2012-11-07T10:37:17Z</time>
      </trkpt>
      <trkpt lat="45.61819" lon="4.63713">
        <ele>497</ele>
        <time>2012-11-07T10:37:19Z</time>
      </trkpt>
      <trkpt lat="45.61819" lon="4.6371">
        <ele>497</ele>
        <time>2012-11-07T10:37:21Z</time>
      </trkpt>
      <trkpt lat="45.6182" lon="4.63707">
        <ele>497</ele>
        <time>2012-11-07T10:37:24Z</time>
      </trkpt>
      <trkpt lat="45.6182" lon="4.63704">
        <ele>497</ele>
        <time>2012-11-07T10:37:27Z</time>
      </trkpt>
      <trkpt lat="45.6182" lon="4.63702">
        <ele>496</ele>
        <time>2012-11-07T10:37:29Z</time>
      </trkpt>
      <trkpt lat="45.61821" lon="4.63698">
        <ele>496</ele>
        <time>2012-11-07T10:37:32Z</time>
      </trkpt>
      <trkpt lat="45.61822" lon="4.63691">
        <ele>496</ele>
        <time>2012-11-07T10:37:38Z</time>
      </trkpt>
      <trkpt lat="45.61823" lon="4.63689">
        <ele>496</ele>
        <time>2012-11-07T10:37:41Z</time>
      </trkpt>
      <trkpt lat="45.61828" lon="4.63689">
        <ele>494</ele>
        <time>2012-11-07T10:37:45Z</time>
      </trkpt>
      <trkpt lat="45.6183" lon="4.6369">
        <ele>495</ele>
        <time>2012-11-07T10:37:47Z</time>
      </trkpt>
      <trkpt lat="45.61834" lon="4.63688">
        <ele>496</ele>
        <time>2012-11-07T10:37:50Z</time>
      </trkpt>
      <trkpt lat="45.61837" lon="4.63684">
        <ele>498</ele>
        <time>2012-11-07T10:37:53Z</time>
      </trkpt>
      <trkpt lat="45.61839" lon="4.63682">
        <ele>500</ele>
        <time>2012-11-07T10:37:55Z</time>
      </trkpt>
      <trkpt lat="45.61839" lon="4.63677">
        <ele>501</ele>
        <time>2012-11-07T10:38:00Z</time>
      </trkpt>
      <trkpt lat="45.61841" lon="4.63675">
        <ele>500</ele>
        <time>2012-11-07T10:38:03Z</time>
      </trkpt>
      <trkpt lat="45.61843" lon="4.63673">
        <ele>501</ele>
        <time>2012-11-07T10:38:05Z</time>
      </trkpt>
      <trkpt lat="45.61845" lon="4.6367">
        <ele>502</ele>
        <time>2012-11-07T10:38:08Z</time>
      </trkpt>
      <trkpt lat="45.61847" lon="4.63668">
        <ele>502</ele>
        <time>2012-11-07T10:38:10Z</time>
      </trkpt>
      <trkpt lat="45.61854" lon="4.6367">
        <ele>500</ele>
        <time>2012-11-07T10:38:15Z</time>
      </trkpt>
      <trkpt lat="45.61857" lon="4.63673">
        <ele>498</ele>
        <time>2012-11-07T10:38:17Z</time>
      </trkpt>
      <trkpt lat="45.61859" lon="4.63674">
        <ele>498</ele>
        <time>2012-11-07T10:38:19Z</time>
      </trkpt>
      <trkpt lat="45.61859" lon="4.63676">
        <ele>498</ele>
        <time>2012-11-07T10:38:30Z</time>
      </trkpt>
      <trkpt lat="45.61862" lon="4.63676">
        <ele>501</ele>
        <time>2012-11-07T10:38:34Z</time>
      </trkpt>
      <trkpt lat="45.61864" lon="4.63677">
        <ele>503</ele>
        <time>2012-11-07T10:38:36Z</time>
      </trkpt>
      <trkpt lat="45.61867" lon="4.63679">
        <ele>503</ele>
        <time>2012-11-07T10:38:38Z</time>
      </trkpt>
      <trkpt lat="45.61869" lon="4.6368">
        <ele>502</ele>
        <time>2012-11-07T10:38:40Z</time>
      </trkpt>
      <trkpt lat="45.61871" lon="4.63682">
        <ele>502</ele>
        <time>2012-11-07T10:38:42Z</time>
      </trkpt>
      <trkpt lat="45.61873" lon="4.63684">
        <ele>502</ele>
        <time>2012-11-07T10:38:44Z</time>
      </trkpt>
      <trkpt lat="45.61875" lon="4.63687">
        <ele>501</ele>
        <time>2012-11-07T10:38:46Z</time>
      </trkpt>
      <trkpt lat="45.61877" lon="4.63688">
        <ele>500</ele>
        <time>2012-11-07T10:38:48Z</time>
      </trkpt>
      <trkpt lat="45.61881" lon="4.63688">
        <ele>500</ele>
        <time>2012-11-07T10:38:52Z</time>
      </trkpt>
      <trkpt lat="45.61883" lon="4.63688">
        <ele>502</ele>
        <time>2012-11-07T10:38:55Z</time>
      </trkpt>
      <trkpt lat="45.61884" lon="4.63691">
        <ele>501</ele>
        <time>2012-11-07T10:38:56Z</time>
      </trkpt>
      <trkpt lat="45.61885" lon="4.63694">
        <ele>498</ele>
        <time>2012-11-07T10:38:58Z</time>
      </trkpt>
      <trkpt lat="45.61886" lon="4.63696">
        <ele>499</ele>
        <time>2012-11-07T10:39:01Z</time>
      </trkpt>
      <trkpt lat="45.61889" lon="4.637">
        <ele>497</ele>
        <time>2012-11-07T10:39:04Z</time>
      </trkpt>
      <trkpt lat="45.61892" lon="4.63703">
        <ele>496</ele>
        <time>2012-11-07T10:39:06Z</time>
      </trkpt>
      <trkpt lat="45.61895" lon="4.63704">
        <ele>496</ele>
        <time>2012-11-07T10:39:08Z</time>
      </trkpt>
      <trkpt lat="45.61896" lon="4.63708">
        <ele>496</ele>
        <time>2012-11-07T10:39:10Z</time>
      </trkpt>
      <trkpt lat="45.61896" lon="4.63711">
        <ele>497</ele>
        <time>2012-11-07T10:39:11Z</time>
      </trkpt>
      <trkpt lat="45.61898" lon="4.63713">
        <ele>499</ele>
        <time>2012-11-07T10:39:15Z</time>
      </trkpt>
      <trkpt lat="45.619" lon="4.63713">
        <ele>499</ele>
        <time>2012-11-07T10:39:17Z</time>
      </trkpt>
      <trkpt lat="45.61903" lon="4.63714">
        <ele>499</ele>
        <time>2012-11-07T10:39:19Z</time>
      </trkpt>
      <trkpt lat="45.61904" lon="4.63715">
        <ele>498</ele>
        <time>2012-11-07T10:39:21Z</time>
      </trkpt>
      <trkpt lat="45.61907" lon="4.63719">
        <ele>501</ele>
        <time>2012-11-07T10:39:24Z</time>
      </trkpt>
      <trkpt lat="45.6191" lon="4.63722">
        <ele>502</ele>
        <time>2012-11-07T10:39:26Z</time>
      </trkpt>
      <trkpt lat="45.61912" lon="4.63724">
        <ele>503</ele>
        <time>2012-11-07T10:39:27Z</time>
      </trkpt>
      <trkpt lat="45.61915" lon="4.63726">
        <ele>503</ele>
        <time>2012-11-07T10:39:28Z</time>
      </trkpt>
      <trkpt lat="45.61917" lon="4.63728">
        <ele>503</ele>
        <time>2012-11-07T10:39:29Z</time>
      </trkpt>
      <trkpt lat="45.61919" lon="4.63729">
        <ele>505</ele>
        <time>2012-11-07T10:39:30Z</time>
      </trkpt>
      <trkpt lat="45.61922" lon="4.6373">
        <ele>505</ele>
        <time>2012-11-07T10:39:32Z</time>
      </trkpt>
      <trkpt lat="45.61926" lon="4.63734">
        <ele>505</ele>
        <time>2012-11-07T10:39:35Z</time>
      </trkpt>
      <trkpt lat="45.61927" lon="4.63737">
        <ele>505</ele>
        <time>2012-11-07T10:39:37Z</time>
      </trkpt>
      <trkpt lat="45.61928" lon="4.63741">
        <ele>502</ele>
        <time>2012-11-07T10:39:39Z</time>
      </trkpt>
      <trkpt lat="45.61928" lon="4.63744">
        <ele>501</ele>
        <time>2012-11-07T10:39:41Z</time>
      </trkpt>
      <trkpt lat="45.61929" lon="4.63747">
        <ele>502</ele>
        <time>2012-11-07T10:39:43Z</time>
      </trkpt>
      <trkpt lat="45.6193" lon="4.6375">
        <ele>504</ele>
        <time>2012-11-07T10:39:46Z</time>
      </trkpt>
      <trkpt lat="45.61933" lon="4.63751">
        <ele>503</ele>
        <time>2012-11-07T10:39:48Z</time>
      </trkpt>
      <trkpt lat="45.61936" lon="4.63752">
        <ele>504</ele>
        <time>2012-11-07T10:39:50Z</time>
      </trkpt>
      <trkpt lat="45.61939" lon="4.63754">
        <ele>504</ele>
        <time>2012-11-07T10:39:52Z</time>
      </trkpt>
      <trkpt lat="45.61942" lon="4.63755">
        <ele>504</ele>
        <time>2012-11-07T10:39:54Z</time>
      </trkpt>
      <trkpt lat="45.61944" lon="4.63757">
        <ele>506</ele>
        <time>2012-11-07T10:39:56Z</time>
      </trkpt>
      <trkpt lat="45.61946" lon="4.63759">
        <ele>507</ele>
        <time>2012-11-07T10:39:58Z</time>
      </trkpt>
      <trkpt lat="45.61948" lon="4.63763">
        <ele>507</ele>
        <time>2012-11-07T10:40:01Z</time>
      </trkpt>
      <trkpt lat="45.61951" lon="4.63766">
        <ele>508</ele>
        <time>2012-11-07T10:40:03Z</time>
      </trkpt>
      <trkpt lat="45.61953" lon="4.63768">
        <ele>508</ele>
        <time>2012-11-07T10:40:04Z</time>
      </trkpt>
      <trkpt lat="45.61956" lon="4.63771">
        <ele>506</ele>
        <time>2012-11-07T10:40:06Z</time>
      </trkpt>
      <trkpt lat="45.61957" lon="4.63772">
        <ele>506</ele>
        <time>2012-11-07T10:40:07Z</time>
      </trkpt>
      <trkpt lat="45.61961" lon="4.63775">
        <ele>507</ele>
        <time>2012-11-07T10:40:09Z</time>
      </trkpt>
      <trkpt lat="45.61962" lon="4.63776">
        <ele>508</ele>
        <time>2012-11-07T10:40:10Z</time>
      </trkpt>
      <trkpt lat="45.61967" lon="4.63778">
        <ele>507</ele>
        <time>2012-11-07T10:40:12Z</time>
      </trkpt>
      <trkpt lat="45.61969" lon="4.63779">
        <ele>507</ele>
        <time>2012-11-07T10:40:13Z</time>
      </trkpt>
      <trkpt lat="45.61971" lon="4.6378">
        <ele>508</ele>
        <time>2012-11-07T10:40:14Z</time>
      </trkpt>
      <trkpt lat="45.61973" lon="4.63781">
        <ele>508</ele>
        <time>2012-11-07T10:40:15Z</time>
      </trkpt>
      <trkpt lat="45.61975" lon="4.63783">
        <ele>509</ele>
        <time>2012-11-07T10:40:16Z</time>
      </trkpt>
      <trkpt lat="45.61981" lon="4.63788">
        <ele>508</ele>
        <time>2012-11-07T10:40:20Z</time>
      </trkpt>
      <trkpt lat="45.61984" lon="4.6379">
        <ele>510</ele>
        <time>2012-11-07T10:40:22Z</time>
      </trkpt>
      <trkpt lat="45.61987" lon="4.63791">
        <ele>511</ele>
        <time>2012-11-07T10:40:24Z</time>
      </trkpt>
      <trkpt lat="45.6199" lon="4.63794">
        <ele>511</ele>
        <time>2012-11-07T10:40:26Z</time>
      </trkpt>
      <trkpt lat="45.61991" lon="4.63795">
        <ele>511</ele>
        <time>2012-11-07T10:40:27Z</time>
      </trkpt>
      <trkpt lat="45.61994" lon="4.63797">
        <ele>509</ele>
        <time>2012-11-07T10:40:29Z</time>
      </trkpt>
      <trkpt lat="45.61996" lon="4.63798">
        <ele>510</ele>
        <time>2012-11-07T10:40:30Z</time>
      </trkpt>
      <trkpt lat="45.62002" lon="4.63803">
        <ele>512</ele>
        <time>2012-11-07T10:40:34Z</time>
      </trkpt>
      <trkpt lat="45.62003" lon="4.63806">
        <ele>512</ele>
        <time>2012-11-07T10:40:36Z</time>
      </trkpt>
      <trkpt lat="45.62009" lon="4.63813">
        <ele>513</ele>
        <time>2012-11-07T10:40:41Z</time>
      </trkpt>
      <trkpt lat="45.6201" lon="4.63815">
        <ele>513</ele>
        <time>2012-11-07T10:40:42Z</time>
      </trkpt>
      <trkpt lat="45.62012" lon="4.63818">
        <ele>512</ele>
        <time>2012-11-07T10:40:44Z</time>
      </trkpt>
      <trkpt lat="45.62017" lon="4.63826">
        <ele>513</ele>
        <time>2012-11-07T10:40:49Z</time>
      </trkpt>
      <trkpt lat="45.62019" lon="4.63827">
        <ele>513</ele>
        <time>2012-11-07T10:40:52Z</time>
      </trkpt>
      <trkpt lat="45.62022" lon="4.63828">
        <ele>513</ele>
        <time>2012-11-07T10:40:54Z</time>
      </trkpt>
      <trkpt lat="45.62024" lon="4.63831">
        <ele>513</ele>
        <time>2012-11-07T10:40:56Z</time>
      </trkpt>
      <trkpt lat="45.62027" lon="4.63834">
        <ele>514</ele>
        <time>2012-11-07T10:40:58Z</time>
      </trkpt>
      <trkpt lat="45.62029" lon="4.63838">
        <ele>514</ele>
        <time>2012-11-07T10:41:00Z</time>
      </trkpt>
      <trkpt lat="45.62032" lon="4.63841">
        <ele>514</ele>
        <time>2012-11-07T10:41:02Z</time>
      </trkpt>
      <trkpt lat="45.62035" lon="4.63844">
        <ele>515</ele>
        <time>2012-11-07T10:41:04Z</time>
      </trkpt>
      <trkpt lat="45.62037" lon="4.63846">
        <ele>515</ele>
        <time>2012-11-07T10:41:06Z</time>
      </trkpt>
      <trkpt lat="45.6204" lon="4.63848">
        <ele>514</ele>
        <time>2012-11-07T10:41:08Z</time>
      </trkpt>
      <trkpt lat="45.62042" lon="4.6385">
        <ele>515</ele>
        <time>2012-11-07T10:41:10Z</time>
      </trkpt>
      <trkpt lat="45.62043" lon="4.63854">
        <ele>515</ele>
        <time>2012-11-07T10:41:12Z</time>
      </trkpt>
      <trkpt lat="45.62044" lon="4.63857">
        <ele>514</ele>
        <time>2012-11-07T10:41:14Z</time>
      </trkpt>
      <trkpt lat="45.62045" lon="4.6386">
        <ele>514</ele>
        <time>2012-11-07T10:41:16Z</time>
      </trkpt>
      <trkpt lat="45.62047" lon="4.63863">
        <ele>515</ele>
        <time>2012-11-07T10:41:18Z</time>
      </trkpt>
      <trkpt lat="45.62049" lon="4.63865">
        <ele>515</ele>
        <time>2012-11-07T10:41:20Z</time>
      </trkpt>
      <trkpt lat="45.62052" lon="4.6387">
        <ele>515</ele>
        <time>2012-11-07T10:41:23Z</time>
      </trkpt>
      <trkpt lat="45.62055" lon="4.63872">
        <ele>516</ele>
        <time>2012-11-07T10:41:25Z</time>
      </trkpt>
      <trkpt lat="45.62056" lon="4.63874">
        <ele>517</ele>
        <time>2012-11-07T10:41:26Z</time>
      </trkpt>
      <trkpt lat="45.62059" lon="4.63878">
        <ele>517</ele>
        <time>2012-11-07T10:41:28Z</time>
      </trkpt>
      <trkpt lat="45.62061" lon="4.6388">
        <ele>516</ele>
        <time>2012-11-07T10:41:29Z</time>
      </trkpt>
      <trkpt lat="45.62063" lon="4.63883">
        <ele>516</ele>
        <time>2012-11-07T10:41:31Z</time>
      </trkpt>
      <trkpt lat="45.62064" lon="4.63886">
        <ele>517</ele>
        <time>2012-11-07T10:41:33Z</time>
      </trkpt>
      <trkpt lat="45.62066" lon="4.63889">
        <ele>517</ele>
        <time>2012-11-07T10:41:35Z</time>
      </trkpt>
      <trkpt lat="45.62067" lon="4.63892">
        <ele>516</ele>
        <time>2012-11-07T10:41:37Z</time>
      </trkpt>
      <trkpt lat="45.62069" lon="4.63894">
        <ele>516</ele>
        <time>2012-11-07T10:41:39Z</time>
      </trkpt>
      <trkpt lat="45.62075" lon="4.63901">
        <ele>517</ele>
        <time>2012-11-07T10:41:44Z</time>
      </trkpt>
      <trkpt lat="45.62077" lon="4.63904">
        <ele>517</ele>
        <time>2012-11-07T10:41:46Z</time>
      </trkpt>
      <trkpt lat="45.62079" lon="4.63907">
        <ele>518</ele>
        <time>2012-11-07T10:41:48Z</time>
      </trkpt>
      <trkpt lat="45.6208" lon="4.63909">
        <ele>517</ele>
        <time>2012-11-07T10:41:50Z</time>
      </trkpt>
      <trkpt lat="45.62081" lon="4.63912">
        <ele>517</ele>
        <time>2012-11-07T10:41:52Z</time>
      </trkpt>
      <trkpt lat="45.62082" lon="4.6392">
        <ele>516</ele>
        <time>2012-11-07T10:41:55Z</time>
      </trkpt>
      <trkpt lat="45.62083" lon="4.63927">
        <ele>515</ele>
        <time>2012-11-07T10:41:58Z</time>
      </trkpt>
      <trkpt lat="45.62082" lon="4.63931">
        <ele>515</ele>
        <time>2012-11-07T10:42:00Z</time>
      </trkpt>
      <trkpt lat="45.6208" lon="4.63934">
        <ele>515</ele>
        <time>2012-11-07T10:42:02Z</time>
      </trkpt>
      <trkpt lat="45.62078" lon="4.63938">
        <ele>515</ele>
        <time>2012-11-07T10:42:04Z</time>
      </trkpt>
      <trkpt lat="45.62078" lon="4.63942">
        <ele>516</ele>
        <time>2012-11-07T10:42:05Z</time>
      </trkpt>
      <trkpt lat="45.62078" lon="4.63945">
        <ele>515</ele>
        <time>2012-11-07T10:42:06Z</time>
      </trkpt>
      <trkpt lat="45.62079" lon="4.63949">
        <ele>516</ele>
        <time>2012-11-07T10:42:07Z</time>
      </trkpt>
      <trkpt lat="45.6208" lon="4.63952">
        <ele>516</ele>
        <time>2012-11-07T10:42:08Z</time>
      </trkpt>
      <trkpt lat="45.62081" lon="4.63955">
        <ele>516</ele>
        <time>2012-11-07T10:42:09Z</time>
      </trkpt>
      <trkpt lat="45.62082" lon="4.63958">
        <ele>517</ele>
        <time>2012-11-07T10:42:10Z</time>
      </trkpt>
      <trkpt lat="45.62084" lon="4.6396">
        <ele>517</ele>
        <time>2012-11-07T10:42:11Z</time>
      </trkpt>
      <trkpt lat="45.62086" lon="4.63964">
        <ele>516</ele>
        <time>2012-11-07T10:42:13Z</time>
      </trkpt>
      <trkpt lat="45.62087" lon="4.63966">
        <ele>515</ele>
        <time>2012-11-07T10:42:14Z</time>
      </trkpt>
      <trkpt lat="45.6209" lon="4.63971">
        <ele>513</ele>
        <time>2012-11-07T10:42:17Z</time>
      </trkpt>
      <trkpt lat="45.62092" lon="4.63974">
        <ele>512</ele>
        <time>2012-11-07T10:42:19Z</time>
      </trkpt>
      <trkpt lat="45.62094" lon="4.63975">
        <ele>509</ele>
        <time>2012-11-07T10:42:21Z</time>
      </trkpt>
      <trkpt lat="45.62097" lon="4.63973">
        <ele>510</ele>
        <time>2012-11-07T10:42:23Z</time>
      </trkpt>
      <trkpt lat="45.621" lon="4.63972">
        <ele>511</ele>
        <time>2012-11-07T10:42:25Z</time>
      </trkpt>
      <trkpt lat="45.62102" lon="4.63973">
        <ele>510</ele>
        <time>2012-11-07T10:42:27Z</time>
      </trkpt>
      <trkpt lat="45.62104" lon="4.63974">
        <ele>509</ele>
        <time>2012-11-07T10:42:29Z</time>
      </trkpt>
      <trkpt lat="45.62107" lon="4.63978">
        <ele>510</ele>
        <time>2012-11-07T10:42:31Z</time>
      </trkpt>
      <trkpt lat="45.6211" lon="4.63979">
        <ele>509</ele>
        <time>2012-11-07T10:42:32Z</time>
      </trkpt>
      <trkpt lat="45.62112" lon="4.63979">
        <ele>509</ele>
        <time>2012-11-07T10:42:33Z</time>
      </trkpt>
      <trkpt lat="45.62114" lon="4.6398">
        <ele>510</ele>
        <time>2012-11-07T10:42:34Z</time>
      </trkpt>
      <trkpt lat="45.62117" lon="4.6398">
        <ele>509</ele>
        <time>2012-11-07T10:42:35Z</time>
      </trkpt>
      <trkpt lat="45.6212" lon="4.63981">
        <ele>520</ele>
        <time>2012-11-07T10:42:37Z</time>
      </trkpt>
      <trkpt lat="45.62125" lon="4.63982">
        <ele>521</ele>
        <time>2012-11-07T10:42:39Z</time>
      </trkpt>
      <trkpt lat="45.62127" lon="4.63981">
        <ele>516</ele>
        <time>2012-11-07T10:42:41Z</time>
      </trkpt>
      <trkpt lat="45.62133" lon="4.63983">
        <ele>511</ele>
        <time>2012-11-07T10:42:44Z</time>
      </trkpt>
      <trkpt lat="45.62135" lon="4.63984">
        <ele>511</ele>
        <time>2012-11-07T10:42:45Z</time>
      </trkpt>
      <trkpt lat="45.62135" lon="4.63984">
        <ele>494.5</ele>
        <time>2012-11-07T10:42:45Z</time>
      </trkpt>
      <trkpt lat="45.62135" lon="4.63984">
        <ele>494.5</ele>
        <time>2012-11-07T10:42:46Z</time>
      </trkpt>
    </trkseg>
  </trk>
</gpx>